<?xml version="1.0" encoding="UTF-8" standalone="no" ?>
<gpx xmlns="http://www.topografix.com/GPX/1/1" xmlns:xsi="http://www.w3.org/2001/XMLSchema-instance" xsi:schemaLocation="http://www.topografix.com/GPX/1/1 http://www.topografix.com/GPX/1/1/gpx.xsd" version="1.1" creator="VisuGPX - https://www.visugpx.com">
  <metadata>
    <name>NE-SO-Pirmil Thouaré Mauves Oudon Nantes</name>
    <desc><![CDATA[NE-SO-Pirmil Thouaré Mauves Oudon Nantes]]></desc>
  </metadata>
  <trk>
    <name><![CDATA[2021-07-19 16:53 +02:00]]></name>
    <trkseg>
      <trkpt lat="47.16773" lon="-1.62647">
        <ele>70</ele>
        <time>2021-07-19T14:53:56.000Z</time>
      </trkpt>
      <trkpt lat="47.16782" lon="-1.62657">
        <ele>76</ele>
        <time>2021-07-19T14:57:59.000Z</time>
      </trkpt>
      <trkpt lat="47.16791" lon="-1.62644">
        <ele>75</ele>
        <time>2021-07-19T14:58:02.000Z</time>
      </trkpt>
      <trkpt lat="47.16799" lon="-1.62632">
        <ele>75</ele>
        <time>2021-07-19T14:58:04.000Z</time>
      </trkpt>
      <trkpt lat="47.16808" lon="-1.62619">
        <ele>74</ele>
        <time>2021-07-19T14:58:06.000Z</time>
      </trkpt>
      <trkpt lat="47.16816" lon="-1.62605">
        <ele>74</ele>
        <time>2021-07-19T14:58:08.000Z</time>
      </trkpt>
      <trkpt lat="47.16824" lon="-1.62592">
        <ele>74</ele>
        <time>2021-07-19T14:58:10.000Z</time>
      </trkpt>
      <trkpt lat="47.16827" lon="-1.62576">
        <ele>72</ele>
        <time>2021-07-19T14:58:12.000Z</time>
      </trkpt>
      <trkpt lat="47.16821" lon="-1.62562">
        <ele>72</ele>
        <time>2021-07-19T14:58:14.000Z</time>
      </trkpt>
      <trkpt lat="47.16812" lon="-1.62552">
        <ele>72</ele>
        <time>2021-07-19T14:58:16.000Z</time>
      </trkpt>
      <trkpt lat="47.16802" lon="-1.62545">
        <ele>73</ele>
        <time>2021-07-19T14:58:18.000Z</time>
      </trkpt>
      <trkpt lat="47.1679" lon="-1.62537">
        <ele>73</ele>
        <time>2021-07-19T14:58:20.000Z</time>
      </trkpt>
      <trkpt lat="47.16779" lon="-1.62529">
        <ele>72</ele>
        <time>2021-07-19T14:58:22.000Z</time>
      </trkpt>
      <trkpt lat="47.16767" lon="-1.62522">
        <ele>73</ele>
        <time>2021-07-19T14:58:24.000Z</time>
      </trkpt>
      <trkpt lat="47.16755" lon="-1.62516">
        <ele>73</ele>
        <time>2021-07-19T14:58:26.000Z</time>
      </trkpt>
      <trkpt lat="47.16743" lon="-1.6251">
        <ele>73</ele>
        <time>2021-07-19T14:58:28.000Z</time>
      </trkpt>
      <trkpt lat="47.16732" lon="-1.62504">
        <ele>72</ele>
        <time>2021-07-19T14:58:30.000Z</time>
      </trkpt>
      <trkpt lat="47.16721" lon="-1.625">
        <ele>72</ele>
        <time>2021-07-19T14:58:32.000Z</time>
      </trkpt>
      <trkpt lat="47.16711" lon="-1.62492">
        <ele>72</ele>
        <time>2021-07-19T14:58:37.000Z</time>
      </trkpt>
      <trkpt lat="47.1671" lon="-1.62478">
        <ele>72</ele>
        <time>2021-07-19T14:58:39.000Z</time>
      </trkpt>
      <trkpt lat="47.16711" lon="-1.62463">
        <ele>73</ele>
        <time>2021-07-19T14:58:41.000Z</time>
      </trkpt>
      <trkpt lat="47.16713" lon="-1.6245">
        <ele>73</ele>
        <time>2021-07-19T14:58:43.000Z</time>
      </trkpt>
      <trkpt lat="47.16713" lon="-1.62435">
        <ele>74</ele>
        <time>2021-07-19T14:58:49.000Z</time>
      </trkpt>
      <trkpt lat="47.16717" lon="-1.62422">
        <ele>74</ele>
        <time>2021-07-19T14:58:51.000Z</time>
      </trkpt>
      <trkpt lat="47.16724" lon="-1.62406">
        <ele>74</ele>
        <time>2021-07-19T14:58:53.000Z</time>
      </trkpt>
      <trkpt lat="47.16728" lon="-1.6239">
        <ele>74</ele>
        <time>2021-07-19T14:58:55.000Z</time>
      </trkpt>
      <trkpt lat="47.16734" lon="-1.62374">
        <ele>74</ele>
        <time>2021-07-19T14:58:57.000Z</time>
      </trkpt>
      <trkpt lat="47.16742" lon="-1.62361">
        <ele>74</ele>
        <time>2021-07-19T14:58:59.000Z</time>
      </trkpt>
      <trkpt lat="47.16753" lon="-1.62349">
        <ele>73</ele>
        <time>2021-07-19T14:59:01.000Z</time>
      </trkpt>
      <trkpt lat="47.16764" lon="-1.62341">
        <ele>73</ele>
        <time>2021-07-19T14:59:03.000Z</time>
      </trkpt>
      <trkpt lat="47.16775" lon="-1.62335">
        <ele>73</ele>
        <time>2021-07-19T14:59:05.000Z</time>
      </trkpt>
      <trkpt lat="47.16787" lon="-1.62329">
        <ele>74</ele>
        <time>2021-07-19T14:59:07.000Z</time>
      </trkpt>
      <trkpt lat="47.16798" lon="-1.62324">
        <ele>74</ele>
        <time>2021-07-19T14:59:09.000Z</time>
      </trkpt>
      <trkpt lat="47.16809" lon="-1.62317">
        <ele>75</ele>
        <time>2021-07-19T14:59:11.000Z</time>
      </trkpt>
      <trkpt lat="47.16819" lon="-1.62308">
        <ele>75</ele>
        <time>2021-07-19T14:59:13.000Z</time>
      </trkpt>
      <trkpt lat="47.16829" lon="-1.62299">
        <ele>75</ele>
        <time>2021-07-19T14:59:15.000Z</time>
      </trkpt>
      <trkpt lat="47.16839" lon="-1.62289">
        <ele>74</ele>
        <time>2021-07-19T14:59:17.000Z</time>
      </trkpt>
      <trkpt lat="47.16848" lon="-1.62277">
        <ele>74</ele>
        <time>2021-07-19T14:59:19.000Z</time>
      </trkpt>
      <trkpt lat="47.16857" lon="-1.62266">
        <ele>73</ele>
        <time>2021-07-19T14:59:21.000Z</time>
      </trkpt>
      <trkpt lat="47.16866" lon="-1.62254">
        <ele>73</ele>
        <time>2021-07-19T14:59:23.000Z</time>
      </trkpt>
      <trkpt lat="47.16875" lon="-1.62243">
        <ele>73</ele>
        <time>2021-07-19T14:59:25.000Z</time>
      </trkpt>
      <trkpt lat="47.16884" lon="-1.62232">
        <ele>73</ele>
        <time>2021-07-19T14:59:27.000Z</time>
      </trkpt>
      <trkpt lat="47.16892" lon="-1.6222">
        <ele>73</ele>
        <time>2021-07-19T14:59:29.000Z</time>
      </trkpt>
      <trkpt lat="47.169" lon="-1.62208">
        <ele>73</ele>
        <time>2021-07-19T14:59:31.000Z</time>
      </trkpt>
      <trkpt lat="47.16908" lon="-1.62195">
        <ele>73</ele>
        <time>2021-07-19T14:59:33.000Z</time>
      </trkpt>
      <trkpt lat="47.16916" lon="-1.62183">
        <ele>73</ele>
        <time>2021-07-19T14:59:35.000Z</time>
      </trkpt>
      <trkpt lat="47.16923" lon="-1.62169">
        <ele>74</ele>
        <time>2021-07-19T14:59:37.000Z</time>
      </trkpt>
      <trkpt lat="47.1693" lon="-1.62155">
        <ele>74</ele>
        <time>2021-07-19T14:59:39.000Z</time>
      </trkpt>
      <trkpt lat="47.16937" lon="-1.62142">
        <ele>74</ele>
        <time>2021-07-19T14:59:41.000Z</time>
      </trkpt>
      <trkpt lat="47.16944" lon="-1.62129">
        <ele>74</ele>
        <time>2021-07-19T14:59:43.000Z</time>
      </trkpt>
      <trkpt lat="47.16951" lon="-1.62116">
        <ele>74</ele>
        <time>2021-07-19T14:59:45.000Z</time>
      </trkpt>
      <trkpt lat="47.16959" lon="-1.62102">
        <ele>74</ele>
        <time>2021-07-19T14:59:47.000Z</time>
      </trkpt>
      <trkpt lat="47.16966" lon="-1.62088">
        <ele>73</ele>
        <time>2021-07-19T14:59:49.000Z</time>
      </trkpt>
      <trkpt lat="47.16972" lon="-1.62074">
        <ele>73</ele>
        <time>2021-07-19T14:59:51.000Z</time>
      </trkpt>
      <trkpt lat="47.1698" lon="-1.6206">
        <ele>73</ele>
        <time>2021-07-19T14:59:53.000Z</time>
      </trkpt>
      <trkpt lat="47.16987" lon="-1.62048">
        <ele>73</ele>
        <time>2021-07-19T14:59:55.000Z</time>
      </trkpt>
      <trkpt lat="47.16995" lon="-1.62035">
        <ele>73</ele>
        <time>2021-07-19T14:59:57.000Z</time>
      </trkpt>
      <trkpt lat="47.17003" lon="-1.62023">
        <ele>73</ele>
        <time>2021-07-19T14:59:59.000Z</time>
      </trkpt>
      <trkpt lat="47.17011" lon="-1.6201">
        <ele>73</ele>
        <time>2021-07-19T15:00:01.000Z</time>
      </trkpt>
      <trkpt lat="47.17019" lon="-1.61998">
        <ele>73</ele>
        <time>2021-07-19T15:00:03.000Z</time>
      </trkpt>
      <trkpt lat="47.17027" lon="-1.61986">
        <ele>73</ele>
        <time>2021-07-19T15:00:05.000Z</time>
      </trkpt>
      <trkpt lat="47.17035" lon="-1.61975">
        <ele>73</ele>
        <time>2021-07-19T15:00:07.000Z</time>
      </trkpt>
      <trkpt lat="47.17044" lon="-1.61963">
        <ele>73</ele>
        <time>2021-07-19T15:00:09.000Z</time>
      </trkpt>
      <trkpt lat="47.17052" lon="-1.61952">
        <ele>73</ele>
        <time>2021-07-19T15:00:11.000Z</time>
      </trkpt>
      <trkpt lat="47.17061" lon="-1.61942">
        <ele>73</ele>
        <time>2021-07-19T15:00:13.000Z</time>
      </trkpt>
      <trkpt lat="47.1707" lon="-1.6193">
        <ele>73</ele>
        <time>2021-07-19T15:00:15.000Z</time>
      </trkpt>
      <trkpt lat="47.17079" lon="-1.6192">
        <ele>73</ele>
        <time>2021-07-19T15:00:17.000Z</time>
      </trkpt>
      <trkpt lat="47.17088" lon="-1.6191">
        <ele>72</ele>
        <time>2021-07-19T15:00:19.000Z</time>
      </trkpt>
      <trkpt lat="47.17098" lon="-1.61901">
        <ele>72</ele>
        <time>2021-07-19T15:00:21.000Z</time>
      </trkpt>
      <trkpt lat="47.17108" lon="-1.61892">
        <ele>72</ele>
        <time>2021-07-19T15:00:23.000Z</time>
      </trkpt>
      <trkpt lat="47.17117" lon="-1.61883">
        <ele>72</ele>
        <time>2021-07-19T15:00:25.000Z</time>
      </trkpt>
      <trkpt lat="47.17127" lon="-1.61873">
        <ele>72</ele>
        <time>2021-07-19T15:00:27.000Z</time>
      </trkpt>
      <trkpt lat="47.17136" lon="-1.61864">
        <ele>72</ele>
        <time>2021-07-19T15:00:29.000Z</time>
      </trkpt>
      <trkpt lat="47.17146" lon="-1.61855">
        <ele>72</ele>
        <time>2021-07-19T15:00:31.000Z</time>
      </trkpt>
      <trkpt lat="47.17155" lon="-1.61847">
        <ele>72</ele>
        <time>2021-07-19T15:00:33.000Z</time>
      </trkpt>
      <trkpt lat="47.17164" lon="-1.61838">
        <ele>72</ele>
        <time>2021-07-19T15:00:35.000Z</time>
      </trkpt>
      <trkpt lat="47.17174" lon="-1.61829">
        <ele>72</ele>
        <time>2021-07-19T15:00:37.000Z</time>
      </trkpt>
      <trkpt lat="47.17183" lon="-1.6182">
        <ele>71</ele>
        <time>2021-07-19T15:00:39.000Z</time>
      </trkpt>
      <trkpt lat="47.17193" lon="-1.61812">
        <ele>71</ele>
        <time>2021-07-19T15:00:41.000Z</time>
      </trkpt>
      <trkpt lat="47.17203" lon="-1.61801">
        <ele>71</ele>
        <time>2021-07-19T15:00:43.000Z</time>
      </trkpt>
      <trkpt lat="47.17212" lon="-1.6179">
        <ele>71</ele>
        <time>2021-07-19T15:00:45.000Z</time>
      </trkpt>
      <trkpt lat="47.17219" lon="-1.61776">
        <ele>71</ele>
        <time>2021-07-19T15:00:47.000Z</time>
      </trkpt>
      <trkpt lat="47.17224" lon="-1.61761">
        <ele>71</ele>
        <time>2021-07-19T15:00:49.000Z</time>
      </trkpt>
      <trkpt lat="47.1723" lon="-1.61748">
        <ele>71</ele>
        <time>2021-07-19T15:00:51.000Z</time>
      </trkpt>
      <trkpt lat="47.17239" lon="-1.61736">
        <ele>72</ele>
        <time>2021-07-19T15:00:53.000Z</time>
      </trkpt>
      <trkpt lat="47.17247" lon="-1.61723">
        <ele>72</ele>
        <time>2021-07-19T15:00:55.000Z</time>
      </trkpt>
      <trkpt lat="47.17253" lon="-1.61709">
        <ele>73</ele>
        <time>2021-07-19T15:00:57.000Z</time>
      </trkpt>
      <trkpt lat="47.1726" lon="-1.61695">
        <ele>73</ele>
        <time>2021-07-19T15:00:59.000Z</time>
      </trkpt>
      <trkpt lat="47.17267" lon="-1.6168">
        <ele>73</ele>
        <time>2021-07-19T15:01:01.000Z</time>
      </trkpt>
      <trkpt lat="47.17274" lon="-1.61666">
        <ele>74</ele>
        <time>2021-07-19T15:01:03.000Z</time>
      </trkpt>
      <trkpt lat="47.17282" lon="-1.61653">
        <ele>75</ele>
        <time>2021-07-19T15:01:05.000Z</time>
      </trkpt>
      <trkpt lat="47.17289" lon="-1.6164">
        <ele>74</ele>
        <time>2021-07-19T15:01:07.000Z</time>
      </trkpt>
      <trkpt lat="47.17297" lon="-1.61627">
        <ele>74</ele>
        <time>2021-07-19T15:01:09.000Z</time>
      </trkpt>
      <trkpt lat="47.17304" lon="-1.61615">
        <ele>75</ele>
        <time>2021-07-19T15:01:11.000Z</time>
      </trkpt>
      <trkpt lat="47.17312" lon="-1.61603">
        <ele>75</ele>
        <time>2021-07-19T15:01:13.000Z</time>
      </trkpt>
      <trkpt lat="47.17321" lon="-1.61592">
        <ele>75</ele>
        <time>2021-07-19T15:01:15.000Z</time>
      </trkpt>
      <trkpt lat="47.17329" lon="-1.6158">
        <ele>76</ele>
        <time>2021-07-19T15:01:17.000Z</time>
      </trkpt>
      <trkpt lat="47.17338" lon="-1.6157">
        <ele>76</ele>
        <time>2021-07-19T15:01:19.000Z</time>
      </trkpt>
      <trkpt lat="47.17347" lon="-1.6156">
        <ele>76</ele>
        <time>2021-07-19T15:01:21.000Z</time>
      </trkpt>
      <trkpt lat="47.17356" lon="-1.61549">
        <ele>75</ele>
        <time>2021-07-19T15:01:23.000Z</time>
      </trkpt>
      <trkpt lat="47.17366" lon="-1.6154">
        <ele>75</ele>
        <time>2021-07-19T15:01:25.000Z</time>
      </trkpt>
      <trkpt lat="47.17375" lon="-1.61531">
        <ele>74</ele>
        <time>2021-07-19T15:01:27.000Z</time>
      </trkpt>
      <trkpt lat="47.17385" lon="-1.61522">
        <ele>74</ele>
        <time>2021-07-19T15:01:29.000Z</time>
      </trkpt>
      <trkpt lat="47.17395" lon="-1.61513">
        <ele>73</ele>
        <time>2021-07-19T15:01:31.000Z</time>
      </trkpt>
      <trkpt lat="47.17406" lon="-1.61506">
        <ele>73</ele>
        <time>2021-07-19T15:01:33.000Z</time>
      </trkpt>
      <trkpt lat="47.17417" lon="-1.61497">
        <ele>73</ele>
        <time>2021-07-19T15:01:35.000Z</time>
      </trkpt>
      <trkpt lat="47.17429" lon="-1.61491">
        <ele>73</ele>
        <time>2021-07-19T15:01:37.000Z</time>
      </trkpt>
      <trkpt lat="47.17442" lon="-1.61484">
        <ele>72</ele>
        <time>2021-07-19T15:01:39.000Z</time>
      </trkpt>
      <trkpt lat="47.17454" lon="-1.61476">
        <ele>71</ele>
        <time>2021-07-19T15:01:41.000Z</time>
      </trkpt>
      <trkpt lat="47.17467" lon="-1.61469">
        <ele>70</ele>
        <time>2021-07-19T15:01:43.000Z</time>
      </trkpt>
      <trkpt lat="47.1748" lon="-1.61464">
        <ele>70</ele>
        <time>2021-07-19T15:01:45.000Z</time>
      </trkpt>
      <trkpt lat="47.17493" lon="-1.61459">
        <ele>69</ele>
        <time>2021-07-19T15:01:47.000Z</time>
      </trkpt>
      <trkpt lat="47.17504" lon="-1.61453">
        <ele>69</ele>
        <time>2021-07-19T15:01:49.000Z</time>
      </trkpt>
      <trkpt lat="47.17509" lon="-1.6144">
        <ele>68</ele>
        <time>2021-07-19T15:01:51.000Z</time>
      </trkpt>
      <trkpt lat="47.17513" lon="-1.61422">
        <ele>67</ele>
        <time>2021-07-19T15:01:53.000Z</time>
      </trkpt>
      <trkpt lat="47.17517" lon="-1.61403">
        <ele>66</ele>
        <time>2021-07-19T15:01:55.000Z</time>
      </trkpt>
      <trkpt lat="47.17522" lon="-1.61383">
        <ele>65</ele>
        <time>2021-07-19T15:01:57.000Z</time>
      </trkpt>
      <trkpt lat="47.17526" lon="-1.61365">
        <ele>65</ele>
        <time>2021-07-19T15:01:59.000Z</time>
      </trkpt>
      <trkpt lat="47.17525" lon="-1.61351">
        <ele>65</ele>
        <time>2021-07-19T15:02:02.000Z</time>
      </trkpt>
      <trkpt lat="47.1752" lon="-1.61333">
        <ele>65</ele>
        <time>2021-07-19T15:02:05.000Z</time>
      </trkpt>
      <trkpt lat="47.17517" lon="-1.61316">
        <ele>65</ele>
        <time>2021-07-19T15:02:07.000Z</time>
      </trkpt>
      <trkpt lat="47.17517" lon="-1.61298">
        <ele>65</ele>
        <time>2021-07-19T15:02:09.000Z</time>
      </trkpt>
      <trkpt lat="47.17513" lon="-1.61281">
        <ele>64</ele>
        <time>2021-07-19T15:02:11.000Z</time>
      </trkpt>
      <trkpt lat="47.17505" lon="-1.61266">
        <ele>64</ele>
        <time>2021-07-19T15:02:13.000Z</time>
      </trkpt>
      <trkpt lat="47.17498" lon="-1.61251">
        <ele>63</ele>
        <time>2021-07-19T15:02:15.000Z</time>
      </trkpt>
      <trkpt lat="47.17492" lon="-1.61235">
        <ele>63</ele>
        <time>2021-07-19T15:02:17.000Z</time>
      </trkpt>
      <trkpt lat="47.17485" lon="-1.6122">
        <ele>63</ele>
        <time>2021-07-19T15:02:19.000Z</time>
      </trkpt>
      <trkpt lat="47.17478" lon="-1.61204">
        <ele>62</ele>
        <time>2021-07-19T15:02:21.000Z</time>
      </trkpt>
      <trkpt lat="47.17472" lon="-1.61188">
        <ele>62</ele>
        <time>2021-07-19T15:02:23.000Z</time>
      </trkpt>
      <trkpt lat="47.17465" lon="-1.61172">
        <ele>62</ele>
        <time>2021-07-19T15:02:25.000Z</time>
      </trkpt>
      <trkpt lat="47.17458" lon="-1.61156">
        <ele>62</ele>
        <time>2021-07-19T15:02:27.000Z</time>
      </trkpt>
      <trkpt lat="47.17451" lon="-1.61139">
        <ele>61</ele>
        <time>2021-07-19T15:02:29.000Z</time>
      </trkpt>
      <trkpt lat="47.17445" lon="-1.61121">
        <ele>61</ele>
        <time>2021-07-19T15:02:31.000Z</time>
      </trkpt>
      <trkpt lat="47.1744" lon="-1.61101">
        <ele>61</ele>
        <time>2021-07-19T15:02:33.000Z</time>
      </trkpt>
      <trkpt lat="47.17435" lon="-1.6108">
        <ele>60</ele>
        <time>2021-07-19T15:02:35.000Z</time>
      </trkpt>
      <trkpt lat="47.17429" lon="-1.61061">
        <ele>60</ele>
        <time>2021-07-19T15:02:37.000Z</time>
      </trkpt>
      <trkpt lat="47.17423" lon="-1.61041">
        <ele>59</ele>
        <time>2021-07-19T15:02:39.000Z</time>
      </trkpt>
      <trkpt lat="47.17421" lon="-1.61025">
        <ele>59</ele>
        <time>2021-07-19T15:02:41.000Z</time>
      </trkpt>
      <trkpt lat="47.1743" lon="-1.61028">
        <ele>59</ele>
        <time>2021-07-19T15:02:45.000Z</time>
      </trkpt>
      <trkpt lat="47.17433" lon="-1.61043">
        <ele>59</ele>
        <time>2021-07-19T15:02:47.000Z</time>
      </trkpt>
      <trkpt lat="47.17438" lon="-1.61059">
        <ele>59</ele>
        <time>2021-07-19T15:02:49.000Z</time>
      </trkpt>
      <trkpt lat="47.17445" lon="-1.61074">
        <ele>58</ele>
        <time>2021-07-19T15:02:51.000Z</time>
      </trkpt>
      <trkpt lat="47.17454" lon="-1.61088">
        <ele>58</ele>
        <time>2021-07-19T15:02:53.000Z</time>
      </trkpt>
      <trkpt lat="47.17465" lon="-1.61099">
        <ele>57</ele>
        <time>2021-07-19T15:02:55.000Z</time>
      </trkpt>
      <trkpt lat="47.17479" lon="-1.61106">
        <ele>56</ele>
        <time>2021-07-19T15:02:57.000Z</time>
      </trkpt>
      <trkpt lat="47.17493" lon="-1.61106">
        <ele>56</ele>
        <time>2021-07-19T15:02:59.000Z</time>
      </trkpt>
      <trkpt lat="47.17508" lon="-1.61102">
        <ele>56</ele>
        <time>2021-07-19T15:03:01.000Z</time>
      </trkpt>
      <trkpt lat="47.17521" lon="-1.61093">
        <ele>56</ele>
        <time>2021-07-19T15:03:03.000Z</time>
      </trkpt>
      <trkpt lat="47.17533" lon="-1.61081">
        <ele>55</ele>
        <time>2021-07-19T15:03:05.000Z</time>
      </trkpt>
      <trkpt lat="47.17545" lon="-1.6107">
        <ele>55</ele>
        <time>2021-07-19T15:03:07.000Z</time>
      </trkpt>
      <trkpt lat="47.17557" lon="-1.61059">
        <ele>55</ele>
        <time>2021-07-19T15:03:09.000Z</time>
      </trkpt>
      <trkpt lat="47.1757" lon="-1.61049">
        <ele>55</ele>
        <time>2021-07-19T15:03:11.000Z</time>
      </trkpt>
      <trkpt lat="47.17581" lon="-1.61039">
        <ele>56</ele>
        <time>2021-07-19T15:03:13.000Z</time>
      </trkpt>
      <trkpt lat="47.17593" lon="-1.61029">
        <ele>56</ele>
        <time>2021-07-19T15:03:15.000Z</time>
      </trkpt>
      <trkpt lat="47.17605" lon="-1.61019">
        <ele>56</ele>
        <time>2021-07-19T15:03:17.000Z</time>
      </trkpt>
      <trkpt lat="47.17616" lon="-1.61009">
        <ele>56</ele>
        <time>2021-07-19T15:03:19.000Z</time>
      </trkpt>
      <trkpt lat="47.17628" lon="-1.60998">
        <ele>56</ele>
        <time>2021-07-19T15:03:21.000Z</time>
      </trkpt>
      <trkpt lat="47.17639" lon="-1.60987">
        <ele>56</ele>
        <time>2021-07-19T15:03:23.000Z</time>
      </trkpt>
      <trkpt lat="47.17651" lon="-1.60977">
        <ele>56</ele>
        <time>2021-07-19T15:03:25.000Z</time>
      </trkpt>
      <trkpt lat="47.17664" lon="-1.60971">
        <ele>56</ele>
        <time>2021-07-19T15:03:27.000Z</time>
      </trkpt>
      <trkpt lat="47.17677" lon="-1.60971">
        <ele>57</ele>
        <time>2021-07-19T15:03:29.000Z</time>
      </trkpt>
      <trkpt lat="47.17689" lon="-1.60972">
        <ele>57</ele>
        <time>2021-07-19T15:03:31.000Z</time>
      </trkpt>
      <trkpt lat="47.17701" lon="-1.60969">
        <ele>57</ele>
        <time>2021-07-19T15:03:33.000Z</time>
      </trkpt>
      <trkpt lat="47.17713" lon="-1.60963">
        <ele>57</ele>
        <time>2021-07-19T15:03:35.000Z</time>
      </trkpt>
      <trkpt lat="47.17724" lon="-1.60956">
        <ele>57</ele>
        <time>2021-07-19T15:03:37.000Z</time>
      </trkpt>
      <trkpt lat="47.17736" lon="-1.60947">
        <ele>57</ele>
        <time>2021-07-19T15:03:39.000Z</time>
      </trkpt>
      <trkpt lat="47.17747" lon="-1.60938">
        <ele>57</ele>
        <time>2021-07-19T15:03:41.000Z</time>
      </trkpt>
      <trkpt lat="47.17758" lon="-1.60929">
        <ele>57</ele>
        <time>2021-07-19T15:03:43.000Z</time>
      </trkpt>
      <trkpt lat="47.17769" lon="-1.60921">
        <ele>56</ele>
        <time>2021-07-19T15:03:45.000Z</time>
      </trkpt>
      <trkpt lat="47.17781" lon="-1.60912">
        <ele>56</ele>
        <time>2021-07-19T15:03:47.000Z</time>
      </trkpt>
      <trkpt lat="47.17793" lon="-1.60904">
        <ele>57</ele>
        <time>2021-07-19T15:03:49.000Z</time>
      </trkpt>
      <trkpt lat="47.17804" lon="-1.60894">
        <ele>57</ele>
        <time>2021-07-19T15:03:51.000Z</time>
      </trkpt>
      <trkpt lat="47.17814" lon="-1.60882">
        <ele>57</ele>
        <time>2021-07-19T15:03:53.000Z</time>
      </trkpt>
      <trkpt lat="47.17824" lon="-1.60869">
        <ele>57</ele>
        <time>2021-07-19T15:03:55.000Z</time>
      </trkpt>
      <trkpt lat="47.17832" lon="-1.60854">
        <ele>57</ele>
        <time>2021-07-19T15:03:57.000Z</time>
      </trkpt>
      <trkpt lat="47.1784" lon="-1.60837">
        <ele>57</ele>
        <time>2021-07-19T15:03:59.000Z</time>
      </trkpt>
      <trkpt lat="47.17845" lon="-1.6082">
        <ele>57</ele>
        <time>2021-07-19T15:04:01.000Z</time>
      </trkpt>
      <trkpt lat="47.17849" lon="-1.60803">
        <ele>57</ele>
        <time>2021-07-19T15:04:03.000Z</time>
      </trkpt>
      <trkpt lat="47.17853" lon="-1.60785">
        <ele>57</ele>
        <time>2021-07-19T15:04:05.000Z</time>
      </trkpt>
      <trkpt lat="47.17858" lon="-1.60765">
        <ele>56</ele>
        <time>2021-07-19T15:04:07.000Z</time>
      </trkpt>
      <trkpt lat="47.17862" lon="-1.60746">
        <ele>57</ele>
        <time>2021-07-19T15:04:09.000Z</time>
      </trkpt>
      <trkpt lat="47.17866" lon="-1.60728">
        <ele>57</ele>
        <time>2021-07-19T15:04:11.000Z</time>
      </trkpt>
      <trkpt lat="47.17871" lon="-1.6071">
        <ele>56</ele>
        <time>2021-07-19T15:04:13.000Z</time>
      </trkpt>
      <trkpt lat="47.17875" lon="-1.60691">
        <ele>57</ele>
        <time>2021-07-19T15:04:15.000Z</time>
      </trkpt>
      <trkpt lat="47.1788" lon="-1.60674">
        <ele>57</ele>
        <time>2021-07-19T15:04:17.000Z</time>
      </trkpt>
      <trkpt lat="47.17886" lon="-1.60657">
        <ele>57</ele>
        <time>2021-07-19T15:04:19.000Z</time>
      </trkpt>
      <trkpt lat="47.17892" lon="-1.60641">
        <ele>57</ele>
        <time>2021-07-19T15:04:21.000Z</time>
      </trkpt>
      <trkpt lat="47.17897" lon="-1.60626">
        <ele>58</ele>
        <time>2021-07-19T15:04:23.000Z</time>
      </trkpt>
      <trkpt lat="47.179" lon="-1.60611">
        <ele>58</ele>
        <time>2021-07-19T15:04:25.000Z</time>
      </trkpt>
      <trkpt lat="47.17902" lon="-1.60597">
        <ele>59</ele>
        <time>2021-07-19T15:04:27.000Z</time>
      </trkpt>
      <trkpt lat="47.17911" lon="-1.60585">
        <ele>59</ele>
        <time>2021-07-19T15:04:31.000Z</time>
      </trkpt>
      <trkpt lat="47.1792" lon="-1.60583">
        <ele>59</ele>
        <time>2021-07-19T15:04:33.000Z</time>
      </trkpt>
      <trkpt lat="47.17932" lon="-1.60584">
        <ele>59</ele>
        <time>2021-07-19T15:04:35.000Z</time>
      </trkpt>
      <trkpt lat="47.17944" lon="-1.60579">
        <ele>58</ele>
        <time>2021-07-19T15:04:37.000Z</time>
      </trkpt>
      <trkpt lat="47.17957" lon="-1.60572">
        <ele>58</ele>
        <time>2021-07-19T15:04:39.000Z</time>
      </trkpt>
      <trkpt lat="47.17978" lon="-1.60562">
        <ele>58</ele>
        <time>2021-07-19T15:04:42.000Z</time>
      </trkpt>
      <trkpt lat="47.1799" lon="-1.6056">
        <ele>58</ele>
        <time>2021-07-19T15:04:44.000Z</time>
      </trkpt>
      <trkpt lat="47.18004" lon="-1.60555">
        <ele>57</ele>
        <time>2021-07-19T15:04:46.000Z</time>
      </trkpt>
      <trkpt lat="47.18017" lon="-1.60553">
        <ele>57</ele>
        <time>2021-07-19T15:04:48.000Z</time>
      </trkpt>
      <trkpt lat="47.18031" lon="-1.60554">
        <ele>57</ele>
        <time>2021-07-19T15:04:50.000Z</time>
      </trkpt>
      <trkpt lat="47.18044" lon="-1.6056">
        <ele>57</ele>
        <time>2021-07-19T15:04:52.000Z</time>
      </trkpt>
      <trkpt lat="47.18057" lon="-1.60567">
        <ele>57</ele>
        <time>2021-07-19T15:04:54.000Z</time>
      </trkpt>
      <trkpt lat="47.18069" lon="-1.60574">
        <ele>57</ele>
        <time>2021-07-19T15:04:56.000Z</time>
      </trkpt>
      <trkpt lat="47.18082" lon="-1.60581">
        <ele>57</ele>
        <time>2021-07-19T15:04:58.000Z</time>
      </trkpt>
      <trkpt lat="47.18094" lon="-1.60588">
        <ele>57</ele>
        <time>2021-07-19T15:05:00.000Z</time>
      </trkpt>
      <trkpt lat="47.18107" lon="-1.60594">
        <ele>56</ele>
        <time>2021-07-19T15:05:02.000Z</time>
      </trkpt>
      <trkpt lat="47.1812" lon="-1.60599">
        <ele>56</ele>
        <time>2021-07-19T15:05:04.000Z</time>
      </trkpt>
      <trkpt lat="47.18133" lon="-1.60602">
        <ele>56</ele>
        <time>2021-07-19T15:05:06.000Z</time>
      </trkpt>
      <trkpt lat="47.18145" lon="-1.60604">
        <ele>56</ele>
        <time>2021-07-19T15:05:08.000Z</time>
      </trkpt>
      <trkpt lat="47.18157" lon="-1.60604">
        <ele>56</ele>
        <time>2021-07-19T15:05:10.000Z</time>
      </trkpt>
      <trkpt lat="47.18171" lon="-1.60603">
        <ele>56</ele>
        <time>2021-07-19T15:05:12.000Z</time>
      </trkpt>
      <trkpt lat="47.18183" lon="-1.606">
        <ele>56</ele>
        <time>2021-07-19T15:05:14.000Z</time>
      </trkpt>
      <trkpt lat="47.18189" lon="-1.60586">
        <ele>55</ele>
        <time>2021-07-19T15:05:16.000Z</time>
      </trkpt>
      <trkpt lat="47.18197" lon="-1.60573">
        <ele>55</ele>
        <time>2021-07-19T15:05:18.000Z</time>
      </trkpt>
      <trkpt lat="47.18209" lon="-1.6057">
        <ele>55</ele>
        <time>2021-07-19T15:05:20.000Z</time>
      </trkpt>
      <trkpt lat="47.18222" lon="-1.60564">
        <ele>56</ele>
        <time>2021-07-19T15:05:22.000Z</time>
      </trkpt>
      <trkpt lat="47.18234" lon="-1.60556">
        <ele>57</ele>
        <time>2021-07-19T15:05:24.000Z</time>
      </trkpt>
      <trkpt lat="47.18247" lon="-1.60547">
        <ele>58</ele>
        <time>2021-07-19T15:05:26.000Z</time>
      </trkpt>
      <trkpt lat="47.18258" lon="-1.60538">
        <ele>59</ele>
        <time>2021-07-19T15:05:28.000Z</time>
      </trkpt>
      <trkpt lat="47.1827" lon="-1.60526">
        <ele>58</ele>
        <time>2021-07-19T15:05:30.000Z</time>
      </trkpt>
      <trkpt lat="47.18281" lon="-1.60514">
        <ele>57</ele>
        <time>2021-07-19T15:05:32.000Z</time>
      </trkpt>
      <trkpt lat="47.18292" lon="-1.60502">
        <ele>57</ele>
        <time>2021-07-19T15:05:34.000Z</time>
      </trkpt>
      <trkpt lat="47.18303" lon="-1.6049">
        <ele>57</ele>
        <time>2021-07-19T15:05:36.000Z</time>
      </trkpt>
      <trkpt lat="47.18314" lon="-1.60477">
        <ele>57</ele>
        <time>2021-07-19T15:05:38.000Z</time>
      </trkpt>
      <trkpt lat="47.18325" lon="-1.60465">
        <ele>57</ele>
        <time>2021-07-19T15:05:40.000Z</time>
      </trkpt>
      <trkpt lat="47.18335" lon="-1.60453">
        <ele>57</ele>
        <time>2021-07-19T15:05:42.000Z</time>
      </trkpt>
      <trkpt lat="47.18345" lon="-1.60441">
        <ele>57</ele>
        <time>2021-07-19T15:05:44.000Z</time>
      </trkpt>
      <trkpt lat="47.18355" lon="-1.60428">
        <ele>58</ele>
        <time>2021-07-19T15:05:46.000Z</time>
      </trkpt>
      <trkpt lat="47.18365" lon="-1.60415">
        <ele>58</ele>
        <time>2021-07-19T15:05:48.000Z</time>
      </trkpt>
      <trkpt lat="47.18375" lon="-1.60403">
        <ele>58</ele>
        <time>2021-07-19T15:05:50.000Z</time>
      </trkpt>
      <trkpt lat="47.18385" lon="-1.6039">
        <ele>58</ele>
        <time>2021-07-19T15:05:52.000Z</time>
      </trkpt>
      <trkpt lat="47.18394" lon="-1.60377">
        <ele>57</ele>
        <time>2021-07-19T15:05:54.000Z</time>
      </trkpt>
      <trkpt lat="47.18404" lon="-1.60364">
        <ele>57</ele>
        <time>2021-07-19T15:05:56.000Z</time>
      </trkpt>
      <trkpt lat="47.18414" lon="-1.6035">
        <ele>58</ele>
        <time>2021-07-19T15:05:58.000Z</time>
      </trkpt>
      <trkpt lat="47.18423" lon="-1.60338">
        <ele>58</ele>
        <time>2021-07-19T15:06:00.000Z</time>
      </trkpt>
      <trkpt lat="47.18431" lon="-1.60324">
        <ele>58</ele>
        <time>2021-07-19T15:06:02.000Z</time>
      </trkpt>
      <trkpt lat="47.1844" lon="-1.6031">
        <ele>58</ele>
        <time>2021-07-19T15:06:04.000Z</time>
      </trkpt>
      <trkpt lat="47.18448" lon="-1.60296">
        <ele>58</ele>
        <time>2021-07-19T15:06:06.000Z</time>
      </trkpt>
      <trkpt lat="47.18456" lon="-1.60281">
        <ele>58</ele>
        <time>2021-07-19T15:06:08.000Z</time>
      </trkpt>
      <trkpt lat="47.18465" lon="-1.60267">
        <ele>58</ele>
        <time>2021-07-19T15:06:10.000Z</time>
      </trkpt>
      <trkpt lat="47.18473" lon="-1.60252">
        <ele>58</ele>
        <time>2021-07-19T15:06:12.000Z</time>
      </trkpt>
      <trkpt lat="47.18481" lon="-1.60237">
        <ele>58</ele>
        <time>2021-07-19T15:06:14.000Z</time>
      </trkpt>
      <trkpt lat="47.18489" lon="-1.60222">
        <ele>58</ele>
        <time>2021-07-19T15:06:16.000Z</time>
      </trkpt>
      <trkpt lat="47.18497" lon="-1.60207">
        <ele>58</ele>
        <time>2021-07-19T15:06:18.000Z</time>
      </trkpt>
      <trkpt lat="47.18504" lon="-1.60192">
        <ele>58</ele>
        <time>2021-07-19T15:06:20.000Z</time>
      </trkpt>
      <trkpt lat="47.18512" lon="-1.60176">
        <ele>58</ele>
        <time>2021-07-19T15:06:22.000Z</time>
      </trkpt>
      <trkpt lat="47.18519" lon="-1.60161">
        <ele>58</ele>
        <time>2021-07-19T15:06:24.000Z</time>
      </trkpt>
      <trkpt lat="47.18526" lon="-1.60146">
        <ele>58</ele>
        <time>2021-07-19T15:06:26.000Z</time>
      </trkpt>
      <trkpt lat="47.18534" lon="-1.60131">
        <ele>57</ele>
        <time>2021-07-19T15:06:28.000Z</time>
      </trkpt>
      <trkpt lat="47.18541" lon="-1.60116">
        <ele>57</ele>
        <time>2021-07-19T15:06:30.000Z</time>
      </trkpt>
      <trkpt lat="47.18547" lon="-1.60101">
        <ele>57</ele>
        <time>2021-07-19T15:06:32.000Z</time>
      </trkpt>
      <trkpt lat="47.18556" lon="-1.60076">
        <ele>57</ele>
        <time>2021-07-19T15:06:35.000Z</time>
      </trkpt>
      <trkpt lat="47.18563" lon="-1.6006">
        <ele>57</ele>
        <time>2021-07-19T15:06:37.000Z</time>
      </trkpt>
      <trkpt lat="47.18569" lon="-1.60044">
        <ele>57</ele>
        <time>2021-07-19T15:06:39.000Z</time>
      </trkpt>
      <trkpt lat="47.18574" lon="-1.60027">
        <ele>58</ele>
        <time>2021-07-19T15:06:41.000Z</time>
      </trkpt>
      <trkpt lat="47.1858" lon="-1.60012">
        <ele>57</ele>
        <time>2021-07-19T15:06:43.000Z</time>
      </trkpt>
      <trkpt lat="47.18585" lon="-1.59996">
        <ele>57</ele>
        <time>2021-07-19T15:06:45.000Z</time>
      </trkpt>
      <trkpt lat="47.18591" lon="-1.59978">
        <ele>57</ele>
        <time>2021-07-19T15:06:47.000Z</time>
      </trkpt>
      <trkpt lat="47.18596" lon="-1.59962">
        <ele>57</ele>
        <time>2021-07-19T15:06:49.000Z</time>
      </trkpt>
      <trkpt lat="47.18601" lon="-1.59945">
        <ele>57</ele>
        <time>2021-07-19T15:06:51.000Z</time>
      </trkpt>
      <trkpt lat="47.18606" lon="-1.59928">
        <ele>57</ele>
        <time>2021-07-19T15:06:53.000Z</time>
      </trkpt>
      <trkpt lat="47.18611" lon="-1.59911">
        <ele>57</ele>
        <time>2021-07-19T15:06:55.000Z</time>
      </trkpt>
      <trkpt lat="47.18616" lon="-1.59894">
        <ele>57</ele>
        <time>2021-07-19T15:06:57.000Z</time>
      </trkpt>
      <trkpt lat="47.1862" lon="-1.59878">
        <ele>56</ele>
        <time>2021-07-19T15:06:59.000Z</time>
      </trkpt>
      <trkpt lat="47.18621" lon="-1.59861">
        <ele>56</ele>
        <time>2021-07-19T15:07:01.000Z</time>
      </trkpt>
      <trkpt lat="47.18615" lon="-1.59845">
        <ele>55</ele>
        <time>2021-07-19T15:07:03.000Z</time>
      </trkpt>
      <trkpt lat="47.18615" lon="-1.5983">
        <ele>55</ele>
        <time>2021-07-19T15:07:05.000Z</time>
      </trkpt>
      <trkpt lat="47.18621" lon="-1.59818">
        <ele>55</ele>
        <time>2021-07-19T15:07:07.000Z</time>
      </trkpt>
      <trkpt lat="47.18628" lon="-1.5979">
        <ele>56</ele>
        <time>2021-07-19T15:07:11.000Z</time>
      </trkpt>
      <trkpt lat="47.18634" lon="-1.59773">
        <ele>56</ele>
        <time>2021-07-19T15:07:13.000Z</time>
      </trkpt>
      <trkpt lat="47.18644" lon="-1.59759">
        <ele>56</ele>
        <time>2021-07-19T15:07:15.000Z</time>
      </trkpt>
      <trkpt lat="47.18651" lon="-1.59742">
        <ele>57</ele>
        <time>2021-07-19T15:07:17.000Z</time>
      </trkpt>
      <trkpt lat="47.18655" lon="-1.59724">
        <ele>57</ele>
        <time>2021-07-19T15:07:19.000Z</time>
      </trkpt>
      <trkpt lat="47.18658" lon="-1.59706">
        <ele>57</ele>
        <time>2021-07-19T15:07:21.000Z</time>
      </trkpt>
      <trkpt lat="47.18661" lon="-1.59687">
        <ele>57</ele>
        <time>2021-07-19T15:07:23.000Z</time>
      </trkpt>
      <trkpt lat="47.18665" lon="-1.5967">
        <ele>57</ele>
        <time>2021-07-19T15:07:25.000Z</time>
      </trkpt>
      <trkpt lat="47.1867" lon="-1.59653">
        <ele>58</ele>
        <time>2021-07-19T15:07:27.000Z</time>
      </trkpt>
      <trkpt lat="47.18673" lon="-1.59635">
        <ele>57</ele>
        <time>2021-07-19T15:07:29.000Z</time>
      </trkpt>
      <trkpt lat="47.18676" lon="-1.59617">
        <ele>57</ele>
        <time>2021-07-19T15:07:31.000Z</time>
      </trkpt>
      <trkpt lat="47.18678" lon="-1.59598">
        <ele>57</ele>
        <time>2021-07-19T15:07:33.000Z</time>
      </trkpt>
      <trkpt lat="47.1868" lon="-1.59578">
        <ele>58</ele>
        <time>2021-07-19T15:07:35.000Z</time>
      </trkpt>
      <trkpt lat="47.18682" lon="-1.5956">
        <ele>58</ele>
        <time>2021-07-19T15:07:37.000Z</time>
      </trkpt>
      <trkpt lat="47.18685" lon="-1.59542">
        <ele>58</ele>
        <time>2021-07-19T15:07:39.000Z</time>
      </trkpt>
      <trkpt lat="47.18687" lon="-1.59523">
        <ele>57</ele>
        <time>2021-07-19T15:07:41.000Z</time>
      </trkpt>
      <trkpt lat="47.18689" lon="-1.59505">
        <ele>57</ele>
        <time>2021-07-19T15:07:43.000Z</time>
      </trkpt>
      <trkpt lat="47.18691" lon="-1.59486">
        <ele>57</ele>
        <time>2021-07-19T15:07:45.000Z</time>
      </trkpt>
      <trkpt lat="47.18693" lon="-1.59468">
        <ele>57</ele>
        <time>2021-07-19T15:07:47.000Z</time>
      </trkpt>
      <trkpt lat="47.18695" lon="-1.5945">
        <ele>57</ele>
        <time>2021-07-19T15:07:49.000Z</time>
      </trkpt>
      <trkpt lat="47.18697" lon="-1.59432">
        <ele>56</ele>
        <time>2021-07-19T15:07:51.000Z</time>
      </trkpt>
      <trkpt lat="47.18699" lon="-1.59415">
        <ele>56</ele>
        <time>2021-07-19T15:07:53.000Z</time>
      </trkpt>
      <trkpt lat="47.18701" lon="-1.59398">
        <ele>56</ele>
        <time>2021-07-19T15:07:55.000Z</time>
      </trkpt>
      <trkpt lat="47.18703" lon="-1.59381">
        <ele>57</ele>
        <time>2021-07-19T15:07:57.000Z</time>
      </trkpt>
      <trkpt lat="47.18705" lon="-1.59363">
        <ele>56</ele>
        <time>2021-07-19T15:07:59.000Z</time>
      </trkpt>
      <trkpt lat="47.18706" lon="-1.59346">
        <ele>56</ele>
        <time>2021-07-19T15:08:01.000Z</time>
      </trkpt>
      <trkpt lat="47.18708" lon="-1.59329">
        <ele>56</ele>
        <time>2021-07-19T15:08:03.000Z</time>
      </trkpt>
      <trkpt lat="47.1871" lon="-1.59312">
        <ele>56</ele>
        <time>2021-07-19T15:08:05.000Z</time>
      </trkpt>
      <trkpt lat="47.18712" lon="-1.59295">
        <ele>55</ele>
        <time>2021-07-19T15:08:07.000Z</time>
      </trkpt>
      <trkpt lat="47.18713" lon="-1.59278">
        <ele>55</ele>
        <time>2021-07-19T15:08:09.000Z</time>
      </trkpt>
      <trkpt lat="47.18715" lon="-1.59261">
        <ele>55</ele>
        <time>2021-07-19T15:08:11.000Z</time>
      </trkpt>
      <trkpt lat="47.18718" lon="-1.59243">
        <ele>55</ele>
        <time>2021-07-19T15:08:13.000Z</time>
      </trkpt>
      <trkpt lat="47.18719" lon="-1.59225">
        <ele>55</ele>
        <time>2021-07-19T15:08:15.000Z</time>
      </trkpt>
      <trkpt lat="47.18721" lon="-1.59207">
        <ele>55</ele>
        <time>2021-07-19T15:08:17.000Z</time>
      </trkpt>
      <trkpt lat="47.18723" lon="-1.59188">
        <ele>56</ele>
        <time>2021-07-19T15:08:19.000Z</time>
      </trkpt>
      <trkpt lat="47.18725" lon="-1.5917">
        <ele>55</ele>
        <time>2021-07-19T15:08:21.000Z</time>
      </trkpt>
      <trkpt lat="47.18727" lon="-1.59152">
        <ele>55</ele>
        <time>2021-07-19T15:08:23.000Z</time>
      </trkpt>
      <trkpt lat="47.18729" lon="-1.59134">
        <ele>55</ele>
        <time>2021-07-19T15:08:25.000Z</time>
      </trkpt>
      <trkpt lat="47.18731" lon="-1.59116">
        <ele>55</ele>
        <time>2021-07-19T15:08:27.000Z</time>
      </trkpt>
      <trkpt lat="47.18733" lon="-1.59099">
        <ele>55</ele>
        <time>2021-07-19T15:08:29.000Z</time>
      </trkpt>
      <trkpt lat="47.18735" lon="-1.59082">
        <ele>55</ele>
        <time>2021-07-19T15:08:31.000Z</time>
      </trkpt>
      <trkpt lat="47.18737" lon="-1.59064">
        <ele>55</ele>
        <time>2021-07-19T15:08:33.000Z</time>
      </trkpt>
      <trkpt lat="47.18738" lon="-1.59046">
        <ele>55</ele>
        <time>2021-07-19T15:08:35.000Z</time>
      </trkpt>
      <trkpt lat="47.18741" lon="-1.59029">
        <ele>55</ele>
        <time>2021-07-19T15:08:37.000Z</time>
      </trkpt>
      <trkpt lat="47.18742" lon="-1.5901">
        <ele>56</ele>
        <time>2021-07-19T15:08:39.000Z</time>
      </trkpt>
      <trkpt lat="47.18744" lon="-1.58993">
        <ele>56</ele>
        <time>2021-07-19T15:08:41.000Z</time>
      </trkpt>
      <trkpt lat="47.18746" lon="-1.58975">
        <ele>57</ele>
        <time>2021-07-19T15:08:43.000Z</time>
      </trkpt>
      <trkpt lat="47.18748" lon="-1.58957">
        <ele>57</ele>
        <time>2021-07-19T15:08:45.000Z</time>
      </trkpt>
      <trkpt lat="47.1875" lon="-1.5894">
        <ele>57</ele>
        <time>2021-07-19T15:08:47.000Z</time>
      </trkpt>
      <trkpt lat="47.18752" lon="-1.58921">
        <ele>57</ele>
        <time>2021-07-19T15:08:49.000Z</time>
      </trkpt>
      <trkpt lat="47.18754" lon="-1.58903">
        <ele>57</ele>
        <time>2021-07-19T15:08:51.000Z</time>
      </trkpt>
      <trkpt lat="47.18757" lon="-1.58886">
        <ele>58</ele>
        <time>2021-07-19T15:08:53.000Z</time>
      </trkpt>
      <trkpt lat="47.18759" lon="-1.58868">
        <ele>59</ele>
        <time>2021-07-19T15:08:55.000Z</time>
      </trkpt>
      <trkpt lat="47.18761" lon="-1.58851">
        <ele>58</ele>
        <time>2021-07-19T15:08:57.000Z</time>
      </trkpt>
      <trkpt lat="47.18764" lon="-1.58834">
        <ele>58</ele>
        <time>2021-07-19T15:08:59.000Z</time>
      </trkpt>
      <trkpt lat="47.18764" lon="-1.58817">
        <ele>58</ele>
        <time>2021-07-19T15:09:01.000Z</time>
      </trkpt>
      <trkpt lat="47.18764" lon="-1.58801">
        <ele>58</ele>
        <time>2021-07-19T15:09:03.000Z</time>
      </trkpt>
      <trkpt lat="47.18762" lon="-1.58783">
        <ele>58</ele>
        <time>2021-07-19T15:09:05.000Z</time>
      </trkpt>
      <trkpt lat="47.18757" lon="-1.58765">
        <ele>57</ele>
        <time>2021-07-19T15:09:07.000Z</time>
      </trkpt>
      <trkpt lat="47.18756" lon="-1.58746">
        <ele>58</ele>
        <time>2021-07-19T15:09:09.000Z</time>
      </trkpt>
      <trkpt lat="47.18761" lon="-1.58727">
        <ele>58</ele>
        <time>2021-07-19T15:09:11.000Z</time>
      </trkpt>
      <trkpt lat="47.18768" lon="-1.58712">
        <ele>58</ele>
        <time>2021-07-19T15:09:13.000Z</time>
      </trkpt>
      <trkpt lat="47.18778" lon="-1.587">
        <ele>58</ele>
        <time>2021-07-19T15:09:15.000Z</time>
      </trkpt>
      <trkpt lat="47.18784" lon="-1.58686">
        <ele>58</ele>
        <time>2021-07-19T15:09:17.000Z</time>
      </trkpt>
      <trkpt lat="47.18788" lon="-1.58668">
        <ele>58</ele>
        <time>2021-07-19T15:09:19.000Z</time>
      </trkpt>
      <trkpt lat="47.18792" lon="-1.5865">
        <ele>58</ele>
        <time>2021-07-19T15:09:21.000Z</time>
      </trkpt>
      <trkpt lat="47.18797" lon="-1.58633">
        <ele>58</ele>
        <time>2021-07-19T15:09:23.000Z</time>
      </trkpt>
      <trkpt lat="47.18801" lon="-1.58616">
        <ele>58</ele>
        <time>2021-07-19T15:09:25.000Z</time>
      </trkpt>
      <trkpt lat="47.18806" lon="-1.58599">
        <ele>58</ele>
        <time>2021-07-19T15:09:27.000Z</time>
      </trkpt>
      <trkpt lat="47.1881" lon="-1.58583">
        <ele>57</ele>
        <time>2021-07-19T15:09:29.000Z</time>
      </trkpt>
      <trkpt lat="47.18815" lon="-1.58566">
        <ele>57</ele>
        <time>2021-07-19T15:09:31.000Z</time>
      </trkpt>
      <trkpt lat="47.18819" lon="-1.58549">
        <ele>57</ele>
        <time>2021-07-19T15:09:33.000Z</time>
      </trkpt>
      <trkpt lat="47.18824" lon="-1.58532">
        <ele>57</ele>
        <time>2021-07-19T15:09:35.000Z</time>
      </trkpt>
      <trkpt lat="47.18828" lon="-1.58514">
        <ele>58</ele>
        <time>2021-07-19T15:09:37.000Z</time>
      </trkpt>
      <trkpt lat="47.18833" lon="-1.58497">
        <ele>58</ele>
        <time>2021-07-19T15:09:39.000Z</time>
      </trkpt>
      <trkpt lat="47.18838" lon="-1.58481">
        <ele>58</ele>
        <time>2021-07-19T15:09:41.000Z</time>
      </trkpt>
      <trkpt lat="47.18843" lon="-1.58464">
        <ele>58</ele>
        <time>2021-07-19T15:09:43.000Z</time>
      </trkpt>
      <trkpt lat="47.18848" lon="-1.58447">
        <ele>58</ele>
        <time>2021-07-19T15:09:45.000Z</time>
      </trkpt>
      <trkpt lat="47.18853" lon="-1.5843">
        <ele>58</ele>
        <time>2021-07-19T15:09:47.000Z</time>
      </trkpt>
      <trkpt lat="47.18858" lon="-1.58413">
        <ele>58</ele>
        <time>2021-07-19T15:09:49.000Z</time>
      </trkpt>
      <trkpt lat="47.18864" lon="-1.58396">
        <ele>57</ele>
        <time>2021-07-19T15:09:51.000Z</time>
      </trkpt>
      <trkpt lat="47.18869" lon="-1.58378">
        <ele>58</ele>
        <time>2021-07-19T15:09:53.000Z</time>
      </trkpt>
      <trkpt lat="47.18876" lon="-1.58361">
        <ele>58</ele>
        <time>2021-07-19T15:09:55.000Z</time>
      </trkpt>
      <trkpt lat="47.18881" lon="-1.58343">
        <ele>58</ele>
        <time>2021-07-19T15:09:57.000Z</time>
      </trkpt>
      <trkpt lat="47.18887" lon="-1.58326">
        <ele>58</ele>
        <time>2021-07-19T15:09:59.000Z</time>
      </trkpt>
      <trkpt lat="47.18893" lon="-1.58309">
        <ele>58</ele>
        <time>2021-07-19T15:10:01.000Z</time>
      </trkpt>
      <trkpt lat="47.18899" lon="-1.58292">
        <ele>58</ele>
        <time>2021-07-19T15:10:03.000Z</time>
      </trkpt>
      <trkpt lat="47.18905" lon="-1.58275">
        <ele>58</ele>
        <time>2021-07-19T15:10:05.000Z</time>
      </trkpt>
      <trkpt lat="47.18911" lon="-1.58258">
        <ele>58</ele>
        <time>2021-07-19T15:10:07.000Z</time>
      </trkpt>
      <trkpt lat="47.18917" lon="-1.5824">
        <ele>58</ele>
        <time>2021-07-19T15:10:09.000Z</time>
      </trkpt>
      <trkpt lat="47.18923" lon="-1.58223">
        <ele>57</ele>
        <time>2021-07-19T15:10:11.000Z</time>
      </trkpt>
      <trkpt lat="47.18929" lon="-1.58206">
        <ele>57</ele>
        <time>2021-07-19T15:10:13.000Z</time>
      </trkpt>
      <trkpt lat="47.18935" lon="-1.58189">
        <ele>58</ele>
        <time>2021-07-19T15:10:15.000Z</time>
      </trkpt>
      <trkpt lat="47.18941" lon="-1.58173">
        <ele>58</ele>
        <time>2021-07-19T15:10:17.000Z</time>
      </trkpt>
      <trkpt lat="47.18947" lon="-1.58156">
        <ele>58</ele>
        <time>2021-07-19T15:10:19.000Z</time>
      </trkpt>
      <trkpt lat="47.18953" lon="-1.5814">
        <ele>58</ele>
        <time>2021-07-19T15:10:21.000Z</time>
      </trkpt>
      <trkpt lat="47.18958" lon="-1.58125">
        <ele>58</ele>
        <time>2021-07-19T15:10:23.000Z</time>
      </trkpt>
      <trkpt lat="47.18964" lon="-1.58109">
        <ele>58</ele>
        <time>2021-07-19T15:10:25.000Z</time>
      </trkpt>
      <trkpt lat="47.18969" lon="-1.58093">
        <ele>58</ele>
        <time>2021-07-19T15:10:27.000Z</time>
      </trkpt>
      <trkpt lat="47.18975" lon="-1.58077">
        <ele>58</ele>
        <time>2021-07-19T15:10:29.000Z</time>
      </trkpt>
      <trkpt lat="47.18981" lon="-1.58061">
        <ele>58</ele>
        <time>2021-07-19T15:10:31.000Z</time>
      </trkpt>
      <trkpt lat="47.18987" lon="-1.58044">
        <ele>58</ele>
        <time>2021-07-19T15:10:33.000Z</time>
      </trkpt>
      <trkpt lat="47.18993" lon="-1.58027">
        <ele>58</ele>
        <time>2021-07-19T15:10:35.000Z</time>
      </trkpt>
      <trkpt lat="47.18999" lon="-1.5801">
        <ele>58</ele>
        <time>2021-07-19T15:10:37.000Z</time>
      </trkpt>
      <trkpt lat="47.19005" lon="-1.57993">
        <ele>59</ele>
        <time>2021-07-19T15:10:39.000Z</time>
      </trkpt>
      <trkpt lat="47.19011" lon="-1.57976">
        <ele>59</ele>
        <time>2021-07-19T15:10:41.000Z</time>
      </trkpt>
      <trkpt lat="47.19017" lon="-1.57958">
        <ele>58</ele>
        <time>2021-07-19T15:10:43.000Z</time>
      </trkpt>
      <trkpt lat="47.19024" lon="-1.57941">
        <ele>59</ele>
        <time>2021-07-19T15:10:45.000Z</time>
      </trkpt>
      <trkpt lat="47.1903" lon="-1.57924">
        <ele>58</ele>
        <time>2021-07-19T15:10:47.000Z</time>
      </trkpt>
      <trkpt lat="47.19036" lon="-1.57907">
        <ele>59</ele>
        <time>2021-07-19T15:10:49.000Z</time>
      </trkpt>
      <trkpt lat="47.19042" lon="-1.57891">
        <ele>59</ele>
        <time>2021-07-19T15:10:51.000Z</time>
      </trkpt>
      <trkpt lat="47.19047" lon="-1.57875">
        <ele>59</ele>
        <time>2021-07-19T15:10:53.000Z</time>
      </trkpt>
      <trkpt lat="47.19053" lon="-1.57859">
        <ele>59</ele>
        <time>2021-07-19T15:10:55.000Z</time>
      </trkpt>
      <trkpt lat="47.19059" lon="-1.57842">
        <ele>59</ele>
        <time>2021-07-19T15:10:57.000Z</time>
      </trkpt>
      <trkpt lat="47.19065" lon="-1.57825">
        <ele>58</ele>
        <time>2021-07-19T15:10:59.000Z</time>
      </trkpt>
      <trkpt lat="47.19071" lon="-1.57808">
        <ele>58</ele>
        <time>2021-07-19T15:11:01.000Z</time>
      </trkpt>
      <trkpt lat="47.19077" lon="-1.57791">
        <ele>59</ele>
        <time>2021-07-19T15:11:03.000Z</time>
      </trkpt>
      <trkpt lat="47.19083" lon="-1.57774">
        <ele>58</ele>
        <time>2021-07-19T15:11:05.000Z</time>
      </trkpt>
      <trkpt lat="47.19089" lon="-1.57757">
        <ele>58</ele>
        <time>2021-07-19T15:11:07.000Z</time>
      </trkpt>
      <trkpt lat="47.19095" lon="-1.57741">
        <ele>58</ele>
        <time>2021-07-19T15:11:09.000Z</time>
      </trkpt>
      <trkpt lat="47.19101" lon="-1.57724">
        <ele>58</ele>
        <time>2021-07-19T15:11:11.000Z</time>
      </trkpt>
      <trkpt lat="47.19106" lon="-1.57707">
        <ele>58</ele>
        <time>2021-07-19T15:11:13.000Z</time>
      </trkpt>
      <trkpt lat="47.19113" lon="-1.5769">
        <ele>59</ele>
        <time>2021-07-19T15:11:15.000Z</time>
      </trkpt>
      <trkpt lat="47.19119" lon="-1.57673">
        <ele>59</ele>
        <time>2021-07-19T15:11:17.000Z</time>
      </trkpt>
      <trkpt lat="47.19126" lon="-1.57656">
        <ele>59</ele>
        <time>2021-07-19T15:11:19.000Z</time>
      </trkpt>
      <trkpt lat="47.19131" lon="-1.5764">
        <ele>58</ele>
        <time>2021-07-19T15:11:21.000Z</time>
      </trkpt>
      <trkpt lat="47.19137" lon="-1.57623">
        <ele>58</ele>
        <time>2021-07-19T15:11:23.000Z</time>
      </trkpt>
      <trkpt lat="47.19142" lon="-1.57607">
        <ele>58</ele>
        <time>2021-07-19T15:11:25.000Z</time>
      </trkpt>
      <trkpt lat="47.19148" lon="-1.57592">
        <ele>58</ele>
        <time>2021-07-19T15:11:27.000Z</time>
      </trkpt>
      <trkpt lat="47.19153" lon="-1.57576">
        <ele>58</ele>
        <time>2021-07-19T15:11:29.000Z</time>
      </trkpt>
      <trkpt lat="47.19158" lon="-1.5756">
        <ele>58</ele>
        <time>2021-07-19T15:11:31.000Z</time>
      </trkpt>
      <trkpt lat="47.19164" lon="-1.57544">
        <ele>58</ele>
        <time>2021-07-19T15:11:33.000Z</time>
      </trkpt>
      <trkpt lat="47.1917" lon="-1.57528">
        <ele>58</ele>
        <time>2021-07-19T15:11:35.000Z</time>
      </trkpt>
      <trkpt lat="47.19176" lon="-1.57511">
        <ele>59</ele>
        <time>2021-07-19T15:11:37.000Z</time>
      </trkpt>
      <trkpt lat="47.19181" lon="-1.57494">
        <ele>59</ele>
        <time>2021-07-19T15:11:39.000Z</time>
      </trkpt>
      <trkpt lat="47.19186" lon="-1.57476">
        <ele>59</ele>
        <time>2021-07-19T15:11:41.000Z</time>
      </trkpt>
      <trkpt lat="47.19191" lon="-1.57459">
        <ele>59</ele>
        <time>2021-07-19T15:11:43.000Z</time>
      </trkpt>
      <trkpt lat="47.19197" lon="-1.57442">
        <ele>59</ele>
        <time>2021-07-19T15:11:45.000Z</time>
      </trkpt>
      <trkpt lat="47.19202" lon="-1.57425">
        <ele>59</ele>
        <time>2021-07-19T15:11:47.000Z</time>
      </trkpt>
      <trkpt lat="47.19207" lon="-1.57409">
        <ele>59</ele>
        <time>2021-07-19T15:11:49.000Z</time>
      </trkpt>
      <trkpt lat="47.19211" lon="-1.57392">
        <ele>59</ele>
        <time>2021-07-19T15:11:51.000Z</time>
      </trkpt>
      <trkpt lat="47.19216" lon="-1.57375">
        <ele>59</ele>
        <time>2021-07-19T15:11:53.000Z</time>
      </trkpt>
      <trkpt lat="47.19221" lon="-1.57356">
        <ele>59</ele>
        <time>2021-07-19T15:11:55.000Z</time>
      </trkpt>
      <trkpt lat="47.19225" lon="-1.57339">
        <ele>58</ele>
        <time>2021-07-19T15:11:57.000Z</time>
      </trkpt>
      <trkpt lat="47.19228" lon="-1.57322">
        <ele>59</ele>
        <time>2021-07-19T15:11:59.000Z</time>
      </trkpt>
      <trkpt lat="47.19231" lon="-1.57304">
        <ele>59</ele>
        <time>2021-07-19T15:12:01.000Z</time>
      </trkpt>
      <trkpt lat="47.19234" lon="-1.57286">
        <ele>60</ele>
        <time>2021-07-19T15:12:03.000Z</time>
      </trkpt>
      <trkpt lat="47.19236" lon="-1.57269">
        <ele>59</ele>
        <time>2021-07-19T15:12:05.000Z</time>
      </trkpt>
      <trkpt lat="47.19238" lon="-1.57251">
        <ele>60</ele>
        <time>2021-07-19T15:12:07.000Z</time>
      </trkpt>
      <trkpt lat="47.1924" lon="-1.57232">
        <ele>60</ele>
        <time>2021-07-19T15:12:09.000Z</time>
      </trkpt>
      <trkpt lat="47.19243" lon="-1.57214">
        <ele>60</ele>
        <time>2021-07-19T15:12:11.000Z</time>
      </trkpt>
      <trkpt lat="47.19245" lon="-1.57197">
        <ele>59</ele>
        <time>2021-07-19T15:12:13.000Z</time>
      </trkpt>
      <trkpt lat="47.19247" lon="-1.5718">
        <ele>59</ele>
        <time>2021-07-19T15:12:15.000Z</time>
      </trkpt>
      <trkpt lat="47.19249" lon="-1.57161">
        <ele>59</ele>
        <time>2021-07-19T15:12:17.000Z</time>
      </trkpt>
      <trkpt lat="47.19253" lon="-1.57143">
        <ele>59</ele>
        <time>2021-07-19T15:12:19.000Z</time>
      </trkpt>
      <trkpt lat="47.19256" lon="-1.57124">
        <ele>59</ele>
        <time>2021-07-19T15:12:21.000Z</time>
      </trkpt>
      <trkpt lat="47.19258" lon="-1.57106">
        <ele>59</ele>
        <time>2021-07-19T15:12:23.000Z</time>
      </trkpt>
      <trkpt lat="47.1926" lon="-1.57089">
        <ele>58</ele>
        <time>2021-07-19T15:12:25.000Z</time>
      </trkpt>
      <trkpt lat="47.19259" lon="-1.57075">
        <ele>58</ele>
        <time>2021-07-19T15:12:27.000Z</time>
      </trkpt>
      <trkpt lat="47.19254" lon="-1.57064">
        <ele>58</ele>
        <time>2021-07-19T15:12:29.000Z</time>
      </trkpt>
      <trkpt lat="47.19251" lon="-1.57047">
        <ele>57</ele>
        <time>2021-07-19T15:12:31.000Z</time>
      </trkpt>
      <trkpt lat="47.19258" lon="-1.57031">
        <ele>57</ele>
        <time>2021-07-19T15:12:33.000Z</time>
      </trkpt>
      <trkpt lat="47.19267" lon="-1.57019">
        <ele>57</ele>
        <time>2021-07-19T15:12:35.000Z</time>
      </trkpt>
      <trkpt lat="47.1927" lon="-1.57001">
        <ele>57</ele>
        <time>2021-07-19T15:12:37.000Z</time>
      </trkpt>
      <trkpt lat="47.19271" lon="-1.56983">
        <ele>57</ele>
        <time>2021-07-19T15:12:39.000Z</time>
      </trkpt>
      <trkpt lat="47.19274" lon="-1.56964">
        <ele>57</ele>
        <time>2021-07-19T15:12:41.000Z</time>
      </trkpt>
      <trkpt lat="47.19275" lon="-1.56946">
        <ele>57</ele>
        <time>2021-07-19T15:12:43.000Z</time>
      </trkpt>
      <trkpt lat="47.19276" lon="-1.56928">
        <ele>57</ele>
        <time>2021-07-19T15:12:45.000Z</time>
      </trkpt>
      <trkpt lat="47.19277" lon="-1.56909">
        <ele>57</ele>
        <time>2021-07-19T15:12:47.000Z</time>
      </trkpt>
      <trkpt lat="47.19279" lon="-1.5689">
        <ele>58</ele>
        <time>2021-07-19T15:12:49.000Z</time>
      </trkpt>
      <trkpt lat="47.19281" lon="-1.56872">
        <ele>58</ele>
        <time>2021-07-19T15:12:51.000Z</time>
      </trkpt>
      <trkpt lat="47.19283" lon="-1.56855">
        <ele>58</ele>
        <time>2021-07-19T15:12:53.000Z</time>
      </trkpt>
      <trkpt lat="47.19284" lon="-1.56838">
        <ele>57</ele>
        <time>2021-07-19T15:12:55.000Z</time>
      </trkpt>
      <trkpt lat="47.19285" lon="-1.56819">
        <ele>58</ele>
        <time>2021-07-19T15:12:57.000Z</time>
      </trkpt>
      <trkpt lat="47.19286" lon="-1.56801">
        <ele>58</ele>
        <time>2021-07-19T15:12:59.000Z</time>
      </trkpt>
      <trkpt lat="47.19286" lon="-1.56782">
        <ele>57</ele>
        <time>2021-07-19T15:13:01.000Z</time>
      </trkpt>
      <trkpt lat="47.19287" lon="-1.56764">
        <ele>57</ele>
        <time>2021-07-19T15:13:03.000Z</time>
      </trkpt>
      <trkpt lat="47.19287" lon="-1.56745">
        <ele>57</ele>
        <time>2021-07-19T15:13:05.000Z</time>
      </trkpt>
      <trkpt lat="47.19287" lon="-1.56727">
        <ele>57</ele>
        <time>2021-07-19T15:13:07.000Z</time>
      </trkpt>
      <trkpt lat="47.19286" lon="-1.56709">
        <ele>58</ele>
        <time>2021-07-19T15:13:09.000Z</time>
      </trkpt>
      <trkpt lat="47.19286" lon="-1.56691">
        <ele>58</ele>
        <time>2021-07-19T15:13:11.000Z</time>
      </trkpt>
      <trkpt lat="47.19285" lon="-1.56673">
        <ele>58</ele>
        <time>2021-07-19T15:13:13.000Z</time>
      </trkpt>
      <trkpt lat="47.19284" lon="-1.56654">
        <ele>58</ele>
        <time>2021-07-19T15:13:15.000Z</time>
      </trkpt>
      <trkpt lat="47.19283" lon="-1.56635">
        <ele>58</ele>
        <time>2021-07-19T15:13:17.000Z</time>
      </trkpt>
      <trkpt lat="47.19281" lon="-1.56617">
        <ele>57</ele>
        <time>2021-07-19T15:13:19.000Z</time>
      </trkpt>
      <trkpt lat="47.19279" lon="-1.56599">
        <ele>57</ele>
        <time>2021-07-19T15:13:21.000Z</time>
      </trkpt>
      <trkpt lat="47.19278" lon="-1.56581">
        <ele>58</ele>
        <time>2021-07-19T15:13:23.000Z</time>
      </trkpt>
      <trkpt lat="47.19276" lon="-1.56563">
        <ele>57</ele>
        <time>2021-07-19T15:13:25.000Z</time>
      </trkpt>
      <trkpt lat="47.19274" lon="-1.56545">
        <ele>57</ele>
        <time>2021-07-19T15:13:27.000Z</time>
      </trkpt>
      <trkpt lat="47.19273" lon="-1.56526">
        <ele>57</ele>
        <time>2021-07-19T15:13:29.000Z</time>
      </trkpt>
      <trkpt lat="47.19271" lon="-1.56508">
        <ele>58</ele>
        <time>2021-07-19T15:13:31.000Z</time>
      </trkpt>
      <trkpt lat="47.19269" lon="-1.56489">
        <ele>57</ele>
        <time>2021-07-19T15:13:33.000Z</time>
      </trkpt>
      <trkpt lat="47.19267" lon="-1.56471">
        <ele>57</ele>
        <time>2021-07-19T15:13:35.000Z</time>
      </trkpt>
      <trkpt lat="47.19265" lon="-1.56453">
        <ele>57</ele>
        <time>2021-07-19T15:13:37.000Z</time>
      </trkpt>
      <trkpt lat="47.19263" lon="-1.56435">
        <ele>57</ele>
        <time>2021-07-19T15:13:39.000Z</time>
      </trkpt>
      <trkpt lat="47.19263" lon="-1.56418">
        <ele>57</ele>
        <time>2021-07-19T15:13:41.000Z</time>
      </trkpt>
      <trkpt lat="47.19262" lon="-1.564">
        <ele>58</ele>
        <time>2021-07-19T15:13:43.000Z</time>
      </trkpt>
      <trkpt lat="47.19261" lon="-1.56383">
        <ele>58</ele>
        <time>2021-07-19T15:13:45.000Z</time>
      </trkpt>
      <trkpt lat="47.19258" lon="-1.56366">
        <ele>58</ele>
        <time>2021-07-19T15:13:47.000Z</time>
      </trkpt>
      <trkpt lat="47.19254" lon="-1.56348">
        <ele>58</ele>
        <time>2021-07-19T15:13:49.000Z</time>
      </trkpt>
      <trkpt lat="47.19249" lon="-1.56332">
        <ele>58</ele>
        <time>2021-07-19T15:13:51.000Z</time>
      </trkpt>
      <trkpt lat="47.1924" lon="-1.56318">
        <ele>58</ele>
        <time>2021-07-19T15:13:53.000Z</time>
      </trkpt>
      <trkpt lat="47.19233" lon="-1.56302">
        <ele>58</ele>
        <time>2021-07-19T15:13:55.000Z</time>
      </trkpt>
      <trkpt lat="47.19232" lon="-1.56283">
        <ele>58</ele>
        <time>2021-07-19T15:13:57.000Z</time>
      </trkpt>
      <trkpt lat="47.19236" lon="-1.56265">
        <ele>58</ele>
        <time>2021-07-19T15:13:59.000Z</time>
      </trkpt>
      <trkpt lat="47.19243" lon="-1.56249">
        <ele>58</ele>
        <time>2021-07-19T15:14:01.000Z</time>
      </trkpt>
      <trkpt lat="47.19243" lon="-1.56229">
        <ele>58</ele>
        <time>2021-07-19T15:14:03.000Z</time>
      </trkpt>
      <trkpt lat="47.19241" lon="-1.5621">
        <ele>58</ele>
        <time>2021-07-19T15:14:05.000Z</time>
      </trkpt>
      <trkpt lat="47.19242" lon="-1.56191">
        <ele>58</ele>
        <time>2021-07-19T15:14:07.000Z</time>
      </trkpt>
      <trkpt lat="47.19242" lon="-1.56172">
        <ele>58</ele>
        <time>2021-07-19T15:14:09.000Z</time>
      </trkpt>
      <trkpt lat="47.19242" lon="-1.56153">
        <ele>58</ele>
        <time>2021-07-19T15:14:11.000Z</time>
      </trkpt>
      <trkpt lat="47.19242" lon="-1.56133">
        <ele>58</ele>
        <time>2021-07-19T15:14:13.000Z</time>
      </trkpt>
      <trkpt lat="47.19241" lon="-1.56113">
        <ele>58</ele>
        <time>2021-07-19T15:14:15.000Z</time>
      </trkpt>
      <trkpt lat="47.1924" lon="-1.56094">
        <ele>58</ele>
        <time>2021-07-19T15:14:17.000Z</time>
      </trkpt>
      <trkpt lat="47.19239" lon="-1.56075">
        <ele>59</ele>
        <time>2021-07-19T15:14:19.000Z</time>
      </trkpt>
      <trkpt lat="47.19237" lon="-1.56056">
        <ele>58</ele>
        <time>2021-07-19T15:14:21.000Z</time>
      </trkpt>
      <trkpt lat="47.19236" lon="-1.56037">
        <ele>58</ele>
        <time>2021-07-19T15:14:23.000Z</time>
      </trkpt>
      <trkpt lat="47.19235" lon="-1.56018">
        <ele>58</ele>
        <time>2021-07-19T15:14:25.000Z</time>
      </trkpt>
      <trkpt lat="47.19232" lon="-1.55997">
        <ele>59</ele>
        <time>2021-07-19T15:14:27.000Z</time>
      </trkpt>
      <trkpt lat="47.1923" lon="-1.55978">
        <ele>58</ele>
        <time>2021-07-19T15:14:29.000Z</time>
      </trkpt>
      <trkpt lat="47.19228" lon="-1.55959">
        <ele>58</ele>
        <time>2021-07-19T15:14:31.000Z</time>
      </trkpt>
      <trkpt lat="47.19226" lon="-1.55941">
        <ele>57</ele>
        <time>2021-07-19T15:14:33.000Z</time>
      </trkpt>
      <trkpt lat="47.19224" lon="-1.55922">
        <ele>57</ele>
        <time>2021-07-19T15:14:35.000Z</time>
      </trkpt>
      <trkpt lat="47.19223" lon="-1.55903">
        <ele>57</ele>
        <time>2021-07-19T15:14:37.000Z</time>
      </trkpt>
      <trkpt lat="47.19221" lon="-1.55885">
        <ele>57</ele>
        <time>2021-07-19T15:14:39.000Z</time>
      </trkpt>
      <trkpt lat="47.1922" lon="-1.55867">
        <ele>57</ele>
        <time>2021-07-19T15:14:41.000Z</time>
      </trkpt>
      <trkpt lat="47.19219" lon="-1.55848">
        <ele>58</ele>
        <time>2021-07-19T15:14:43.000Z</time>
      </trkpt>
      <trkpt lat="47.19219" lon="-1.55829">
        <ele>58</ele>
        <time>2021-07-19T15:14:45.000Z</time>
      </trkpt>
      <trkpt lat="47.19218" lon="-1.55812">
        <ele>58</ele>
        <time>2021-07-19T15:14:47.000Z</time>
      </trkpt>
      <trkpt lat="47.19218" lon="-1.55793">
        <ele>59</ele>
        <time>2021-07-19T15:14:49.000Z</time>
      </trkpt>
      <trkpt lat="47.19217" lon="-1.55775">
        <ele>59</ele>
        <time>2021-07-19T15:14:51.000Z</time>
      </trkpt>
      <trkpt lat="47.19217" lon="-1.55756">
        <ele>59</ele>
        <time>2021-07-19T15:14:53.000Z</time>
      </trkpt>
      <trkpt lat="47.19216" lon="-1.55738">
        <ele>59</ele>
        <time>2021-07-19T15:14:55.000Z</time>
      </trkpt>
      <trkpt lat="47.19216" lon="-1.55718">
        <ele>59</ele>
        <time>2021-07-19T15:14:57.000Z</time>
      </trkpt>
      <trkpt lat="47.19217" lon="-1.557">
        <ele>59</ele>
        <time>2021-07-19T15:14:59.000Z</time>
      </trkpt>
      <trkpt lat="47.19217" lon="-1.55682">
        <ele>60</ele>
        <time>2021-07-19T15:15:01.000Z</time>
      </trkpt>
      <trkpt lat="47.19219" lon="-1.55662">
        <ele>60</ele>
        <time>2021-07-19T15:15:03.000Z</time>
      </trkpt>
      <trkpt lat="47.19219" lon="-1.55644">
        <ele>60</ele>
        <time>2021-07-19T15:15:05.000Z</time>
      </trkpt>
      <trkpt lat="47.1922" lon="-1.55625">
        <ele>60</ele>
        <time>2021-07-19T15:15:07.000Z</time>
      </trkpt>
      <trkpt lat="47.19221" lon="-1.55607">
        <ele>60</ele>
        <time>2021-07-19T15:15:09.000Z</time>
      </trkpt>
      <trkpt lat="47.19223" lon="-1.5559">
        <ele>61</ele>
        <time>2021-07-19T15:15:11.000Z</time>
      </trkpt>
      <trkpt lat="47.19225" lon="-1.55572">
        <ele>61</ele>
        <time>2021-07-19T15:15:13.000Z</time>
      </trkpt>
      <trkpt lat="47.19226" lon="-1.55554">
        <ele>61</ele>
        <time>2021-07-19T15:15:15.000Z</time>
      </trkpt>
      <trkpt lat="47.19228" lon="-1.55537">
        <ele>61</ele>
        <time>2021-07-19T15:15:17.000Z</time>
      </trkpt>
      <trkpt lat="47.19229" lon="-1.5552">
        <ele>61</ele>
        <time>2021-07-19T15:15:19.000Z</time>
      </trkpt>
      <trkpt lat="47.19229" lon="-1.55504">
        <ele>61</ele>
        <time>2021-07-19T15:15:21.000Z</time>
      </trkpt>
      <trkpt lat="47.19229" lon="-1.55489">
        <ele>61</ele>
        <time>2021-07-19T15:15:23.000Z</time>
      </trkpt>
      <trkpt lat="47.19228" lon="-1.55471">
        <ele>61</ele>
        <time>2021-07-19T15:15:26.000Z</time>
      </trkpt>
      <trkpt lat="47.19222" lon="-1.55461">
        <ele>60</ele>
        <time>2021-07-19T15:15:28.000Z</time>
      </trkpt>
      <trkpt lat="47.19215" lon="-1.5545">
        <ele>60</ele>
        <time>2021-07-19T15:15:30.000Z</time>
      </trkpt>
      <trkpt lat="47.19213" lon="-1.55433">
        <ele>59</ele>
        <time>2021-07-19T15:15:32.000Z</time>
      </trkpt>
      <trkpt lat="47.19218" lon="-1.55417">
        <ele>59</ele>
        <time>2021-07-19T15:15:34.000Z</time>
      </trkpt>
      <trkpt lat="47.19226" lon="-1.55406">
        <ele>59</ele>
        <time>2021-07-19T15:15:36.000Z</time>
      </trkpt>
      <trkpt lat="47.19235" lon="-1.55396">
        <ele>60</ele>
        <time>2021-07-19T15:15:38.000Z</time>
      </trkpt>
      <trkpt lat="47.19241" lon="-1.55379">
        <ele>59</ele>
        <time>2021-07-19T15:15:40.000Z</time>
      </trkpt>
      <trkpt lat="47.19246" lon="-1.55362">
        <ele>59</ele>
        <time>2021-07-19T15:15:42.000Z</time>
      </trkpt>
      <trkpt lat="47.19252" lon="-1.55345">
        <ele>59</ele>
        <time>2021-07-19T15:15:44.000Z</time>
      </trkpt>
      <trkpt lat="47.19256" lon="-1.55328">
        <ele>59</ele>
        <time>2021-07-19T15:15:46.000Z</time>
      </trkpt>
      <trkpt lat="47.1926" lon="-1.55311">
        <ele>59</ele>
        <time>2021-07-19T15:15:48.000Z</time>
      </trkpt>
      <trkpt lat="47.19264" lon="-1.55295">
        <ele>59</ele>
        <time>2021-07-19T15:15:50.000Z</time>
      </trkpt>
      <trkpt lat="47.19267" lon="-1.55278">
        <ele>59</ele>
        <time>2021-07-19T15:15:52.000Z</time>
      </trkpt>
      <trkpt lat="47.19271" lon="-1.5526">
        <ele>59</ele>
        <time>2021-07-19T15:15:54.000Z</time>
      </trkpt>
      <trkpt lat="47.19275" lon="-1.55244">
        <ele>59</ele>
        <time>2021-07-19T15:15:56.000Z</time>
      </trkpt>
      <trkpt lat="47.19279" lon="-1.55226">
        <ele>58</ele>
        <time>2021-07-19T15:15:58.000Z</time>
      </trkpt>
      <trkpt lat="47.19283" lon="-1.55208">
        <ele>58</ele>
        <time>2021-07-19T15:16:00.000Z</time>
      </trkpt>
      <trkpt lat="47.19288" lon="-1.55192">
        <ele>58</ele>
        <time>2021-07-19T15:16:02.000Z</time>
      </trkpt>
      <trkpt lat="47.19292" lon="-1.55175">
        <ele>58</ele>
        <time>2021-07-19T15:16:04.000Z</time>
      </trkpt>
      <trkpt lat="47.19296" lon="-1.55158">
        <ele>58</ele>
        <time>2021-07-19T15:16:06.000Z</time>
      </trkpt>
      <trkpt lat="47.193" lon="-1.55142">
        <ele>59</ele>
        <time>2021-07-19T15:16:08.000Z</time>
      </trkpt>
      <trkpt lat="47.19305" lon="-1.55126">
        <ele>59</ele>
        <time>2021-07-19T15:16:10.000Z</time>
      </trkpt>
      <trkpt lat="47.19309" lon="-1.55109">
        <ele>60</ele>
        <time>2021-07-19T15:16:12.000Z</time>
      </trkpt>
      <trkpt lat="47.19313" lon="-1.55093">
        <ele>60</ele>
        <time>2021-07-19T15:16:14.000Z</time>
      </trkpt>
      <trkpt lat="47.19317" lon="-1.55076">
        <ele>60</ele>
        <time>2021-07-19T15:16:16.000Z</time>
      </trkpt>
      <trkpt lat="47.19321" lon="-1.5506">
        <ele>61</ele>
        <time>2021-07-19T15:16:18.000Z</time>
      </trkpt>
      <trkpt lat="47.19326" lon="-1.55043">
        <ele>61</ele>
        <time>2021-07-19T15:16:20.000Z</time>
      </trkpt>
      <trkpt lat="47.1933" lon="-1.55027">
        <ele>62</ele>
        <time>2021-07-19T15:16:22.000Z</time>
      </trkpt>
      <trkpt lat="47.19334" lon="-1.5501">
        <ele>62</ele>
        <time>2021-07-19T15:16:24.000Z</time>
      </trkpt>
      <trkpt lat="47.19338" lon="-1.54992">
        <ele>62</ele>
        <time>2021-07-19T15:16:26.000Z</time>
      </trkpt>
      <trkpt lat="47.19343" lon="-1.54976">
        <ele>62</ele>
        <time>2021-07-19T15:16:28.000Z</time>
      </trkpt>
      <trkpt lat="47.19347" lon="-1.54961">
        <ele>63</ele>
        <time>2021-07-19T15:16:30.000Z</time>
      </trkpt>
      <trkpt lat="47.19351" lon="-1.54945">
        <ele>63</ele>
        <time>2021-07-19T15:16:32.000Z</time>
      </trkpt>
      <trkpt lat="47.19355" lon="-1.54929">
        <ele>63</ele>
        <time>2021-07-19T15:16:34.000Z</time>
      </trkpt>
      <trkpt lat="47.19359" lon="-1.54913">
        <ele>63</ele>
        <time>2021-07-19T15:16:36.000Z</time>
      </trkpt>
      <trkpt lat="47.19362" lon="-1.54896">
        <ele>63</ele>
        <time>2021-07-19T15:16:38.000Z</time>
      </trkpt>
      <trkpt lat="47.19367" lon="-1.54878">
        <ele>63</ele>
        <time>2021-07-19T15:16:40.000Z</time>
      </trkpt>
      <trkpt lat="47.19371" lon="-1.5486">
        <ele>63</ele>
        <time>2021-07-19T15:16:42.000Z</time>
      </trkpt>
      <trkpt lat="47.19375" lon="-1.54842">
        <ele>63</ele>
        <time>2021-07-19T15:16:44.000Z</time>
      </trkpt>
      <trkpt lat="47.19379" lon="-1.54824">
        <ele>62</ele>
        <time>2021-07-19T15:16:46.000Z</time>
      </trkpt>
      <trkpt lat="47.19384" lon="-1.54804">
        <ele>62</ele>
        <time>2021-07-19T15:16:48.000Z</time>
      </trkpt>
      <trkpt lat="47.1939" lon="-1.54783">
        <ele>63</ele>
        <time>2021-07-19T15:16:50.000Z</time>
      </trkpt>
      <trkpt lat="47.19396" lon="-1.54761">
        <ele>63</ele>
        <time>2021-07-19T15:16:52.000Z</time>
      </trkpt>
      <trkpt lat="47.19401" lon="-1.54739">
        <ele>62</ele>
        <time>2021-07-19T15:16:54.000Z</time>
      </trkpt>
      <trkpt lat="47.19407" lon="-1.54718">
        <ele>62</ele>
        <time>2021-07-19T15:16:56.000Z</time>
      </trkpt>
      <trkpt lat="47.19411" lon="-1.54696">
        <ele>62</ele>
        <time>2021-07-19T15:16:58.000Z</time>
      </trkpt>
      <trkpt lat="47.19416" lon="-1.54677">
        <ele>62</ele>
        <time>2021-07-19T15:17:00.000Z</time>
      </trkpt>
      <trkpt lat="47.19421" lon="-1.54659">
        <ele>63</ele>
        <time>2021-07-19T15:17:02.000Z</time>
      </trkpt>
      <trkpt lat="47.19426" lon="-1.54644">
        <ele>63</ele>
        <time>2021-07-19T15:17:04.000Z</time>
      </trkpt>
      <trkpt lat="47.19429" lon="-1.54631">
        <ele>62</ele>
        <time>2021-07-19T15:17:06.000Z</time>
      </trkpt>
      <trkpt lat="47.19427" lon="-1.54614">
        <ele>62</ele>
        <time>2021-07-19T15:17:10.000Z</time>
      </trkpt>
      <trkpt lat="47.19417" lon="-1.546">
        <ele>62</ele>
        <time>2021-07-19T15:17:13.000Z</time>
      </trkpt>
      <trkpt lat="47.19419" lon="-1.54584">
        <ele>61</ele>
        <time>2021-07-19T15:17:15.000Z</time>
      </trkpt>
      <trkpt lat="47.19425" lon="-1.54569">
        <ele>61</ele>
        <time>2021-07-19T15:17:17.000Z</time>
      </trkpt>
      <trkpt lat="47.19433" lon="-1.54556">
        <ele>61</ele>
        <time>2021-07-19T15:17:19.000Z</time>
      </trkpt>
      <trkpt lat="47.19444" lon="-1.5455">
        <ele>61</ele>
        <time>2021-07-19T15:17:21.000Z</time>
      </trkpt>
      <trkpt lat="47.1945" lon="-1.54539">
        <ele>61</ele>
        <time>2021-07-19T15:17:23.000Z</time>
      </trkpt>
      <trkpt lat="47.19455" lon="-1.54525">
        <ele>61</ele>
        <time>2021-07-19T15:17:25.000Z</time>
      </trkpt>
      <trkpt lat="47.1946" lon="-1.54509">
        <ele>61</ele>
        <time>2021-07-19T15:17:27.000Z</time>
      </trkpt>
      <trkpt lat="47.19466" lon="-1.54493">
        <ele>60</ele>
        <time>2021-07-19T15:17:29.000Z</time>
      </trkpt>
      <trkpt lat="47.19471" lon="-1.54476">
        <ele>60</ele>
        <time>2021-07-19T15:17:31.000Z</time>
      </trkpt>
      <trkpt lat="47.1948" lon="-1.54463">
        <ele>60</ele>
        <time>2021-07-19T15:17:33.000Z</time>
      </trkpt>
      <trkpt lat="47.19492" lon="-1.54455">
        <ele>59</ele>
        <time>2021-07-19T15:17:35.000Z</time>
      </trkpt>
      <trkpt lat="47.19504" lon="-1.54445">
        <ele>59</ele>
        <time>2021-07-19T15:17:37.000Z</time>
      </trkpt>
      <trkpt lat="47.19514" lon="-1.54436">
        <ele>59</ele>
        <time>2021-07-19T15:17:39.000Z</time>
      </trkpt>
      <trkpt lat="47.19525" lon="-1.54428">
        <ele>59</ele>
        <time>2021-07-19T15:17:41.000Z</time>
      </trkpt>
      <trkpt lat="47.19535" lon="-1.5442">
        <ele>59</ele>
        <time>2021-07-19T15:17:43.000Z</time>
      </trkpt>
      <trkpt lat="47.19545" lon="-1.54412">
        <ele>59</ele>
        <time>2021-07-19T15:17:45.000Z</time>
      </trkpt>
      <trkpt lat="47.19556" lon="-1.54404">
        <ele>59</ele>
        <time>2021-07-19T15:17:47.000Z</time>
      </trkpt>
      <trkpt lat="47.19567" lon="-1.54395">
        <ele>59</ele>
        <time>2021-07-19T15:17:49.000Z</time>
      </trkpt>
      <trkpt lat="47.19577" lon="-1.54386">
        <ele>59</ele>
        <time>2021-07-19T15:17:51.000Z</time>
      </trkpt>
      <trkpt lat="47.19588" lon="-1.54377">
        <ele>59</ele>
        <time>2021-07-19T15:17:53.000Z</time>
      </trkpt>
      <trkpt lat="47.19598" lon="-1.54367">
        <ele>59</ele>
        <time>2021-07-19T15:17:55.000Z</time>
      </trkpt>
      <trkpt lat="47.19608" lon="-1.54357">
        <ele>59</ele>
        <time>2021-07-19T15:17:57.000Z</time>
      </trkpt>
      <trkpt lat="47.19618" lon="-1.54344">
        <ele>59</ele>
        <time>2021-07-19T15:17:59.000Z</time>
      </trkpt>
      <trkpt lat="47.19627" lon="-1.54332">
        <ele>59</ele>
        <time>2021-07-19T15:18:01.000Z</time>
      </trkpt>
      <trkpt lat="47.19636" lon="-1.54318">
        <ele>59</ele>
        <time>2021-07-19T15:18:03.000Z</time>
      </trkpt>
      <trkpt lat="47.19646" lon="-1.54307">
        <ele>59</ele>
        <time>2021-07-19T15:18:05.000Z</time>
      </trkpt>
      <trkpt lat="47.19657" lon="-1.54298">
        <ele>59</ele>
        <time>2021-07-19T15:18:07.000Z</time>
      </trkpt>
      <trkpt lat="47.19668" lon="-1.5429">
        <ele>59</ele>
        <time>2021-07-19T15:18:09.000Z</time>
      </trkpt>
      <trkpt lat="47.19677" lon="-1.54281">
        <ele>58</ele>
        <time>2021-07-19T15:18:11.000Z</time>
      </trkpt>
      <trkpt lat="47.19689" lon="-1.54272">
        <ele>58</ele>
        <time>2021-07-19T15:18:13.000Z</time>
      </trkpt>
      <trkpt lat="47.197" lon="-1.54265">
        <ele>57</ele>
        <time>2021-07-19T15:18:15.000Z</time>
      </trkpt>
      <trkpt lat="47.19711" lon="-1.54258">
        <ele>58</ele>
        <time>2021-07-19T15:18:17.000Z</time>
      </trkpt>
      <trkpt lat="47.19722" lon="-1.5425">
        <ele>58</ele>
        <time>2021-07-19T15:18:19.000Z</time>
      </trkpt>
      <trkpt lat="47.19731" lon="-1.54243">
        <ele>58</ele>
        <time>2021-07-19T15:18:21.000Z</time>
      </trkpt>
      <trkpt lat="47.1974" lon="-1.54234">
        <ele>59</ele>
        <time>2021-07-19T15:18:23.000Z</time>
      </trkpt>
      <trkpt lat="47.1975" lon="-1.54225">
        <ele>59</ele>
        <time>2021-07-19T15:18:25.000Z</time>
      </trkpt>
      <trkpt lat="47.19759" lon="-1.54215">
        <ele>59</ele>
        <time>2021-07-19T15:18:27.000Z</time>
      </trkpt>
      <trkpt lat="47.19768" lon="-1.54205">
        <ele>60</ele>
        <time>2021-07-19T15:18:29.000Z</time>
      </trkpt>
      <trkpt lat="47.19778" lon="-1.54199">
        <ele>60</ele>
        <time>2021-07-19T15:18:31.000Z</time>
      </trkpt>
      <trkpt lat="47.19784" lon="-1.54186">
        <ele>60</ele>
        <time>2021-07-19T15:18:33.000Z</time>
      </trkpt>
      <trkpt lat="47.19789" lon="-1.5417">
        <ele>60</ele>
        <time>2021-07-19T15:18:35.000Z</time>
      </trkpt>
      <trkpt lat="47.19792" lon="-1.54155">
        <ele>60</ele>
        <time>2021-07-19T15:18:37.000Z</time>
      </trkpt>
      <trkpt lat="47.19794" lon="-1.54138">
        <ele>60</ele>
        <time>2021-07-19T15:18:39.000Z</time>
      </trkpt>
      <trkpt lat="47.198" lon="-1.54123">
        <ele>60</ele>
        <time>2021-07-19T15:18:41.000Z</time>
      </trkpt>
      <trkpt lat="47.1981" lon="-1.5411">
        <ele>59</ele>
        <time>2021-07-19T15:18:43.000Z</time>
      </trkpt>
      <trkpt lat="47.19822" lon="-1.54101">
        <ele>59</ele>
        <time>2021-07-19T15:18:45.000Z</time>
      </trkpt>
      <trkpt lat="47.1983" lon="-1.54084">
        <ele>59</ele>
        <time>2021-07-19T15:18:47.000Z</time>
      </trkpt>
      <trkpt lat="47.19838" lon="-1.54069">
        <ele>59</ele>
        <time>2021-07-19T15:18:49.000Z</time>
      </trkpt>
      <trkpt lat="47.19846" lon="-1.54051">
        <ele>59</ele>
        <time>2021-07-19T15:18:51.000Z</time>
      </trkpt>
      <trkpt lat="47.19853" lon="-1.54031">
        <ele>58</ele>
        <time>2021-07-19T15:18:53.000Z</time>
      </trkpt>
      <trkpt lat="47.19858" lon="-1.54011">
        <ele>58</ele>
        <time>2021-07-19T15:18:55.000Z</time>
      </trkpt>
      <trkpt lat="47.19864" lon="-1.53992">
        <ele>57</ele>
        <time>2021-07-19T15:18:57.000Z</time>
      </trkpt>
      <trkpt lat="47.1987" lon="-1.53973">
        <ele>56</ele>
        <time>2021-07-19T15:18:59.000Z</time>
      </trkpt>
      <trkpt lat="47.19876" lon="-1.53954">
        <ele>56</ele>
        <time>2021-07-19T15:19:01.000Z</time>
      </trkpt>
      <trkpt lat="47.19881" lon="-1.53935">
        <ele>56</ele>
        <time>2021-07-19T15:19:03.000Z</time>
      </trkpt>
      <trkpt lat="47.19886" lon="-1.53915">
        <ele>56</ele>
        <time>2021-07-19T15:19:05.000Z</time>
      </trkpt>
      <trkpt lat="47.1989" lon="-1.53894">
        <ele>56</ele>
        <time>2021-07-19T15:19:07.000Z</time>
      </trkpt>
      <trkpt lat="47.19894" lon="-1.53875">
        <ele>56</ele>
        <time>2021-07-19T15:19:09.000Z</time>
      </trkpt>
      <trkpt lat="47.19899" lon="-1.53857">
        <ele>56</ele>
        <time>2021-07-19T15:19:11.000Z</time>
      </trkpt>
      <trkpt lat="47.19905" lon="-1.53837">
        <ele>56</ele>
        <time>2021-07-19T15:19:13.000Z</time>
      </trkpt>
      <trkpt lat="47.1991" lon="-1.53819">
        <ele>56</ele>
        <time>2021-07-19T15:19:15.000Z</time>
      </trkpt>
      <trkpt lat="47.19914" lon="-1.538">
        <ele>56</ele>
        <time>2021-07-19T15:19:17.000Z</time>
      </trkpt>
      <trkpt lat="47.19918" lon="-1.53782">
        <ele>56</ele>
        <time>2021-07-19T15:19:19.000Z</time>
      </trkpt>
      <trkpt lat="47.19922" lon="-1.53763">
        <ele>56</ele>
        <time>2021-07-19T15:19:21.000Z</time>
      </trkpt>
      <trkpt lat="47.19926" lon="-1.53744">
        <ele>55</ele>
        <time>2021-07-19T15:19:23.000Z</time>
      </trkpt>
      <trkpt lat="47.1993" lon="-1.53723">
        <ele>56</ele>
        <time>2021-07-19T15:19:25.000Z</time>
      </trkpt>
      <trkpt lat="47.19934" lon="-1.53703">
        <ele>56</ele>
        <time>2021-07-19T15:19:27.000Z</time>
      </trkpt>
      <trkpt lat="47.19937" lon="-1.53685">
        <ele>55</ele>
        <time>2021-07-19T15:19:29.000Z</time>
      </trkpt>
      <trkpt lat="47.19942" lon="-1.53666">
        <ele>55</ele>
        <time>2021-07-19T15:19:31.000Z</time>
      </trkpt>
      <trkpt lat="47.19946" lon="-1.53647">
        <ele>56</ele>
        <time>2021-07-19T15:19:33.000Z</time>
      </trkpt>
      <trkpt lat="47.1995" lon="-1.53628">
        <ele>56</ele>
        <time>2021-07-19T15:19:35.000Z</time>
      </trkpt>
      <trkpt lat="47.19955" lon="-1.53609">
        <ele>55</ele>
        <time>2021-07-19T15:19:37.000Z</time>
      </trkpt>
      <trkpt lat="47.1996" lon="-1.5359">
        <ele>55</ele>
        <time>2021-07-19T15:19:39.000Z</time>
      </trkpt>
      <trkpt lat="47.19965" lon="-1.53572">
        <ele>55</ele>
        <time>2021-07-19T15:19:41.000Z</time>
      </trkpt>
      <trkpt lat="47.1997" lon="-1.53555">
        <ele>55</ele>
        <time>2021-07-19T15:19:43.000Z</time>
      </trkpt>
      <trkpt lat="47.19974" lon="-1.53537">
        <ele>55</ele>
        <time>2021-07-19T15:19:45.000Z</time>
      </trkpt>
      <trkpt lat="47.19979" lon="-1.5352">
        <ele>55</ele>
        <time>2021-07-19T15:19:47.000Z</time>
      </trkpt>
      <trkpt lat="47.19983" lon="-1.53503">
        <ele>55</ele>
        <time>2021-07-19T15:19:49.000Z</time>
      </trkpt>
      <trkpt lat="47.19985" lon="-1.53486">
        <ele>56</ele>
        <time>2021-07-19T15:19:51.000Z</time>
      </trkpt>
      <trkpt lat="47.19993" lon="-1.53472">
        <ele>57</ele>
        <time>2021-07-19T15:19:53.000Z</time>
      </trkpt>
      <trkpt lat="47.20005" lon="-1.5347">
        <ele>58</ele>
        <time>2021-07-19T15:19:55.000Z</time>
      </trkpt>
      <trkpt lat="47.20017" lon="-1.53466">
        <ele>58</ele>
        <time>2021-07-19T15:19:57.000Z</time>
      </trkpt>
      <trkpt lat="47.20025" lon="-1.53452">
        <ele>57</ele>
        <time>2021-07-19T15:19:59.000Z</time>
      </trkpt>
      <trkpt lat="47.20032" lon="-1.53436">
        <ele>57</ele>
        <time>2021-07-19T15:20:01.000Z</time>
      </trkpt>
      <trkpt lat="47.20038" lon="-1.53419">
        <ele>56</ele>
        <time>2021-07-19T15:20:03.000Z</time>
      </trkpt>
      <trkpt lat="47.20044" lon="-1.53402">
        <ele>56</ele>
        <time>2021-07-19T15:20:05.000Z</time>
      </trkpt>
      <trkpt lat="47.20051" lon="-1.53386">
        <ele>56</ele>
        <time>2021-07-19T15:20:07.000Z</time>
      </trkpt>
      <trkpt lat="47.20058" lon="-1.5337">
        <ele>57</ele>
        <time>2021-07-19T15:20:09.000Z</time>
      </trkpt>
      <trkpt lat="47.20065" lon="-1.5336">
        <ele>57</ele>
        <time>2021-07-19T15:20:11.000Z</time>
      </trkpt>
      <trkpt lat="47.20074" lon="-1.53352">
        <ele>58</ele>
        <time>2021-07-19T15:20:13.000Z</time>
      </trkpt>
      <trkpt lat="47.20081" lon="-1.53338">
        <ele>57</ele>
        <time>2021-07-19T15:20:15.000Z</time>
      </trkpt>
      <trkpt lat="47.20088" lon="-1.53322">
        <ele>57</ele>
        <time>2021-07-19T15:20:17.000Z</time>
      </trkpt>
      <trkpt lat="47.20094" lon="-1.53305">
        <ele>58</ele>
        <time>2021-07-19T15:20:19.000Z</time>
      </trkpt>
      <trkpt lat="47.201" lon="-1.53287">
        <ele>57</ele>
        <time>2021-07-19T15:20:21.000Z</time>
      </trkpt>
      <trkpt lat="47.20105" lon="-1.5327">
        <ele>57</ele>
        <time>2021-07-19T15:20:23.000Z</time>
      </trkpt>
      <trkpt lat="47.20109" lon="-1.53252">
        <ele>58</ele>
        <time>2021-07-19T15:20:25.000Z</time>
      </trkpt>
      <trkpt lat="47.20114" lon="-1.53234">
        <ele>59</ele>
        <time>2021-07-19T15:20:27.000Z</time>
      </trkpt>
      <trkpt lat="47.20118" lon="-1.53215">
        <ele>59</ele>
        <time>2021-07-19T15:20:29.000Z</time>
      </trkpt>
      <trkpt lat="47.20122" lon="-1.53197">
        <ele>59</ele>
        <time>2021-07-19T15:20:31.000Z</time>
      </trkpt>
      <trkpt lat="47.20127" lon="-1.5318">
        <ele>60</ele>
        <time>2021-07-19T15:20:33.000Z</time>
      </trkpt>
      <trkpt lat="47.20132" lon="-1.53163">
        <ele>59</ele>
        <time>2021-07-19T15:20:35.000Z</time>
      </trkpt>
      <trkpt lat="47.20138" lon="-1.53146">
        <ele>60</ele>
        <time>2021-07-19T15:20:37.000Z</time>
      </trkpt>
      <trkpt lat="47.20145" lon="-1.53129">
        <ele>60</ele>
        <time>2021-07-19T15:20:39.000Z</time>
      </trkpt>
      <trkpt lat="47.20152" lon="-1.53113">
        <ele>60</ele>
        <time>2021-07-19T15:20:41.000Z</time>
      </trkpt>
      <trkpt lat="47.20159" lon="-1.53097">
        <ele>61</ele>
        <time>2021-07-19T15:20:43.000Z</time>
      </trkpt>
      <trkpt lat="47.20168" lon="-1.53082">
        <ele>61</ele>
        <time>2021-07-19T15:20:45.000Z</time>
      </trkpt>
      <trkpt lat="47.20176" lon="-1.53067">
        <ele>60</ele>
        <time>2021-07-19T15:20:47.000Z</time>
      </trkpt>
      <trkpt lat="47.20185" lon="-1.53053">
        <ele>60</ele>
        <time>2021-07-19T15:20:49.000Z</time>
      </trkpt>
      <trkpt lat="47.20195" lon="-1.53041">
        <ele>60</ele>
        <time>2021-07-19T15:20:51.000Z</time>
      </trkpt>
      <trkpt lat="47.20206" lon="-1.53029">
        <ele>60</ele>
        <time>2021-07-19T15:20:53.000Z</time>
      </trkpt>
      <trkpt lat="47.20216" lon="-1.53017">
        <ele>61</ele>
        <time>2021-07-19T15:20:55.000Z</time>
      </trkpt>
      <trkpt lat="47.20226" lon="-1.53004">
        <ele>61</ele>
        <time>2021-07-19T15:20:57.000Z</time>
      </trkpt>
      <trkpt lat="47.20234" lon="-1.52991">
        <ele>61</ele>
        <time>2021-07-19T15:20:59.000Z</time>
      </trkpt>
      <trkpt lat="47.20242" lon="-1.52975">
        <ele>60</ele>
        <time>2021-07-19T15:21:01.000Z</time>
      </trkpt>
      <trkpt lat="47.2025" lon="-1.52961">
        <ele>61</ele>
        <time>2021-07-19T15:21:03.000Z</time>
      </trkpt>
      <trkpt lat="47.20258" lon="-1.52947">
        <ele>61</ele>
        <time>2021-07-19T15:21:05.000Z</time>
      </trkpt>
      <trkpt lat="47.20266" lon="-1.52932">
        <ele>61</ele>
        <time>2021-07-19T15:21:07.000Z</time>
      </trkpt>
      <trkpt lat="47.20274" lon="-1.52916">
        <ele>61</ele>
        <time>2021-07-19T15:21:09.000Z</time>
      </trkpt>
      <trkpt lat="47.20281" lon="-1.52901">
        <ele>60</ele>
        <time>2021-07-19T15:21:11.000Z</time>
      </trkpt>
      <trkpt lat="47.20288" lon="-1.52884">
        <ele>60</ele>
        <time>2021-07-19T15:21:13.000Z</time>
      </trkpt>
      <trkpt lat="47.20294" lon="-1.52867">
        <ele>60</ele>
        <time>2021-07-19T15:21:15.000Z</time>
      </trkpt>
      <trkpt lat="47.20301" lon="-1.52851">
        <ele>60</ele>
        <time>2021-07-19T15:21:17.000Z</time>
      </trkpt>
      <trkpt lat="47.20308" lon="-1.52834">
        <ele>60</ele>
        <time>2021-07-19T15:21:19.000Z</time>
      </trkpt>
      <trkpt lat="47.20315" lon="-1.52818">
        <ele>61</ele>
        <time>2021-07-19T15:21:21.000Z</time>
      </trkpt>
      <trkpt lat="47.20323" lon="-1.52802">
        <ele>61</ele>
        <time>2021-07-19T15:21:23.000Z</time>
      </trkpt>
      <trkpt lat="47.20331" lon="-1.52787">
        <ele>61</ele>
        <time>2021-07-19T15:21:25.000Z</time>
      </trkpt>
      <trkpt lat="47.20338" lon="-1.52772">
        <ele>60</ele>
        <time>2021-07-19T15:21:27.000Z</time>
      </trkpt>
      <trkpt lat="47.20346" lon="-1.52756">
        <ele>60</ele>
        <time>2021-07-19T15:21:29.000Z</time>
      </trkpt>
      <trkpt lat="47.20354" lon="-1.52739">
        <ele>60</ele>
        <time>2021-07-19T15:21:31.000Z</time>
      </trkpt>
      <trkpt lat="47.20362" lon="-1.52724">
        <ele>60</ele>
        <time>2021-07-19T15:21:33.000Z</time>
      </trkpt>
      <trkpt lat="47.2037" lon="-1.52709">
        <ele>59</ele>
        <time>2021-07-19T15:21:35.000Z</time>
      </trkpt>
      <trkpt lat="47.20379" lon="-1.52694">
        <ele>59</ele>
        <time>2021-07-19T15:21:37.000Z</time>
      </trkpt>
      <trkpt lat="47.20386" lon="-1.5268">
        <ele>59</ele>
        <time>2021-07-19T15:21:39.000Z</time>
      </trkpt>
      <trkpt lat="47.20393" lon="-1.52664">
        <ele>60</ele>
        <time>2021-07-19T15:21:41.000Z</time>
      </trkpt>
      <trkpt lat="47.204" lon="-1.52648">
        <ele>61</ele>
        <time>2021-07-19T15:21:43.000Z</time>
      </trkpt>
      <trkpt lat="47.20406" lon="-1.52632">
        <ele>60</ele>
        <time>2021-07-19T15:21:45.000Z</time>
      </trkpt>
      <trkpt lat="47.20412" lon="-1.52616">
        <ele>60</ele>
        <time>2021-07-19T15:21:47.000Z</time>
      </trkpt>
      <trkpt lat="47.20417" lon="-1.52598">
        <ele>61</ele>
        <time>2021-07-19T15:21:49.000Z</time>
      </trkpt>
      <trkpt lat="47.20421" lon="-1.52581">
        <ele>61</ele>
        <time>2021-07-19T15:21:51.000Z</time>
      </trkpt>
      <trkpt lat="47.20426" lon="-1.52564">
        <ele>61</ele>
        <time>2021-07-19T15:21:53.000Z</time>
      </trkpt>
      <trkpt lat="47.20432" lon="-1.52547">
        <ele>60</ele>
        <time>2021-07-19T15:21:55.000Z</time>
      </trkpt>
      <trkpt lat="47.20438" lon="-1.52532">
        <ele>60</ele>
        <time>2021-07-19T15:21:57.000Z</time>
      </trkpt>
      <trkpt lat="47.20444" lon="-1.52516">
        <ele>60</ele>
        <time>2021-07-19T15:21:59.000Z</time>
      </trkpt>
      <trkpt lat="47.2045" lon="-1.52501">
        <ele>60</ele>
        <time>2021-07-19T15:22:01.000Z</time>
      </trkpt>
      <trkpt lat="47.20456" lon="-1.52485">
        <ele>59</ele>
        <time>2021-07-19T15:22:03.000Z</time>
      </trkpt>
      <trkpt lat="47.20461" lon="-1.52467">
        <ele>59</ele>
        <time>2021-07-19T15:22:05.000Z</time>
      </trkpt>
      <trkpt lat="47.20468" lon="-1.52452">
        <ele>59</ele>
        <time>2021-07-19T15:22:07.000Z</time>
      </trkpt>
      <trkpt lat="47.20475" lon="-1.52438">
        <ele>59</ele>
        <time>2021-07-19T15:22:09.000Z</time>
      </trkpt>
      <trkpt lat="47.20484" lon="-1.52412">
        <ele>58</ele>
        <time>2021-07-19T15:22:12.000Z</time>
      </trkpt>
      <trkpt lat="47.2049" lon="-1.52394">
        <ele>57</ele>
        <time>2021-07-19T15:22:14.000Z</time>
      </trkpt>
      <trkpt lat="47.20496" lon="-1.52376">
        <ele>57</ele>
        <time>2021-07-19T15:22:16.000Z</time>
      </trkpt>
      <trkpt lat="47.20499" lon="-1.5236">
        <ele>57</ele>
        <time>2021-07-19T15:22:18.000Z</time>
      </trkpt>
      <trkpt lat="47.20505" lon="-1.52341">
        <ele>56</ele>
        <time>2021-07-19T15:22:20.000Z</time>
      </trkpt>
      <trkpt lat="47.20512" lon="-1.52323">
        <ele>56</ele>
        <time>2021-07-19T15:22:22.000Z</time>
      </trkpt>
      <trkpt lat="47.20517" lon="-1.52307">
        <ele>56</ele>
        <time>2021-07-19T15:22:24.000Z</time>
      </trkpt>
      <trkpt lat="47.20519" lon="-1.5229">
        <ele>57</ele>
        <time>2021-07-19T15:22:26.000Z</time>
      </trkpt>
      <trkpt lat="47.20524" lon="-1.52273">
        <ele>57</ele>
        <time>2021-07-19T15:22:28.000Z</time>
      </trkpt>
      <trkpt lat="47.2053" lon="-1.52257">
        <ele>57</ele>
        <time>2021-07-19T15:22:30.000Z</time>
      </trkpt>
      <trkpt lat="47.20537" lon="-1.52242">
        <ele>58</ele>
        <time>2021-07-19T15:22:32.000Z</time>
      </trkpt>
      <trkpt lat="47.20545" lon="-1.52227">
        <ele>58</ele>
        <time>2021-07-19T15:22:34.000Z</time>
      </trkpt>
      <trkpt lat="47.20553" lon="-1.52213">
        <ele>58</ele>
        <time>2021-07-19T15:22:36.000Z</time>
      </trkpt>
      <trkpt lat="47.2056" lon="-1.52199">
        <ele>58</ele>
        <time>2021-07-19T15:22:38.000Z</time>
      </trkpt>
      <trkpt lat="47.20569" lon="-1.52185">
        <ele>57</ele>
        <time>2021-07-19T15:22:40.000Z</time>
      </trkpt>
      <trkpt lat="47.20577" lon="-1.52171">
        <ele>56</ele>
        <time>2021-07-19T15:22:42.000Z</time>
      </trkpt>
      <trkpt lat="47.20585" lon="-1.52156">
        <ele>57</ele>
        <time>2021-07-19T15:22:44.000Z</time>
      </trkpt>
      <trkpt lat="47.20593" lon="-1.52142">
        <ele>57</ele>
        <time>2021-07-19T15:22:46.000Z</time>
      </trkpt>
      <trkpt lat="47.20601" lon="-1.52127">
        <ele>57</ele>
        <time>2021-07-19T15:22:48.000Z</time>
      </trkpt>
      <trkpt lat="47.20608" lon="-1.52113">
        <ele>57</ele>
        <time>2021-07-19T15:22:50.000Z</time>
      </trkpt>
      <trkpt lat="47.20616" lon="-1.52099">
        <ele>56</ele>
        <time>2021-07-19T15:22:52.000Z</time>
      </trkpt>
      <trkpt lat="47.20624" lon="-1.52084">
        <ele>57</ele>
        <time>2021-07-19T15:22:54.000Z</time>
      </trkpt>
      <trkpt lat="47.20632" lon="-1.52069">
        <ele>57</ele>
        <time>2021-07-19T15:22:56.000Z</time>
      </trkpt>
      <trkpt lat="47.20641" lon="-1.52056">
        <ele>57</ele>
        <time>2021-07-19T15:22:58.000Z</time>
      </trkpt>
      <trkpt lat="47.2065" lon="-1.52043">
        <ele>58</ele>
        <time>2021-07-19T15:23:00.000Z</time>
      </trkpt>
      <trkpt lat="47.20659" lon="-1.52029">
        <ele>58</ele>
        <time>2021-07-19T15:23:02.000Z</time>
      </trkpt>
      <trkpt lat="47.20667" lon="-1.52014">
        <ele>59</ele>
        <time>2021-07-19T15:23:04.000Z</time>
      </trkpt>
      <trkpt lat="47.20675" lon="-1.52">
        <ele>59</ele>
        <time>2021-07-19T15:23:06.000Z</time>
      </trkpt>
      <trkpt lat="47.20683" lon="-1.51986">
        <ele>59</ele>
        <time>2021-07-19T15:23:08.000Z</time>
      </trkpt>
      <trkpt lat="47.20691" lon="-1.51972">
        <ele>59</ele>
        <time>2021-07-19T15:23:10.000Z</time>
      </trkpt>
      <trkpt lat="47.207" lon="-1.51958">
        <ele>59</ele>
        <time>2021-07-19T15:23:12.000Z</time>
      </trkpt>
      <trkpt lat="47.20708" lon="-1.51944">
        <ele>59</ele>
        <time>2021-07-19T15:23:14.000Z</time>
      </trkpt>
      <trkpt lat="47.20714" lon="-1.51928">
        <ele>59</ele>
        <time>2021-07-19T15:23:16.000Z</time>
      </trkpt>
      <trkpt lat="47.20722" lon="-1.51913">
        <ele>58</ele>
        <time>2021-07-19T15:23:18.000Z</time>
      </trkpt>
      <trkpt lat="47.20728" lon="-1.51897">
        <ele>58</ele>
        <time>2021-07-19T15:23:20.000Z</time>
      </trkpt>
      <trkpt lat="47.20735" lon="-1.51881">
        <ele>58</ele>
        <time>2021-07-19T15:23:22.000Z</time>
      </trkpt>
      <trkpt lat="47.20742" lon="-1.51865">
        <ele>58</ele>
        <time>2021-07-19T15:23:24.000Z</time>
      </trkpt>
      <trkpt lat="47.20748" lon="-1.51849">
        <ele>59</ele>
        <time>2021-07-19T15:23:26.000Z</time>
      </trkpt>
      <trkpt lat="47.20755" lon="-1.51834">
        <ele>59</ele>
        <time>2021-07-19T15:23:28.000Z</time>
      </trkpt>
      <trkpt lat="47.2076" lon="-1.51817">
        <ele>58</ele>
        <time>2021-07-19T15:23:30.000Z</time>
      </trkpt>
      <trkpt lat="47.20763" lon="-1.51798">
        <ele>58</ele>
        <time>2021-07-19T15:23:32.000Z</time>
      </trkpt>
      <trkpt lat="47.20766" lon="-1.5178">
        <ele>58</ele>
        <time>2021-07-19T15:23:34.000Z</time>
      </trkpt>
      <trkpt lat="47.20771" lon="-1.51762">
        <ele>58</ele>
        <time>2021-07-19T15:23:36.000Z</time>
      </trkpt>
      <trkpt lat="47.20776" lon="-1.51744">
        <ele>58</ele>
        <time>2021-07-19T15:23:38.000Z</time>
      </trkpt>
      <trkpt lat="47.2078" lon="-1.51726">
        <ele>58</ele>
        <time>2021-07-19T15:23:40.000Z</time>
      </trkpt>
      <trkpt lat="47.20784" lon="-1.51709">
        <ele>58</ele>
        <time>2021-07-19T15:23:42.000Z</time>
      </trkpt>
      <trkpt lat="47.20787" lon="-1.51692">
        <ele>58</ele>
        <time>2021-07-19T15:23:44.000Z</time>
      </trkpt>
      <trkpt lat="47.2079" lon="-1.51675">
        <ele>57</ele>
        <time>2021-07-19T15:23:46.000Z</time>
      </trkpt>
      <trkpt lat="47.20793" lon="-1.51657">
        <ele>57</ele>
        <time>2021-07-19T15:23:48.000Z</time>
      </trkpt>
      <trkpt lat="47.20796" lon="-1.51639">
        <ele>57</ele>
        <time>2021-07-19T15:23:50.000Z</time>
      </trkpt>
      <trkpt lat="47.208" lon="-1.51621">
        <ele>57</ele>
        <time>2021-07-19T15:23:52.000Z</time>
      </trkpt>
      <trkpt lat="47.20802" lon="-1.51604">
        <ele>57</ele>
        <time>2021-07-19T15:23:54.000Z</time>
      </trkpt>
      <trkpt lat="47.20804" lon="-1.51586">
        <ele>57</ele>
        <time>2021-07-19T15:23:56.000Z</time>
      </trkpt>
      <trkpt lat="47.20806" lon="-1.51568">
        <ele>57</ele>
        <time>2021-07-19T15:23:58.000Z</time>
      </trkpt>
      <trkpt lat="47.20808" lon="-1.5155">
        <ele>56</ele>
        <time>2021-07-19T15:24:00.000Z</time>
      </trkpt>
      <trkpt lat="47.2081" lon="-1.51532">
        <ele>57</ele>
        <time>2021-07-19T15:24:02.000Z</time>
      </trkpt>
      <trkpt lat="47.20813" lon="-1.51515">
        <ele>56</ele>
        <time>2021-07-19T15:24:04.000Z</time>
      </trkpt>
      <trkpt lat="47.20816" lon="-1.51498">
        <ele>56</ele>
        <time>2021-07-19T15:24:06.000Z</time>
      </trkpt>
      <trkpt lat="47.20819" lon="-1.51483">
        <ele>57</ele>
        <time>2021-07-19T15:24:08.000Z</time>
      </trkpt>
      <trkpt lat="47.20822" lon="-1.51466">
        <ele>57</ele>
        <time>2021-07-19T15:24:10.000Z</time>
      </trkpt>
      <trkpt lat="47.20825" lon="-1.5145">
        <ele>57</ele>
        <time>2021-07-19T15:24:12.000Z</time>
      </trkpt>
      <trkpt lat="47.20827" lon="-1.51434">
        <ele>58</ele>
        <time>2021-07-19T15:24:14.000Z</time>
      </trkpt>
      <trkpt lat="47.2083" lon="-1.51417">
        <ele>58</ele>
        <time>2021-07-19T15:24:16.000Z</time>
      </trkpt>
      <trkpt lat="47.20834" lon="-1.51401">
        <ele>58</ele>
        <time>2021-07-19T15:24:18.000Z</time>
      </trkpt>
      <trkpt lat="47.20838" lon="-1.51385">
        <ele>57</ele>
        <time>2021-07-19T15:24:20.000Z</time>
      </trkpt>
      <trkpt lat="47.20843" lon="-1.51369">
        <ele>57</ele>
        <time>2021-07-19T15:24:22.000Z</time>
      </trkpt>
      <trkpt lat="47.20847" lon="-1.51352">
        <ele>57</ele>
        <time>2021-07-19T15:24:24.000Z</time>
      </trkpt>
      <trkpt lat="47.20852" lon="-1.51335">
        <ele>57</ele>
        <time>2021-07-19T15:24:26.000Z</time>
      </trkpt>
      <trkpt lat="47.20857" lon="-1.51318">
        <ele>57</ele>
        <time>2021-07-19T15:24:28.000Z</time>
      </trkpt>
      <trkpt lat="47.20864" lon="-1.51302">
        <ele>57</ele>
        <time>2021-07-19T15:24:30.000Z</time>
      </trkpt>
      <trkpt lat="47.20871" lon="-1.51287">
        <ele>57</ele>
        <time>2021-07-19T15:24:32.000Z</time>
      </trkpt>
      <trkpt lat="47.20878" lon="-1.51273">
        <ele>57</ele>
        <time>2021-07-19T15:24:34.000Z</time>
      </trkpt>
      <trkpt lat="47.20885" lon="-1.51259">
        <ele>57</ele>
        <time>2021-07-19T15:24:36.000Z</time>
      </trkpt>
      <trkpt lat="47.20892" lon="-1.51242">
        <ele>57</ele>
        <time>2021-07-19T15:24:38.000Z</time>
      </trkpt>
      <trkpt lat="47.20898" lon="-1.51223">
        <ele>57</ele>
        <time>2021-07-19T15:24:40.000Z</time>
      </trkpt>
      <trkpt lat="47.20904" lon="-1.51204">
        <ele>57</ele>
        <time>2021-07-19T15:24:42.000Z</time>
      </trkpt>
      <trkpt lat="47.2091" lon="-1.51186">
        <ele>57</ele>
        <time>2021-07-19T15:24:44.000Z</time>
      </trkpt>
      <trkpt lat="47.20916" lon="-1.51168">
        <ele>57</ele>
        <time>2021-07-19T15:24:46.000Z</time>
      </trkpt>
      <trkpt lat="47.20922" lon="-1.51149">
        <ele>57</ele>
        <time>2021-07-19T15:24:48.000Z</time>
      </trkpt>
      <trkpt lat="47.20929" lon="-1.51131">
        <ele>58</ele>
        <time>2021-07-19T15:24:50.000Z</time>
      </trkpt>
      <trkpt lat="47.20935" lon="-1.51111">
        <ele>58</ele>
        <time>2021-07-19T15:24:52.000Z</time>
      </trkpt>
      <trkpt lat="47.2094" lon="-1.51092">
        <ele>57</ele>
        <time>2021-07-19T15:24:54.000Z</time>
      </trkpt>
      <trkpt lat="47.20945" lon="-1.51073">
        <ele>57</ele>
        <time>2021-07-19T15:24:56.000Z</time>
      </trkpt>
      <trkpt lat="47.20948" lon="-1.51053">
        <ele>57</ele>
        <time>2021-07-19T15:24:58.000Z</time>
      </trkpt>
      <trkpt lat="47.2095" lon="-1.51033">
        <ele>58</ele>
        <time>2021-07-19T15:25:00.000Z</time>
      </trkpt>
      <trkpt lat="47.20955" lon="-1.51015">
        <ele>58</ele>
        <time>2021-07-19T15:25:02.000Z</time>
      </trkpt>
      <trkpt lat="47.20962" lon="-1.50997">
        <ele>57</ele>
        <time>2021-07-19T15:25:04.000Z</time>
      </trkpt>
      <trkpt lat="47.20966" lon="-1.50976">
        <ele>56</ele>
        <time>2021-07-19T15:25:06.000Z</time>
      </trkpt>
      <trkpt lat="47.20967" lon="-1.50955">
        <ele>56</ele>
        <time>2021-07-19T15:25:08.000Z</time>
      </trkpt>
      <trkpt lat="47.2097" lon="-1.50933">
        <ele>56</ele>
        <time>2021-07-19T15:25:10.000Z</time>
      </trkpt>
      <trkpt lat="47.20972" lon="-1.50912">
        <ele>56</ele>
        <time>2021-07-19T15:25:12.000Z</time>
      </trkpt>
      <trkpt lat="47.20975" lon="-1.5089">
        <ele>56</ele>
        <time>2021-07-19T15:25:14.000Z</time>
      </trkpt>
      <trkpt lat="47.20977" lon="-1.50868">
        <ele>56</ele>
        <time>2021-07-19T15:25:16.000Z</time>
      </trkpt>
      <trkpt lat="47.20979" lon="-1.50845">
        <ele>56</ele>
        <time>2021-07-19T15:25:18.000Z</time>
      </trkpt>
      <trkpt lat="47.20982" lon="-1.50823">
        <ele>57</ele>
        <time>2021-07-19T15:25:20.000Z</time>
      </trkpt>
      <trkpt lat="47.20984" lon="-1.50802">
        <ele>57</ele>
        <time>2021-07-19T15:25:22.000Z</time>
      </trkpt>
      <trkpt lat="47.20986" lon="-1.5078">
        <ele>57</ele>
        <time>2021-07-19T15:25:24.000Z</time>
      </trkpt>
      <trkpt lat="47.20989" lon="-1.50758">
        <ele>57</ele>
        <time>2021-07-19T15:25:26.000Z</time>
      </trkpt>
      <trkpt lat="47.20992" lon="-1.50737">
        <ele>57</ele>
        <time>2021-07-19T15:25:28.000Z</time>
      </trkpt>
      <trkpt lat="47.20994" lon="-1.50716">
        <ele>57</ele>
        <time>2021-07-19T15:25:30.000Z</time>
      </trkpt>
      <trkpt lat="47.20996" lon="-1.50695">
        <ele>58</ele>
        <time>2021-07-19T15:25:32.000Z</time>
      </trkpt>
      <trkpt lat="47.20998" lon="-1.50673">
        <ele>58</ele>
        <time>2021-07-19T15:25:34.000Z</time>
      </trkpt>
      <trkpt lat="47.20999" lon="-1.5065">
        <ele>58</ele>
        <time>2021-07-19T15:25:36.000Z</time>
      </trkpt>
      <trkpt lat="47.21" lon="-1.50629">
        <ele>58</ele>
        <time>2021-07-19T15:25:38.000Z</time>
      </trkpt>
      <trkpt lat="47.21" lon="-1.50606">
        <ele>58</ele>
        <time>2021-07-19T15:25:40.000Z</time>
      </trkpt>
      <trkpt lat="47.21001" lon="-1.50584">
        <ele>58</ele>
        <time>2021-07-19T15:25:42.000Z</time>
      </trkpt>
      <trkpt lat="47.21001" lon="-1.50563">
        <ele>58</ele>
        <time>2021-07-19T15:25:44.000Z</time>
      </trkpt>
      <trkpt lat="47.21" lon="-1.50541">
        <ele>58</ele>
        <time>2021-07-19T15:25:46.000Z</time>
      </trkpt>
      <trkpt lat="47.21" lon="-1.5052">
        <ele>58</ele>
        <time>2021-07-19T15:25:48.000Z</time>
      </trkpt>
      <trkpt lat="47.20999" lon="-1.50499">
        <ele>58</ele>
        <time>2021-07-19T15:25:50.000Z</time>
      </trkpt>
      <trkpt lat="47.20999" lon="-1.50477">
        <ele>58</ele>
        <time>2021-07-19T15:25:52.000Z</time>
      </trkpt>
      <trkpt lat="47.20999" lon="-1.50456">
        <ele>57</ele>
        <time>2021-07-19T15:25:54.000Z</time>
      </trkpt>
      <trkpt lat="47.20999" lon="-1.50434">
        <ele>57</ele>
        <time>2021-07-19T15:25:56.000Z</time>
      </trkpt>
      <trkpt lat="47.20998" lon="-1.50412">
        <ele>56</ele>
        <time>2021-07-19T15:25:58.000Z</time>
      </trkpt>
      <trkpt lat="47.20997" lon="-1.50391">
        <ele>57</ele>
        <time>2021-07-19T15:26:00.000Z</time>
      </trkpt>
      <trkpt lat="47.20997" lon="-1.50369">
        <ele>57</ele>
        <time>2021-07-19T15:26:02.000Z</time>
      </trkpt>
      <trkpt lat="47.20997" lon="-1.50348">
        <ele>57</ele>
        <time>2021-07-19T15:26:04.000Z</time>
      </trkpt>
      <trkpt lat="47.20998" lon="-1.50327">
        <ele>57</ele>
        <time>2021-07-19T15:26:06.000Z</time>
      </trkpt>
      <trkpt lat="47.20999" lon="-1.50306">
        <ele>57</ele>
        <time>2021-07-19T15:26:08.000Z</time>
      </trkpt>
      <trkpt lat="47.21" lon="-1.50286">
        <ele>57</ele>
        <time>2021-07-19T15:26:10.000Z</time>
      </trkpt>
      <trkpt lat="47.21002" lon="-1.50266">
        <ele>57</ele>
        <time>2021-07-19T15:26:12.000Z</time>
      </trkpt>
      <trkpt lat="47.21008" lon="-1.5025">
        <ele>57</ele>
        <time>2021-07-19T15:26:14.000Z</time>
      </trkpt>
      <trkpt lat="47.21016" lon="-1.50236">
        <ele>57</ele>
        <time>2021-07-19T15:26:16.000Z</time>
      </trkpt>
      <trkpt lat="47.21015" lon="-1.50216">
        <ele>57</ele>
        <time>2021-07-19T15:26:18.000Z</time>
      </trkpt>
      <trkpt lat="47.21012" lon="-1.50196">
        <ele>56</ele>
        <time>2021-07-19T15:26:20.000Z</time>
      </trkpt>
      <trkpt lat="47.21016" lon="-1.50176">
        <ele>57</ele>
        <time>2021-07-19T15:26:22.000Z</time>
      </trkpt>
      <trkpt lat="47.2102" lon="-1.50155">
        <ele>57</ele>
        <time>2021-07-19T15:26:24.000Z</time>
      </trkpt>
      <trkpt lat="47.21025" lon="-1.50134">
        <ele>57</ele>
        <time>2021-07-19T15:26:26.000Z</time>
      </trkpt>
      <trkpt lat="47.2103" lon="-1.50115">
        <ele>57</ele>
        <time>2021-07-19T15:26:28.000Z</time>
      </trkpt>
      <trkpt lat="47.21035" lon="-1.50095">
        <ele>57</ele>
        <time>2021-07-19T15:26:30.000Z</time>
      </trkpt>
      <trkpt lat="47.21039" lon="-1.50075">
        <ele>58</ele>
        <time>2021-07-19T15:26:32.000Z</time>
      </trkpt>
      <trkpt lat="47.21044" lon="-1.50055">
        <ele>58</ele>
        <time>2021-07-19T15:26:34.000Z</time>
      </trkpt>
      <trkpt lat="47.21049" lon="-1.50036">
        <ele>58</ele>
        <time>2021-07-19T15:26:36.000Z</time>
      </trkpt>
      <trkpt lat="47.21055" lon="-1.50015">
        <ele>58</ele>
        <time>2021-07-19T15:26:38.000Z</time>
      </trkpt>
      <trkpt lat="47.21059" lon="-1.49995">
        <ele>58</ele>
        <time>2021-07-19T15:26:40.000Z</time>
      </trkpt>
      <trkpt lat="47.21064" lon="-1.49975">
        <ele>59</ele>
        <time>2021-07-19T15:26:42.000Z</time>
      </trkpt>
      <trkpt lat="47.21069" lon="-1.49955">
        <ele>59</ele>
        <time>2021-07-19T15:26:44.000Z</time>
      </trkpt>
      <trkpt lat="47.21075" lon="-1.49935">
        <ele>59</ele>
        <time>2021-07-19T15:26:46.000Z</time>
      </trkpt>
      <trkpt lat="47.2108" lon="-1.49916">
        <ele>59</ele>
        <time>2021-07-19T15:26:48.000Z</time>
      </trkpt>
      <trkpt lat="47.21086" lon="-1.49899">
        <ele>58</ele>
        <time>2021-07-19T15:26:50.000Z</time>
      </trkpt>
      <trkpt lat="47.21093" lon="-1.49881">
        <ele>58</ele>
        <time>2021-07-19T15:26:52.000Z</time>
      </trkpt>
      <trkpt lat="47.21096" lon="-1.4986">
        <ele>57</ele>
        <time>2021-07-19T15:26:54.000Z</time>
      </trkpt>
      <trkpt lat="47.21099" lon="-1.49839">
        <ele>56</ele>
        <time>2021-07-19T15:26:56.000Z</time>
      </trkpt>
      <trkpt lat="47.21103" lon="-1.49819">
        <ele>56</ele>
        <time>2021-07-19T15:26:58.000Z</time>
      </trkpt>
      <trkpt lat="47.21106" lon="-1.49798">
        <ele>57</ele>
        <time>2021-07-19T15:27:00.000Z</time>
      </trkpt>
      <trkpt lat="47.21109" lon="-1.49776">
        <ele>57</ele>
        <time>2021-07-19T15:27:02.000Z</time>
      </trkpt>
      <trkpt lat="47.21111" lon="-1.49755">
        <ele>57</ele>
        <time>2021-07-19T15:27:04.000Z</time>
      </trkpt>
      <trkpt lat="47.21113" lon="-1.49733">
        <ele>57</ele>
        <time>2021-07-19T15:27:06.000Z</time>
      </trkpt>
      <trkpt lat="47.21115" lon="-1.49712">
        <ele>57</ele>
        <time>2021-07-19T15:27:08.000Z</time>
      </trkpt>
      <trkpt lat="47.21117" lon="-1.49692">
        <ele>57</ele>
        <time>2021-07-19T15:27:10.000Z</time>
      </trkpt>
      <trkpt lat="47.21118" lon="-1.49671">
        <ele>56</ele>
        <time>2021-07-19T15:27:12.000Z</time>
      </trkpt>
      <trkpt lat="47.21119" lon="-1.49652">
        <ele>56</ele>
        <time>2021-07-19T15:27:14.000Z</time>
      </trkpt>
      <trkpt lat="47.2112" lon="-1.49633">
        <ele>56</ele>
        <time>2021-07-19T15:27:16.000Z</time>
      </trkpt>
      <trkpt lat="47.21122" lon="-1.49615">
        <ele>57</ele>
        <time>2021-07-19T15:27:18.000Z</time>
      </trkpt>
      <trkpt lat="47.21126" lon="-1.49601">
        <ele>57</ele>
        <time>2021-07-19T15:27:20.000Z</time>
      </trkpt>
      <trkpt lat="47.21133" lon="-1.49589">
        <ele>57</ele>
        <time>2021-07-19T15:27:22.000Z</time>
      </trkpt>
      <trkpt lat="47.21136" lon="-1.49575">
        <ele>57</ele>
        <time>2021-07-19T15:27:24.000Z</time>
      </trkpt>
      <trkpt lat="47.21133" lon="-1.49562">
        <ele>56</ele>
        <time>2021-07-19T15:27:30.000Z</time>
      </trkpt>
      <trkpt lat="47.21128" lon="-1.49549">
        <ele>57</ele>
        <time>2021-07-19T15:27:37.000Z</time>
      </trkpt>
      <trkpt lat="47.21125" lon="-1.49534">
        <ele>57</ele>
        <time>2021-07-19T15:27:39.000Z</time>
      </trkpt>
      <trkpt lat="47.21124" lon="-1.49516">
        <ele>57</ele>
        <time>2021-07-19T15:27:41.000Z</time>
      </trkpt>
      <trkpt lat="47.21124" lon="-1.49497">
        <ele>56</ele>
        <time>2021-07-19T15:27:43.000Z</time>
      </trkpt>
      <trkpt lat="47.21125" lon="-1.49474">
        <ele>56</ele>
        <time>2021-07-19T15:27:45.000Z</time>
      </trkpt>
      <trkpt lat="47.21126" lon="-1.49452">
        <ele>55</ele>
        <time>2021-07-19T15:27:47.000Z</time>
      </trkpt>
      <trkpt lat="47.21126" lon="-1.49429">
        <ele>56</ele>
        <time>2021-07-19T15:27:49.000Z</time>
      </trkpt>
      <trkpt lat="47.21127" lon="-1.49407">
        <ele>56</ele>
        <time>2021-07-19T15:27:51.000Z</time>
      </trkpt>
      <trkpt lat="47.21128" lon="-1.49385">
        <ele>56</ele>
        <time>2021-07-19T15:27:53.000Z</time>
      </trkpt>
      <trkpt lat="47.21129" lon="-1.49363">
        <ele>56</ele>
        <time>2021-07-19T15:27:55.000Z</time>
      </trkpt>
      <trkpt lat="47.2113" lon="-1.49342">
        <ele>56</ele>
        <time>2021-07-19T15:27:57.000Z</time>
      </trkpt>
      <trkpt lat="47.21131" lon="-1.4932">
        <ele>56</ele>
        <time>2021-07-19T15:27:59.000Z</time>
      </trkpt>
      <trkpt lat="47.21132" lon="-1.49299">
        <ele>56</ele>
        <time>2021-07-19T15:28:01.000Z</time>
      </trkpt>
      <trkpt lat="47.21133" lon="-1.49277">
        <ele>56</ele>
        <time>2021-07-19T15:28:03.000Z</time>
      </trkpt>
      <trkpt lat="47.21134" lon="-1.49256">
        <ele>56</ele>
        <time>2021-07-19T15:28:05.000Z</time>
      </trkpt>
      <trkpt lat="47.21136" lon="-1.49235">
        <ele>56</ele>
        <time>2021-07-19T15:28:07.000Z</time>
      </trkpt>
      <trkpt lat="47.21137" lon="-1.49213">
        <ele>56</ele>
        <time>2021-07-19T15:28:09.000Z</time>
      </trkpt>
      <trkpt lat="47.21139" lon="-1.49193">
        <ele>55</ele>
        <time>2021-07-19T15:28:11.000Z</time>
      </trkpt>
      <trkpt lat="47.21142" lon="-1.49172">
        <ele>56</ele>
        <time>2021-07-19T15:28:13.000Z</time>
      </trkpt>
      <trkpt lat="47.21145" lon="-1.49153">
        <ele>56</ele>
        <time>2021-07-19T15:28:15.000Z</time>
      </trkpt>
      <trkpt lat="47.21148" lon="-1.49133">
        <ele>56</ele>
        <time>2021-07-19T15:28:17.000Z</time>
      </trkpt>
      <trkpt lat="47.2115" lon="-1.49114">
        <ele>56</ele>
        <time>2021-07-19T15:28:19.000Z</time>
      </trkpt>
      <trkpt lat="47.21157" lon="-1.49096">
        <ele>56</ele>
        <time>2021-07-19T15:28:21.000Z</time>
      </trkpt>
      <trkpt lat="47.21161" lon="-1.49077">
        <ele>56</ele>
        <time>2021-07-19T15:28:23.000Z</time>
      </trkpt>
      <trkpt lat="47.21154" lon="-1.49057">
        <ele>57</ele>
        <time>2021-07-19T15:28:25.000Z</time>
      </trkpt>
      <trkpt lat="47.21151" lon="-1.49038">
        <ele>57</ele>
        <time>2021-07-19T15:28:27.000Z</time>
      </trkpt>
      <trkpt lat="47.21154" lon="-1.49019">
        <ele>57</ele>
        <time>2021-07-19T15:28:29.000Z</time>
      </trkpt>
      <trkpt lat="47.21157" lon="-1.48998">
        <ele>58</ele>
        <time>2021-07-19T15:28:31.000Z</time>
      </trkpt>
      <trkpt lat="47.2116" lon="-1.48977">
        <ele>59</ele>
        <time>2021-07-19T15:28:33.000Z</time>
      </trkpt>
      <trkpt lat="47.21164" lon="-1.48956">
        <ele>59</ele>
        <time>2021-07-19T15:28:35.000Z</time>
      </trkpt>
      <trkpt lat="47.21168" lon="-1.48936">
        <ele>59</ele>
        <time>2021-07-19T15:28:37.000Z</time>
      </trkpt>
      <trkpt lat="47.21172" lon="-1.48916">
        <ele>59</ele>
        <time>2021-07-19T15:28:39.000Z</time>
      </trkpt>
      <trkpt lat="47.21177" lon="-1.48897">
        <ele>60</ele>
        <time>2021-07-19T15:28:41.000Z</time>
      </trkpt>
      <trkpt lat="47.21181" lon="-1.48877">
        <ele>61</ele>
        <time>2021-07-19T15:28:43.000Z</time>
      </trkpt>
      <trkpt lat="47.21184" lon="-1.48857">
        <ele>60</ele>
        <time>2021-07-19T15:28:45.000Z</time>
      </trkpt>
      <trkpt lat="47.21187" lon="-1.48836">
        <ele>60</ele>
        <time>2021-07-19T15:28:47.000Z</time>
      </trkpt>
      <trkpt lat="47.21191" lon="-1.48815">
        <ele>60</ele>
        <time>2021-07-19T15:28:49.000Z</time>
      </trkpt>
      <trkpt lat="47.21196" lon="-1.48795">
        <ele>59</ele>
        <time>2021-07-19T15:28:51.000Z</time>
      </trkpt>
      <trkpt lat="47.212" lon="-1.48776">
        <ele>59</ele>
        <time>2021-07-19T15:28:53.000Z</time>
      </trkpt>
      <trkpt lat="47.21205" lon="-1.48756">
        <ele>59</ele>
        <time>2021-07-19T15:28:55.000Z</time>
      </trkpt>
      <trkpt lat="47.2121" lon="-1.48736">
        <ele>58</ele>
        <time>2021-07-19T15:28:57.000Z</time>
      </trkpt>
      <trkpt lat="47.21215" lon="-1.48716">
        <ele>58</ele>
        <time>2021-07-19T15:28:59.000Z</time>
      </trkpt>
      <trkpt lat="47.2122" lon="-1.48696">
        <ele>58</ele>
        <time>2021-07-19T15:29:01.000Z</time>
      </trkpt>
      <trkpt lat="47.21226" lon="-1.48676">
        <ele>58</ele>
        <time>2021-07-19T15:29:03.000Z</time>
      </trkpt>
      <trkpt lat="47.21231" lon="-1.48657">
        <ele>58</ele>
        <time>2021-07-19T15:29:05.000Z</time>
      </trkpt>
      <trkpt lat="47.21236" lon="-1.48638">
        <ele>57</ele>
        <time>2021-07-19T15:29:07.000Z</time>
      </trkpt>
      <trkpt lat="47.2124" lon="-1.4862">
        <ele>58</ele>
        <time>2021-07-19T15:29:09.000Z</time>
      </trkpt>
      <trkpt lat="47.21245" lon="-1.48601">
        <ele>58</ele>
        <time>2021-07-19T15:29:11.000Z</time>
      </trkpt>
      <trkpt lat="47.2125" lon="-1.48583">
        <ele>58</ele>
        <time>2021-07-19T15:29:13.000Z</time>
      </trkpt>
      <trkpt lat="47.21255" lon="-1.48564">
        <ele>58</ele>
        <time>2021-07-19T15:29:15.000Z</time>
      </trkpt>
      <trkpt lat="47.21261" lon="-1.48547">
        <ele>58</ele>
        <time>2021-07-19T15:29:17.000Z</time>
      </trkpt>
      <trkpt lat="47.21267" lon="-1.4853">
        <ele>58</ele>
        <time>2021-07-19T15:29:19.000Z</time>
      </trkpt>
      <trkpt lat="47.21277" lon="-1.48518">
        <ele>59</ele>
        <time>2021-07-19T15:29:21.000Z</time>
      </trkpt>
      <trkpt lat="47.21289" lon="-1.48511">
        <ele>60</ele>
        <time>2021-07-19T15:29:23.000Z</time>
      </trkpt>
      <trkpt lat="47.21295" lon="-1.48492">
        <ele>60</ele>
        <time>2021-07-19T15:29:25.000Z</time>
      </trkpt>
      <trkpt lat="47.21298" lon="-1.48471">
        <ele>60</ele>
        <time>2021-07-19T15:29:27.000Z</time>
      </trkpt>
      <trkpt lat="47.21301" lon="-1.48451">
        <ele>60</ele>
        <time>2021-07-19T15:29:29.000Z</time>
      </trkpt>
      <trkpt lat="47.21307" lon="-1.48431">
        <ele>59</ele>
        <time>2021-07-19T15:29:31.000Z</time>
      </trkpt>
      <trkpt lat="47.21312" lon="-1.48413">
        <ele>58</ele>
        <time>2021-07-19T15:29:33.000Z</time>
      </trkpt>
      <trkpt lat="47.21317" lon="-1.48395">
        <ele>58</ele>
        <time>2021-07-19T15:29:35.000Z</time>
      </trkpt>
      <trkpt lat="47.21323" lon="-1.48376">
        <ele>58</ele>
        <time>2021-07-19T15:29:37.000Z</time>
      </trkpt>
      <trkpt lat="47.21329" lon="-1.48357">
        <ele>58</ele>
        <time>2021-07-19T15:29:39.000Z</time>
      </trkpt>
      <trkpt lat="47.21335" lon="-1.48339">
        <ele>58</ele>
        <time>2021-07-19T15:29:41.000Z</time>
      </trkpt>
      <trkpt lat="47.21341" lon="-1.4832">
        <ele>57</ele>
        <time>2021-07-19T15:29:43.000Z</time>
      </trkpt>
      <trkpt lat="47.21348" lon="-1.48302">
        <ele>58</ele>
        <time>2021-07-19T15:29:45.000Z</time>
      </trkpt>
      <trkpt lat="47.21354" lon="-1.48284">
        <ele>59</ele>
        <time>2021-07-19T15:29:47.000Z</time>
      </trkpt>
      <trkpt lat="47.21359" lon="-1.48265">
        <ele>59</ele>
        <time>2021-07-19T15:29:49.000Z</time>
      </trkpt>
      <trkpt lat="47.21365" lon="-1.48247">
        <ele>59</ele>
        <time>2021-07-19T15:29:51.000Z</time>
      </trkpt>
      <trkpt lat="47.21372" lon="-1.48229">
        <ele>59</ele>
        <time>2021-07-19T15:29:53.000Z</time>
      </trkpt>
      <trkpt lat="47.21379" lon="-1.48211">
        <ele>59</ele>
        <time>2021-07-19T15:29:55.000Z</time>
      </trkpt>
      <trkpt lat="47.21386" lon="-1.48195">
        <ele>59</ele>
        <time>2021-07-19T15:29:57.000Z</time>
      </trkpt>
      <trkpt lat="47.21393" lon="-1.4818">
        <ele>59</ele>
        <time>2021-07-19T15:29:59.000Z</time>
      </trkpt>
      <trkpt lat="47.21401" lon="-1.48164">
        <ele>59</ele>
        <time>2021-07-19T15:30:01.000Z</time>
      </trkpt>
      <trkpt lat="47.21408" lon="-1.48149">
        <ele>59</ele>
        <time>2021-07-19T15:30:03.000Z</time>
      </trkpt>
      <trkpt lat="47.21416" lon="-1.48134">
        <ele>59</ele>
        <time>2021-07-19T15:30:05.000Z</time>
      </trkpt>
      <trkpt lat="47.21424" lon="-1.48119">
        <ele>59</ele>
        <time>2021-07-19T15:30:07.000Z</time>
      </trkpt>
      <trkpt lat="47.21432" lon="-1.48104">
        <ele>59</ele>
        <time>2021-07-19T15:30:09.000Z</time>
      </trkpt>
      <trkpt lat="47.21441" lon="-1.4809">
        <ele>59</ele>
        <time>2021-07-19T15:30:11.000Z</time>
      </trkpt>
      <trkpt lat="47.2145" lon="-1.48077">
        <ele>59</ele>
        <time>2021-07-19T15:30:13.000Z</time>
      </trkpt>
      <trkpt lat="47.21459" lon="-1.48062">
        <ele>59</ele>
        <time>2021-07-19T15:30:15.000Z</time>
      </trkpt>
      <trkpt lat="47.21469" lon="-1.48049">
        <ele>59</ele>
        <time>2021-07-19T15:30:17.000Z</time>
      </trkpt>
      <trkpt lat="47.21479" lon="-1.48037">
        <ele>59</ele>
        <time>2021-07-19T15:30:19.000Z</time>
      </trkpt>
      <trkpt lat="47.21489" lon="-1.48024">
        <ele>59</ele>
        <time>2021-07-19T15:30:21.000Z</time>
      </trkpt>
      <trkpt lat="47.215" lon="-1.48013">
        <ele>59</ele>
        <time>2021-07-19T15:30:23.000Z</time>
      </trkpt>
      <trkpt lat="47.21509" lon="-1.48002">
        <ele>60</ele>
        <time>2021-07-19T15:30:25.000Z</time>
      </trkpt>
      <trkpt lat="47.21519" lon="-1.47991">
        <ele>59</ele>
        <time>2021-07-19T15:30:27.000Z</time>
      </trkpt>
      <trkpt lat="47.21528" lon="-1.47981">
        <ele>60</ele>
        <time>2021-07-19T15:30:29.000Z</time>
      </trkpt>
      <trkpt lat="47.21537" lon="-1.47971">
        <ele>61</ele>
        <time>2021-07-19T15:30:31.000Z</time>
      </trkpt>
      <trkpt lat="47.21547" lon="-1.47961">
        <ele>61</ele>
        <time>2021-07-19T15:30:33.000Z</time>
      </trkpt>
      <trkpt lat="47.21557" lon="-1.4795">
        <ele>61</ele>
        <time>2021-07-19T15:30:35.000Z</time>
      </trkpt>
      <trkpt lat="47.21568" lon="-1.4794">
        <ele>61</ele>
        <time>2021-07-19T15:30:37.000Z</time>
      </trkpt>
      <trkpt lat="47.21578" lon="-1.4793">
        <ele>61</ele>
        <time>2021-07-19T15:30:39.000Z</time>
      </trkpt>
      <trkpt lat="47.21588" lon="-1.47921">
        <ele>61</ele>
        <time>2021-07-19T15:30:41.000Z</time>
      </trkpt>
      <trkpt lat="47.21598" lon="-1.47912">
        <ele>61</ele>
        <time>2021-07-19T15:30:43.000Z</time>
      </trkpt>
      <trkpt lat="47.21609" lon="-1.47903">
        <ele>60</ele>
        <time>2021-07-19T15:30:45.000Z</time>
      </trkpt>
      <trkpt lat="47.21619" lon="-1.47893">
        <ele>61</ele>
        <time>2021-07-19T15:30:47.000Z</time>
      </trkpt>
      <trkpt lat="47.2163" lon="-1.47883">
        <ele>61</ele>
        <time>2021-07-19T15:30:49.000Z</time>
      </trkpt>
      <trkpt lat="47.21641" lon="-1.47873">
        <ele>60</ele>
        <time>2021-07-19T15:30:51.000Z</time>
      </trkpt>
      <trkpt lat="47.21652" lon="-1.47864">
        <ele>60</ele>
        <time>2021-07-19T15:30:53.000Z</time>
      </trkpt>
      <trkpt lat="47.21663" lon="-1.47854">
        <ele>59</ele>
        <time>2021-07-19T15:30:55.000Z</time>
      </trkpt>
      <trkpt lat="47.21673" lon="-1.47844">
        <ele>59</ele>
        <time>2021-07-19T15:30:57.000Z</time>
      </trkpt>
      <trkpt lat="47.21684" lon="-1.47834">
        <ele>59</ele>
        <time>2021-07-19T15:30:59.000Z</time>
      </trkpt>
      <trkpt lat="47.21694" lon="-1.47824">
        <ele>59</ele>
        <time>2021-07-19T15:31:01.000Z</time>
      </trkpt>
      <trkpt lat="47.21704" lon="-1.47814">
        <ele>59</ele>
        <time>2021-07-19T15:31:03.000Z</time>
      </trkpt>
      <trkpt lat="47.21715" lon="-1.47805">
        <ele>59</ele>
        <time>2021-07-19T15:31:05.000Z</time>
      </trkpt>
      <trkpt lat="47.21725" lon="-1.47795">
        <ele>59</ele>
        <time>2021-07-19T15:31:07.000Z</time>
      </trkpt>
      <trkpt lat="47.21736" lon="-1.47785">
        <ele>60</ele>
        <time>2021-07-19T15:31:09.000Z</time>
      </trkpt>
      <trkpt lat="47.21745" lon="-1.47777">
        <ele>60</ele>
        <time>2021-07-19T15:31:11.000Z</time>
      </trkpt>
      <trkpt lat="47.21755" lon="-1.47768">
        <ele>60</ele>
        <time>2021-07-19T15:31:13.000Z</time>
      </trkpt>
      <trkpt lat="47.21765" lon="-1.47759">
        <ele>60</ele>
        <time>2021-07-19T15:31:15.000Z</time>
      </trkpt>
      <trkpt lat="47.21776" lon="-1.47749">
        <ele>60</ele>
        <time>2021-07-19T15:31:17.000Z</time>
      </trkpt>
      <trkpt lat="47.21786" lon="-1.47741">
        <ele>60</ele>
        <time>2021-07-19T15:31:19.000Z</time>
      </trkpt>
      <trkpt lat="47.21797" lon="-1.47733">
        <ele>60</ele>
        <time>2021-07-19T15:31:21.000Z</time>
      </trkpt>
      <trkpt lat="47.21808" lon="-1.47724">
        <ele>60</ele>
        <time>2021-07-19T15:31:23.000Z</time>
      </trkpt>
      <trkpt lat="47.21819" lon="-1.47716">
        <ele>60</ele>
        <time>2021-07-19T15:31:25.000Z</time>
      </trkpt>
      <trkpt lat="47.2183" lon="-1.47708">
        <ele>59</ele>
        <time>2021-07-19T15:31:27.000Z</time>
      </trkpt>
      <trkpt lat="47.21841" lon="-1.47699">
        <ele>58</ele>
        <time>2021-07-19T15:31:29.000Z</time>
      </trkpt>
      <trkpt lat="47.21852" lon="-1.47689">
        <ele>57</ele>
        <time>2021-07-19T15:31:31.000Z</time>
      </trkpt>
      <trkpt lat="47.21864" lon="-1.47679">
        <ele>57</ele>
        <time>2021-07-19T15:31:33.000Z</time>
      </trkpt>
      <trkpt lat="47.21874" lon="-1.47669">
        <ele>57</ele>
        <time>2021-07-19T15:31:35.000Z</time>
      </trkpt>
      <trkpt lat="47.21886" lon="-1.47658">
        <ele>57</ele>
        <time>2021-07-19T15:31:37.000Z</time>
      </trkpt>
      <trkpt lat="47.21896" lon="-1.47649">
        <ele>57</ele>
        <time>2021-07-19T15:31:39.000Z</time>
      </trkpt>
      <trkpt lat="47.21907" lon="-1.47638">
        <ele>57</ele>
        <time>2021-07-19T15:31:41.000Z</time>
      </trkpt>
      <trkpt lat="47.21918" lon="-1.47628">
        <ele>57</ele>
        <time>2021-07-19T15:31:43.000Z</time>
      </trkpt>
      <trkpt lat="47.21929" lon="-1.47619">
        <ele>57</ele>
        <time>2021-07-19T15:31:45.000Z</time>
      </trkpt>
      <trkpt lat="47.2194" lon="-1.47608">
        <ele>57</ele>
        <time>2021-07-19T15:31:47.000Z</time>
      </trkpt>
      <trkpt lat="47.2195" lon="-1.47598">
        <ele>57</ele>
        <time>2021-07-19T15:31:49.000Z</time>
      </trkpt>
      <trkpt lat="47.21961" lon="-1.47588">
        <ele>57</ele>
        <time>2021-07-19T15:31:51.000Z</time>
      </trkpt>
      <trkpt lat="47.21972" lon="-1.47579">
        <ele>57</ele>
        <time>2021-07-19T15:31:53.000Z</time>
      </trkpt>
      <trkpt lat="47.21982" lon="-1.47569">
        <ele>58</ele>
        <time>2021-07-19T15:31:55.000Z</time>
      </trkpt>
      <trkpt lat="47.21992" lon="-1.4756">
        <ele>58</ele>
        <time>2021-07-19T15:31:57.000Z</time>
      </trkpt>
      <trkpt lat="47.22002" lon="-1.4755">
        <ele>58</ele>
        <time>2021-07-19T15:31:59.000Z</time>
      </trkpt>
      <trkpt lat="47.22013" lon="-1.47541">
        <ele>58</ele>
        <time>2021-07-19T15:32:01.000Z</time>
      </trkpt>
      <trkpt lat="47.22023" lon="-1.47531">
        <ele>58</ele>
        <time>2021-07-19T15:32:03.000Z</time>
      </trkpt>
      <trkpt lat="47.22034" lon="-1.47521">
        <ele>57</ele>
        <time>2021-07-19T15:32:05.000Z</time>
      </trkpt>
      <trkpt lat="47.22044" lon="-1.47511">
        <ele>57</ele>
        <time>2021-07-19T15:32:07.000Z</time>
      </trkpt>
      <trkpt lat="47.22055" lon="-1.47502">
        <ele>57</ele>
        <time>2021-07-19T15:32:09.000Z</time>
      </trkpt>
      <trkpt lat="47.22066" lon="-1.47492">
        <ele>58</ele>
        <time>2021-07-19T15:32:11.000Z</time>
      </trkpt>
      <trkpt lat="47.22076" lon="-1.47482">
        <ele>58</ele>
        <time>2021-07-19T15:32:13.000Z</time>
      </trkpt>
      <trkpt lat="47.22087" lon="-1.47473">
        <ele>58</ele>
        <time>2021-07-19T15:32:15.000Z</time>
      </trkpt>
      <trkpt lat="47.22099" lon="-1.47463">
        <ele>58</ele>
        <time>2021-07-19T15:32:17.000Z</time>
      </trkpt>
      <trkpt lat="47.2211" lon="-1.47454">
        <ele>57</ele>
        <time>2021-07-19T15:32:19.000Z</time>
      </trkpt>
      <trkpt lat="47.2212" lon="-1.47445">
        <ele>57</ele>
        <time>2021-07-19T15:32:21.000Z</time>
      </trkpt>
      <trkpt lat="47.22131" lon="-1.47436">
        <ele>58</ele>
        <time>2021-07-19T15:32:23.000Z</time>
      </trkpt>
      <trkpt lat="47.22142" lon="-1.47427">
        <ele>58</ele>
        <time>2021-07-19T15:32:25.000Z</time>
      </trkpt>
      <trkpt lat="47.22153" lon="-1.47419">
        <ele>57</ele>
        <time>2021-07-19T15:32:27.000Z</time>
      </trkpt>
      <trkpt lat="47.22163" lon="-1.4741">
        <ele>58</ele>
        <time>2021-07-19T15:32:29.000Z</time>
      </trkpt>
      <trkpt lat="47.22174" lon="-1.47401">
        <ele>58</ele>
        <time>2021-07-19T15:32:31.000Z</time>
      </trkpt>
      <trkpt lat="47.22185" lon="-1.47392">
        <ele>58</ele>
        <time>2021-07-19T15:32:33.000Z</time>
      </trkpt>
      <trkpt lat="47.22195" lon="-1.47384">
        <ele>58</ele>
        <time>2021-07-19T15:32:35.000Z</time>
      </trkpt>
      <trkpt lat="47.22206" lon="-1.47374">
        <ele>58</ele>
        <time>2021-07-19T15:32:37.000Z</time>
      </trkpt>
      <trkpt lat="47.22217" lon="-1.47365">
        <ele>58</ele>
        <time>2021-07-19T15:32:39.000Z</time>
      </trkpt>
      <trkpt lat="47.22228" lon="-1.47358">
        <ele>58</ele>
        <time>2021-07-19T15:32:41.000Z</time>
      </trkpt>
      <trkpt lat="47.22239" lon="-1.47351">
        <ele>58</ele>
        <time>2021-07-19T15:32:43.000Z</time>
      </trkpt>
      <trkpt lat="47.22251" lon="-1.47344">
        <ele>58</ele>
        <time>2021-07-19T15:32:45.000Z</time>
      </trkpt>
      <trkpt lat="47.22261" lon="-1.47336">
        <ele>57</ele>
        <time>2021-07-19T15:32:47.000Z</time>
      </trkpt>
      <trkpt lat="47.22272" lon="-1.47328">
        <ele>58</ele>
        <time>2021-07-19T15:32:49.000Z</time>
      </trkpt>
      <trkpt lat="47.22283" lon="-1.47319">
        <ele>57</ele>
        <time>2021-07-19T15:32:51.000Z</time>
      </trkpt>
      <trkpt lat="47.22294" lon="-1.4731">
        <ele>57</ele>
        <time>2021-07-19T15:32:53.000Z</time>
      </trkpt>
      <trkpt lat="47.22304" lon="-1.47301">
        <ele>57</ele>
        <time>2021-07-19T15:32:55.000Z</time>
      </trkpt>
      <trkpt lat="47.22315" lon="-1.47292">
        <ele>57</ele>
        <time>2021-07-19T15:32:57.000Z</time>
      </trkpt>
      <trkpt lat="47.22325" lon="-1.47283">
        <ele>57</ele>
        <time>2021-07-19T15:32:59.000Z</time>
      </trkpt>
      <trkpt lat="47.22336" lon="-1.47275">
        <ele>57</ele>
        <time>2021-07-19T15:33:01.000Z</time>
      </trkpt>
      <trkpt lat="47.22347" lon="-1.47266">
        <ele>57</ele>
        <time>2021-07-19T15:33:03.000Z</time>
      </trkpt>
      <trkpt lat="47.22357" lon="-1.47257">
        <ele>57</ele>
        <time>2021-07-19T15:33:05.000Z</time>
      </trkpt>
      <trkpt lat="47.22368" lon="-1.47247">
        <ele>57</ele>
        <time>2021-07-19T15:33:07.000Z</time>
      </trkpt>
      <trkpt lat="47.22377" lon="-1.47237">
        <ele>57</ele>
        <time>2021-07-19T15:33:09.000Z</time>
      </trkpt>
      <trkpt lat="47.22387" lon="-1.47227">
        <ele>57</ele>
        <time>2021-07-19T15:33:11.000Z</time>
      </trkpt>
      <trkpt lat="47.22398" lon="-1.47217">
        <ele>57</ele>
        <time>2021-07-19T15:33:13.000Z</time>
      </trkpt>
      <trkpt lat="47.22407" lon="-1.47206">
        <ele>58</ele>
        <time>2021-07-19T15:33:15.000Z</time>
      </trkpt>
      <trkpt lat="47.22417" lon="-1.47195">
        <ele>58</ele>
        <time>2021-07-19T15:33:17.000Z</time>
      </trkpt>
      <trkpt lat="47.22427" lon="-1.47184">
        <ele>58</ele>
        <time>2021-07-19T15:33:19.000Z</time>
      </trkpt>
      <trkpt lat="47.22437" lon="-1.47174">
        <ele>58</ele>
        <time>2021-07-19T15:33:21.000Z</time>
      </trkpt>
      <trkpt lat="47.22447" lon="-1.47165">
        <ele>59</ele>
        <time>2021-07-19T15:33:23.000Z</time>
      </trkpt>
      <trkpt lat="47.22457" lon="-1.47157">
        <ele>59</ele>
        <time>2021-07-19T15:33:25.000Z</time>
      </trkpt>
      <trkpt lat="47.22468" lon="-1.47148">
        <ele>59</ele>
        <time>2021-07-19T15:33:27.000Z</time>
      </trkpt>
      <trkpt lat="47.22479" lon="-1.47141">
        <ele>59</ele>
        <time>2021-07-19T15:33:29.000Z</time>
      </trkpt>
      <trkpt lat="47.22491" lon="-1.47135">
        <ele>59</ele>
        <time>2021-07-19T15:33:31.000Z</time>
      </trkpt>
      <trkpt lat="47.22503" lon="-1.47132">
        <ele>59</ele>
        <time>2021-07-19T15:33:33.000Z</time>
      </trkpt>
      <trkpt lat="47.22515" lon="-1.47129">
        <ele>58</ele>
        <time>2021-07-19T15:33:35.000Z</time>
      </trkpt>
      <trkpt lat="47.22528" lon="-1.47125">
        <ele>58</ele>
        <time>2021-07-19T15:33:37.000Z</time>
      </trkpt>
      <trkpt lat="47.2254" lon="-1.47122">
        <ele>58</ele>
        <time>2021-07-19T15:33:39.000Z</time>
      </trkpt>
      <trkpt lat="47.22553" lon="-1.47119">
        <ele>58</ele>
        <time>2021-07-19T15:33:41.000Z</time>
      </trkpt>
      <trkpt lat="47.22565" lon="-1.47116">
        <ele>58</ele>
        <time>2021-07-19T15:33:43.000Z</time>
      </trkpt>
      <trkpt lat="47.22577" lon="-1.4711">
        <ele>58</ele>
        <time>2021-07-19T15:33:45.000Z</time>
      </trkpt>
      <trkpt lat="47.22588" lon="-1.47101">
        <ele>57</ele>
        <time>2021-07-19T15:33:47.000Z</time>
      </trkpt>
      <trkpt lat="47.22598" lon="-1.47089">
        <ele>57</ele>
        <time>2021-07-19T15:33:49.000Z</time>
      </trkpt>
      <trkpt lat="47.22607" lon="-1.47074">
        <ele>57</ele>
        <time>2021-07-19T15:33:51.000Z</time>
      </trkpt>
      <trkpt lat="47.22614" lon="-1.47059">
        <ele>57</ele>
        <time>2021-07-19T15:33:53.000Z</time>
      </trkpt>
      <trkpt lat="47.22621" lon="-1.47045">
        <ele>58</ele>
        <time>2021-07-19T15:33:55.000Z</time>
      </trkpt>
      <trkpt lat="47.22629" lon="-1.47032">
        <ele>58</ele>
        <time>2021-07-19T15:33:57.000Z</time>
      </trkpt>
      <trkpt lat="47.22638" lon="-1.4702">
        <ele>57</ele>
        <time>2021-07-19T15:33:59.000Z</time>
      </trkpt>
      <trkpt lat="47.22647" lon="-1.47009">
        <ele>57</ele>
        <time>2021-07-19T15:34:01.000Z</time>
      </trkpt>
      <trkpt lat="47.22657" lon="-1.46999">
        <ele>57</ele>
        <time>2021-07-19T15:34:03.000Z</time>
      </trkpt>
      <trkpt lat="47.22667" lon="-1.4699">
        <ele>57</ele>
        <time>2021-07-19T15:34:05.000Z</time>
      </trkpt>
      <trkpt lat="47.22678" lon="-1.46981">
        <ele>57</ele>
        <time>2021-07-19T15:34:07.000Z</time>
      </trkpt>
      <trkpt lat="47.22689" lon="-1.46974">
        <ele>57</ele>
        <time>2021-07-19T15:34:09.000Z</time>
      </trkpt>
      <trkpt lat="47.22701" lon="-1.46967">
        <ele>57</ele>
        <time>2021-07-19T15:34:11.000Z</time>
      </trkpt>
      <trkpt lat="47.22713" lon="-1.46961">
        <ele>57</ele>
        <time>2021-07-19T15:34:13.000Z</time>
      </trkpt>
      <trkpt lat="47.22725" lon="-1.46957">
        <ele>57</ele>
        <time>2021-07-19T15:34:15.000Z</time>
      </trkpt>
      <trkpt lat="47.22737" lon="-1.46954">
        <ele>57</ele>
        <time>2021-07-19T15:34:17.000Z</time>
      </trkpt>
      <trkpt lat="47.2275" lon="-1.46953">
        <ele>56</ele>
        <time>2021-07-19T15:34:19.000Z</time>
      </trkpt>
      <trkpt lat="47.22763" lon="-1.46952">
        <ele>56</ele>
        <time>2021-07-19T15:34:21.000Z</time>
      </trkpt>
      <trkpt lat="47.22775" lon="-1.46954">
        <ele>56</ele>
        <time>2021-07-19T15:34:23.000Z</time>
      </trkpt>
      <trkpt lat="47.22787" lon="-1.46955">
        <ele>57</ele>
        <time>2021-07-19T15:34:25.000Z</time>
      </trkpt>
      <trkpt lat="47.22799" lon="-1.46959">
        <ele>57</ele>
        <time>2021-07-19T15:34:27.000Z</time>
      </trkpt>
      <trkpt lat="47.22811" lon="-1.46964">
        <ele>57</ele>
        <time>2021-07-19T15:34:29.000Z</time>
      </trkpt>
      <trkpt lat="47.22823" lon="-1.46969">
        <ele>57</ele>
        <time>2021-07-19T15:34:31.000Z</time>
      </trkpt>
      <trkpt lat="47.22834" lon="-1.46975">
        <ele>57</ele>
        <time>2021-07-19T15:34:33.000Z</time>
      </trkpt>
      <trkpt lat="47.22846" lon="-1.46981">
        <ele>56</ele>
        <time>2021-07-19T15:34:35.000Z</time>
      </trkpt>
      <trkpt lat="47.22858" lon="-1.46988">
        <ele>56</ele>
        <time>2021-07-19T15:34:37.000Z</time>
      </trkpt>
      <trkpt lat="47.2287" lon="-1.46994">
        <ele>56</ele>
        <time>2021-07-19T15:34:39.000Z</time>
      </trkpt>
      <trkpt lat="47.22883" lon="-1.46999">
        <ele>55</ele>
        <time>2021-07-19T15:34:41.000Z</time>
      </trkpt>
      <trkpt lat="47.22896" lon="-1.47">
        <ele>55</ele>
        <time>2021-07-19T15:34:43.000Z</time>
      </trkpt>
      <trkpt lat="47.22907" lon="-1.46989">
        <ele>55</ele>
        <time>2021-07-19T15:34:45.000Z</time>
      </trkpt>
      <trkpt lat="47.22912" lon="-1.46971">
        <ele>55</ele>
        <time>2021-07-19T15:34:47.000Z</time>
      </trkpt>
      <trkpt lat="47.22916" lon="-1.46955">
        <ele>55</ele>
        <time>2021-07-19T15:34:49.000Z</time>
      </trkpt>
      <trkpt lat="47.2292" lon="-1.46937">
        <ele>55</ele>
        <time>2021-07-19T15:34:51.000Z</time>
      </trkpt>
      <trkpt lat="47.22923" lon="-1.4692">
        <ele>55</ele>
        <time>2021-07-19T15:34:53.000Z</time>
      </trkpt>
      <trkpt lat="47.22927" lon="-1.46903">
        <ele>54</ele>
        <time>2021-07-19T15:34:55.000Z</time>
      </trkpt>
      <trkpt lat="47.2293" lon="-1.46884">
        <ele>54</ele>
        <time>2021-07-19T15:34:57.000Z</time>
      </trkpt>
      <trkpt lat="47.22936" lon="-1.46867">
        <ele>54</ele>
        <time>2021-07-19T15:34:59.000Z</time>
      </trkpt>
      <trkpt lat="47.2294" lon="-1.46851">
        <ele>55</ele>
        <time>2021-07-19T15:35:01.000Z</time>
      </trkpt>
      <trkpt lat="47.22947" lon="-1.46837">
        <ele>55</ele>
        <time>2021-07-19T15:35:03.000Z</time>
      </trkpt>
      <trkpt lat="47.22956" lon="-1.4683">
        <ele>54</ele>
        <time>2021-07-19T15:35:05.000Z</time>
      </trkpt>
      <trkpt lat="47.22966" lon="-1.46818">
        <ele>54</ele>
        <time>2021-07-19T15:35:07.000Z</time>
      </trkpt>
      <trkpt lat="47.22972" lon="-1.46802">
        <ele>55</ele>
        <time>2021-07-19T15:35:09.000Z</time>
      </trkpt>
      <trkpt lat="47.22977" lon="-1.46787">
        <ele>56</ele>
        <time>2021-07-19T15:35:11.000Z</time>
      </trkpt>
      <trkpt lat="47.22985" lon="-1.46774">
        <ele>57</ele>
        <time>2021-07-19T15:35:13.000Z</time>
      </trkpt>
      <trkpt lat="47.22994" lon="-1.46765">
        <ele>57</ele>
        <time>2021-07-19T15:35:15.000Z</time>
      </trkpt>
      <trkpt lat="47.23003" lon="-1.46756">
        <ele>58</ele>
        <time>2021-07-19T15:35:17.000Z</time>
      </trkpt>
      <trkpt lat="47.23012" lon="-1.46749">
        <ele>57</ele>
        <time>2021-07-19T15:35:19.000Z</time>
      </trkpt>
      <trkpt lat="47.23022" lon="-1.46744">
        <ele>57</ele>
        <time>2021-07-19T15:35:21.000Z</time>
      </trkpt>
      <trkpt lat="47.23032" lon="-1.4674">
        <ele>57</ele>
        <time>2021-07-19T15:35:23.000Z</time>
      </trkpt>
      <trkpt lat="47.2304" lon="-1.4673">
        <ele>56</ele>
        <time>2021-07-19T15:35:25.000Z</time>
      </trkpt>
      <trkpt lat="47.23044" lon="-1.46714">
        <ele>56</ele>
        <time>2021-07-19T15:35:27.000Z</time>
      </trkpt>
      <trkpt lat="47.23046" lon="-1.46698">
        <ele>56</ele>
        <time>2021-07-19T15:35:29.000Z</time>
      </trkpt>
      <trkpt lat="47.23049" lon="-1.46681">
        <ele>55</ele>
        <time>2021-07-19T15:35:31.000Z</time>
      </trkpt>
      <trkpt lat="47.23056" lon="-1.46664">
        <ele>55</ele>
        <time>2021-07-19T15:35:33.000Z</time>
      </trkpt>
      <trkpt lat="47.23061" lon="-1.46649">
        <ele>55</ele>
        <time>2021-07-19T15:35:35.000Z</time>
      </trkpt>
      <trkpt lat="47.23067" lon="-1.46636">
        <ele>56</ele>
        <time>2021-07-19T15:35:37.000Z</time>
      </trkpt>
      <trkpt lat="47.23075" lon="-1.46625">
        <ele>56</ele>
        <time>2021-07-19T15:35:39.000Z</time>
      </trkpt>
      <trkpt lat="47.23084" lon="-1.46614">
        <ele>57</ele>
        <time>2021-07-19T15:35:41.000Z</time>
      </trkpt>
      <trkpt lat="47.23093" lon="-1.46603">
        <ele>57</ele>
        <time>2021-07-19T15:35:43.000Z</time>
      </trkpt>
      <trkpt lat="47.23102" lon="-1.46593">
        <ele>57</ele>
        <time>2021-07-19T15:35:45.000Z</time>
      </trkpt>
      <trkpt lat="47.23112" lon="-1.46583">
        <ele>57</ele>
        <time>2021-07-19T15:35:47.000Z</time>
      </trkpt>
      <trkpt lat="47.23121" lon="-1.46572">
        <ele>57</ele>
        <time>2021-07-19T15:35:49.000Z</time>
      </trkpt>
      <trkpt lat="47.23131" lon="-1.46562">
        <ele>57</ele>
        <time>2021-07-19T15:35:51.000Z</time>
      </trkpt>
      <trkpt lat="47.2314" lon="-1.46552">
        <ele>57</ele>
        <time>2021-07-19T15:35:53.000Z</time>
      </trkpt>
      <trkpt lat="47.23149" lon="-1.4654">
        <ele>57</ele>
        <time>2021-07-19T15:35:55.000Z</time>
      </trkpt>
      <trkpt lat="47.23159" lon="-1.4653">
        <ele>57</ele>
        <time>2021-07-19T15:35:57.000Z</time>
      </trkpt>
      <trkpt lat="47.23168" lon="-1.46518">
        <ele>57</ele>
        <time>2021-07-19T15:35:59.000Z</time>
      </trkpt>
      <trkpt lat="47.23176" lon="-1.46508">
        <ele>57</ele>
        <time>2021-07-19T15:36:01.000Z</time>
      </trkpt>
      <trkpt lat="47.23185" lon="-1.46497">
        <ele>57</ele>
        <time>2021-07-19T15:36:03.000Z</time>
      </trkpt>
      <trkpt lat="47.23193" lon="-1.46486">
        <ele>58</ele>
        <time>2021-07-19T15:36:05.000Z</time>
      </trkpt>
      <trkpt lat="47.23202" lon="-1.46475">
        <ele>58</ele>
        <time>2021-07-19T15:36:07.000Z</time>
      </trkpt>
      <trkpt lat="47.23211" lon="-1.46464">
        <ele>58</ele>
        <time>2021-07-19T15:36:09.000Z</time>
      </trkpt>
      <trkpt lat="47.2322" lon="-1.46454">
        <ele>58</ele>
        <time>2021-07-19T15:36:11.000Z</time>
      </trkpt>
      <trkpt lat="47.23229" lon="-1.46443">
        <ele>58</ele>
        <time>2021-07-19T15:36:13.000Z</time>
      </trkpt>
      <trkpt lat="47.23238" lon="-1.4643">
        <ele>58</ele>
        <time>2021-07-19T15:36:15.000Z</time>
      </trkpt>
      <trkpt lat="47.23248" lon="-1.46417">
        <ele>58</ele>
        <time>2021-07-19T15:36:17.000Z</time>
      </trkpt>
      <trkpt lat="47.23257" lon="-1.46404">
        <ele>58</ele>
        <time>2021-07-19T15:36:19.000Z</time>
      </trkpt>
      <trkpt lat="47.23267" lon="-1.46392">
        <ele>58</ele>
        <time>2021-07-19T15:36:21.000Z</time>
      </trkpt>
      <trkpt lat="47.23276" lon="-1.4638">
        <ele>58</ele>
        <time>2021-07-19T15:36:23.000Z</time>
      </trkpt>
      <trkpt lat="47.23287" lon="-1.46369">
        <ele>58</ele>
        <time>2021-07-19T15:36:25.000Z</time>
      </trkpt>
      <trkpt lat="47.23296" lon="-1.46357">
        <ele>57</ele>
        <time>2021-07-19T15:36:27.000Z</time>
      </trkpt>
      <trkpt lat="47.23305" lon="-1.46344">
        <ele>57</ele>
        <time>2021-07-19T15:36:29.000Z</time>
      </trkpt>
      <trkpt lat="47.23314" lon="-1.4633">
        <ele>57</ele>
        <time>2021-07-19T15:36:31.000Z</time>
      </trkpt>
      <trkpt lat="47.23323" lon="-1.46318">
        <ele>57</ele>
        <time>2021-07-19T15:36:33.000Z</time>
      </trkpt>
      <trkpt lat="47.23332" lon="-1.46306">
        <ele>57</ele>
        <time>2021-07-19T15:36:35.000Z</time>
      </trkpt>
      <trkpt lat="47.23341" lon="-1.46295">
        <ele>57</ele>
        <time>2021-07-19T15:36:37.000Z</time>
      </trkpt>
      <trkpt lat="47.23351" lon="-1.46282">
        <ele>57</ele>
        <time>2021-07-19T15:36:39.000Z</time>
      </trkpt>
      <trkpt lat="47.2336" lon="-1.4627">
        <ele>57</ele>
        <time>2021-07-19T15:36:41.000Z</time>
      </trkpt>
      <trkpt lat="47.23369" lon="-1.46258">
        <ele>57</ele>
        <time>2021-07-19T15:36:43.000Z</time>
      </trkpt>
      <trkpt lat="47.23379" lon="-1.46245">
        <ele>57</ele>
        <time>2021-07-19T15:36:45.000Z</time>
      </trkpt>
      <trkpt lat="47.23389" lon="-1.46233">
        <ele>57</ele>
        <time>2021-07-19T15:36:47.000Z</time>
      </trkpt>
      <trkpt lat="47.23398" lon="-1.46221">
        <ele>57</ele>
        <time>2021-07-19T15:36:49.000Z</time>
      </trkpt>
      <trkpt lat="47.23407" lon="-1.46209">
        <ele>57</ele>
        <time>2021-07-19T15:36:51.000Z</time>
      </trkpt>
      <trkpt lat="47.23416" lon="-1.46199">
        <ele>57</ele>
        <time>2021-07-19T15:36:53.000Z</time>
      </trkpt>
      <trkpt lat="47.23427" lon="-1.46188">
        <ele>57</ele>
        <time>2021-07-19T15:36:55.000Z</time>
      </trkpt>
      <trkpt lat="47.23437" lon="-1.46177">
        <ele>57</ele>
        <time>2021-07-19T15:36:57.000Z</time>
      </trkpt>
      <trkpt lat="47.23447" lon="-1.46166">
        <ele>57</ele>
        <time>2021-07-19T15:36:59.000Z</time>
      </trkpt>
      <trkpt lat="47.23457" lon="-1.46155">
        <ele>57</ele>
        <time>2021-07-19T15:37:01.000Z</time>
      </trkpt>
      <trkpt lat="47.23467" lon="-1.46146">
        <ele>57</ele>
        <time>2021-07-19T15:37:03.000Z</time>
      </trkpt>
      <trkpt lat="47.23477" lon="-1.46136">
        <ele>57</ele>
        <time>2021-07-19T15:37:05.000Z</time>
      </trkpt>
      <trkpt lat="47.23488" lon="-1.46127">
        <ele>57</ele>
        <time>2021-07-19T15:37:07.000Z</time>
      </trkpt>
      <trkpt lat="47.23497" lon="-1.46116">
        <ele>58</ele>
        <time>2021-07-19T15:37:09.000Z</time>
      </trkpt>
      <trkpt lat="47.23506" lon="-1.46107">
        <ele>58</ele>
        <time>2021-07-19T15:37:11.000Z</time>
      </trkpt>
      <trkpt lat="47.23515" lon="-1.46098">
        <ele>59</ele>
        <time>2021-07-19T15:37:13.000Z</time>
      </trkpt>
      <trkpt lat="47.23525" lon="-1.46087">
        <ele>59</ele>
        <time>2021-07-19T15:37:15.000Z</time>
      </trkpt>
      <trkpt lat="47.23535" lon="-1.46078">
        <ele>59</ele>
        <time>2021-07-19T15:37:17.000Z</time>
      </trkpt>
      <trkpt lat="47.23546" lon="-1.46069">
        <ele>59</ele>
        <time>2021-07-19T15:37:19.000Z</time>
      </trkpt>
      <trkpt lat="47.23557" lon="-1.4606">
        <ele>59</ele>
        <time>2021-07-19T15:37:21.000Z</time>
      </trkpt>
      <trkpt lat="47.23569" lon="-1.46057">
        <ele>57</ele>
        <time>2021-07-19T15:37:23.000Z</time>
      </trkpt>
      <trkpt lat="47.23583" lon="-1.46051">
        <ele>55</ele>
        <time>2021-07-19T15:37:25.000Z</time>
      </trkpt>
      <trkpt lat="47.23595" lon="-1.46038">
        <ele>55</ele>
        <time>2021-07-19T15:37:27.000Z</time>
      </trkpt>
      <trkpt lat="47.23607" lon="-1.46028">
        <ele>56</ele>
        <time>2021-07-19T15:37:29.000Z</time>
      </trkpt>
      <trkpt lat="47.23619" lon="-1.46019">
        <ele>56</ele>
        <time>2021-07-19T15:37:31.000Z</time>
      </trkpt>
      <trkpt lat="47.23632" lon="-1.46013">
        <ele>56</ele>
        <time>2021-07-19T15:37:33.000Z</time>
      </trkpt>
      <trkpt lat="47.23646" lon="-1.46007">
        <ele>56</ele>
        <time>2021-07-19T15:37:35.000Z</time>
      </trkpt>
      <trkpt lat="47.23659" lon="-1.46005">
        <ele>56</ele>
        <time>2021-07-19T15:37:37.000Z</time>
      </trkpt>
      <trkpt lat="47.23672" lon="-1.46002">
        <ele>56</ele>
        <time>2021-07-19T15:37:39.000Z</time>
      </trkpt>
      <trkpt lat="47.23684" lon="-1.45999">
        <ele>56</ele>
        <time>2021-07-19T15:37:41.000Z</time>
      </trkpt>
      <trkpt lat="47.23697" lon="-1.45996">
        <ele>56</ele>
        <time>2021-07-19T15:37:43.000Z</time>
      </trkpt>
      <trkpt lat="47.2371" lon="-1.45993">
        <ele>56</ele>
        <time>2021-07-19T15:37:45.000Z</time>
      </trkpt>
      <trkpt lat="47.23723" lon="-1.4599">
        <ele>55</ele>
        <time>2021-07-19T15:37:47.000Z</time>
      </trkpt>
      <trkpt lat="47.23736" lon="-1.45987">
        <ele>56</ele>
        <time>2021-07-19T15:37:49.000Z</time>
      </trkpt>
      <trkpt lat="47.23749" lon="-1.45984">
        <ele>56</ele>
        <time>2021-07-19T15:37:51.000Z</time>
      </trkpt>
      <trkpt lat="47.23761" lon="-1.4598">
        <ele>56</ele>
        <time>2021-07-19T15:37:53.000Z</time>
      </trkpt>
      <trkpt lat="47.23773" lon="-1.45975">
        <ele>56</ele>
        <time>2021-07-19T15:37:55.000Z</time>
      </trkpt>
      <trkpt lat="47.23786" lon="-1.45971">
        <ele>57</ele>
        <time>2021-07-19T15:37:57.000Z</time>
      </trkpt>
      <trkpt lat="47.23798" lon="-1.45966">
        <ele>57</ele>
        <time>2021-07-19T15:37:59.000Z</time>
      </trkpt>
      <trkpt lat="47.2381" lon="-1.45961">
        <ele>57</ele>
        <time>2021-07-19T15:38:01.000Z</time>
      </trkpt>
      <trkpt lat="47.23829" lon="-1.45956">
        <ele>57</ele>
        <time>2021-07-19T15:38:04.000Z</time>
      </trkpt>
      <trkpt lat="47.23842" lon="-1.45953">
        <ele>57</ele>
        <time>2021-07-19T15:38:06.000Z</time>
      </trkpt>
      <trkpt lat="47.23855" lon="-1.45949">
        <ele>57</ele>
        <time>2021-07-19T15:38:08.000Z</time>
      </trkpt>
      <trkpt lat="47.23868" lon="-1.45947">
        <ele>57</ele>
        <time>2021-07-19T15:38:10.000Z</time>
      </trkpt>
      <trkpt lat="47.23881" lon="-1.45944">
        <ele>57</ele>
        <time>2021-07-19T15:38:12.000Z</time>
      </trkpt>
      <trkpt lat="47.23893" lon="-1.45941">
        <ele>57</ele>
        <time>2021-07-19T15:38:14.000Z</time>
      </trkpt>
      <trkpt lat="47.23911" lon="-1.45936">
        <ele>57</ele>
        <time>2021-07-19T15:38:17.000Z</time>
      </trkpt>
      <trkpt lat="47.23922" lon="-1.45933">
        <ele>57</ele>
        <time>2021-07-19T15:38:19.000Z</time>
      </trkpt>
      <trkpt lat="47.23933" lon="-1.4593">
        <ele>56</ele>
        <time>2021-07-19T15:38:21.000Z</time>
      </trkpt>
      <trkpt lat="47.23946" lon="-1.45925">
        <ele>56</ele>
        <time>2021-07-19T15:38:23.000Z</time>
      </trkpt>
      <trkpt lat="47.23956" lon="-1.45917">
        <ele>56</ele>
        <time>2021-07-19T15:38:25.000Z</time>
      </trkpt>
      <trkpt lat="47.23965" lon="-1.45904">
        <ele>56</ele>
        <time>2021-07-19T15:38:27.000Z</time>
      </trkpt>
      <trkpt lat="47.23973" lon="-1.4589">
        <ele>56</ele>
        <time>2021-07-19T15:38:29.000Z</time>
      </trkpt>
      <trkpt lat="47.23982" lon="-1.45877">
        <ele>56</ele>
        <time>2021-07-19T15:38:31.000Z</time>
      </trkpt>
      <trkpt lat="47.2399" lon="-1.45864">
        <ele>57</ele>
        <time>2021-07-19T15:38:33.000Z</time>
      </trkpt>
      <trkpt lat="47.23998" lon="-1.4585">
        <ele>57</ele>
        <time>2021-07-19T15:38:35.000Z</time>
      </trkpt>
      <trkpt lat="47.24007" lon="-1.45837">
        <ele>56</ele>
        <time>2021-07-19T15:38:37.000Z</time>
      </trkpt>
      <trkpt lat="47.24015" lon="-1.45823">
        <ele>57</ele>
        <time>2021-07-19T15:38:39.000Z</time>
      </trkpt>
      <trkpt lat="47.24023" lon="-1.4581">
        <ele>57</ele>
        <time>2021-07-19T15:38:41.000Z</time>
      </trkpt>
      <trkpt lat="47.24031" lon="-1.45797">
        <ele>56</ele>
        <time>2021-07-19T15:38:43.000Z</time>
      </trkpt>
      <trkpt lat="47.2404" lon="-1.45784">
        <ele>56</ele>
        <time>2021-07-19T15:38:45.000Z</time>
      </trkpt>
      <trkpt lat="47.24049" lon="-1.4577">
        <ele>55</ele>
        <time>2021-07-19T15:38:47.000Z</time>
      </trkpt>
      <trkpt lat="47.24058" lon="-1.45757">
        <ele>55</ele>
        <time>2021-07-19T15:38:49.000Z</time>
      </trkpt>
      <trkpt lat="47.24066" lon="-1.45744">
        <ele>55</ele>
        <time>2021-07-19T15:38:51.000Z</time>
      </trkpt>
      <trkpt lat="47.24074" lon="-1.4573">
        <ele>55</ele>
        <time>2021-07-19T15:38:53.000Z</time>
      </trkpt>
      <trkpt lat="47.24083" lon="-1.45717">
        <ele>54</ele>
        <time>2021-07-19T15:38:55.000Z</time>
      </trkpt>
      <trkpt lat="47.24091" lon="-1.45703">
        <ele>54</ele>
        <time>2021-07-19T15:38:57.000Z</time>
      </trkpt>
      <trkpt lat="47.24099" lon="-1.45689">
        <ele>54</ele>
        <time>2021-07-19T15:38:59.000Z</time>
      </trkpt>
      <trkpt lat="47.24107" lon="-1.45675">
        <ele>54</ele>
        <time>2021-07-19T15:39:01.000Z</time>
      </trkpt>
      <trkpt lat="47.24114" lon="-1.4566">
        <ele>54</ele>
        <time>2021-07-19T15:39:03.000Z</time>
      </trkpt>
      <trkpt lat="47.24121" lon="-1.45645">
        <ele>54</ele>
        <time>2021-07-19T15:39:05.000Z</time>
      </trkpt>
      <trkpt lat="47.24127" lon="-1.45628">
        <ele>54</ele>
        <time>2021-07-19T15:39:07.000Z</time>
      </trkpt>
      <trkpt lat="47.24134" lon="-1.45612">
        <ele>54</ele>
        <time>2021-07-19T15:39:09.000Z</time>
      </trkpt>
      <trkpt lat="47.2414" lon="-1.45596">
        <ele>54</ele>
        <time>2021-07-19T15:39:11.000Z</time>
      </trkpt>
      <trkpt lat="47.24145" lon="-1.45581">
        <ele>54</ele>
        <time>2021-07-19T15:39:13.000Z</time>
      </trkpt>
      <trkpt lat="47.2415" lon="-1.45564">
        <ele>54</ele>
        <time>2021-07-19T15:39:15.000Z</time>
      </trkpt>
      <trkpt lat="47.24156" lon="-1.45548">
        <ele>54</ele>
        <time>2021-07-19T15:39:17.000Z</time>
      </trkpt>
      <trkpt lat="47.24161" lon="-1.4553">
        <ele>54</ele>
        <time>2021-07-19T15:39:19.000Z</time>
      </trkpt>
      <trkpt lat="47.24166" lon="-1.45514">
        <ele>54</ele>
        <time>2021-07-19T15:39:21.000Z</time>
      </trkpt>
      <trkpt lat="47.24171" lon="-1.45498">
        <ele>54</ele>
        <time>2021-07-19T15:39:23.000Z</time>
      </trkpt>
      <trkpt lat="47.24175" lon="-1.45483">
        <ele>55</ele>
        <time>2021-07-19T15:39:25.000Z</time>
      </trkpt>
      <trkpt lat="47.24178" lon="-1.45469">
        <ele>56</ele>
        <time>2021-07-19T15:39:27.000Z</time>
      </trkpt>
      <trkpt lat="47.24183" lon="-1.45456">
        <ele>56</ele>
        <time>2021-07-19T15:39:29.000Z</time>
      </trkpt>
      <trkpt lat="47.24187" lon="-1.45442">
        <ele>57</ele>
        <time>2021-07-19T15:39:31.000Z</time>
      </trkpt>
      <trkpt lat="47.24192" lon="-1.45427">
        <ele>57</ele>
        <time>2021-07-19T15:39:33.000Z</time>
      </trkpt>
      <trkpt lat="47.24198" lon="-1.45411">
        <ele>56</ele>
        <time>2021-07-19T15:39:35.000Z</time>
      </trkpt>
      <trkpt lat="47.24203" lon="-1.45394">
        <ele>56</ele>
        <time>2021-07-19T15:39:37.000Z</time>
      </trkpt>
      <trkpt lat="47.24208" lon="-1.45379">
        <ele>56</ele>
        <time>2021-07-19T15:39:39.000Z</time>
      </trkpt>
      <trkpt lat="47.24213" lon="-1.45363">
        <ele>56</ele>
        <time>2021-07-19T15:39:41.000Z</time>
      </trkpt>
      <trkpt lat="47.24218" lon="-1.45348">
        <ele>56</ele>
        <time>2021-07-19T15:39:43.000Z</time>
      </trkpt>
      <trkpt lat="47.24223" lon="-1.45332">
        <ele>57</ele>
        <time>2021-07-19T15:39:45.000Z</time>
      </trkpt>
      <trkpt lat="47.24228" lon="-1.45317">
        <ele>57</ele>
        <time>2021-07-19T15:39:47.000Z</time>
      </trkpt>
      <trkpt lat="47.24233" lon="-1.453">
        <ele>57</ele>
        <time>2021-07-19T15:39:49.000Z</time>
      </trkpt>
      <trkpt lat="47.24238" lon="-1.45285">
        <ele>56</ele>
        <time>2021-07-19T15:39:51.000Z</time>
      </trkpt>
      <trkpt lat="47.24244" lon="-1.45271">
        <ele>56</ele>
        <time>2021-07-19T15:39:53.000Z</time>
      </trkpt>
      <trkpt lat="47.24253" lon="-1.45259">
        <ele>56</ele>
        <time>2021-07-19T15:39:55.000Z</time>
      </trkpt>
      <trkpt lat="47.24258" lon="-1.45242">
        <ele>55</ele>
        <time>2021-07-19T15:39:57.000Z</time>
      </trkpt>
      <trkpt lat="47.24261" lon="-1.45223">
        <ele>55</ele>
        <time>2021-07-19T15:39:59.000Z</time>
      </trkpt>
      <trkpt lat="47.24261" lon="-1.45206">
        <ele>55</ele>
        <time>2021-07-19T15:40:01.000Z</time>
      </trkpt>
      <trkpt lat="47.24263" lon="-1.45188">
        <ele>55</ele>
        <time>2021-07-19T15:40:03.000Z</time>
      </trkpt>
      <trkpt lat="47.24264" lon="-1.45169">
        <ele>55</ele>
        <time>2021-07-19T15:40:05.000Z</time>
      </trkpt>
      <trkpt lat="47.24266" lon="-1.4515">
        <ele>55</ele>
        <time>2021-07-19T15:40:07.000Z</time>
      </trkpt>
      <trkpt lat="47.24268" lon="-1.45131">
        <ele>55</ele>
        <time>2021-07-19T15:40:09.000Z</time>
      </trkpt>
      <trkpt lat="47.24269" lon="-1.45111">
        <ele>55</ele>
        <time>2021-07-19T15:40:11.000Z</time>
      </trkpt>
      <trkpt lat="47.24271" lon="-1.45092">
        <ele>55</ele>
        <time>2021-07-19T15:40:13.000Z</time>
      </trkpt>
      <trkpt lat="47.24272" lon="-1.45074">
        <ele>54</ele>
        <time>2021-07-19T15:40:15.000Z</time>
      </trkpt>
      <trkpt lat="47.24274" lon="-1.45056">
        <ele>55</ele>
        <time>2021-07-19T15:40:17.000Z</time>
      </trkpt>
      <trkpt lat="47.24276" lon="-1.45036">
        <ele>55</ele>
        <time>2021-07-19T15:40:19.000Z</time>
      </trkpt>
      <trkpt lat="47.24278" lon="-1.45016">
        <ele>55</ele>
        <time>2021-07-19T15:40:21.000Z</time>
      </trkpt>
      <trkpt lat="47.24279" lon="-1.44997">
        <ele>54</ele>
        <time>2021-07-19T15:40:23.000Z</time>
      </trkpt>
      <trkpt lat="47.24281" lon="-1.44978">
        <ele>54</ele>
        <time>2021-07-19T15:40:25.000Z</time>
      </trkpt>
      <trkpt lat="47.24282" lon="-1.4496">
        <ele>54</ele>
        <time>2021-07-19T15:40:27.000Z</time>
      </trkpt>
      <trkpt lat="47.24284" lon="-1.44942">
        <ele>54</ele>
        <time>2021-07-19T15:40:29.000Z</time>
      </trkpt>
      <trkpt lat="47.24286" lon="-1.44924">
        <ele>54</ele>
        <time>2021-07-19T15:40:31.000Z</time>
      </trkpt>
      <trkpt lat="47.24287" lon="-1.44906">
        <ele>54</ele>
        <time>2021-07-19T15:40:33.000Z</time>
      </trkpt>
      <trkpt lat="47.24288" lon="-1.44889">
        <ele>54</ele>
        <time>2021-07-19T15:40:35.000Z</time>
      </trkpt>
      <trkpt lat="47.24289" lon="-1.44871">
        <ele>54</ele>
        <time>2021-07-19T15:40:37.000Z</time>
      </trkpt>
      <trkpt lat="47.2429" lon="-1.44853">
        <ele>54</ele>
        <time>2021-07-19T15:40:39.000Z</time>
      </trkpt>
      <trkpt lat="47.24292" lon="-1.44835">
        <ele>54</ele>
        <time>2021-07-19T15:40:41.000Z</time>
      </trkpt>
      <trkpt lat="47.24294" lon="-1.44817">
        <ele>54</ele>
        <time>2021-07-19T15:40:43.000Z</time>
      </trkpt>
      <trkpt lat="47.24295" lon="-1.44799">
        <ele>54</ele>
        <time>2021-07-19T15:40:45.000Z</time>
      </trkpt>
      <trkpt lat="47.24297" lon="-1.4478">
        <ele>53</ele>
        <time>2021-07-19T15:40:47.000Z</time>
      </trkpt>
      <trkpt lat="47.24298" lon="-1.44762">
        <ele>54</ele>
        <time>2021-07-19T15:40:49.000Z</time>
      </trkpt>
      <trkpt lat="47.243" lon="-1.44743">
        <ele>54</ele>
        <time>2021-07-19T15:40:51.000Z</time>
      </trkpt>
      <trkpt lat="47.24302" lon="-1.44723">
        <ele>54</ele>
        <time>2021-07-19T15:40:53.000Z</time>
      </trkpt>
      <trkpt lat="47.24303" lon="-1.44703">
        <ele>54</ele>
        <time>2021-07-19T15:40:55.000Z</time>
      </trkpt>
      <trkpt lat="47.24303" lon="-1.44684">
        <ele>53</ele>
        <time>2021-07-19T15:40:57.000Z</time>
      </trkpt>
      <trkpt lat="47.24305" lon="-1.44665">
        <ele>53</ele>
        <time>2021-07-19T15:40:59.000Z</time>
      </trkpt>
      <trkpt lat="47.24308" lon="-1.44646">
        <ele>53</ele>
        <time>2021-07-19T15:41:01.000Z</time>
      </trkpt>
      <trkpt lat="47.2431" lon="-1.44627">
        <ele>54</ele>
        <time>2021-07-19T15:41:03.000Z</time>
      </trkpt>
      <trkpt lat="47.24313" lon="-1.44608">
        <ele>54</ele>
        <time>2021-07-19T15:41:05.000Z</time>
      </trkpt>
      <trkpt lat="47.24314" lon="-1.44588">
        <ele>54</ele>
        <time>2021-07-19T15:41:07.000Z</time>
      </trkpt>
      <trkpt lat="47.24314" lon="-1.44568">
        <ele>54</ele>
        <time>2021-07-19T15:41:09.000Z</time>
      </trkpt>
      <trkpt lat="47.24315" lon="-1.44548">
        <ele>54</ele>
        <time>2021-07-19T15:41:11.000Z</time>
      </trkpt>
      <trkpt lat="47.24317" lon="-1.44528">
        <ele>54</ele>
        <time>2021-07-19T15:41:13.000Z</time>
      </trkpt>
      <trkpt lat="47.24318" lon="-1.44508">
        <ele>53</ele>
        <time>2021-07-19T15:41:15.000Z</time>
      </trkpt>
      <trkpt lat="47.2432" lon="-1.4449">
        <ele>53</ele>
        <time>2021-07-19T15:41:17.000Z</time>
      </trkpt>
      <trkpt lat="47.24321" lon="-1.44471">
        <ele>53</ele>
        <time>2021-07-19T15:41:19.000Z</time>
      </trkpt>
      <trkpt lat="47.24322" lon="-1.44452">
        <ele>53</ele>
        <time>2021-07-19T15:41:21.000Z</time>
      </trkpt>
      <trkpt lat="47.24324" lon="-1.44433">
        <ele>53</ele>
        <time>2021-07-19T15:41:23.000Z</time>
      </trkpt>
      <trkpt lat="47.24325" lon="-1.44414">
        <ele>53</ele>
        <time>2021-07-19T15:41:25.000Z</time>
      </trkpt>
      <trkpt lat="47.24326" lon="-1.44395">
        <ele>53</ele>
        <time>2021-07-19T15:41:27.000Z</time>
      </trkpt>
      <trkpt lat="47.24327" lon="-1.44377">
        <ele>53</ele>
        <time>2021-07-19T15:41:29.000Z</time>
      </trkpt>
      <trkpt lat="47.24328" lon="-1.44359">
        <ele>53</ele>
        <time>2021-07-19T15:41:31.000Z</time>
      </trkpt>
      <trkpt lat="47.24329" lon="-1.4434">
        <ele>54</ele>
        <time>2021-07-19T15:41:33.000Z</time>
      </trkpt>
      <trkpt lat="47.24331" lon="-1.44322">
        <ele>54</ele>
        <time>2021-07-19T15:41:35.000Z</time>
      </trkpt>
      <trkpt lat="47.24335" lon="-1.44305">
        <ele>54</ele>
        <time>2021-07-19T15:41:37.000Z</time>
      </trkpt>
      <trkpt lat="47.24339" lon="-1.44287">
        <ele>54</ele>
        <time>2021-07-19T15:41:39.000Z</time>
      </trkpt>
      <trkpt lat="47.24339" lon="-1.44268">
        <ele>54</ele>
        <time>2021-07-19T15:41:41.000Z</time>
      </trkpt>
      <trkpt lat="47.24339" lon="-1.4425">
        <ele>54</ele>
        <time>2021-07-19T15:41:43.000Z</time>
      </trkpt>
      <trkpt lat="47.24339" lon="-1.44232">
        <ele>54</ele>
        <time>2021-07-19T15:41:45.000Z</time>
      </trkpt>
      <trkpt lat="47.24341" lon="-1.44214">
        <ele>54</ele>
        <time>2021-07-19T15:41:47.000Z</time>
      </trkpt>
      <trkpt lat="47.24344" lon="-1.44196">
        <ele>54</ele>
        <time>2021-07-19T15:41:49.000Z</time>
      </trkpt>
      <trkpt lat="47.24348" lon="-1.44179">
        <ele>54</ele>
        <time>2021-07-19T15:41:51.000Z</time>
      </trkpt>
      <trkpt lat="47.24354" lon="-1.44162">
        <ele>54</ele>
        <time>2021-07-19T15:41:53.000Z</time>
      </trkpt>
      <trkpt lat="47.2436" lon="-1.44146">
        <ele>54</ele>
        <time>2021-07-19T15:41:55.000Z</time>
      </trkpt>
      <trkpt lat="47.24367" lon="-1.44132">
        <ele>53</ele>
        <time>2021-07-19T15:41:57.000Z</time>
      </trkpt>
      <trkpt lat="47.24375" lon="-1.44117">
        <ele>53</ele>
        <time>2021-07-19T15:41:59.000Z</time>
      </trkpt>
      <trkpt lat="47.24383" lon="-1.44102">
        <ele>53</ele>
        <time>2021-07-19T15:42:01.000Z</time>
      </trkpt>
      <trkpt lat="47.2439" lon="-1.44088">
        <ele>53</ele>
        <time>2021-07-19T15:42:03.000Z</time>
      </trkpt>
      <trkpt lat="47.24397" lon="-1.44074">
        <ele>53</ele>
        <time>2021-07-19T15:42:05.000Z</time>
      </trkpt>
      <trkpt lat="47.24404" lon="-1.44059">
        <ele>53</ele>
        <time>2021-07-19T15:42:07.000Z</time>
      </trkpt>
      <trkpt lat="47.24411" lon="-1.44044">
        <ele>53</ele>
        <time>2021-07-19T15:42:09.000Z</time>
      </trkpt>
      <trkpt lat="47.24419" lon="-1.44029">
        <ele>53</ele>
        <time>2021-07-19T15:42:11.000Z</time>
      </trkpt>
      <trkpt lat="47.24426" lon="-1.44014">
        <ele>54</ele>
        <time>2021-07-19T15:42:13.000Z</time>
      </trkpt>
      <trkpt lat="47.24435" lon="-1.44002">
        <ele>54</ele>
        <time>2021-07-19T15:42:15.000Z</time>
      </trkpt>
      <trkpt lat="47.24445" lon="-1.43989">
        <ele>54</ele>
        <time>2021-07-19T15:42:17.000Z</time>
      </trkpt>
      <trkpt lat="47.24451" lon="-1.43974">
        <ele>54</ele>
        <time>2021-07-19T15:42:19.000Z</time>
      </trkpt>
      <trkpt lat="47.24457" lon="-1.43957">
        <ele>54</ele>
        <time>2021-07-19T15:42:21.000Z</time>
      </trkpt>
      <trkpt lat="47.24463" lon="-1.43941">
        <ele>54</ele>
        <time>2021-07-19T15:42:23.000Z</time>
      </trkpt>
      <trkpt lat="47.2447" lon="-1.43924">
        <ele>54</ele>
        <time>2021-07-19T15:42:25.000Z</time>
      </trkpt>
      <trkpt lat="47.24477" lon="-1.43908">
        <ele>54</ele>
        <time>2021-07-19T15:42:27.000Z</time>
      </trkpt>
      <trkpt lat="47.24483" lon="-1.43892">
        <ele>54</ele>
        <time>2021-07-19T15:42:29.000Z</time>
      </trkpt>
      <trkpt lat="47.24489" lon="-1.43875">
        <ele>54</ele>
        <time>2021-07-19T15:42:31.000Z</time>
      </trkpt>
      <trkpt lat="47.24494" lon="-1.43858">
        <ele>54</ele>
        <time>2021-07-19T15:42:33.000Z</time>
      </trkpt>
      <trkpt lat="47.24498" lon="-1.43841">
        <ele>54</ele>
        <time>2021-07-19T15:42:35.000Z</time>
      </trkpt>
      <trkpt lat="47.24503" lon="-1.43824">
        <ele>54</ele>
        <time>2021-07-19T15:42:37.000Z</time>
      </trkpt>
      <trkpt lat="47.24509" lon="-1.43808">
        <ele>54</ele>
        <time>2021-07-19T15:42:39.000Z</time>
      </trkpt>
      <trkpt lat="47.24514" lon="-1.43792">
        <ele>54</ele>
        <time>2021-07-19T15:42:41.000Z</time>
      </trkpt>
      <trkpt lat="47.24518" lon="-1.43776">
        <ele>54</ele>
        <time>2021-07-19T15:42:43.000Z</time>
      </trkpt>
      <trkpt lat="47.24523" lon="-1.4376">
        <ele>54</ele>
        <time>2021-07-19T15:42:45.000Z</time>
      </trkpt>
      <trkpt lat="47.24529" lon="-1.43743">
        <ele>54</ele>
        <time>2021-07-19T15:42:47.000Z</time>
      </trkpt>
      <trkpt lat="47.24534" lon="-1.43728">
        <ele>54</ele>
        <time>2021-07-19T15:42:49.000Z</time>
      </trkpt>
      <trkpt lat="47.24542" lon="-1.43713">
        <ele>54</ele>
        <time>2021-07-19T15:42:51.000Z</time>
      </trkpt>
      <trkpt lat="47.24552" lon="-1.43701">
        <ele>54</ele>
        <time>2021-07-19T15:42:53.000Z</time>
      </trkpt>
      <trkpt lat="47.24562" lon="-1.43693">
        <ele>55</ele>
        <time>2021-07-19T15:42:55.000Z</time>
      </trkpt>
      <trkpt lat="47.24573" lon="-1.43682">
        <ele>54</ele>
        <time>2021-07-19T15:42:57.000Z</time>
      </trkpt>
      <trkpt lat="47.24582" lon="-1.4367">
        <ele>54</ele>
        <time>2021-07-19T15:42:59.000Z</time>
      </trkpt>
      <trkpt lat="47.24591" lon="-1.43657">
        <ele>55</ele>
        <time>2021-07-19T15:43:01.000Z</time>
      </trkpt>
      <trkpt lat="47.246" lon="-1.43644">
        <ele>55</ele>
        <time>2021-07-19T15:43:03.000Z</time>
      </trkpt>
      <trkpt lat="47.2461" lon="-1.43635">
        <ele>54</ele>
        <time>2021-07-19T15:43:05.000Z</time>
      </trkpt>
      <trkpt lat="47.2462" lon="-1.43626">
        <ele>54</ele>
        <time>2021-07-19T15:43:07.000Z</time>
      </trkpt>
      <trkpt lat="47.2463" lon="-1.43617">
        <ele>54</ele>
        <time>2021-07-19T15:43:09.000Z</time>
      </trkpt>
      <trkpt lat="47.2464" lon="-1.43608">
        <ele>55</ele>
        <time>2021-07-19T15:43:11.000Z</time>
      </trkpt>
      <trkpt lat="47.2465" lon="-1.43598">
        <ele>54</ele>
        <time>2021-07-19T15:43:13.000Z</time>
      </trkpt>
      <trkpt lat="47.2466" lon="-1.43587">
        <ele>54</ele>
        <time>2021-07-19T15:43:15.000Z</time>
      </trkpt>
      <trkpt lat="47.2467" lon="-1.43579">
        <ele>55</ele>
        <time>2021-07-19T15:43:17.000Z</time>
      </trkpt>
      <trkpt lat="47.2468" lon="-1.4357">
        <ele>54</ele>
        <time>2021-07-19T15:43:19.000Z</time>
      </trkpt>
      <trkpt lat="47.24688" lon="-1.43557">
        <ele>54</ele>
        <time>2021-07-19T15:43:21.000Z</time>
      </trkpt>
      <trkpt lat="47.24695" lon="-1.4354">
        <ele>54</ele>
        <time>2021-07-19T15:43:23.000Z</time>
      </trkpt>
      <trkpt lat="47.247" lon="-1.43522">
        <ele>54</ele>
        <time>2021-07-19T15:43:25.000Z</time>
      </trkpt>
      <trkpt lat="47.24705" lon="-1.43505">
        <ele>54</ele>
        <time>2021-07-19T15:43:27.000Z</time>
      </trkpt>
      <trkpt lat="47.2471" lon="-1.4349">
        <ele>53</ele>
        <time>2021-07-19T15:43:29.000Z</time>
      </trkpt>
      <trkpt lat="47.24716" lon="-1.43476">
        <ele>53</ele>
        <time>2021-07-19T15:43:31.000Z</time>
      </trkpt>
      <trkpt lat="47.24723" lon="-1.43462">
        <ele>54</ele>
        <time>2021-07-19T15:43:33.000Z</time>
      </trkpt>
      <trkpt lat="47.24731" lon="-1.4345">
        <ele>54</ele>
        <time>2021-07-19T15:43:35.000Z</time>
      </trkpt>
      <trkpt lat="47.24738" lon="-1.43436">
        <ele>54</ele>
        <time>2021-07-19T15:43:37.000Z</time>
      </trkpt>
      <trkpt lat="47.24746" lon="-1.43424">
        <ele>54</ele>
        <time>2021-07-19T15:43:39.000Z</time>
      </trkpt>
      <trkpt lat="47.24755" lon="-1.43412">
        <ele>54</ele>
        <time>2021-07-19T15:43:41.000Z</time>
      </trkpt>
      <trkpt lat="47.24763" lon="-1.43401">
        <ele>54</ele>
        <time>2021-07-19T15:43:43.000Z</time>
      </trkpt>
      <trkpt lat="47.24772" lon="-1.43391">
        <ele>54</ele>
        <time>2021-07-19T15:43:45.000Z</time>
      </trkpt>
      <trkpt lat="47.2478" lon="-1.43382">
        <ele>55</ele>
        <time>2021-07-19T15:43:47.000Z</time>
      </trkpt>
      <trkpt lat="47.24787" lon="-1.43374">
        <ele>55</ele>
        <time>2021-07-19T15:43:49.000Z</time>
      </trkpt>
      <trkpt lat="47.24795" lon="-1.43366">
        <ele>56</ele>
        <time>2021-07-19T15:43:51.000Z</time>
      </trkpt>
      <trkpt lat="47.24806" lon="-1.43356">
        <ele>57</ele>
        <time>2021-07-19T15:43:54.000Z</time>
      </trkpt>
      <trkpt lat="47.24816" lon="-1.4335">
        <ele>57</ele>
        <time>2021-07-19T15:43:56.000Z</time>
      </trkpt>
      <trkpt lat="47.24826" lon="-1.43343">
        <ele>58</ele>
        <time>2021-07-19T15:43:58.000Z</time>
      </trkpt>
      <trkpt lat="47.24835" lon="-1.43336">
        <ele>58</ele>
        <time>2021-07-19T15:44:00.000Z</time>
      </trkpt>
      <trkpt lat="47.24845" lon="-1.43329">
        <ele>58</ele>
        <time>2021-07-19T15:44:02.000Z</time>
      </trkpt>
      <trkpt lat="47.24855" lon="-1.43323">
        <ele>59</ele>
        <time>2021-07-19T15:44:04.000Z</time>
      </trkpt>
      <trkpt lat="47.24865" lon="-1.43316">
        <ele>58</ele>
        <time>2021-07-19T15:44:06.000Z</time>
      </trkpt>
      <trkpt lat="47.24875" lon="-1.43309">
        <ele>59</ele>
        <time>2021-07-19T15:44:08.000Z</time>
      </trkpt>
      <trkpt lat="47.24886" lon="-1.43302">
        <ele>59</ele>
        <time>2021-07-19T15:44:10.000Z</time>
      </trkpt>
      <trkpt lat="47.24897" lon="-1.43296">
        <ele>59</ele>
        <time>2021-07-19T15:44:12.000Z</time>
      </trkpt>
      <trkpt lat="47.24907" lon="-1.43289">
        <ele>58</ele>
        <time>2021-07-19T15:44:14.000Z</time>
      </trkpt>
      <trkpt lat="47.24919" lon="-1.4328">
        <ele>58</ele>
        <time>2021-07-19T15:44:16.000Z</time>
      </trkpt>
      <trkpt lat="47.24931" lon="-1.43272">
        <ele>57</ele>
        <time>2021-07-19T15:44:18.000Z</time>
      </trkpt>
      <trkpt lat="47.24944" lon="-1.43263">
        <ele>57</ele>
        <time>2021-07-19T15:44:20.000Z</time>
      </trkpt>
      <trkpt lat="47.24957" lon="-1.43255">
        <ele>57</ele>
        <time>2021-07-19T15:44:22.000Z</time>
      </trkpt>
      <trkpt lat="47.2497" lon="-1.43248">
        <ele>56</ele>
        <time>2021-07-19T15:44:24.000Z</time>
      </trkpt>
      <trkpt lat="47.24982" lon="-1.43242">
        <ele>56</ele>
        <time>2021-07-19T15:44:26.000Z</time>
      </trkpt>
      <trkpt lat="47.24993" lon="-1.43234">
        <ele>56</ele>
        <time>2021-07-19T15:44:28.000Z</time>
      </trkpt>
      <trkpt lat="47.25004" lon="-1.43226">
        <ele>56</ele>
        <time>2021-07-19T15:44:30.000Z</time>
      </trkpt>
      <trkpt lat="47.25015" lon="-1.43217">
        <ele>56</ele>
        <time>2021-07-19T15:44:32.000Z</time>
      </trkpt>
      <trkpt lat="47.25025" lon="-1.43209">
        <ele>57</ele>
        <time>2021-07-19T15:44:34.000Z</time>
      </trkpt>
      <trkpt lat="47.25035" lon="-1.43201">
        <ele>56</ele>
        <time>2021-07-19T15:44:36.000Z</time>
      </trkpt>
      <trkpt lat="47.25045" lon="-1.43191">
        <ele>56</ele>
        <time>2021-07-19T15:44:38.000Z</time>
      </trkpt>
      <trkpt lat="47.25054" lon="-1.43183">
        <ele>56</ele>
        <time>2021-07-19T15:44:40.000Z</time>
      </trkpt>
      <trkpt lat="47.25063" lon="-1.43172">
        <ele>56</ele>
        <time>2021-07-19T15:44:42.000Z</time>
      </trkpt>
      <trkpt lat="47.25072" lon="-1.43161">
        <ele>56</ele>
        <time>2021-07-19T15:44:44.000Z</time>
      </trkpt>
      <trkpt lat="47.25081" lon="-1.4315">
        <ele>56</ele>
        <time>2021-07-19T15:44:46.000Z</time>
      </trkpt>
      <trkpt lat="47.25091" lon="-1.43138">
        <ele>56</ele>
        <time>2021-07-19T15:44:48.000Z</time>
      </trkpt>
      <trkpt lat="47.251" lon="-1.43127">
        <ele>55</ele>
        <time>2021-07-19T15:44:50.000Z</time>
      </trkpt>
      <trkpt lat="47.25109" lon="-1.43114">
        <ele>56</ele>
        <time>2021-07-19T15:44:52.000Z</time>
      </trkpt>
      <trkpt lat="47.25119" lon="-1.43102">
        <ele>56</ele>
        <time>2021-07-19T15:44:54.000Z</time>
      </trkpt>
      <trkpt lat="47.25127" lon="-1.43091">
        <ele>55</ele>
        <time>2021-07-19T15:44:56.000Z</time>
      </trkpt>
      <trkpt lat="47.25137" lon="-1.43079">
        <ele>55</ele>
        <time>2021-07-19T15:44:58.000Z</time>
      </trkpt>
      <trkpt lat="47.25145" lon="-1.43068">
        <ele>55</ele>
        <time>2021-07-19T15:45:00.000Z</time>
      </trkpt>
      <trkpt lat="47.25154" lon="-1.43058">
        <ele>56</ele>
        <time>2021-07-19T15:45:02.000Z</time>
      </trkpt>
      <trkpt lat="47.25164" lon="-1.43049">
        <ele>55</ele>
        <time>2021-07-19T15:45:04.000Z</time>
      </trkpt>
      <trkpt lat="47.25175" lon="-1.43037">
        <ele>54</ele>
        <time>2021-07-19T15:45:06.000Z</time>
      </trkpt>
      <trkpt lat="47.25184" lon="-1.43025">
        <ele>54</ele>
        <time>2021-07-19T15:45:08.000Z</time>
      </trkpt>
      <trkpt lat="47.25194" lon="-1.43012">
        <ele>54</ele>
        <time>2021-07-19T15:45:10.000Z</time>
      </trkpt>
      <trkpt lat="47.25204" lon="-1.43001">
        <ele>54</ele>
        <time>2021-07-19T15:45:12.000Z</time>
      </trkpt>
      <trkpt lat="47.25214" lon="-1.42991">
        <ele>55</ele>
        <time>2021-07-19T15:45:14.000Z</time>
      </trkpt>
      <trkpt lat="47.25226" lon="-1.42982">
        <ele>55</ele>
        <time>2021-07-19T15:45:16.000Z</time>
      </trkpt>
      <trkpt lat="47.25237" lon="-1.42975">
        <ele>55</ele>
        <time>2021-07-19T15:45:18.000Z</time>
      </trkpt>
      <trkpt lat="47.25248" lon="-1.42967">
        <ele>56</ele>
        <time>2021-07-19T15:45:20.000Z</time>
      </trkpt>
      <trkpt lat="47.25259" lon="-1.42961">
        <ele>56</ele>
        <time>2021-07-19T15:45:22.000Z</time>
      </trkpt>
      <trkpt lat="47.2527" lon="-1.42954">
        <ele>56</ele>
        <time>2021-07-19T15:45:24.000Z</time>
      </trkpt>
      <trkpt lat="47.25282" lon="-1.42948">
        <ele>56</ele>
        <time>2021-07-19T15:45:26.000Z</time>
      </trkpt>
      <trkpt lat="47.25293" lon="-1.42941">
        <ele>56</ele>
        <time>2021-07-19T15:45:28.000Z</time>
      </trkpt>
      <trkpt lat="47.25305" lon="-1.42935">
        <ele>55</ele>
        <time>2021-07-19T15:45:30.000Z</time>
      </trkpt>
      <trkpt lat="47.25316" lon="-1.42928">
        <ele>55</ele>
        <time>2021-07-19T15:45:32.000Z</time>
      </trkpt>
      <trkpt lat="47.25326" lon="-1.42922">
        <ele>56</ele>
        <time>2021-07-19T15:45:34.000Z</time>
      </trkpt>
      <trkpt lat="47.25336" lon="-1.42916">
        <ele>56</ele>
        <time>2021-07-19T15:45:36.000Z</time>
      </trkpt>
      <trkpt lat="47.25347" lon="-1.42911">
        <ele>56</ele>
        <time>2021-07-19T15:45:38.000Z</time>
      </trkpt>
      <trkpt lat="47.25358" lon="-1.42905">
        <ele>56</ele>
        <time>2021-07-19T15:45:40.000Z</time>
      </trkpt>
      <trkpt lat="47.2537" lon="-1.42898">
        <ele>56</ele>
        <time>2021-07-19T15:45:42.000Z</time>
      </trkpt>
      <trkpt lat="47.25381" lon="-1.42889">
        <ele>56</ele>
        <time>2021-07-19T15:45:44.000Z</time>
      </trkpt>
      <trkpt lat="47.25392" lon="-1.42882">
        <ele>56</ele>
        <time>2021-07-19T15:45:46.000Z</time>
      </trkpt>
      <trkpt lat="47.25403" lon="-1.42875">
        <ele>56</ele>
        <time>2021-07-19T15:45:48.000Z</time>
      </trkpt>
      <trkpt lat="47.25413" lon="-1.42867">
        <ele>56</ele>
        <time>2021-07-19T15:45:50.000Z</time>
      </trkpt>
      <trkpt lat="47.25424" lon="-1.4286">
        <ele>56</ele>
        <time>2021-07-19T15:45:52.000Z</time>
      </trkpt>
      <trkpt lat="47.25435" lon="-1.42853">
        <ele>56</ele>
        <time>2021-07-19T15:45:54.000Z</time>
      </trkpt>
      <trkpt lat="47.25446" lon="-1.42847">
        <ele>57</ele>
        <time>2021-07-19T15:45:56.000Z</time>
      </trkpt>
      <trkpt lat="47.25457" lon="-1.42839">
        <ele>56</ele>
        <time>2021-07-19T15:45:58.000Z</time>
      </trkpt>
      <trkpt lat="47.25468" lon="-1.42831">
        <ele>56</ele>
        <time>2021-07-19T15:46:00.000Z</time>
      </trkpt>
      <trkpt lat="47.25479" lon="-1.42822">
        <ele>56</ele>
        <time>2021-07-19T15:46:02.000Z</time>
      </trkpt>
      <trkpt lat="47.2549" lon="-1.42813">
        <ele>56</ele>
        <time>2021-07-19T15:46:04.000Z</time>
      </trkpt>
      <trkpt lat="47.255" lon="-1.42804">
        <ele>56</ele>
        <time>2021-07-19T15:46:06.000Z</time>
      </trkpt>
      <trkpt lat="47.25511" lon="-1.42796">
        <ele>56</ele>
        <time>2021-07-19T15:46:08.000Z</time>
      </trkpt>
      <trkpt lat="47.25521" lon="-1.42786">
        <ele>56</ele>
        <time>2021-07-19T15:46:10.000Z</time>
      </trkpt>
      <trkpt lat="47.25532" lon="-1.42777">
        <ele>56</ele>
        <time>2021-07-19T15:46:12.000Z</time>
      </trkpt>
      <trkpt lat="47.25542" lon="-1.4277">
        <ele>57</ele>
        <time>2021-07-19T15:46:14.000Z</time>
      </trkpt>
      <trkpt lat="47.25552" lon="-1.42761">
        <ele>57</ele>
        <time>2021-07-19T15:46:16.000Z</time>
      </trkpt>
      <trkpt lat="47.25562" lon="-1.42752">
        <ele>56</ele>
        <time>2021-07-19T15:46:18.000Z</time>
      </trkpt>
      <trkpt lat="47.25573" lon="-1.42745">
        <ele>56</ele>
        <time>2021-07-19T15:46:20.000Z</time>
      </trkpt>
      <trkpt lat="47.25584" lon="-1.42736">
        <ele>56</ele>
        <time>2021-07-19T15:46:22.000Z</time>
      </trkpt>
      <trkpt lat="47.25594" lon="-1.42727">
        <ele>56</ele>
        <time>2021-07-19T15:46:24.000Z</time>
      </trkpt>
      <trkpt lat="47.25604" lon="-1.42719">
        <ele>56</ele>
        <time>2021-07-19T15:46:26.000Z</time>
      </trkpt>
      <trkpt lat="47.25615" lon="-1.42711">
        <ele>56</ele>
        <time>2021-07-19T15:46:28.000Z</time>
      </trkpt>
      <trkpt lat="47.25625" lon="-1.42703">
        <ele>56</ele>
        <time>2021-07-19T15:46:30.000Z</time>
      </trkpt>
      <trkpt lat="47.25635" lon="-1.42694">
        <ele>56</ele>
        <time>2021-07-19T15:46:32.000Z</time>
      </trkpt>
      <trkpt lat="47.25646" lon="-1.42686">
        <ele>55</ele>
        <time>2021-07-19T15:46:34.000Z</time>
      </trkpt>
      <trkpt lat="47.25657" lon="-1.42677">
        <ele>56</ele>
        <time>2021-07-19T15:46:36.000Z</time>
      </trkpt>
      <trkpt lat="47.25666" lon="-1.42668">
        <ele>57</ele>
        <time>2021-07-19T15:46:38.000Z</time>
      </trkpt>
      <trkpt lat="47.25673" lon="-1.42659">
        <ele>57</ele>
        <time>2021-07-19T15:46:40.000Z</time>
      </trkpt>
      <trkpt lat="47.25685" lon="-1.42649">
        <ele>58</ele>
        <time>2021-07-19T15:46:43.000Z</time>
      </trkpt>
      <trkpt lat="47.25694" lon="-1.42644">
        <ele>58</ele>
        <time>2021-07-19T15:46:45.000Z</time>
      </trkpt>
      <trkpt lat="47.25706" lon="-1.42644">
        <ele>58</ele>
        <time>2021-07-19T15:46:47.000Z</time>
      </trkpt>
      <trkpt lat="47.25719" lon="-1.42645">
        <ele>57</ele>
        <time>2021-07-19T15:46:49.000Z</time>
      </trkpt>
      <trkpt lat="47.25732" lon="-1.42645">
        <ele>57</ele>
        <time>2021-07-19T15:46:51.000Z</time>
      </trkpt>
      <trkpt lat="47.25743" lon="-1.42638">
        <ele>56</ele>
        <time>2021-07-19T15:46:53.000Z</time>
      </trkpt>
      <trkpt lat="47.2575" lon="-1.42624">
        <ele>56</ele>
        <time>2021-07-19T15:46:55.000Z</time>
      </trkpt>
      <trkpt lat="47.25756" lon="-1.4261">
        <ele>57</ele>
        <time>2021-07-19T15:46:57.000Z</time>
      </trkpt>
      <trkpt lat="47.25764" lon="-1.42597">
        <ele>57</ele>
        <time>2021-07-19T15:46:59.000Z</time>
      </trkpt>
      <trkpt lat="47.25774" lon="-1.42581">
        <ele>56</ele>
        <time>2021-07-19T15:47:01.000Z</time>
      </trkpt>
      <trkpt lat="47.25786" lon="-1.42571">
        <ele>56</ele>
        <time>2021-07-19T15:47:03.000Z</time>
      </trkpt>
      <trkpt lat="47.25798" lon="-1.42562">
        <ele>56</ele>
        <time>2021-07-19T15:47:05.000Z</time>
      </trkpt>
      <trkpt lat="47.25809" lon="-1.42553">
        <ele>55</ele>
        <time>2021-07-19T15:47:07.000Z</time>
      </trkpt>
      <trkpt lat="47.25821" lon="-1.42544">
        <ele>54</ele>
        <time>2021-07-19T15:47:09.000Z</time>
      </trkpt>
      <trkpt lat="47.25831" lon="-1.42535">
        <ele>54</ele>
        <time>2021-07-19T15:47:11.000Z</time>
      </trkpt>
      <trkpt lat="47.25842" lon="-1.42526">
        <ele>54</ele>
        <time>2021-07-19T15:47:13.000Z</time>
      </trkpt>
      <trkpt lat="47.25853" lon="-1.42517">
        <ele>55</ele>
        <time>2021-07-19T15:47:15.000Z</time>
      </trkpt>
      <trkpt lat="47.25864" lon="-1.42509">
        <ele>55</ele>
        <time>2021-07-19T15:47:17.000Z</time>
      </trkpt>
      <trkpt lat="47.25876" lon="-1.42501">
        <ele>55</ele>
        <time>2021-07-19T15:47:19.000Z</time>
      </trkpt>
      <trkpt lat="47.25887" lon="-1.42493">
        <ele>55</ele>
        <time>2021-07-19T15:47:21.000Z</time>
      </trkpt>
      <trkpt lat="47.25897" lon="-1.42483">
        <ele>56</ele>
        <time>2021-07-19T15:47:23.000Z</time>
      </trkpt>
      <trkpt lat="47.25907" lon="-1.42471">
        <ele>56</ele>
        <time>2021-07-19T15:47:25.000Z</time>
      </trkpt>
      <trkpt lat="47.25916" lon="-1.42458">
        <ele>56</ele>
        <time>2021-07-19T15:47:27.000Z</time>
      </trkpt>
      <trkpt lat="47.25925" lon="-1.42445">
        <ele>55</ele>
        <time>2021-07-19T15:47:29.000Z</time>
      </trkpt>
      <trkpt lat="47.25935" lon="-1.42434">
        <ele>55</ele>
        <time>2021-07-19T15:47:31.000Z</time>
      </trkpt>
      <trkpt lat="47.25944" lon="-1.42422">
        <ele>55</ele>
        <time>2021-07-19T15:47:33.000Z</time>
      </trkpt>
      <trkpt lat="47.25953" lon="-1.4241">
        <ele>56</ele>
        <time>2021-07-19T15:47:35.000Z</time>
      </trkpt>
      <trkpt lat="47.25962" lon="-1.42399">
        <ele>55</ele>
        <time>2021-07-19T15:47:37.000Z</time>
      </trkpt>
      <trkpt lat="47.25972" lon="-1.42387">
        <ele>55</ele>
        <time>2021-07-19T15:47:39.000Z</time>
      </trkpt>
      <trkpt lat="47.25981" lon="-1.42376">
        <ele>55</ele>
        <time>2021-07-19T15:47:41.000Z</time>
      </trkpt>
      <trkpt lat="47.25992" lon="-1.42364">
        <ele>54</ele>
        <time>2021-07-19T15:47:43.000Z</time>
      </trkpt>
      <trkpt lat="47.26001" lon="-1.42353">
        <ele>55</ele>
        <time>2021-07-19T15:47:45.000Z</time>
      </trkpt>
      <trkpt lat="47.2601" lon="-1.4234">
        <ele>55</ele>
        <time>2021-07-19T15:47:47.000Z</time>
      </trkpt>
      <trkpt lat="47.26019" lon="-1.42327">
        <ele>55</ele>
        <time>2021-07-19T15:47:49.000Z</time>
      </trkpt>
      <trkpt lat="47.26027" lon="-1.42314">
        <ele>55</ele>
        <time>2021-07-19T15:47:51.000Z</time>
      </trkpt>
      <trkpt lat="47.26037" lon="-1.42302">
        <ele>55</ele>
        <time>2021-07-19T15:47:53.000Z</time>
      </trkpt>
      <trkpt lat="47.26047" lon="-1.42289">
        <ele>55</ele>
        <time>2021-07-19T15:47:55.000Z</time>
      </trkpt>
      <trkpt lat="47.26057" lon="-1.42277">
        <ele>55</ele>
        <time>2021-07-19T15:47:57.000Z</time>
      </trkpt>
      <trkpt lat="47.26066" lon="-1.42265">
        <ele>55</ele>
        <time>2021-07-19T15:47:59.000Z</time>
      </trkpt>
      <trkpt lat="47.26075" lon="-1.42253">
        <ele>54</ele>
        <time>2021-07-19T15:48:01.000Z</time>
      </trkpt>
      <trkpt lat="47.26084" lon="-1.42241">
        <ele>54</ele>
        <time>2021-07-19T15:48:03.000Z</time>
      </trkpt>
      <trkpt lat="47.26092" lon="-1.42231">
        <ele>55</ele>
        <time>2021-07-19T15:48:05.000Z</time>
      </trkpt>
      <trkpt lat="47.26101" lon="-1.42219">
        <ele>55</ele>
        <time>2021-07-19T15:48:07.000Z</time>
      </trkpt>
      <trkpt lat="47.26109" lon="-1.42208">
        <ele>55</ele>
        <time>2021-07-19T15:48:09.000Z</time>
      </trkpt>
      <trkpt lat="47.26118" lon="-1.42197">
        <ele>55</ele>
        <time>2021-07-19T15:48:11.000Z</time>
      </trkpt>
      <trkpt lat="47.26126" lon="-1.42186">
        <ele>55</ele>
        <time>2021-07-19T15:48:13.000Z</time>
      </trkpt>
      <trkpt lat="47.26135" lon="-1.42174">
        <ele>55</ele>
        <time>2021-07-19T15:48:15.000Z</time>
      </trkpt>
      <trkpt lat="47.26142" lon="-1.42161">
        <ele>55</ele>
        <time>2021-07-19T15:48:17.000Z</time>
      </trkpt>
      <trkpt lat="47.26149" lon="-1.42147">
        <ele>56</ele>
        <time>2021-07-19T15:48:19.000Z</time>
      </trkpt>
      <trkpt lat="47.26155" lon="-1.42135">
        <ele>56</ele>
        <time>2021-07-19T15:48:21.000Z</time>
      </trkpt>
      <trkpt lat="47.26161" lon="-1.42124">
        <ele>57</ele>
        <time>2021-07-19T15:48:23.000Z</time>
      </trkpt>
      <trkpt lat="47.26168" lon="-1.42113">
        <ele>58</ele>
        <time>2021-07-19T15:48:25.000Z</time>
      </trkpt>
      <trkpt lat="47.26177" lon="-1.421">
        <ele>57</ele>
        <time>2021-07-19T15:48:27.000Z</time>
      </trkpt>
      <trkpt lat="47.26186" lon="-1.42085">
        <ele>57</ele>
        <time>2021-07-19T15:48:29.000Z</time>
      </trkpt>
      <trkpt lat="47.26195" lon="-1.42074">
        <ele>57</ele>
        <time>2021-07-19T15:48:31.000Z</time>
      </trkpt>
      <trkpt lat="47.26207" lon="-1.42068">
        <ele>57</ele>
        <time>2021-07-19T15:48:33.000Z</time>
      </trkpt>
      <trkpt lat="47.26213" lon="-1.42052">
        <ele>56</ele>
        <time>2021-07-19T15:48:35.000Z</time>
      </trkpt>
      <trkpt lat="47.2622" lon="-1.42035">
        <ele>55</ele>
        <time>2021-07-19T15:48:37.000Z</time>
      </trkpt>
      <trkpt lat="47.26227" lon="-1.42018">
        <ele>55</ele>
        <time>2021-07-19T15:48:39.000Z</time>
      </trkpt>
      <trkpt lat="47.26235" lon="-1.42004">
        <ele>55</ele>
        <time>2021-07-19T15:48:41.000Z</time>
      </trkpt>
      <trkpt lat="47.26242" lon="-1.4199">
        <ele>55</ele>
        <time>2021-07-19T15:48:43.000Z</time>
      </trkpt>
      <trkpt lat="47.26251" lon="-1.41976">
        <ele>55</ele>
        <time>2021-07-19T15:48:45.000Z</time>
      </trkpt>
      <trkpt lat="47.26259" lon="-1.41962">
        <ele>55</ele>
        <time>2021-07-19T15:48:47.000Z</time>
      </trkpt>
      <trkpt lat="47.26267" lon="-1.41948">
        <ele>54</ele>
        <time>2021-07-19T15:48:49.000Z</time>
      </trkpt>
      <trkpt lat="47.26276" lon="-1.41933">
        <ele>54</ele>
        <time>2021-07-19T15:48:51.000Z</time>
      </trkpt>
      <trkpt lat="47.26284" lon="-1.41919">
        <ele>54</ele>
        <time>2021-07-19T15:48:53.000Z</time>
      </trkpt>
      <trkpt lat="47.26293" lon="-1.41904">
        <ele>54</ele>
        <time>2021-07-19T15:48:55.000Z</time>
      </trkpt>
      <trkpt lat="47.26301" lon="-1.41891">
        <ele>54</ele>
        <time>2021-07-19T15:48:57.000Z</time>
      </trkpt>
      <trkpt lat="47.26309" lon="-1.41877">
        <ele>54</ele>
        <time>2021-07-19T15:48:59.000Z</time>
      </trkpt>
      <trkpt lat="47.26317" lon="-1.41863">
        <ele>54</ele>
        <time>2021-07-19T15:49:01.000Z</time>
      </trkpt>
      <trkpt lat="47.26325" lon="-1.4185">
        <ele>54</ele>
        <time>2021-07-19T15:49:03.000Z</time>
      </trkpt>
      <trkpt lat="47.26333" lon="-1.41836">
        <ele>54</ele>
        <time>2021-07-19T15:49:05.000Z</time>
      </trkpt>
      <trkpt lat="47.26341" lon="-1.41821">
        <ele>55</ele>
        <time>2021-07-19T15:49:07.000Z</time>
      </trkpt>
      <trkpt lat="47.26348" lon="-1.41807">
        <ele>55</ele>
        <time>2021-07-19T15:49:09.000Z</time>
      </trkpt>
      <trkpt lat="47.26356" lon="-1.41793">
        <ele>55</ele>
        <time>2021-07-19T15:49:11.000Z</time>
      </trkpt>
      <trkpt lat="47.26365" lon="-1.4178">
        <ele>55</ele>
        <time>2021-07-19T15:49:13.000Z</time>
      </trkpt>
      <trkpt lat="47.26373" lon="-1.41767">
        <ele>55</ele>
        <time>2021-07-19T15:49:15.000Z</time>
      </trkpt>
      <trkpt lat="47.26381" lon="-1.41753">
        <ele>55</ele>
        <time>2021-07-19T15:49:17.000Z</time>
      </trkpt>
      <trkpt lat="47.26388" lon="-1.41739">
        <ele>55</ele>
        <time>2021-07-19T15:49:19.000Z</time>
      </trkpt>
      <trkpt lat="47.26396" lon="-1.41727">
        <ele>55</ele>
        <time>2021-07-19T15:49:21.000Z</time>
      </trkpt>
      <trkpt lat="47.26404" lon="-1.41714">
        <ele>54</ele>
        <time>2021-07-19T15:49:23.000Z</time>
      </trkpt>
      <trkpt lat="47.26412" lon="-1.41701">
        <ele>55</ele>
        <time>2021-07-19T15:49:25.000Z</time>
      </trkpt>
      <trkpt lat="47.2642" lon="-1.41688">
        <ele>54</ele>
        <time>2021-07-19T15:49:27.000Z</time>
      </trkpt>
      <trkpt lat="47.26427" lon="-1.41675">
        <ele>54</ele>
        <time>2021-07-19T15:49:29.000Z</time>
      </trkpt>
      <trkpt lat="47.26435" lon="-1.41661">
        <ele>53</ele>
        <time>2021-07-19T15:49:31.000Z</time>
      </trkpt>
      <trkpt lat="47.26443" lon="-1.41647">
        <ele>53</ele>
        <time>2021-07-19T15:49:33.000Z</time>
      </trkpt>
      <trkpt lat="47.2645" lon="-1.41634">
        <ele>53</ele>
        <time>2021-07-19T15:49:35.000Z</time>
      </trkpt>
      <trkpt lat="47.26458" lon="-1.4162">
        <ele>53</ele>
        <time>2021-07-19T15:49:37.000Z</time>
      </trkpt>
      <trkpt lat="47.26466" lon="-1.41607">
        <ele>54</ele>
        <time>2021-07-19T15:49:39.000Z</time>
      </trkpt>
      <trkpt lat="47.26474" lon="-1.41593">
        <ele>54</ele>
        <time>2021-07-19T15:49:41.000Z</time>
      </trkpt>
      <trkpt lat="47.26482" lon="-1.4158">
        <ele>54</ele>
        <time>2021-07-19T15:49:43.000Z</time>
      </trkpt>
      <trkpt lat="47.26489" lon="-1.41566">
        <ele>54</ele>
        <time>2021-07-19T15:49:45.000Z</time>
      </trkpt>
      <trkpt lat="47.26497" lon="-1.41552">
        <ele>54</ele>
        <time>2021-07-19T15:49:47.000Z</time>
      </trkpt>
      <trkpt lat="47.26505" lon="-1.41538">
        <ele>54</ele>
        <time>2021-07-19T15:49:49.000Z</time>
      </trkpt>
      <trkpt lat="47.26514" lon="-1.41525">
        <ele>54</ele>
        <time>2021-07-19T15:49:51.000Z</time>
      </trkpt>
      <trkpt lat="47.26522" lon="-1.41511">
        <ele>54</ele>
        <time>2021-07-19T15:49:53.000Z</time>
      </trkpt>
      <trkpt lat="47.26529" lon="-1.41497">
        <ele>54</ele>
        <time>2021-07-19T15:49:55.000Z</time>
      </trkpt>
      <trkpt lat="47.26537" lon="-1.41484">
        <ele>54</ele>
        <time>2021-07-19T15:49:57.000Z</time>
      </trkpt>
      <trkpt lat="47.26546" lon="-1.41473">
        <ele>54</ele>
        <time>2021-07-19T15:49:59.000Z</time>
      </trkpt>
      <trkpt lat="47.26555" lon="-1.41462">
        <ele>54</ele>
        <time>2021-07-19T15:50:01.000Z</time>
      </trkpt>
      <trkpt lat="47.26561" lon="-1.41449">
        <ele>54</ele>
        <time>2021-07-19T15:50:03.000Z</time>
      </trkpt>
      <trkpt lat="47.26568" lon="-1.41433">
        <ele>54</ele>
        <time>2021-07-19T15:50:05.000Z</time>
      </trkpt>
      <trkpt lat="47.26575" lon="-1.41417">
        <ele>54</ele>
        <time>2021-07-19T15:50:07.000Z</time>
      </trkpt>
      <trkpt lat="47.26581" lon="-1.41403">
        <ele>54</ele>
        <time>2021-07-19T15:50:09.000Z</time>
      </trkpt>
      <trkpt lat="47.26588" lon="-1.41389">
        <ele>55</ele>
        <time>2021-07-19T15:50:11.000Z</time>
      </trkpt>
      <trkpt lat="47.26593" lon="-1.41373">
        <ele>54</ele>
        <time>2021-07-19T15:50:13.000Z</time>
      </trkpt>
      <trkpt lat="47.26599" lon="-1.41358">
        <ele>54</ele>
        <time>2021-07-19T15:50:15.000Z</time>
      </trkpt>
      <trkpt lat="47.26605" lon="-1.41342">
        <ele>54</ele>
        <time>2021-07-19T15:50:17.000Z</time>
      </trkpt>
      <trkpt lat="47.26612" lon="-1.41328">
        <ele>54</ele>
        <time>2021-07-19T15:50:19.000Z</time>
      </trkpt>
      <trkpt lat="47.2662" lon="-1.41315">
        <ele>54</ele>
        <time>2021-07-19T15:50:21.000Z</time>
      </trkpt>
      <trkpt lat="47.26627" lon="-1.41302">
        <ele>54</ele>
        <time>2021-07-19T15:50:23.000Z</time>
      </trkpt>
      <trkpt lat="47.26636" lon="-1.4129">
        <ele>54</ele>
        <time>2021-07-19T15:50:25.000Z</time>
      </trkpt>
      <trkpt lat="47.26645" lon="-1.41278">
        <ele>54</ele>
        <time>2021-07-19T15:50:27.000Z</time>
      </trkpt>
      <trkpt lat="47.26653" lon="-1.41267">
        <ele>54</ele>
        <time>2021-07-19T15:50:29.000Z</time>
      </trkpt>
      <trkpt lat="47.2666" lon="-1.41253">
        <ele>54</ele>
        <time>2021-07-19T15:50:31.000Z</time>
      </trkpt>
      <trkpt lat="47.26668" lon="-1.4124">
        <ele>54</ele>
        <time>2021-07-19T15:50:33.000Z</time>
      </trkpt>
      <trkpt lat="47.26676" lon="-1.41229">
        <ele>54</ele>
        <time>2021-07-19T15:50:35.000Z</time>
      </trkpt>
      <trkpt lat="47.26685" lon="-1.41217">
        <ele>54</ele>
        <time>2021-07-19T15:50:37.000Z</time>
      </trkpt>
      <trkpt lat="47.26694" lon="-1.41206">
        <ele>54</ele>
        <time>2021-07-19T15:50:39.000Z</time>
      </trkpt>
      <trkpt lat="47.26704" lon="-1.41196">
        <ele>54</ele>
        <time>2021-07-19T15:50:41.000Z</time>
      </trkpt>
      <trkpt lat="47.26712" lon="-1.41185">
        <ele>54</ele>
        <time>2021-07-19T15:50:43.000Z</time>
      </trkpt>
      <trkpt lat="47.2672" lon="-1.41175">
        <ele>54</ele>
        <time>2021-07-19T15:50:45.000Z</time>
      </trkpt>
      <trkpt lat="47.26729" lon="-1.41164">
        <ele>54</ele>
        <time>2021-07-19T15:50:47.000Z</time>
      </trkpt>
      <trkpt lat="47.26738" lon="-1.41153">
        <ele>54</ele>
        <time>2021-07-19T15:50:49.000Z</time>
      </trkpt>
      <trkpt lat="47.26747" lon="-1.41143">
        <ele>54</ele>
        <time>2021-07-19T15:50:51.000Z</time>
      </trkpt>
      <trkpt lat="47.26756" lon="-1.41133">
        <ele>54</ele>
        <time>2021-07-19T15:50:53.000Z</time>
      </trkpt>
      <trkpt lat="47.26764" lon="-1.41121">
        <ele>55</ele>
        <time>2021-07-19T15:50:55.000Z</time>
      </trkpt>
      <trkpt lat="47.2677" lon="-1.41108">
        <ele>55</ele>
        <time>2021-07-19T15:50:57.000Z</time>
      </trkpt>
      <trkpt lat="47.26775" lon="-1.41093">
        <ele>55</ele>
        <time>2021-07-19T15:50:59.000Z</time>
      </trkpt>
      <trkpt lat="47.26779" lon="-1.41077">
        <ele>55</ele>
        <time>2021-07-19T15:51:01.000Z</time>
      </trkpt>
      <trkpt lat="47.26784" lon="-1.41062">
        <ele>55</ele>
        <time>2021-07-19T15:51:03.000Z</time>
      </trkpt>
      <trkpt lat="47.26789" lon="-1.41048">
        <ele>55</ele>
        <time>2021-07-19T15:51:05.000Z</time>
      </trkpt>
      <trkpt lat="47.26795" lon="-1.41033">
        <ele>55</ele>
        <time>2021-07-19T15:51:07.000Z</time>
      </trkpt>
      <trkpt lat="47.26802" lon="-1.4102">
        <ele>54</ele>
        <time>2021-07-19T15:51:09.000Z</time>
      </trkpt>
      <trkpt lat="47.26811" lon="-1.41009">
        <ele>54</ele>
        <time>2021-07-19T15:51:11.000Z</time>
      </trkpt>
      <trkpt lat="47.2682" lon="-1.40997">
        <ele>55</ele>
        <time>2021-07-19T15:51:13.000Z</time>
      </trkpt>
      <trkpt lat="47.26827" lon="-1.40983">
        <ele>55</ele>
        <time>2021-07-19T15:51:15.000Z</time>
      </trkpt>
      <trkpt lat="47.26833" lon="-1.4097">
        <ele>56</ele>
        <time>2021-07-19T15:51:17.000Z</time>
      </trkpt>
      <trkpt lat="47.26838" lon="-1.40956">
        <ele>56</ele>
        <time>2021-07-19T15:51:19.000Z</time>
      </trkpt>
      <trkpt lat="47.26844" lon="-1.40943">
        <ele>57</ele>
        <time>2021-07-19T15:51:21.000Z</time>
      </trkpt>
      <trkpt lat="47.26851" lon="-1.40934">
        <ele>58</ele>
        <time>2021-07-19T15:51:23.000Z</time>
      </trkpt>
      <trkpt lat="47.2686" lon="-1.40924">
        <ele>56</ele>
        <time>2021-07-19T15:51:25.000Z</time>
      </trkpt>
      <trkpt lat="47.26869" lon="-1.40911">
        <ele>56</ele>
        <time>2021-07-19T15:51:27.000Z</time>
      </trkpt>
      <trkpt lat="47.26874" lon="-1.40893">
        <ele>55</ele>
        <time>2021-07-19T15:51:29.000Z</time>
      </trkpt>
      <trkpt lat="47.26881" lon="-1.40874">
        <ele>55</ele>
        <time>2021-07-19T15:51:31.000Z</time>
      </trkpt>
      <trkpt lat="47.2689" lon="-1.40859">
        <ele>55</ele>
        <time>2021-07-19T15:51:33.000Z</time>
      </trkpt>
      <trkpt lat="47.26899" lon="-1.40845">
        <ele>56</ele>
        <time>2021-07-19T15:51:35.000Z</time>
      </trkpt>
      <trkpt lat="47.26906" lon="-1.40832">
        <ele>55</ele>
        <time>2021-07-19T15:51:37.000Z</time>
      </trkpt>
      <trkpt lat="47.26912" lon="-1.40818">
        <ele>56</ele>
        <time>2021-07-19T15:51:39.000Z</time>
      </trkpt>
      <trkpt lat="47.26919" lon="-1.40803">
        <ele>56</ele>
        <time>2021-07-19T15:51:41.000Z</time>
      </trkpt>
      <trkpt lat="47.26926" lon="-1.40788">
        <ele>56</ele>
        <time>2021-07-19T15:51:43.000Z</time>
      </trkpt>
      <trkpt lat="47.26929" lon="-1.40771">
        <ele>56</ele>
        <time>2021-07-19T15:51:45.000Z</time>
      </trkpt>
      <trkpt lat="47.26929" lon="-1.40753">
        <ele>55</ele>
        <time>2021-07-19T15:51:47.000Z</time>
      </trkpt>
      <trkpt lat="47.2693" lon="-1.40734">
        <ele>55</ele>
        <time>2021-07-19T15:51:49.000Z</time>
      </trkpt>
      <trkpt lat="47.26931" lon="-1.40714">
        <ele>55</ele>
        <time>2021-07-19T15:51:51.000Z</time>
      </trkpt>
      <trkpt lat="47.26931" lon="-1.40694">
        <ele>55</ele>
        <time>2021-07-19T15:51:53.000Z</time>
      </trkpt>
      <trkpt lat="47.26932" lon="-1.40675">
        <ele>55</ele>
        <time>2021-07-19T15:51:55.000Z</time>
      </trkpt>
      <trkpt lat="47.26935" lon="-1.40658">
        <ele>55</ele>
        <time>2021-07-19T15:51:57.000Z</time>
      </trkpt>
      <trkpt lat="47.26936" lon="-1.40641">
        <ele>55</ele>
        <time>2021-07-19T15:51:59.000Z</time>
      </trkpt>
      <trkpt lat="47.26938" lon="-1.40624">
        <ele>55</ele>
        <time>2021-07-19T15:52:01.000Z</time>
      </trkpt>
      <trkpt lat="47.26941" lon="-1.40608">
        <ele>55</ele>
        <time>2021-07-19T15:52:03.000Z</time>
      </trkpt>
      <trkpt lat="47.26945" lon="-1.4059">
        <ele>55</ele>
        <time>2021-07-19T15:52:05.000Z</time>
      </trkpt>
      <trkpt lat="47.2695" lon="-1.40574">
        <ele>56</ele>
        <time>2021-07-19T15:52:07.000Z</time>
      </trkpt>
      <trkpt lat="47.26955" lon="-1.40558">
        <ele>56</ele>
        <time>2021-07-19T15:52:09.000Z</time>
      </trkpt>
      <trkpt lat="47.26962" lon="-1.40544">
        <ele>56</ele>
        <time>2021-07-19T15:52:11.000Z</time>
      </trkpt>
      <trkpt lat="47.2697" lon="-1.40529">
        <ele>56</ele>
        <time>2021-07-19T15:52:13.000Z</time>
      </trkpt>
      <trkpt lat="47.26978" lon="-1.40516">
        <ele>56</ele>
        <time>2021-07-19T15:52:15.000Z</time>
      </trkpt>
      <trkpt lat="47.26987" lon="-1.40504">
        <ele>56</ele>
        <time>2021-07-19T15:52:17.000Z</time>
      </trkpt>
      <trkpt lat="47.26995" lon="-1.40491">
        <ele>56</ele>
        <time>2021-07-19T15:52:19.000Z</time>
      </trkpt>
      <trkpt lat="47.27003" lon="-1.40478">
        <ele>56</ele>
        <time>2021-07-19T15:52:21.000Z</time>
      </trkpt>
      <trkpt lat="47.27011" lon="-1.40465">
        <ele>56</ele>
        <time>2021-07-19T15:52:23.000Z</time>
      </trkpt>
      <trkpt lat="47.27019" lon="-1.40453">
        <ele>56</ele>
        <time>2021-07-19T15:52:25.000Z</time>
      </trkpt>
      <trkpt lat="47.27027" lon="-1.4044">
        <ele>56</ele>
        <time>2021-07-19T15:52:27.000Z</time>
      </trkpt>
      <trkpt lat="47.27035" lon="-1.40427">
        <ele>56</ele>
        <time>2021-07-19T15:52:29.000Z</time>
      </trkpt>
      <trkpt lat="47.27043" lon="-1.40415">
        <ele>56</ele>
        <time>2021-07-19T15:52:31.000Z</time>
      </trkpt>
      <trkpt lat="47.27051" lon="-1.40402">
        <ele>56</ele>
        <time>2021-07-19T15:52:33.000Z</time>
      </trkpt>
      <trkpt lat="47.27059" lon="-1.4039">
        <ele>57</ele>
        <time>2021-07-19T15:52:35.000Z</time>
      </trkpt>
      <trkpt lat="47.27067" lon="-1.40378">
        <ele>57</ele>
        <time>2021-07-19T15:52:37.000Z</time>
      </trkpt>
      <trkpt lat="47.27075" lon="-1.40365">
        <ele>57</ele>
        <time>2021-07-19T15:52:39.000Z</time>
      </trkpt>
      <trkpt lat="47.27084" lon="-1.40352">
        <ele>57</ele>
        <time>2021-07-19T15:52:41.000Z</time>
      </trkpt>
      <trkpt lat="47.27092" lon="-1.40338">
        <ele>57</ele>
        <time>2021-07-19T15:52:43.000Z</time>
      </trkpt>
      <trkpt lat="47.271" lon="-1.40326">
        <ele>57</ele>
        <time>2021-07-19T15:52:45.000Z</time>
      </trkpt>
      <trkpt lat="47.27108" lon="-1.40313">
        <ele>57</ele>
        <time>2021-07-19T15:52:47.000Z</time>
      </trkpt>
      <trkpt lat="47.27117" lon="-1.40301">
        <ele>57</ele>
        <time>2021-07-19T15:52:49.000Z</time>
      </trkpt>
      <trkpt lat="47.27125" lon="-1.40288">
        <ele>57</ele>
        <time>2021-07-19T15:52:51.000Z</time>
      </trkpt>
      <trkpt lat="47.27133" lon="-1.40275">
        <ele>57</ele>
        <time>2021-07-19T15:52:53.000Z</time>
      </trkpt>
      <trkpt lat="47.27141" lon="-1.40262">
        <ele>57</ele>
        <time>2021-07-19T15:52:55.000Z</time>
      </trkpt>
      <trkpt lat="47.2715" lon="-1.40248">
        <ele>57</ele>
        <time>2021-07-19T15:52:57.000Z</time>
      </trkpt>
      <trkpt lat="47.27159" lon="-1.40235">
        <ele>56</ele>
        <time>2021-07-19T15:52:59.000Z</time>
      </trkpt>
      <trkpt lat="47.27167" lon="-1.40223">
        <ele>56</ele>
        <time>2021-07-19T15:53:01.000Z</time>
      </trkpt>
      <trkpt lat="47.27175" lon="-1.40209">
        <ele>56</ele>
        <time>2021-07-19T15:53:03.000Z</time>
      </trkpt>
      <trkpt lat="47.27184" lon="-1.40198">
        <ele>56</ele>
        <time>2021-07-19T15:53:05.000Z</time>
      </trkpt>
      <trkpt lat="47.27193" lon="-1.40187">
        <ele>56</ele>
        <time>2021-07-19T15:53:07.000Z</time>
      </trkpt>
      <trkpt lat="47.27201" lon="-1.40174">
        <ele>56</ele>
        <time>2021-07-19T15:53:09.000Z</time>
      </trkpt>
      <trkpt lat="47.27209" lon="-1.40161">
        <ele>56</ele>
        <time>2021-07-19T15:53:11.000Z</time>
      </trkpt>
      <trkpt lat="47.27216" lon="-1.40146">
        <ele>56</ele>
        <time>2021-07-19T15:53:13.000Z</time>
      </trkpt>
      <trkpt lat="47.27224" lon="-1.40134">
        <ele>57</ele>
        <time>2021-07-19T15:53:15.000Z</time>
      </trkpt>
      <trkpt lat="47.27232" lon="-1.40122">
        <ele>56</ele>
        <time>2021-07-19T15:53:17.000Z</time>
      </trkpt>
      <trkpt lat="47.2724" lon="-1.40109">
        <ele>56</ele>
        <time>2021-07-19T15:53:19.000Z</time>
      </trkpt>
      <trkpt lat="47.27248" lon="-1.40095">
        <ele>56</ele>
        <time>2021-07-19T15:53:21.000Z</time>
      </trkpt>
      <trkpt lat="47.27256" lon="-1.40083">
        <ele>56</ele>
        <time>2021-07-19T15:53:23.000Z</time>
      </trkpt>
      <trkpt lat="47.27265" lon="-1.4007">
        <ele>56</ele>
        <time>2021-07-19T15:53:25.000Z</time>
      </trkpt>
      <trkpt lat="47.27273" lon="-1.40056">
        <ele>56</ele>
        <time>2021-07-19T15:53:27.000Z</time>
      </trkpt>
      <trkpt lat="47.27281" lon="-1.40042">
        <ele>56</ele>
        <time>2021-07-19T15:53:29.000Z</time>
      </trkpt>
      <trkpt lat="47.27289" lon="-1.40029">
        <ele>56</ele>
        <time>2021-07-19T15:53:31.000Z</time>
      </trkpt>
      <trkpt lat="47.27298" lon="-1.40016">
        <ele>56</ele>
        <time>2021-07-19T15:53:33.000Z</time>
      </trkpt>
      <trkpt lat="47.27306" lon="-1.40004">
        <ele>55</ele>
        <time>2021-07-19T15:53:35.000Z</time>
      </trkpt>
      <trkpt lat="47.27314" lon="-1.39992">
        <ele>55</ele>
        <time>2021-07-19T15:53:37.000Z</time>
      </trkpt>
      <trkpt lat="47.27322" lon="-1.39979">
        <ele>55</ele>
        <time>2021-07-19T15:53:39.000Z</time>
      </trkpt>
      <trkpt lat="47.27329" lon="-1.39967">
        <ele>55</ele>
        <time>2021-07-19T15:53:41.000Z</time>
      </trkpt>
      <trkpt lat="47.27338" lon="-1.39954">
        <ele>55</ele>
        <time>2021-07-19T15:53:43.000Z</time>
      </trkpt>
      <trkpt lat="47.27346" lon="-1.39941">
        <ele>55</ele>
        <time>2021-07-19T15:53:45.000Z</time>
      </trkpt>
      <trkpt lat="47.27354" lon="-1.39928">
        <ele>55</ele>
        <time>2021-07-19T15:53:47.000Z</time>
      </trkpt>
      <trkpt lat="47.27362" lon="-1.39914">
        <ele>55</ele>
        <time>2021-07-19T15:53:49.000Z</time>
      </trkpt>
      <trkpt lat="47.2737" lon="-1.39901">
        <ele>55</ele>
        <time>2021-07-19T15:53:51.000Z</time>
      </trkpt>
      <trkpt lat="47.27379" lon="-1.39891">
        <ele>55</ele>
        <time>2021-07-19T15:53:53.000Z</time>
      </trkpt>
      <trkpt lat="47.2739" lon="-1.39887">
        <ele>55</ele>
        <time>2021-07-19T15:53:55.000Z</time>
      </trkpt>
      <trkpt lat="47.2741" lon="-1.3989">
        <ele>55</ele>
        <time>2021-07-19T15:53:58.000Z</time>
      </trkpt>
      <trkpt lat="47.2742" lon="-1.39887">
        <ele>55</ele>
        <time>2021-07-19T15:54:00.000Z</time>
      </trkpt>
      <trkpt lat="47.27426" lon="-1.39876">
        <ele>56</ele>
        <time>2021-07-19T15:54:02.000Z</time>
      </trkpt>
      <trkpt lat="47.27432" lon="-1.39852">
        <ele>55</ele>
        <time>2021-07-19T15:54:05.000Z</time>
      </trkpt>
      <trkpt lat="47.27437" lon="-1.39836">
        <ele>55</ele>
        <time>2021-07-19T15:54:07.000Z</time>
      </trkpt>
      <trkpt lat="47.27442" lon="-1.39818">
        <ele>55</ele>
        <time>2021-07-19T15:54:09.000Z</time>
      </trkpt>
      <trkpt lat="47.27448" lon="-1.39802">
        <ele>55</ele>
        <time>2021-07-19T15:54:11.000Z</time>
      </trkpt>
      <trkpt lat="47.27456" lon="-1.39786">
        <ele>55</ele>
        <time>2021-07-19T15:54:13.000Z</time>
      </trkpt>
      <trkpt lat="47.27464" lon="-1.39769">
        <ele>55</ele>
        <time>2021-07-19T15:54:15.000Z</time>
      </trkpt>
      <trkpt lat="47.27477" lon="-1.39746">
        <ele>56</ele>
        <time>2021-07-19T15:54:18.000Z</time>
      </trkpt>
      <trkpt lat="47.27487" lon="-1.39723">
        <ele>56</ele>
        <time>2021-07-19T15:54:21.000Z</time>
      </trkpt>
      <trkpt lat="47.27494" lon="-1.39708">
        <ele>56</ele>
        <time>2021-07-19T15:54:23.000Z</time>
      </trkpt>
      <trkpt lat="47.27503" lon="-1.39693">
        <ele>56</ele>
        <time>2021-07-19T15:54:25.000Z</time>
      </trkpt>
      <trkpt lat="47.27511" lon="-1.3968">
        <ele>56</ele>
        <time>2021-07-19T15:54:27.000Z</time>
      </trkpt>
      <trkpt lat="47.27519" lon="-1.39667">
        <ele>56</ele>
        <time>2021-07-19T15:54:29.000Z</time>
      </trkpt>
      <trkpt lat="47.27531" lon="-1.39648">
        <ele>56</ele>
        <time>2021-07-19T15:54:32.000Z</time>
      </trkpt>
      <trkpt lat="47.27544" lon="-1.39628">
        <ele>56</ele>
        <time>2021-07-19T15:54:35.000Z</time>
      </trkpt>
      <trkpt lat="47.27557" lon="-1.39608">
        <ele>57</ele>
        <time>2021-07-19T15:54:38.000Z</time>
      </trkpt>
      <trkpt lat="47.27565" lon="-1.39595">
        <ele>57</ele>
        <time>2021-07-19T15:54:40.000Z</time>
      </trkpt>
      <trkpt lat="47.27574" lon="-1.39583">
        <ele>57</ele>
        <time>2021-07-19T15:54:42.000Z</time>
      </trkpt>
      <trkpt lat="47.27582" lon="-1.3957">
        <ele>56</ele>
        <time>2021-07-19T15:54:44.000Z</time>
      </trkpt>
      <trkpt lat="47.2759" lon="-1.39557">
        <ele>56</ele>
        <time>2021-07-19T15:54:46.000Z</time>
      </trkpt>
      <trkpt lat="47.27598" lon="-1.39544">
        <ele>56</ele>
        <time>2021-07-19T15:54:48.000Z</time>
      </trkpt>
      <trkpt lat="47.27606" lon="-1.39531">
        <ele>55</ele>
        <time>2021-07-19T15:54:50.000Z</time>
      </trkpt>
      <trkpt lat="47.27615" lon="-1.39522">
        <ele>55</ele>
        <time>2021-07-19T15:54:52.000Z</time>
      </trkpt>
      <trkpt lat="47.27624" lon="-1.39516">
        <ele>56</ele>
        <time>2021-07-19T15:54:54.000Z</time>
      </trkpt>
      <trkpt lat="47.27629" lon="-1.39503">
        <ele>56</ele>
        <time>2021-07-19T15:54:56.000Z</time>
      </trkpt>
      <trkpt lat="47.27637" lon="-1.39489">
        <ele>55</ele>
        <time>2021-07-19T15:54:58.000Z</time>
      </trkpt>
      <trkpt lat="47.27644" lon="-1.39474">
        <ele>55</ele>
        <time>2021-07-19T15:55:00.000Z</time>
      </trkpt>
      <trkpt lat="47.27652" lon="-1.39459">
        <ele>55</ele>
        <time>2021-07-19T15:55:02.000Z</time>
      </trkpt>
      <trkpt lat="47.27661" lon="-1.39444">
        <ele>55</ele>
        <time>2021-07-19T15:55:04.000Z</time>
      </trkpt>
      <trkpt lat="47.27669" lon="-1.3943">
        <ele>55</ele>
        <time>2021-07-19T15:55:06.000Z</time>
      </trkpt>
      <trkpt lat="47.27676" lon="-1.39415">
        <ele>55</ele>
        <time>2021-07-19T15:55:08.000Z</time>
      </trkpt>
      <trkpt lat="47.27685" lon="-1.39401">
        <ele>55</ele>
        <time>2021-07-19T15:55:10.000Z</time>
      </trkpt>
      <trkpt lat="47.27692" lon="-1.39386">
        <ele>55</ele>
        <time>2021-07-19T15:55:12.000Z</time>
      </trkpt>
      <trkpt lat="47.27699" lon="-1.39372">
        <ele>55</ele>
        <time>2021-07-19T15:55:14.000Z</time>
      </trkpt>
      <trkpt lat="47.27706" lon="-1.39357">
        <ele>55</ele>
        <time>2021-07-19T15:55:16.000Z</time>
      </trkpt>
      <trkpt lat="47.27713" lon="-1.39342">
        <ele>55</ele>
        <time>2021-07-19T15:55:18.000Z</time>
      </trkpt>
      <trkpt lat="47.2772" lon="-1.39326">
        <ele>55</ele>
        <time>2021-07-19T15:55:20.000Z</time>
      </trkpt>
      <trkpt lat="47.27726" lon="-1.39311">
        <ele>55</ele>
        <time>2021-07-19T15:55:22.000Z</time>
      </trkpt>
      <trkpt lat="47.27733" lon="-1.39296">
        <ele>55</ele>
        <time>2021-07-19T15:55:24.000Z</time>
      </trkpt>
      <trkpt lat="47.27741" lon="-1.3928">
        <ele>55</ele>
        <time>2021-07-19T15:55:26.000Z</time>
      </trkpt>
      <trkpt lat="47.27747" lon="-1.39265">
        <ele>55</ele>
        <time>2021-07-19T15:55:28.000Z</time>
      </trkpt>
      <trkpt lat="47.27754" lon="-1.39251">
        <ele>55</ele>
        <time>2021-07-19T15:55:30.000Z</time>
      </trkpt>
      <trkpt lat="47.27761" lon="-1.39236">
        <ele>55</ele>
        <time>2021-07-19T15:55:32.000Z</time>
      </trkpt>
      <trkpt lat="47.27768" lon="-1.39221">
        <ele>55</ele>
        <time>2021-07-19T15:55:34.000Z</time>
      </trkpt>
      <trkpt lat="47.27775" lon="-1.39206">
        <ele>55</ele>
        <time>2021-07-19T15:55:36.000Z</time>
      </trkpt>
      <trkpt lat="47.27782" lon="-1.3919">
        <ele>55</ele>
        <time>2021-07-19T15:55:38.000Z</time>
      </trkpt>
      <trkpt lat="47.2779" lon="-1.39176">
        <ele>55</ele>
        <time>2021-07-19T15:55:40.000Z</time>
      </trkpt>
      <trkpt lat="47.27798" lon="-1.39162">
        <ele>56</ele>
        <time>2021-07-19T15:55:42.000Z</time>
      </trkpt>
      <trkpt lat="47.27807" lon="-1.39149">
        <ele>55</ele>
        <time>2021-07-19T15:55:44.000Z</time>
      </trkpt>
      <trkpt lat="47.27816" lon="-1.39135">
        <ele>55</ele>
        <time>2021-07-19T15:55:46.000Z</time>
      </trkpt>
      <trkpt lat="47.27825" lon="-1.3912">
        <ele>55</ele>
        <time>2021-07-19T15:55:48.000Z</time>
      </trkpt>
      <trkpt lat="47.27833" lon="-1.39106">
        <ele>56</ele>
        <time>2021-07-19T15:55:50.000Z</time>
      </trkpt>
      <trkpt lat="47.27842" lon="-1.39092">
        <ele>56</ele>
        <time>2021-07-19T15:55:52.000Z</time>
      </trkpt>
      <trkpt lat="47.2785" lon="-1.39078">
        <ele>56</ele>
        <time>2021-07-19T15:55:54.000Z</time>
      </trkpt>
      <trkpt lat="47.27859" lon="-1.39064">
        <ele>56</ele>
        <time>2021-07-19T15:55:56.000Z</time>
      </trkpt>
      <trkpt lat="47.27867" lon="-1.3905">
        <ele>56</ele>
        <time>2021-07-19T15:55:58.000Z</time>
      </trkpt>
      <trkpt lat="47.27875" lon="-1.39036">
        <ele>56</ele>
        <time>2021-07-19T15:56:00.000Z</time>
      </trkpt>
      <trkpt lat="47.27883" lon="-1.39023">
        <ele>56</ele>
        <time>2021-07-19T15:56:02.000Z</time>
      </trkpt>
      <trkpt lat="47.27891" lon="-1.3901">
        <ele>56</ele>
        <time>2021-07-19T15:56:04.000Z</time>
      </trkpt>
      <trkpt lat="47.27901" lon="-1.38998">
        <ele>56</ele>
        <time>2021-07-19T15:56:06.000Z</time>
      </trkpt>
      <trkpt lat="47.2791" lon="-1.38985">
        <ele>56</ele>
        <time>2021-07-19T15:56:08.000Z</time>
      </trkpt>
      <trkpt lat="47.27918" lon="-1.3897">
        <ele>55</ele>
        <time>2021-07-19T15:56:10.000Z</time>
      </trkpt>
      <trkpt lat="47.27926" lon="-1.38956">
        <ele>55</ele>
        <time>2021-07-19T15:56:12.000Z</time>
      </trkpt>
      <trkpt lat="47.27934" lon="-1.38942">
        <ele>55</ele>
        <time>2021-07-19T15:56:14.000Z</time>
      </trkpt>
      <trkpt lat="47.27943" lon="-1.38929">
        <ele>55</ele>
        <time>2021-07-19T15:56:16.000Z</time>
      </trkpt>
      <trkpt lat="47.27952" lon="-1.38915">
        <ele>55</ele>
        <time>2021-07-19T15:56:18.000Z</time>
      </trkpt>
      <trkpt lat="47.2796" lon="-1.38902">
        <ele>55</ele>
        <time>2021-07-19T15:56:20.000Z</time>
      </trkpt>
      <trkpt lat="47.27969" lon="-1.38888">
        <ele>55</ele>
        <time>2021-07-19T15:56:22.000Z</time>
      </trkpt>
      <trkpt lat="47.27978" lon="-1.38876">
        <ele>55</ele>
        <time>2021-07-19T15:56:24.000Z</time>
      </trkpt>
      <trkpt lat="47.27988" lon="-1.38863">
        <ele>55</ele>
        <time>2021-07-19T15:56:26.000Z</time>
      </trkpt>
      <trkpt lat="47.27996" lon="-1.38852">
        <ele>55</ele>
        <time>2021-07-19T15:56:28.000Z</time>
      </trkpt>
      <trkpt lat="47.28006" lon="-1.38843">
        <ele>55</ele>
        <time>2021-07-19T15:56:30.000Z</time>
      </trkpt>
      <trkpt lat="47.28016" lon="-1.38833">
        <ele>55</ele>
        <time>2021-07-19T15:56:32.000Z</time>
      </trkpt>
      <trkpt lat="47.28025" lon="-1.38823">
        <ele>55</ele>
        <time>2021-07-19T15:56:34.000Z</time>
      </trkpt>
      <trkpt lat="47.28035" lon="-1.38814">
        <ele>56</ele>
        <time>2021-07-19T15:56:36.000Z</time>
      </trkpt>
      <trkpt lat="47.28045" lon="-1.38806">
        <ele>56</ele>
        <time>2021-07-19T15:56:38.000Z</time>
      </trkpt>
      <trkpt lat="47.28057" lon="-1.388">
        <ele>56</ele>
        <time>2021-07-19T15:56:40.000Z</time>
      </trkpt>
      <trkpt lat="47.28068" lon="-1.38792">
        <ele>56</ele>
        <time>2021-07-19T15:56:42.000Z</time>
      </trkpt>
      <trkpt lat="47.28079" lon="-1.38784">
        <ele>56</ele>
        <time>2021-07-19T15:56:44.000Z</time>
      </trkpt>
      <trkpt lat="47.28092" lon="-1.38782">
        <ele>55</ele>
        <time>2021-07-19T15:56:46.000Z</time>
      </trkpt>
      <trkpt lat="47.28103" lon="-1.38777">
        <ele>55</ele>
        <time>2021-07-19T15:56:48.000Z</time>
      </trkpt>
      <trkpt lat="47.28113" lon="-1.38769">
        <ele>55</ele>
        <time>2021-07-19T15:56:50.000Z</time>
      </trkpt>
      <trkpt lat="47.28123" lon="-1.38761">
        <ele>55</ele>
        <time>2021-07-19T15:56:52.000Z</time>
      </trkpt>
      <trkpt lat="47.28134" lon="-1.38752">
        <ele>55</ele>
        <time>2021-07-19T15:56:54.000Z</time>
      </trkpt>
      <trkpt lat="47.28144" lon="-1.38743">
        <ele>55</ele>
        <time>2021-07-19T15:56:56.000Z</time>
      </trkpt>
      <trkpt lat="47.28155" lon="-1.38733">
        <ele>55</ele>
        <time>2021-07-19T15:56:58.000Z</time>
      </trkpt>
      <trkpt lat="47.28165" lon="-1.38722">
        <ele>55</ele>
        <time>2021-07-19T15:57:00.000Z</time>
      </trkpt>
      <trkpt lat="47.28173" lon="-1.3871">
        <ele>55</ele>
        <time>2021-07-19T15:57:02.000Z</time>
      </trkpt>
      <trkpt lat="47.28178" lon="-1.38693">
        <ele>55</ele>
        <time>2021-07-19T15:57:04.000Z</time>
      </trkpt>
      <trkpt lat="47.28182" lon="-1.38676">
        <ele>55</ele>
        <time>2021-07-19T15:57:06.000Z</time>
      </trkpt>
      <trkpt lat="47.28187" lon="-1.38659">
        <ele>55</ele>
        <time>2021-07-19T15:57:08.000Z</time>
      </trkpt>
      <trkpt lat="47.28192" lon="-1.38643">
        <ele>55</ele>
        <time>2021-07-19T15:57:10.000Z</time>
      </trkpt>
      <trkpt lat="47.28196" lon="-1.38627">
        <ele>55</ele>
        <time>2021-07-19T15:57:12.000Z</time>
      </trkpt>
      <trkpt lat="47.28198" lon="-1.3861">
        <ele>56</ele>
        <time>2021-07-19T15:57:14.000Z</time>
      </trkpt>
      <trkpt lat="47.28199" lon="-1.38592">
        <ele>56</ele>
        <time>2021-07-19T15:57:16.000Z</time>
      </trkpt>
      <trkpt lat="47.28199" lon="-1.38575">
        <ele>55</ele>
        <time>2021-07-19T15:57:18.000Z</time>
      </trkpt>
      <trkpt lat="47.282" lon="-1.38557">
        <ele>55</ele>
        <time>2021-07-19T15:57:20.000Z</time>
      </trkpt>
      <trkpt lat="47.282" lon="-1.3854">
        <ele>55</ele>
        <time>2021-07-19T15:57:22.000Z</time>
      </trkpt>
      <trkpt lat="47.28203" lon="-1.38523">
        <ele>55</ele>
        <time>2021-07-19T15:57:24.000Z</time>
      </trkpt>
      <trkpt lat="47.28208" lon="-1.38508">
        <ele>55</ele>
        <time>2021-07-19T15:57:26.000Z</time>
      </trkpt>
      <trkpt lat="47.28215" lon="-1.38492">
        <ele>55</ele>
        <time>2021-07-19T15:57:28.000Z</time>
      </trkpt>
      <trkpt lat="47.28221" lon="-1.38477">
        <ele>55</ele>
        <time>2021-07-19T15:57:30.000Z</time>
      </trkpt>
      <trkpt lat="47.28228" lon="-1.38462">
        <ele>55</ele>
        <time>2021-07-19T15:57:32.000Z</time>
      </trkpt>
      <trkpt lat="47.28234" lon="-1.38447">
        <ele>55</ele>
        <time>2021-07-19T15:57:34.000Z</time>
      </trkpt>
      <trkpt lat="47.2824" lon="-1.38434">
        <ele>55</ele>
        <time>2021-07-19T15:57:36.000Z</time>
      </trkpt>
      <trkpt lat="47.28246" lon="-1.38421">
        <ele>54</ele>
        <time>2021-07-19T15:57:38.000Z</time>
      </trkpt>
      <trkpt lat="47.28253" lon="-1.38407">
        <ele>54</ele>
        <time>2021-07-19T15:57:40.000Z</time>
      </trkpt>
      <trkpt lat="47.2826" lon="-1.38392">
        <ele>54</ele>
        <time>2021-07-19T15:57:42.000Z</time>
      </trkpt>
      <trkpt lat="47.28267" lon="-1.38377">
        <ele>54</ele>
        <time>2021-07-19T15:57:44.000Z</time>
      </trkpt>
      <trkpt lat="47.28274" lon="-1.38362">
        <ele>53</ele>
        <time>2021-07-19T15:57:46.000Z</time>
      </trkpt>
      <trkpt lat="47.2828" lon="-1.38347">
        <ele>53</ele>
        <time>2021-07-19T15:57:48.000Z</time>
      </trkpt>
      <trkpt lat="47.28286" lon="-1.38332">
        <ele>53</ele>
        <time>2021-07-19T15:57:50.000Z</time>
      </trkpt>
      <trkpt lat="47.28293" lon="-1.38318">
        <ele>53</ele>
        <time>2021-07-19T15:57:52.000Z</time>
      </trkpt>
      <trkpt lat="47.283" lon="-1.38305">
        <ele>54</ele>
        <time>2021-07-19T15:57:54.000Z</time>
      </trkpt>
      <trkpt lat="47.28308" lon="-1.38294">
        <ele>54</ele>
        <time>2021-07-19T15:57:56.000Z</time>
      </trkpt>
      <trkpt lat="47.28315" lon="-1.38282">
        <ele>54</ele>
        <time>2021-07-19T15:57:58.000Z</time>
      </trkpt>
      <trkpt lat="47.28323" lon="-1.38272">
        <ele>54</ele>
        <time>2021-07-19T15:58:00.000Z</time>
      </trkpt>
      <trkpt lat="47.28332" lon="-1.38263">
        <ele>54</ele>
        <time>2021-07-19T15:58:02.000Z</time>
      </trkpt>
      <trkpt lat="47.28339" lon="-1.3825">
        <ele>54</ele>
        <time>2021-07-19T15:58:04.000Z</time>
      </trkpt>
      <trkpt lat="47.28346" lon="-1.38235">
        <ele>54</ele>
        <time>2021-07-19T15:58:06.000Z</time>
      </trkpt>
      <trkpt lat="47.2835" lon="-1.38219">
        <ele>54</ele>
        <time>2021-07-19T15:58:08.000Z</time>
      </trkpt>
      <trkpt lat="47.28353" lon="-1.38204">
        <ele>54</ele>
        <time>2021-07-19T15:58:10.000Z</time>
      </trkpt>
      <trkpt lat="47.28356" lon="-1.3819">
        <ele>54</ele>
        <time>2021-07-19T15:58:12.000Z</time>
      </trkpt>
      <trkpt lat="47.2836" lon="-1.38175">
        <ele>54</ele>
        <time>2021-07-19T15:58:14.000Z</time>
      </trkpt>
      <trkpt lat="47.28365" lon="-1.38159">
        <ele>54</ele>
        <time>2021-07-19T15:58:16.000Z</time>
      </trkpt>
      <trkpt lat="47.28371" lon="-1.38144">
        <ele>54</ele>
        <time>2021-07-19T15:58:18.000Z</time>
      </trkpt>
      <trkpt lat="47.28379" lon="-1.3813">
        <ele>54</ele>
        <time>2021-07-19T15:58:20.000Z</time>
      </trkpt>
      <trkpt lat="47.28386" lon="-1.38116">
        <ele>54</ele>
        <time>2021-07-19T15:58:22.000Z</time>
      </trkpt>
      <trkpt lat="47.28395" lon="-1.38104">
        <ele>55</ele>
        <time>2021-07-19T15:58:24.000Z</time>
      </trkpt>
      <trkpt lat="47.28405" lon="-1.38093">
        <ele>55</ele>
        <time>2021-07-19T15:58:26.000Z</time>
      </trkpt>
      <trkpt lat="47.28414" lon="-1.38083">
        <ele>55</ele>
        <time>2021-07-19T15:58:28.000Z</time>
      </trkpt>
      <trkpt lat="47.28423" lon="-1.38072">
        <ele>55</ele>
        <time>2021-07-19T15:58:30.000Z</time>
      </trkpt>
      <trkpt lat="47.28433" lon="-1.38062">
        <ele>55</ele>
        <time>2021-07-19T15:58:32.000Z</time>
      </trkpt>
      <trkpt lat="47.28441" lon="-1.38051">
        <ele>55</ele>
        <time>2021-07-19T15:58:34.000Z</time>
      </trkpt>
      <trkpt lat="47.2845" lon="-1.38041">
        <ele>55</ele>
        <time>2021-07-19T15:58:36.000Z</time>
      </trkpt>
      <trkpt lat="47.28459" lon="-1.38031">
        <ele>55</ele>
        <time>2021-07-19T15:58:38.000Z</time>
      </trkpt>
      <trkpt lat="47.28468" lon="-1.38026">
        <ele>56</ele>
        <time>2021-07-19T15:58:40.000Z</time>
      </trkpt>
      <trkpt lat="47.28479" lon="-1.38028">
        <ele>55</ele>
        <time>2021-07-19T15:58:42.000Z</time>
      </trkpt>
      <trkpt lat="47.28492" lon="-1.38025">
        <ele>55</ele>
        <time>2021-07-19T15:58:44.000Z</time>
      </trkpt>
      <trkpt lat="47.28502" lon="-1.38018">
        <ele>55</ele>
        <time>2021-07-19T15:58:46.000Z</time>
      </trkpt>
      <trkpt lat="47.28509" lon="-1.38004">
        <ele>55</ele>
        <time>2021-07-19T15:58:48.000Z</time>
      </trkpt>
      <trkpt lat="47.28516" lon="-1.37991">
        <ele>55</ele>
        <time>2021-07-19T15:58:50.000Z</time>
      </trkpt>
      <trkpt lat="47.28521" lon="-1.37978">
        <ele>55</ele>
        <time>2021-07-19T15:58:52.000Z</time>
      </trkpt>
      <trkpt lat="47.28525" lon="-1.37965">
        <ele>55</ele>
        <time>2021-07-19T15:58:54.000Z</time>
      </trkpt>
      <trkpt lat="47.2853" lon="-1.37949">
        <ele>56</ele>
        <time>2021-07-19T15:58:56.000Z</time>
      </trkpt>
      <trkpt lat="47.28538" lon="-1.37937">
        <ele>56</ele>
        <time>2021-07-19T15:58:58.000Z</time>
      </trkpt>
      <trkpt lat="47.28546" lon="-1.37925">
        <ele>56</ele>
        <time>2021-07-19T15:59:00.000Z</time>
      </trkpt>
      <trkpt lat="47.28556" lon="-1.37915">
        <ele>56</ele>
        <time>2021-07-19T15:59:02.000Z</time>
      </trkpt>
      <trkpt lat="47.28566" lon="-1.37905">
        <ele>56</ele>
        <time>2021-07-19T15:59:04.000Z</time>
      </trkpt>
      <trkpt lat="47.28575" lon="-1.37895">
        <ele>55</ele>
        <time>2021-07-19T15:59:06.000Z</time>
      </trkpt>
      <trkpt lat="47.28585" lon="-1.37884">
        <ele>55</ele>
        <time>2021-07-19T15:59:08.000Z</time>
      </trkpt>
      <trkpt lat="47.28594" lon="-1.37873">
        <ele>55</ele>
        <time>2021-07-19T15:59:10.000Z</time>
      </trkpt>
      <trkpt lat="47.28603" lon="-1.37863">
        <ele>55</ele>
        <time>2021-07-19T15:59:12.000Z</time>
      </trkpt>
      <trkpt lat="47.28611" lon="-1.37852">
        <ele>55</ele>
        <time>2021-07-19T15:59:14.000Z</time>
      </trkpt>
      <trkpt lat="47.2862" lon="-1.37843">
        <ele>55</ele>
        <time>2021-07-19T15:59:16.000Z</time>
      </trkpt>
      <trkpt lat="47.28629" lon="-1.37833">
        <ele>56</ele>
        <time>2021-07-19T15:59:18.000Z</time>
      </trkpt>
      <trkpt lat="47.28638" lon="-1.37823">
        <ele>55</ele>
        <time>2021-07-19T15:59:20.000Z</time>
      </trkpt>
      <trkpt lat="47.28647" lon="-1.37812">
        <ele>55</ele>
        <time>2021-07-19T15:59:22.000Z</time>
      </trkpt>
      <trkpt lat="47.28657" lon="-1.37802">
        <ele>55</ele>
        <time>2021-07-19T15:59:24.000Z</time>
      </trkpt>
      <trkpt lat="47.28666" lon="-1.37791">
        <ele>55</ele>
        <time>2021-07-19T15:59:26.000Z</time>
      </trkpt>
      <trkpt lat="47.28675" lon="-1.37781">
        <ele>55</ele>
        <time>2021-07-19T15:59:28.000Z</time>
      </trkpt>
      <trkpt lat="47.28683" lon="-1.3777">
        <ele>55</ele>
        <time>2021-07-19T15:59:30.000Z</time>
      </trkpt>
      <trkpt lat="47.28693" lon="-1.37759">
        <ele>55</ele>
        <time>2021-07-19T15:59:32.000Z</time>
      </trkpt>
      <trkpt lat="47.28703" lon="-1.3775">
        <ele>55</ele>
        <time>2021-07-19T15:59:34.000Z</time>
      </trkpt>
      <trkpt lat="47.28713" lon="-1.37741">
        <ele>55</ele>
        <time>2021-07-19T15:59:36.000Z</time>
      </trkpt>
      <trkpt lat="47.28722" lon="-1.37731">
        <ele>55</ele>
        <time>2021-07-19T15:59:38.000Z</time>
      </trkpt>
      <trkpt lat="47.28731" lon="-1.3772">
        <ele>55</ele>
        <time>2021-07-19T15:59:40.000Z</time>
      </trkpt>
      <trkpt lat="47.28739" lon="-1.37708">
        <ele>56</ele>
        <time>2021-07-19T15:59:42.000Z</time>
      </trkpt>
      <trkpt lat="47.28748" lon="-1.37696">
        <ele>56</ele>
        <time>2021-07-19T15:59:44.000Z</time>
      </trkpt>
      <trkpt lat="47.28757" lon="-1.37685">
        <ele>56</ele>
        <time>2021-07-19T15:59:46.000Z</time>
      </trkpt>
      <trkpt lat="47.28766" lon="-1.37674">
        <ele>56</ele>
        <time>2021-07-19T15:59:48.000Z</time>
      </trkpt>
      <trkpt lat="47.28775" lon="-1.37663">
        <ele>56</ele>
        <time>2021-07-19T15:59:50.000Z</time>
      </trkpt>
      <trkpt lat="47.28785" lon="-1.37653">
        <ele>56</ele>
        <time>2021-07-19T15:59:52.000Z</time>
      </trkpt>
      <trkpt lat="47.28795" lon="-1.37646">
        <ele>57</ele>
        <time>2021-07-19T15:59:54.000Z</time>
      </trkpt>
      <trkpt lat="47.28804" lon="-1.37637">
        <ele>56</ele>
        <time>2021-07-19T15:59:56.000Z</time>
      </trkpt>
      <trkpt lat="47.28814" lon="-1.37627">
        <ele>56</ele>
        <time>2021-07-19T15:59:58.000Z</time>
      </trkpt>
      <trkpt lat="47.28822" lon="-1.37616">
        <ele>56</ele>
        <time>2021-07-19T16:00:00.000Z</time>
      </trkpt>
      <trkpt lat="47.2883" lon="-1.37609">
        <ele>57</ele>
        <time>2021-07-19T16:00:02.000Z</time>
      </trkpt>
      <trkpt lat="47.28843" lon="-1.37605">
        <ele>58</ele>
        <time>2021-07-19T16:00:05.000Z</time>
      </trkpt>
      <trkpt lat="47.28848" lon="-1.37593">
        <ele>58</ele>
        <time>2021-07-19T16:00:07.000Z</time>
      </trkpt>
      <trkpt lat="47.28849" lon="-1.37576">
        <ele>58</ele>
        <time>2021-07-19T16:00:09.000Z</time>
      </trkpt>
      <trkpt lat="47.28853" lon="-1.3756">
        <ele>58</ele>
        <time>2021-07-19T16:00:11.000Z</time>
      </trkpt>
      <trkpt lat="47.28859" lon="-1.37545">
        <ele>58</ele>
        <time>2021-07-19T16:00:13.000Z</time>
      </trkpt>
      <trkpt lat="47.28864" lon="-1.37528">
        <ele>58</ele>
        <time>2021-07-19T16:00:15.000Z</time>
      </trkpt>
      <trkpt lat="47.28869" lon="-1.37511">
        <ele>57</ele>
        <time>2021-07-19T16:00:17.000Z</time>
      </trkpt>
      <trkpt lat="47.28872" lon="-1.37494">
        <ele>57</ele>
        <time>2021-07-19T16:00:19.000Z</time>
      </trkpt>
      <trkpt lat="47.28877" lon="-1.37477">
        <ele>56</ele>
        <time>2021-07-19T16:00:21.000Z</time>
      </trkpt>
      <trkpt lat="47.28882" lon="-1.3746">
        <ele>55</ele>
        <time>2021-07-19T16:00:23.000Z</time>
      </trkpt>
      <trkpt lat="47.28887" lon="-1.37444">
        <ele>55</ele>
        <time>2021-07-19T16:00:25.000Z</time>
      </trkpt>
      <trkpt lat="47.28892" lon="-1.37428">
        <ele>55</ele>
        <time>2021-07-19T16:00:27.000Z</time>
      </trkpt>
      <trkpt lat="47.28897" lon="-1.37412">
        <ele>55</ele>
        <time>2021-07-19T16:00:29.000Z</time>
      </trkpt>
      <trkpt lat="47.28902" lon="-1.37396">
        <ele>55</ele>
        <time>2021-07-19T16:00:31.000Z</time>
      </trkpt>
      <trkpt lat="47.28907" lon="-1.3738">
        <ele>55</ele>
        <time>2021-07-19T16:00:33.000Z</time>
      </trkpt>
      <trkpt lat="47.28912" lon="-1.37363">
        <ele>55</ele>
        <time>2021-07-19T16:00:35.000Z</time>
      </trkpt>
      <trkpt lat="47.28917" lon="-1.37348">
        <ele>55</ele>
        <time>2021-07-19T16:00:37.000Z</time>
      </trkpt>
      <trkpt lat="47.28922" lon="-1.37333">
        <ele>54</ele>
        <time>2021-07-19T16:00:39.000Z</time>
      </trkpt>
      <trkpt lat="47.28928" lon="-1.37317">
        <ele>54</ele>
        <time>2021-07-19T16:00:41.000Z</time>
      </trkpt>
      <trkpt lat="47.28933" lon="-1.373">
        <ele>54</ele>
        <time>2021-07-19T16:00:43.000Z</time>
      </trkpt>
      <trkpt lat="47.28938" lon="-1.37284">
        <ele>53</ele>
        <time>2021-07-19T16:00:45.000Z</time>
      </trkpt>
      <trkpt lat="47.28942" lon="-1.37268">
        <ele>53</ele>
        <time>2021-07-19T16:00:47.000Z</time>
      </trkpt>
      <trkpt lat="47.28947" lon="-1.37252">
        <ele>53</ele>
        <time>2021-07-19T16:00:49.000Z</time>
      </trkpt>
      <trkpt lat="47.28952" lon="-1.37236">
        <ele>53</ele>
        <time>2021-07-19T16:00:51.000Z</time>
      </trkpt>
      <trkpt lat="47.28958" lon="-1.37221">
        <ele>53</ele>
        <time>2021-07-19T16:00:53.000Z</time>
      </trkpt>
      <trkpt lat="47.28963" lon="-1.37205">
        <ele>54</ele>
        <time>2021-07-19T16:00:55.000Z</time>
      </trkpt>
      <trkpt lat="47.28969" lon="-1.37189">
        <ele>53</ele>
        <time>2021-07-19T16:00:57.000Z</time>
      </trkpt>
      <trkpt lat="47.28975" lon="-1.37174">
        <ele>53</ele>
        <time>2021-07-19T16:00:59.000Z</time>
      </trkpt>
      <trkpt lat="47.28981" lon="-1.3716">
        <ele>53</ele>
        <time>2021-07-19T16:01:01.000Z</time>
      </trkpt>
      <trkpt lat="47.28987" lon="-1.37146">
        <ele>53</ele>
        <time>2021-07-19T16:01:03.000Z</time>
      </trkpt>
      <trkpt lat="47.28993" lon="-1.37131">
        <ele>53</ele>
        <time>2021-07-19T16:01:05.000Z</time>
      </trkpt>
      <trkpt lat="47.29" lon="-1.37117">
        <ele>53</ele>
        <time>2021-07-19T16:01:07.000Z</time>
      </trkpt>
      <trkpt lat="47.29006" lon="-1.37104">
        <ele>54</ele>
        <time>2021-07-19T16:01:09.000Z</time>
      </trkpt>
      <trkpt lat="47.29012" lon="-1.3709">
        <ele>54</ele>
        <time>2021-07-19T16:01:11.000Z</time>
      </trkpt>
      <trkpt lat="47.29018" lon="-1.37076">
        <ele>54</ele>
        <time>2021-07-19T16:01:13.000Z</time>
      </trkpt>
      <trkpt lat="47.29025" lon="-1.37063">
        <ele>54</ele>
        <time>2021-07-19T16:01:15.000Z</time>
      </trkpt>
      <trkpt lat="47.29031" lon="-1.3705">
        <ele>54</ele>
        <time>2021-07-19T16:01:17.000Z</time>
      </trkpt>
      <trkpt lat="47.29037" lon="-1.37037">
        <ele>54</ele>
        <time>2021-07-19T16:01:19.000Z</time>
      </trkpt>
      <trkpt lat="47.29044" lon="-1.37023">
        <ele>54</ele>
        <time>2021-07-19T16:01:21.000Z</time>
      </trkpt>
      <trkpt lat="47.29051" lon="-1.37009">
        <ele>55</ele>
        <time>2021-07-19T16:01:23.000Z</time>
      </trkpt>
      <trkpt lat="47.29057" lon="-1.36997">
        <ele>57</ele>
        <time>2021-07-19T16:01:25.000Z</time>
      </trkpt>
      <trkpt lat="47.29067" lon="-1.36986">
        <ele>58</ele>
        <time>2021-07-19T16:01:28.000Z</time>
      </trkpt>
      <trkpt lat="47.29075" lon="-1.36978">
        <ele>58</ele>
        <time>2021-07-19T16:01:30.000Z</time>
      </trkpt>
      <trkpt lat="47.29082" lon="-1.36965">
        <ele>58</ele>
        <time>2021-07-19T16:01:32.000Z</time>
      </trkpt>
      <trkpt lat="47.29087" lon="-1.36948">
        <ele>57</ele>
        <time>2021-07-19T16:01:34.000Z</time>
      </trkpt>
      <trkpt lat="47.29093" lon="-1.36931">
        <ele>57</ele>
        <time>2021-07-19T16:01:36.000Z</time>
      </trkpt>
      <trkpt lat="47.291" lon="-1.36916">
        <ele>57</ele>
        <time>2021-07-19T16:01:38.000Z</time>
      </trkpt>
      <trkpt lat="47.29107" lon="-1.36902">
        <ele>57</ele>
        <time>2021-07-19T16:01:40.000Z</time>
      </trkpt>
      <trkpt lat="47.29114" lon="-1.36887">
        <ele>57</ele>
        <time>2021-07-19T16:01:42.000Z</time>
      </trkpt>
      <trkpt lat="47.29121" lon="-1.36874">
        <ele>57</ele>
        <time>2021-07-19T16:01:44.000Z</time>
      </trkpt>
      <trkpt lat="47.29128" lon="-1.3686">
        <ele>56</ele>
        <time>2021-07-19T16:01:46.000Z</time>
      </trkpt>
      <trkpt lat="47.29135" lon="-1.36847">
        <ele>56</ele>
        <time>2021-07-19T16:01:48.000Z</time>
      </trkpt>
      <trkpt lat="47.29141" lon="-1.36833">
        <ele>56</ele>
        <time>2021-07-19T16:01:50.000Z</time>
      </trkpt>
      <trkpt lat="47.29148" lon="-1.36821">
        <ele>56</ele>
        <time>2021-07-19T16:01:52.000Z</time>
      </trkpt>
      <trkpt lat="47.29154" lon="-1.36808">
        <ele>56</ele>
        <time>2021-07-19T16:01:54.000Z</time>
      </trkpt>
      <trkpt lat="47.29161" lon="-1.36795">
        <ele>56</ele>
        <time>2021-07-19T16:01:56.000Z</time>
      </trkpt>
      <trkpt lat="47.29168" lon="-1.36782">
        <ele>56</ele>
        <time>2021-07-19T16:01:58.000Z</time>
      </trkpt>
      <trkpt lat="47.29175" lon="-1.36768">
        <ele>56</ele>
        <time>2021-07-19T16:02:00.000Z</time>
      </trkpt>
      <trkpt lat="47.29181" lon="-1.36755">
        <ele>56</ele>
        <time>2021-07-19T16:02:02.000Z</time>
      </trkpt>
      <trkpt lat="47.29188" lon="-1.36743">
        <ele>56</ele>
        <time>2021-07-19T16:02:04.000Z</time>
      </trkpt>
      <trkpt lat="47.29194" lon="-1.3673">
        <ele>56</ele>
        <time>2021-07-19T16:02:06.000Z</time>
      </trkpt>
      <trkpt lat="47.29201" lon="-1.36717">
        <ele>56</ele>
        <time>2021-07-19T16:02:08.000Z</time>
      </trkpt>
      <trkpt lat="47.29208" lon="-1.36704">
        <ele>56</ele>
        <time>2021-07-19T16:02:10.000Z</time>
      </trkpt>
      <trkpt lat="47.29215" lon="-1.3669">
        <ele>56</ele>
        <time>2021-07-19T16:02:12.000Z</time>
      </trkpt>
      <trkpt lat="47.29222" lon="-1.36676">
        <ele>56</ele>
        <time>2021-07-19T16:02:14.000Z</time>
      </trkpt>
      <trkpt lat="47.29229" lon="-1.36663">
        <ele>56</ele>
        <time>2021-07-19T16:02:16.000Z</time>
      </trkpt>
      <trkpt lat="47.29236" lon="-1.3665">
        <ele>56</ele>
        <time>2021-07-19T16:02:18.000Z</time>
      </trkpt>
      <trkpt lat="47.29242" lon="-1.36638">
        <ele>56</ele>
        <time>2021-07-19T16:02:20.000Z</time>
      </trkpt>
      <trkpt lat="47.2925" lon="-1.36626">
        <ele>56</ele>
        <time>2021-07-19T16:02:22.000Z</time>
      </trkpt>
      <trkpt lat="47.29257" lon="-1.36613">
        <ele>56</ele>
        <time>2021-07-19T16:02:24.000Z</time>
      </trkpt>
      <trkpt lat="47.29264" lon="-1.366">
        <ele>56</ele>
        <time>2021-07-19T16:02:26.000Z</time>
      </trkpt>
      <trkpt lat="47.2927" lon="-1.36586">
        <ele>56</ele>
        <time>2021-07-19T16:02:28.000Z</time>
      </trkpt>
      <trkpt lat="47.29277" lon="-1.36573">
        <ele>56</ele>
        <time>2021-07-19T16:02:30.000Z</time>
      </trkpt>
      <trkpt lat="47.29284" lon="-1.3656">
        <ele>56</ele>
        <time>2021-07-19T16:02:32.000Z</time>
      </trkpt>
      <trkpt lat="47.29291" lon="-1.36547">
        <ele>56</ele>
        <time>2021-07-19T16:02:34.000Z</time>
      </trkpt>
      <trkpt lat="47.29298" lon="-1.36533">
        <ele>56</ele>
        <time>2021-07-19T16:02:36.000Z</time>
      </trkpt>
      <trkpt lat="47.29305" lon="-1.3652">
        <ele>56</ele>
        <time>2021-07-19T16:02:38.000Z</time>
      </trkpt>
      <trkpt lat="47.29313" lon="-1.36506">
        <ele>56</ele>
        <time>2021-07-19T16:02:40.000Z</time>
      </trkpt>
      <trkpt lat="47.29319" lon="-1.36492">
        <ele>55</ele>
        <time>2021-07-19T16:02:42.000Z</time>
      </trkpt>
      <trkpt lat="47.29326" lon="-1.36478">
        <ele>55</ele>
        <time>2021-07-19T16:02:44.000Z</time>
      </trkpt>
      <trkpt lat="47.29333" lon="-1.36466">
        <ele>55</ele>
        <time>2021-07-19T16:02:46.000Z</time>
      </trkpt>
      <trkpt lat="47.29341" lon="-1.36455">
        <ele>55</ele>
        <time>2021-07-19T16:02:48.000Z</time>
      </trkpt>
      <trkpt lat="47.29348" lon="-1.36441">
        <ele>55</ele>
        <time>2021-07-19T16:02:50.000Z</time>
      </trkpt>
      <trkpt lat="47.29354" lon="-1.36427">
        <ele>56</ele>
        <time>2021-07-19T16:02:52.000Z</time>
      </trkpt>
      <trkpt lat="47.2936" lon="-1.36413">
        <ele>56</ele>
        <time>2021-07-19T16:02:54.000Z</time>
      </trkpt>
      <trkpt lat="47.29366" lon="-1.36399">
        <ele>56</ele>
        <time>2021-07-19T16:02:56.000Z</time>
      </trkpt>
      <trkpt lat="47.29373" lon="-1.36386">
        <ele>56</ele>
        <time>2021-07-19T16:02:58.000Z</time>
      </trkpt>
      <trkpt lat="47.2938" lon="-1.36373">
        <ele>56</ele>
        <time>2021-07-19T16:03:00.000Z</time>
      </trkpt>
      <trkpt lat="47.29386" lon="-1.3636">
        <ele>56</ele>
        <time>2021-07-19T16:03:02.000Z</time>
      </trkpt>
      <trkpt lat="47.29392" lon="-1.36348">
        <ele>57</ele>
        <time>2021-07-19T16:03:04.000Z</time>
      </trkpt>
      <trkpt lat="47.29399" lon="-1.36336">
        <ele>57</ele>
        <time>2021-07-19T16:03:06.000Z</time>
      </trkpt>
      <trkpt lat="47.29405" lon="-1.36323">
        <ele>56</ele>
        <time>2021-07-19T16:03:08.000Z</time>
      </trkpt>
      <trkpt lat="47.29412" lon="-1.3631">
        <ele>56</ele>
        <time>2021-07-19T16:03:10.000Z</time>
      </trkpt>
      <trkpt lat="47.29419" lon="-1.36297">
        <ele>56</ele>
        <time>2021-07-19T16:03:12.000Z</time>
      </trkpt>
      <trkpt lat="47.29426" lon="-1.36283">
        <ele>56</ele>
        <time>2021-07-19T16:03:14.000Z</time>
      </trkpt>
      <trkpt lat="47.29433" lon="-1.3627">
        <ele>56</ele>
        <time>2021-07-19T16:03:16.000Z</time>
      </trkpt>
      <trkpt lat="47.2944" lon="-1.36257">
        <ele>56</ele>
        <time>2021-07-19T16:03:18.000Z</time>
      </trkpt>
      <trkpt lat="47.29447" lon="-1.36244">
        <ele>56</ele>
        <time>2021-07-19T16:03:20.000Z</time>
      </trkpt>
      <trkpt lat="47.29454" lon="-1.3623">
        <ele>56</ele>
        <time>2021-07-19T16:03:22.000Z</time>
      </trkpt>
      <trkpt lat="47.29461" lon="-1.36217">
        <ele>56</ele>
        <time>2021-07-19T16:03:24.000Z</time>
      </trkpt>
      <trkpt lat="47.29467" lon="-1.36204">
        <ele>55</ele>
        <time>2021-07-19T16:03:26.000Z</time>
      </trkpt>
      <trkpt lat="47.29474" lon="-1.3619">
        <ele>55</ele>
        <time>2021-07-19T16:03:28.000Z</time>
      </trkpt>
      <trkpt lat="47.29481" lon="-1.36177">
        <ele>55</ele>
        <time>2021-07-19T16:03:30.000Z</time>
      </trkpt>
      <trkpt lat="47.29488" lon="-1.36163">
        <ele>55</ele>
        <time>2021-07-19T16:03:32.000Z</time>
      </trkpt>
      <trkpt lat="47.29494" lon="-1.36151">
        <ele>56</ele>
        <time>2021-07-19T16:03:34.000Z</time>
      </trkpt>
      <trkpt lat="47.29501" lon="-1.36138">
        <ele>56</ele>
        <time>2021-07-19T16:03:36.000Z</time>
      </trkpt>
      <trkpt lat="47.29508" lon="-1.36124">
        <ele>56</ele>
        <time>2021-07-19T16:03:38.000Z</time>
      </trkpt>
      <trkpt lat="47.29515" lon="-1.3611">
        <ele>56</ele>
        <time>2021-07-19T16:03:40.000Z</time>
      </trkpt>
      <trkpt lat="47.29521" lon="-1.36097">
        <ele>56</ele>
        <time>2021-07-19T16:03:42.000Z</time>
      </trkpt>
      <trkpt lat="47.29528" lon="-1.36084">
        <ele>56</ele>
        <time>2021-07-19T16:03:44.000Z</time>
      </trkpt>
      <trkpt lat="47.29536" lon="-1.3607">
        <ele>56</ele>
        <time>2021-07-19T16:03:46.000Z</time>
      </trkpt>
      <trkpt lat="47.29543" lon="-1.36056">
        <ele>56</ele>
        <time>2021-07-19T16:03:48.000Z</time>
      </trkpt>
      <trkpt lat="47.2955" lon="-1.36042">
        <ele>56</ele>
        <time>2021-07-19T16:03:50.000Z</time>
      </trkpt>
      <trkpt lat="47.29557" lon="-1.36028">
        <ele>56</ele>
        <time>2021-07-19T16:03:52.000Z</time>
      </trkpt>
      <trkpt lat="47.29564" lon="-1.36014">
        <ele>56</ele>
        <time>2021-07-19T16:03:54.000Z</time>
      </trkpt>
      <trkpt lat="47.29571" lon="-1.36001">
        <ele>56</ele>
        <time>2021-07-19T16:03:56.000Z</time>
      </trkpt>
      <trkpt lat="47.29578" lon="-1.35986">
        <ele>56</ele>
        <time>2021-07-19T16:03:58.000Z</time>
      </trkpt>
      <trkpt lat="47.29586" lon="-1.35973">
        <ele>56</ele>
        <time>2021-07-19T16:04:00.000Z</time>
      </trkpt>
      <trkpt lat="47.29593" lon="-1.3596">
        <ele>56</ele>
        <time>2021-07-19T16:04:02.000Z</time>
      </trkpt>
      <trkpt lat="47.29601" lon="-1.35946">
        <ele>56</ele>
        <time>2021-07-19T16:04:04.000Z</time>
      </trkpt>
      <trkpt lat="47.29607" lon="-1.35932">
        <ele>56</ele>
        <time>2021-07-19T16:04:06.000Z</time>
      </trkpt>
      <trkpt lat="47.29614" lon="-1.3592">
        <ele>56</ele>
        <time>2021-07-19T16:04:08.000Z</time>
      </trkpt>
      <trkpt lat="47.29621" lon="-1.35906">
        <ele>56</ele>
        <time>2021-07-19T16:04:10.000Z</time>
      </trkpt>
      <trkpt lat="47.29628" lon="-1.35893">
        <ele>56</ele>
        <time>2021-07-19T16:04:12.000Z</time>
      </trkpt>
      <trkpt lat="47.29635" lon="-1.35878">
        <ele>56</ele>
        <time>2021-07-19T16:04:14.000Z</time>
      </trkpt>
      <trkpt lat="47.29642" lon="-1.35864">
        <ele>56</ele>
        <time>2021-07-19T16:04:16.000Z</time>
      </trkpt>
      <trkpt lat="47.29649" lon="-1.35851">
        <ele>56</ele>
        <time>2021-07-19T16:04:18.000Z</time>
      </trkpt>
      <trkpt lat="47.29656" lon="-1.35838">
        <ele>56</ele>
        <time>2021-07-19T16:04:20.000Z</time>
      </trkpt>
      <trkpt lat="47.29663" lon="-1.35825">
        <ele>56</ele>
        <time>2021-07-19T16:04:22.000Z</time>
      </trkpt>
      <trkpt lat="47.29672" lon="-1.35815">
        <ele>56</ele>
        <time>2021-07-19T16:04:24.000Z</time>
      </trkpt>
      <trkpt lat="47.29681" lon="-1.35807">
        <ele>57</ele>
        <time>2021-07-19T16:04:26.000Z</time>
      </trkpt>
      <trkpt lat="47.29691" lon="-1.35798">
        <ele>57</ele>
        <time>2021-07-19T16:04:28.000Z</time>
      </trkpt>
      <trkpt lat="47.29695" lon="-1.35784">
        <ele>57</ele>
        <time>2021-07-19T16:04:30.000Z</time>
      </trkpt>
      <trkpt lat="47.29698" lon="-1.35768">
        <ele>58</ele>
        <time>2021-07-19T16:04:32.000Z</time>
      </trkpt>
      <trkpt lat="47.29702" lon="-1.35751">
        <ele>57</ele>
        <time>2021-07-19T16:04:34.000Z</time>
      </trkpt>
      <trkpt lat="47.29709" lon="-1.35737">
        <ele>58</ele>
        <time>2021-07-19T16:04:36.000Z</time>
      </trkpt>
      <trkpt lat="47.29716" lon="-1.35723">
        <ele>58</ele>
        <time>2021-07-19T16:04:38.000Z</time>
      </trkpt>
      <trkpt lat="47.29723" lon="-1.3571">
        <ele>57</ele>
        <time>2021-07-19T16:04:40.000Z</time>
      </trkpt>
      <trkpt lat="47.2973" lon="-1.35697">
        <ele>57</ele>
        <time>2021-07-19T16:04:42.000Z</time>
      </trkpt>
      <trkpt lat="47.29738" lon="-1.35685">
        <ele>57</ele>
        <time>2021-07-19T16:04:44.000Z</time>
      </trkpt>
      <trkpt lat="47.29747" lon="-1.35677">
        <ele>57</ele>
        <time>2021-07-19T16:04:46.000Z</time>
      </trkpt>
      <trkpt lat="47.29754" lon="-1.35664">
        <ele>57</ele>
        <time>2021-07-19T16:04:48.000Z</time>
      </trkpt>
      <trkpt lat="47.29761" lon="-1.3565">
        <ele>57</ele>
        <time>2021-07-19T16:04:50.000Z</time>
      </trkpt>
      <trkpt lat="47.29767" lon="-1.35635">
        <ele>57</ele>
        <time>2021-07-19T16:04:52.000Z</time>
      </trkpt>
      <trkpt lat="47.29773" lon="-1.3562">
        <ele>57</ele>
        <time>2021-07-19T16:04:54.000Z</time>
      </trkpt>
      <trkpt lat="47.29778" lon="-1.35605">
        <ele>57</ele>
        <time>2021-07-19T16:04:56.000Z</time>
      </trkpt>
      <trkpt lat="47.29784" lon="-1.35591">
        <ele>56</ele>
        <time>2021-07-19T16:04:58.000Z</time>
      </trkpt>
      <trkpt lat="47.29791" lon="-1.35577">
        <ele>57</ele>
        <time>2021-07-19T16:05:00.000Z</time>
      </trkpt>
      <trkpt lat="47.29798" lon="-1.35563">
        <ele>57</ele>
        <time>2021-07-19T16:05:02.000Z</time>
      </trkpt>
      <trkpt lat="47.29804" lon="-1.3555">
        <ele>57</ele>
        <time>2021-07-19T16:05:04.000Z</time>
      </trkpt>
      <trkpt lat="47.29811" lon="-1.35537">
        <ele>57</ele>
        <time>2021-07-19T16:05:06.000Z</time>
      </trkpt>
      <trkpt lat="47.29818" lon="-1.35524">
        <ele>57</ele>
        <time>2021-07-19T16:05:08.000Z</time>
      </trkpt>
      <trkpt lat="47.29825" lon="-1.3551">
        <ele>57</ele>
        <time>2021-07-19T16:05:10.000Z</time>
      </trkpt>
      <trkpt lat="47.29832" lon="-1.35497">
        <ele>57</ele>
        <time>2021-07-19T16:05:12.000Z</time>
      </trkpt>
      <trkpt lat="47.29839" lon="-1.35484">
        <ele>57</ele>
        <time>2021-07-19T16:05:14.000Z</time>
      </trkpt>
      <trkpt lat="47.29845" lon="-1.35471">
        <ele>57</ele>
        <time>2021-07-19T16:05:16.000Z</time>
      </trkpt>
      <trkpt lat="47.29852" lon="-1.35458">
        <ele>57</ele>
        <time>2021-07-19T16:05:18.000Z</time>
      </trkpt>
      <trkpt lat="47.29858" lon="-1.35446">
        <ele>56</ele>
        <time>2021-07-19T16:05:20.000Z</time>
      </trkpt>
      <trkpt lat="47.29865" lon="-1.35434">
        <ele>56</ele>
        <time>2021-07-19T16:05:22.000Z</time>
      </trkpt>
      <trkpt lat="47.29872" lon="-1.35421">
        <ele>56</ele>
        <time>2021-07-19T16:05:24.000Z</time>
      </trkpt>
      <trkpt lat="47.29879" lon="-1.35408">
        <ele>56</ele>
        <time>2021-07-19T16:05:26.000Z</time>
      </trkpt>
      <trkpt lat="47.29886" lon="-1.35394">
        <ele>56</ele>
        <time>2021-07-19T16:05:28.000Z</time>
      </trkpt>
      <trkpt lat="47.29892" lon="-1.35381">
        <ele>55</ele>
        <time>2021-07-19T16:05:30.000Z</time>
      </trkpt>
      <trkpt lat="47.29898" lon="-1.35368">
        <ele>55</ele>
        <time>2021-07-19T16:05:32.000Z</time>
      </trkpt>
      <trkpt lat="47.29905" lon="-1.35356">
        <ele>56</ele>
        <time>2021-07-19T16:05:34.000Z</time>
      </trkpt>
      <trkpt lat="47.29912" lon="-1.35342">
        <ele>56</ele>
        <time>2021-07-19T16:05:36.000Z</time>
      </trkpt>
      <trkpt lat="47.29919" lon="-1.35328">
        <ele>55</ele>
        <time>2021-07-19T16:05:38.000Z</time>
      </trkpt>
      <trkpt lat="47.29926" lon="-1.35315">
        <ele>55</ele>
        <time>2021-07-19T16:05:40.000Z</time>
      </trkpt>
      <trkpt lat="47.29933" lon="-1.35301">
        <ele>56</ele>
        <time>2021-07-19T16:05:42.000Z</time>
      </trkpt>
      <trkpt lat="47.2994" lon="-1.35289">
        <ele>55</ele>
        <time>2021-07-19T16:05:44.000Z</time>
      </trkpt>
      <trkpt lat="47.29947" lon="-1.35275">
        <ele>56</ele>
        <time>2021-07-19T16:05:46.000Z</time>
      </trkpt>
      <trkpt lat="47.29954" lon="-1.35262">
        <ele>56</ele>
        <time>2021-07-19T16:05:48.000Z</time>
      </trkpt>
      <trkpt lat="47.29961" lon="-1.35248">
        <ele>56</ele>
        <time>2021-07-19T16:05:50.000Z</time>
      </trkpt>
      <trkpt lat="47.29968" lon="-1.35235">
        <ele>55</ele>
        <time>2021-07-19T16:05:52.000Z</time>
      </trkpt>
      <trkpt lat="47.29975" lon="-1.35221">
        <ele>55</ele>
        <time>2021-07-19T16:05:54.000Z</time>
      </trkpt>
      <trkpt lat="47.29982" lon="-1.35207">
        <ele>55</ele>
        <time>2021-07-19T16:05:56.000Z</time>
      </trkpt>
      <trkpt lat="47.29988" lon="-1.35194">
        <ele>55</ele>
        <time>2021-07-19T16:05:58.000Z</time>
      </trkpt>
      <trkpt lat="47.29995" lon="-1.35181">
        <ele>55</ele>
        <time>2021-07-19T16:06:00.000Z</time>
      </trkpt>
      <trkpt lat="47.30002" lon="-1.35168">
        <ele>55</ele>
        <time>2021-07-19T16:06:02.000Z</time>
      </trkpt>
      <trkpt lat="47.30009" lon="-1.35154">
        <ele>55</ele>
        <time>2021-07-19T16:06:04.000Z</time>
      </trkpt>
      <trkpt lat="47.30016" lon="-1.35141">
        <ele>55</ele>
        <time>2021-07-19T16:06:06.000Z</time>
      </trkpt>
      <trkpt lat="47.30023" lon="-1.35127">
        <ele>55</ele>
        <time>2021-07-19T16:06:08.000Z</time>
      </trkpt>
      <trkpt lat="47.30029" lon="-1.35113">
        <ele>55</ele>
        <time>2021-07-19T16:06:10.000Z</time>
      </trkpt>
      <trkpt lat="47.30036" lon="-1.351">
        <ele>55</ele>
        <time>2021-07-19T16:06:12.000Z</time>
      </trkpt>
      <trkpt lat="47.30042" lon="-1.35086">
        <ele>55</ele>
        <time>2021-07-19T16:06:14.000Z</time>
      </trkpt>
      <trkpt lat="47.30048" lon="-1.35072">
        <ele>56</ele>
        <time>2021-07-19T16:06:16.000Z</time>
      </trkpt>
      <trkpt lat="47.30054" lon="-1.35058">
        <ele>56</ele>
        <time>2021-07-19T16:06:18.000Z</time>
      </trkpt>
      <trkpt lat="47.30059" lon="-1.35043">
        <ele>56</ele>
        <time>2021-07-19T16:06:20.000Z</time>
      </trkpt>
      <trkpt lat="47.30065" lon="-1.35028">
        <ele>55</ele>
        <time>2021-07-19T16:06:22.000Z</time>
      </trkpt>
      <trkpt lat="47.3007" lon="-1.35013">
        <ele>55</ele>
        <time>2021-07-19T16:06:24.000Z</time>
      </trkpt>
      <trkpt lat="47.30074" lon="-1.34997">
        <ele>56</ele>
        <time>2021-07-19T16:06:26.000Z</time>
      </trkpt>
      <trkpt lat="47.30079" lon="-1.34982">
        <ele>56</ele>
        <time>2021-07-19T16:06:28.000Z</time>
      </trkpt>
      <trkpt lat="47.30085" lon="-1.34967">
        <ele>56</ele>
        <time>2021-07-19T16:06:30.000Z</time>
      </trkpt>
      <trkpt lat="47.30088" lon="-1.34955">
        <ele>57</ele>
        <time>2021-07-19T16:06:32.000Z</time>
      </trkpt>
      <trkpt lat="47.30092" lon="-1.34936">
        <ele>57</ele>
        <time>2021-07-19T16:06:35.000Z</time>
      </trkpt>
      <trkpt lat="47.30095" lon="-1.34921">
        <ele>57</ele>
        <time>2021-07-19T16:06:37.000Z</time>
      </trkpt>
      <trkpt lat="47.30097" lon="-1.34905">
        <ele>57</ele>
        <time>2021-07-19T16:06:39.000Z</time>
      </trkpt>
      <trkpt lat="47.30099" lon="-1.34888">
        <ele>57</ele>
        <time>2021-07-19T16:06:41.000Z</time>
      </trkpt>
      <trkpt lat="47.30102" lon="-1.34871">
        <ele>57</ele>
        <time>2021-07-19T16:06:43.000Z</time>
      </trkpt>
      <trkpt lat="47.30104" lon="-1.34854">
        <ele>57</ele>
        <time>2021-07-19T16:06:45.000Z</time>
      </trkpt>
      <trkpt lat="47.30106" lon="-1.34836">
        <ele>57</ele>
        <time>2021-07-19T16:06:47.000Z</time>
      </trkpt>
      <trkpt lat="47.30108" lon="-1.34818">
        <ele>56</ele>
        <time>2021-07-19T16:06:49.000Z</time>
      </trkpt>
      <trkpt lat="47.30109" lon="-1.34802">
        <ele>57</ele>
        <time>2021-07-19T16:06:51.000Z</time>
      </trkpt>
      <trkpt lat="47.30108" lon="-1.34787">
        <ele>58</ele>
        <time>2021-07-19T16:06:53.000Z</time>
      </trkpt>
      <trkpt lat="47.30106" lon="-1.34774">
        <ele>58</ele>
        <time>2021-07-19T16:06:55.000Z</time>
      </trkpt>
      <trkpt lat="47.30103" lon="-1.34759">
        <ele>58</ele>
        <time>2021-07-19T16:06:57.000Z</time>
      </trkpt>
      <trkpt lat="47.30102" lon="-1.34741">
        <ele>58</ele>
        <time>2021-07-19T16:06:59.000Z</time>
      </trkpt>
      <trkpt lat="47.30102" lon="-1.34723">
        <ele>58</ele>
        <time>2021-07-19T16:07:01.000Z</time>
      </trkpt>
      <trkpt lat="47.30101" lon="-1.34706">
        <ele>58</ele>
        <time>2021-07-19T16:07:03.000Z</time>
      </trkpt>
      <trkpt lat="47.30101" lon="-1.34688">
        <ele>59</ele>
        <time>2021-07-19T16:07:05.000Z</time>
      </trkpt>
      <trkpt lat="47.30099" lon="-1.3467">
        <ele>59</ele>
        <time>2021-07-19T16:07:07.000Z</time>
      </trkpt>
      <trkpt lat="47.30098" lon="-1.34652">
        <ele>59</ele>
        <time>2021-07-19T16:07:09.000Z</time>
      </trkpt>
      <trkpt lat="47.30096" lon="-1.34636">
        <ele>59</ele>
        <time>2021-07-19T16:07:11.000Z</time>
      </trkpt>
      <trkpt lat="47.30092" lon="-1.3462">
        <ele>60</ele>
        <time>2021-07-19T16:07:14.000Z</time>
      </trkpt>
      <trkpt lat="47.30095" lon="-1.34604">
        <ele>60</ele>
        <time>2021-07-19T16:07:17.000Z</time>
      </trkpt>
      <trkpt lat="47.30098" lon="-1.34591">
        <ele>60</ele>
        <time>2021-07-19T16:07:19.000Z</time>
      </trkpt>
      <trkpt lat="47.30101" lon="-1.34576">
        <ele>60</ele>
        <time>2021-07-19T16:07:21.000Z</time>
      </trkpt>
      <trkpt lat="47.30104" lon="-1.34558">
        <ele>60</ele>
        <time>2021-07-19T16:07:23.000Z</time>
      </trkpt>
      <trkpt lat="47.30103" lon="-1.34542">
        <ele>60</ele>
        <time>2021-07-19T16:07:25.000Z</time>
      </trkpt>
      <trkpt lat="47.30097" lon="-1.34529">
        <ele>59</ele>
        <time>2021-07-19T16:07:27.000Z</time>
      </trkpt>
      <trkpt lat="47.30088" lon="-1.34515">
        <ele>58</ele>
        <time>2021-07-19T16:07:29.000Z</time>
      </trkpt>
      <trkpt lat="47.30081" lon="-1.345">
        <ele>58</ele>
        <time>2021-07-19T16:07:31.000Z</time>
      </trkpt>
      <trkpt lat="47.30078" lon="-1.34482">
        <ele>58</ele>
        <time>2021-07-19T16:07:33.000Z</time>
      </trkpt>
      <trkpt lat="47.30076" lon="-1.34464">
        <ele>57</ele>
        <time>2021-07-19T16:07:35.000Z</time>
      </trkpt>
      <trkpt lat="47.30072" lon="-1.34447">
        <ele>57</ele>
        <time>2021-07-19T16:07:37.000Z</time>
      </trkpt>
      <trkpt lat="47.30069" lon="-1.34428">
        <ele>56</ele>
        <time>2021-07-19T16:07:39.000Z</time>
      </trkpt>
      <trkpt lat="47.30066" lon="-1.3441">
        <ele>56</ele>
        <time>2021-07-19T16:07:41.000Z</time>
      </trkpt>
      <trkpt lat="47.30062" lon="-1.34393">
        <ele>57</ele>
        <time>2021-07-19T16:07:43.000Z</time>
      </trkpt>
      <trkpt lat="47.30059" lon="-1.34374">
        <ele>56</ele>
        <time>2021-07-19T16:07:45.000Z</time>
      </trkpt>
      <trkpt lat="47.30056" lon="-1.34356">
        <ele>56</ele>
        <time>2021-07-19T16:07:47.000Z</time>
      </trkpt>
      <trkpt lat="47.30052" lon="-1.34338">
        <ele>56</ele>
        <time>2021-07-19T16:07:49.000Z</time>
      </trkpt>
      <trkpt lat="47.30049" lon="-1.3432">
        <ele>55</ele>
        <time>2021-07-19T16:07:51.000Z</time>
      </trkpt>
      <trkpt lat="47.30045" lon="-1.34302">
        <ele>56</ele>
        <time>2021-07-19T16:07:53.000Z</time>
      </trkpt>
      <trkpt lat="47.30041" lon="-1.34284">
        <ele>55</ele>
        <time>2021-07-19T16:07:55.000Z</time>
      </trkpt>
      <trkpt lat="47.30038" lon="-1.34267">
        <ele>55</ele>
        <time>2021-07-19T16:07:57.000Z</time>
      </trkpt>
      <trkpt lat="47.30034" lon="-1.34249">
        <ele>55</ele>
        <time>2021-07-19T16:07:59.000Z</time>
      </trkpt>
      <trkpt lat="47.30031" lon="-1.34231">
        <ele>56</ele>
        <time>2021-07-19T16:08:01.000Z</time>
      </trkpt>
      <trkpt lat="47.30027" lon="-1.34212">
        <ele>56</ele>
        <time>2021-07-19T16:08:03.000Z</time>
      </trkpt>
      <trkpt lat="47.30024" lon="-1.34194">
        <ele>55</ele>
        <time>2021-07-19T16:08:05.000Z</time>
      </trkpt>
      <trkpt lat="47.30021" lon="-1.34176">
        <ele>55</ele>
        <time>2021-07-19T16:08:07.000Z</time>
      </trkpt>
      <trkpt lat="47.30017" lon="-1.34159">
        <ele>55</ele>
        <time>2021-07-19T16:08:09.000Z</time>
      </trkpt>
      <trkpt lat="47.30014" lon="-1.34142">
        <ele>55</ele>
        <time>2021-07-19T16:08:11.000Z</time>
      </trkpt>
      <trkpt lat="47.30017" lon="-1.34125">
        <ele>56</ele>
        <time>2021-07-19T16:08:13.000Z</time>
      </trkpt>
      <trkpt lat="47.30026" lon="-1.34114">
        <ele>57</ele>
        <time>2021-07-19T16:08:15.000Z</time>
      </trkpt>
      <trkpt lat="47.30037" lon="-1.34107">
        <ele>56</ele>
        <time>2021-07-19T16:08:17.000Z</time>
      </trkpt>
      <trkpt lat="47.30048" lon="-1.34102">
        <ele>57</ele>
        <time>2021-07-19T16:08:19.000Z</time>
      </trkpt>
      <trkpt lat="47.3006" lon="-1.34102">
        <ele>57</ele>
        <time>2021-07-19T16:08:21.000Z</time>
      </trkpt>
      <trkpt lat="47.30072" lon="-1.3411">
        <ele>58</ele>
        <time>2021-07-19T16:08:23.000Z</time>
      </trkpt>
      <trkpt lat="47.30081" lon="-1.3412">
        <ele>58</ele>
        <time>2021-07-19T16:08:25.000Z</time>
      </trkpt>
      <trkpt lat="47.30088" lon="-1.34129">
        <ele>58</ele>
        <time>2021-07-19T16:08:27.000Z</time>
      </trkpt>
      <trkpt lat="47.30097" lon="-1.34143">
        <ele>58</ele>
        <time>2021-07-19T16:08:30.000Z</time>
      </trkpt>
      <trkpt lat="47.30108" lon="-1.34126">
        <ele>59</ele>
        <time>2021-07-19T16:08:34.000Z</time>
      </trkpt>
      <trkpt lat="47.30111" lon="-1.34111">
        <ele>59</ele>
        <time>2021-07-19T16:08:36.000Z</time>
      </trkpt>
      <trkpt lat="47.30119" lon="-1.34089">
        <ele>58</ele>
        <time>2021-07-19T16:08:39.000Z</time>
      </trkpt>
      <trkpt lat="47.30126" lon="-1.34074">
        <ele>57</ele>
        <time>2021-07-19T16:08:41.000Z</time>
      </trkpt>
      <trkpt lat="47.30136" lon="-1.34065">
        <ele>57</ele>
        <time>2021-07-19T16:08:43.000Z</time>
      </trkpt>
      <trkpt lat="47.30146" lon="-1.34055">
        <ele>58</ele>
        <time>2021-07-19T16:08:45.000Z</time>
      </trkpt>
      <trkpt lat="47.30157" lon="-1.34045">
        <ele>58</ele>
        <time>2021-07-19T16:08:47.000Z</time>
      </trkpt>
      <trkpt lat="47.30167" lon="-1.34033">
        <ele>58</ele>
        <time>2021-07-19T16:08:49.000Z</time>
      </trkpt>
      <trkpt lat="47.30184" lon="-1.34016">
        <ele>58</ele>
        <time>2021-07-19T16:08:52.000Z</time>
      </trkpt>
      <trkpt lat="47.30199" lon="-1.34001">
        <ele>57</ele>
        <time>2021-07-19T16:08:55.000Z</time>
      </trkpt>
      <trkpt lat="47.30208" lon="-1.33992">
        <ele>58</ele>
        <time>2021-07-19T16:08:57.000Z</time>
      </trkpt>
      <trkpt lat="47.3022" lon="-1.33994">
        <ele>59</ele>
        <time>2021-07-19T16:09:00.000Z</time>
      </trkpt>
      <trkpt lat="47.30225" lon="-1.34006">
        <ele>59</ele>
        <time>2021-07-19T16:09:02.000Z</time>
      </trkpt>
      <trkpt lat="47.30229" lon="-1.34021">
        <ele>60</ele>
        <time>2021-07-19T16:09:04.000Z</time>
      </trkpt>
      <trkpt lat="47.30233" lon="-1.34035">
        <ele>59</ele>
        <time>2021-07-19T16:09:06.000Z</time>
      </trkpt>
      <trkpt lat="47.30238" lon="-1.3405">
        <ele>59</ele>
        <time>2021-07-19T16:09:08.000Z</time>
      </trkpt>
      <trkpt lat="47.30241" lon="-1.34067">
        <ele>59</ele>
        <time>2021-07-19T16:09:10.000Z</time>
      </trkpt>
      <trkpt lat="47.30246" lon="-1.34081">
        <ele>60</ele>
        <time>2021-07-19T16:09:12.000Z</time>
      </trkpt>
      <trkpt lat="47.30251" lon="-1.34094">
        <ele>60</ele>
        <time>2021-07-19T16:09:14.000Z</time>
      </trkpt>
      <trkpt lat="47.30261" lon="-1.34104">
        <ele>61</ele>
        <time>2021-07-19T16:09:17.000Z</time>
      </trkpt>
      <trkpt lat="47.30271" lon="-1.34099">
        <ele>61</ele>
        <time>2021-07-19T16:09:19.000Z</time>
      </trkpt>
      <trkpt lat="47.3028" lon="-1.34088">
        <ele>60</ele>
        <time>2021-07-19T16:09:21.000Z</time>
      </trkpt>
      <trkpt lat="47.3029" lon="-1.34076">
        <ele>60</ele>
        <time>2021-07-19T16:09:23.000Z</time>
      </trkpt>
      <trkpt lat="47.30301" lon="-1.34065">
        <ele>59</ele>
        <time>2021-07-19T16:09:25.000Z</time>
      </trkpt>
      <trkpt lat="47.3031" lon="-1.34054">
        <ele>59</ele>
        <time>2021-07-19T16:09:27.000Z</time>
      </trkpt>
      <trkpt lat="47.3032" lon="-1.34042">
        <ele>59</ele>
        <time>2021-07-19T16:09:29.000Z</time>
      </trkpt>
      <trkpt lat="47.30328" lon="-1.34031">
        <ele>59</ele>
        <time>2021-07-19T16:09:31.000Z</time>
      </trkpt>
      <trkpt lat="47.30335" lon="-1.34017">
        <ele>59</ele>
        <time>2021-07-19T16:09:33.000Z</time>
      </trkpt>
      <trkpt lat="47.30342" lon="-1.34005">
        <ele>59</ele>
        <time>2021-07-19T16:09:35.000Z</time>
      </trkpt>
      <trkpt lat="47.30349" lon="-1.33994">
        <ele>60</ele>
        <time>2021-07-19T16:09:37.000Z</time>
      </trkpt>
      <trkpt lat="47.30355" lon="-1.3398">
        <ele>59</ele>
        <time>2021-07-19T16:09:39.000Z</time>
      </trkpt>
      <trkpt lat="47.30361" lon="-1.33966">
        <ele>59</ele>
        <time>2021-07-19T16:09:41.000Z</time>
      </trkpt>
      <trkpt lat="47.30368" lon="-1.33957">
        <ele>59</ele>
        <time>2021-07-19T16:09:43.000Z</time>
      </trkpt>
      <trkpt lat="47.30379" lon="-1.33957">
        <ele>59</ele>
        <time>2021-07-19T16:09:45.000Z</time>
      </trkpt>
      <trkpt lat="47.30389" lon="-1.33948">
        <ele>60</ele>
        <time>2021-07-19T16:09:47.000Z</time>
      </trkpt>
      <trkpt lat="47.30396" lon="-1.33935">
        <ele>59</ele>
        <time>2021-07-19T16:09:49.000Z</time>
      </trkpt>
      <trkpt lat="47.30404" lon="-1.33924">
        <ele>58</ele>
        <time>2021-07-19T16:09:51.000Z</time>
      </trkpt>
      <trkpt lat="47.30412" lon="-1.33911">
        <ele>58</ele>
        <time>2021-07-19T16:09:53.000Z</time>
      </trkpt>
      <trkpt lat="47.30421" lon="-1.33899">
        <ele>58</ele>
        <time>2021-07-19T16:09:55.000Z</time>
      </trkpt>
      <trkpt lat="47.3043" lon="-1.33889">
        <ele>58</ele>
        <time>2021-07-19T16:09:57.000Z</time>
      </trkpt>
      <trkpt lat="47.3044" lon="-1.33878">
        <ele>58</ele>
        <time>2021-07-19T16:09:59.000Z</time>
      </trkpt>
      <trkpt lat="47.3045" lon="-1.33869">
        <ele>58</ele>
        <time>2021-07-19T16:10:01.000Z</time>
      </trkpt>
      <trkpt lat="47.3046" lon="-1.33859">
        <ele>58</ele>
        <time>2021-07-19T16:10:03.000Z</time>
      </trkpt>
      <trkpt lat="47.30469" lon="-1.33848">
        <ele>58</ele>
        <time>2021-07-19T16:10:05.000Z</time>
      </trkpt>
      <trkpt lat="47.3048" lon="-1.3384">
        <ele>58</ele>
        <time>2021-07-19T16:10:07.000Z</time>
      </trkpt>
      <trkpt lat="47.30491" lon="-1.33832">
        <ele>58</ele>
        <time>2021-07-19T16:10:09.000Z</time>
      </trkpt>
      <trkpt lat="47.30501" lon="-1.33825">
        <ele>59</ele>
        <time>2021-07-19T16:10:11.000Z</time>
      </trkpt>
      <trkpt lat="47.30512" lon="-1.33817">
        <ele>58</ele>
        <time>2021-07-19T16:10:13.000Z</time>
      </trkpt>
      <trkpt lat="47.30524" lon="-1.3381">
        <ele>58</ele>
        <time>2021-07-19T16:10:15.000Z</time>
      </trkpt>
      <trkpt lat="47.30534" lon="-1.33803">
        <ele>58</ele>
        <time>2021-07-19T16:10:17.000Z</time>
      </trkpt>
      <trkpt lat="47.30545" lon="-1.33796">
        <ele>58</ele>
        <time>2021-07-19T16:10:19.000Z</time>
      </trkpt>
      <trkpt lat="47.30556" lon="-1.33788">
        <ele>58</ele>
        <time>2021-07-19T16:10:21.000Z</time>
      </trkpt>
      <trkpt lat="47.30568" lon="-1.33782">
        <ele>58</ele>
        <time>2021-07-19T16:10:23.000Z</time>
      </trkpt>
      <trkpt lat="47.3058" lon="-1.33777">
        <ele>58</ele>
        <time>2021-07-19T16:10:25.000Z</time>
      </trkpt>
      <trkpt lat="47.30591" lon="-1.33773">
        <ele>58</ele>
        <time>2021-07-19T16:10:27.000Z</time>
      </trkpt>
      <trkpt lat="47.30603" lon="-1.33769">
        <ele>58</ele>
        <time>2021-07-19T16:10:29.000Z</time>
      </trkpt>
      <trkpt lat="47.30615" lon="-1.33766">
        <ele>58</ele>
        <time>2021-07-19T16:10:31.000Z</time>
      </trkpt>
      <trkpt lat="47.30626" lon="-1.33763">
        <ele>58</ele>
        <time>2021-07-19T16:10:33.000Z</time>
      </trkpt>
      <trkpt lat="47.30637" lon="-1.33759">
        <ele>59</ele>
        <time>2021-07-19T16:10:35.000Z</time>
      </trkpt>
      <trkpt lat="47.30648" lon="-1.33755">
        <ele>58</ele>
        <time>2021-07-19T16:10:37.000Z</time>
      </trkpt>
      <trkpt lat="47.30659" lon="-1.33749">
        <ele>58</ele>
        <time>2021-07-19T16:10:39.000Z</time>
      </trkpt>
      <trkpt lat="47.3067" lon="-1.33742">
        <ele>59</ele>
        <time>2021-07-19T16:10:41.000Z</time>
      </trkpt>
      <trkpt lat="47.30681" lon="-1.33734">
        <ele>58</ele>
        <time>2021-07-19T16:10:43.000Z</time>
      </trkpt>
      <trkpt lat="47.3069" lon="-1.33723">
        <ele>58</ele>
        <time>2021-07-19T16:10:45.000Z</time>
      </trkpt>
      <trkpt lat="47.30699" lon="-1.3371">
        <ele>58</ele>
        <time>2021-07-19T16:10:47.000Z</time>
      </trkpt>
      <trkpt lat="47.30706" lon="-1.33696">
        <ele>58</ele>
        <time>2021-07-19T16:10:49.000Z</time>
      </trkpt>
      <trkpt lat="47.30713" lon="-1.33681">
        <ele>58</ele>
        <time>2021-07-19T16:10:51.000Z</time>
      </trkpt>
      <trkpt lat="47.30719" lon="-1.33666">
        <ele>59</ele>
        <time>2021-07-19T16:10:53.000Z</time>
      </trkpt>
      <trkpt lat="47.30724" lon="-1.3365">
        <ele>58</ele>
        <time>2021-07-19T16:10:55.000Z</time>
      </trkpt>
      <trkpt lat="47.30727" lon="-1.33634">
        <ele>58</ele>
        <time>2021-07-19T16:10:57.000Z</time>
      </trkpt>
      <trkpt lat="47.30723" lon="-1.33617">
        <ele>58</ele>
        <time>2021-07-19T16:10:59.000Z</time>
      </trkpt>
      <trkpt lat="47.30717" lon="-1.33599">
        <ele>58</ele>
        <time>2021-07-19T16:11:01.000Z</time>
      </trkpt>
      <trkpt lat="47.30711" lon="-1.33583">
        <ele>58</ele>
        <time>2021-07-19T16:11:03.000Z</time>
      </trkpt>
      <trkpt lat="47.30705" lon="-1.33566">
        <ele>58</ele>
        <time>2021-07-19T16:11:05.000Z</time>
      </trkpt>
      <trkpt lat="47.30699" lon="-1.3355">
        <ele>59</ele>
        <time>2021-07-19T16:11:07.000Z</time>
      </trkpt>
      <trkpt lat="47.30693" lon="-1.33534">
        <ele>59</ele>
        <time>2021-07-19T16:11:09.000Z</time>
      </trkpt>
      <trkpt lat="47.30687" lon="-1.33518">
        <ele>59</ele>
        <time>2021-07-19T16:11:11.000Z</time>
      </trkpt>
      <trkpt lat="47.30681" lon="-1.33501">
        <ele>59</ele>
        <time>2021-07-19T16:11:13.000Z</time>
      </trkpt>
      <trkpt lat="47.30675" lon="-1.33485">
        <ele>59</ele>
        <time>2021-07-19T16:11:15.000Z</time>
      </trkpt>
      <trkpt lat="47.3067" lon="-1.33468">
        <ele>59</ele>
        <time>2021-07-19T16:11:17.000Z</time>
      </trkpt>
      <trkpt lat="47.30664" lon="-1.33451">
        <ele>59</ele>
        <time>2021-07-19T16:11:19.000Z</time>
      </trkpt>
      <trkpt lat="47.30659" lon="-1.33434">
        <ele>59</ele>
        <time>2021-07-19T16:11:21.000Z</time>
      </trkpt>
      <trkpt lat="47.30654" lon="-1.33418">
        <ele>59</ele>
        <time>2021-07-19T16:11:23.000Z</time>
      </trkpt>
      <trkpt lat="47.30648" lon="-1.33401">
        <ele>58</ele>
        <time>2021-07-19T16:11:25.000Z</time>
      </trkpt>
      <trkpt lat="47.30642" lon="-1.33386">
        <ele>57</ele>
        <time>2021-07-19T16:11:27.000Z</time>
      </trkpt>
      <trkpt lat="47.30636" lon="-1.33369">
        <ele>57</ele>
        <time>2021-07-19T16:11:29.000Z</time>
      </trkpt>
      <trkpt lat="47.30629" lon="-1.33354">
        <ele>57</ele>
        <time>2021-07-19T16:11:31.000Z</time>
      </trkpt>
      <trkpt lat="47.30623" lon="-1.33339">
        <ele>57</ele>
        <time>2021-07-19T16:11:33.000Z</time>
      </trkpt>
      <trkpt lat="47.30617" lon="-1.33322">
        <ele>57</ele>
        <time>2021-07-19T16:11:35.000Z</time>
      </trkpt>
      <trkpt lat="47.30612" lon="-1.33305">
        <ele>57</ele>
        <time>2021-07-19T16:11:37.000Z</time>
      </trkpt>
      <trkpt lat="47.3061" lon="-1.33287">
        <ele>57</ele>
        <time>2021-07-19T16:11:39.000Z</time>
      </trkpt>
      <trkpt lat="47.30613" lon="-1.3327">
        <ele>58</ele>
        <time>2021-07-19T16:11:41.000Z</time>
      </trkpt>
      <trkpt lat="47.30619" lon="-1.33254">
        <ele>58</ele>
        <time>2021-07-19T16:11:43.000Z</time>
      </trkpt>
      <trkpt lat="47.30626" lon="-1.3324">
        <ele>57</ele>
        <time>2021-07-19T16:11:45.000Z</time>
      </trkpt>
      <trkpt lat="47.30635" lon="-1.3323">
        <ele>57</ele>
        <time>2021-07-19T16:11:47.000Z</time>
      </trkpt>
      <trkpt lat="47.30647" lon="-1.33225">
        <ele>57</ele>
        <time>2021-07-19T16:11:49.000Z</time>
      </trkpt>
      <trkpt lat="47.30658" lon="-1.33221">
        <ele>58</ele>
        <time>2021-07-19T16:11:51.000Z</time>
      </trkpt>
      <trkpt lat="47.3067" lon="-1.33217">
        <ele>58</ele>
        <time>2021-07-19T16:11:53.000Z</time>
      </trkpt>
      <trkpt lat="47.30681" lon="-1.33213">
        <ele>58</ele>
        <time>2021-07-19T16:11:55.000Z</time>
      </trkpt>
      <trkpt lat="47.30693" lon="-1.3321">
        <ele>58</ele>
        <time>2021-07-19T16:11:57.000Z</time>
      </trkpt>
      <trkpt lat="47.30705" lon="-1.33205">
        <ele>58</ele>
        <time>2021-07-19T16:11:59.000Z</time>
      </trkpt>
      <trkpt lat="47.30717" lon="-1.33201">
        <ele>58</ele>
        <time>2021-07-19T16:12:01.000Z</time>
      </trkpt>
      <trkpt lat="47.30729" lon="-1.33197">
        <ele>58</ele>
        <time>2021-07-19T16:12:03.000Z</time>
      </trkpt>
      <trkpt lat="47.30741" lon="-1.33192">
        <ele>58</ele>
        <time>2021-07-19T16:12:05.000Z</time>
      </trkpt>
      <trkpt lat="47.30753" lon="-1.33187">
        <ele>58</ele>
        <time>2021-07-19T16:12:07.000Z</time>
      </trkpt>
      <trkpt lat="47.30765" lon="-1.33182">
        <ele>58</ele>
        <time>2021-07-19T16:12:09.000Z</time>
      </trkpt>
      <trkpt lat="47.30777" lon="-1.33177">
        <ele>58</ele>
        <time>2021-07-19T16:12:11.000Z</time>
      </trkpt>
      <trkpt lat="47.30789" lon="-1.33171">
        <ele>58</ele>
        <time>2021-07-19T16:12:13.000Z</time>
      </trkpt>
      <trkpt lat="47.30801" lon="-1.33166">
        <ele>58</ele>
        <time>2021-07-19T16:12:15.000Z</time>
      </trkpt>
      <trkpt lat="47.30813" lon="-1.33161">
        <ele>59</ele>
        <time>2021-07-19T16:12:17.000Z</time>
      </trkpt>
      <trkpt lat="47.30826" lon="-1.33156">
        <ele>59</ele>
        <time>2021-07-19T16:12:19.000Z</time>
      </trkpt>
      <trkpt lat="47.30837" lon="-1.33151">
        <ele>59</ele>
        <time>2021-07-19T16:12:21.000Z</time>
      </trkpt>
      <trkpt lat="47.30849" lon="-1.33145">
        <ele>59</ele>
        <time>2021-07-19T16:12:23.000Z</time>
      </trkpt>
      <trkpt lat="47.30861" lon="-1.3314">
        <ele>59</ele>
        <time>2021-07-19T16:12:25.000Z</time>
      </trkpt>
      <trkpt lat="47.30873" lon="-1.33135">
        <ele>59</ele>
        <time>2021-07-19T16:12:27.000Z</time>
      </trkpt>
      <trkpt lat="47.30885" lon="-1.33129">
        <ele>59</ele>
        <time>2021-07-19T16:12:29.000Z</time>
      </trkpt>
      <trkpt lat="47.30897" lon="-1.33123">
        <ele>58</ele>
        <time>2021-07-19T16:12:31.000Z</time>
      </trkpt>
      <trkpt lat="47.30909" lon="-1.33118">
        <ele>58</ele>
        <time>2021-07-19T16:12:33.000Z</time>
      </trkpt>
      <trkpt lat="47.3092" lon="-1.33114">
        <ele>58</ele>
        <time>2021-07-19T16:12:35.000Z</time>
      </trkpt>
      <trkpt lat="47.30932" lon="-1.3311">
        <ele>58</ele>
        <time>2021-07-19T16:12:37.000Z</time>
      </trkpt>
      <trkpt lat="47.30943" lon="-1.33105">
        <ele>59</ele>
        <time>2021-07-19T16:12:39.000Z</time>
      </trkpt>
      <trkpt lat="47.30955" lon="-1.33101">
        <ele>58</ele>
        <time>2021-07-19T16:12:41.000Z</time>
      </trkpt>
      <trkpt lat="47.30966" lon="-1.33096">
        <ele>58</ele>
        <time>2021-07-19T16:12:43.000Z</time>
      </trkpt>
      <trkpt lat="47.30977" lon="-1.3309">
        <ele>58</ele>
        <time>2021-07-19T16:12:45.000Z</time>
      </trkpt>
      <trkpt lat="47.30989" lon="-1.33085">
        <ele>59</ele>
        <time>2021-07-19T16:12:47.000Z</time>
      </trkpt>
      <trkpt lat="47.31001" lon="-1.3308">
        <ele>59</ele>
        <time>2021-07-19T16:12:49.000Z</time>
      </trkpt>
      <trkpt lat="47.31012" lon="-1.33075">
        <ele>59</ele>
        <time>2021-07-19T16:12:51.000Z</time>
      </trkpt>
      <trkpt lat="47.31024" lon="-1.33071">
        <ele>58</ele>
        <time>2021-07-19T16:12:53.000Z</time>
      </trkpt>
      <trkpt lat="47.31035" lon="-1.33066">
        <ele>58</ele>
        <time>2021-07-19T16:12:55.000Z</time>
      </trkpt>
      <trkpt lat="47.31046" lon="-1.33062">
        <ele>58</ele>
        <time>2021-07-19T16:12:57.000Z</time>
      </trkpt>
      <trkpt lat="47.31058" lon="-1.33056">
        <ele>58</ele>
        <time>2021-07-19T16:12:59.000Z</time>
      </trkpt>
      <trkpt lat="47.31069" lon="-1.33051">
        <ele>58</ele>
        <time>2021-07-19T16:13:01.000Z</time>
      </trkpt>
      <trkpt lat="47.31081" lon="-1.33046">
        <ele>59</ele>
        <time>2021-07-19T16:13:03.000Z</time>
      </trkpt>
      <trkpt lat="47.31092" lon="-1.33041">
        <ele>59</ele>
        <time>2021-07-19T16:13:05.000Z</time>
      </trkpt>
      <trkpt lat="47.31103" lon="-1.33037">
        <ele>59</ele>
        <time>2021-07-19T16:13:07.000Z</time>
      </trkpt>
      <trkpt lat="47.31114" lon="-1.33032">
        <ele>59</ele>
        <time>2021-07-19T16:13:09.000Z</time>
      </trkpt>
      <trkpt lat="47.31126" lon="-1.33027">
        <ele>59</ele>
        <time>2021-07-19T16:13:11.000Z</time>
      </trkpt>
      <trkpt lat="47.31137" lon="-1.33024">
        <ele>59</ele>
        <time>2021-07-19T16:13:13.000Z</time>
      </trkpt>
      <trkpt lat="47.31148" lon="-1.33019">
        <ele>59</ele>
        <time>2021-07-19T16:13:15.000Z</time>
      </trkpt>
      <trkpt lat="47.3116" lon="-1.33014">
        <ele>59</ele>
        <time>2021-07-19T16:13:17.000Z</time>
      </trkpt>
      <trkpt lat="47.31171" lon="-1.3301">
        <ele>59</ele>
        <time>2021-07-19T16:13:19.000Z</time>
      </trkpt>
      <trkpt lat="47.31183" lon="-1.33007">
        <ele>59</ele>
        <time>2021-07-19T16:13:21.000Z</time>
      </trkpt>
      <trkpt lat="47.31194" lon="-1.33002">
        <ele>59</ele>
        <time>2021-07-19T16:13:23.000Z</time>
      </trkpt>
      <trkpt lat="47.31205" lon="-1.32997">
        <ele>59</ele>
        <time>2021-07-19T16:13:25.000Z</time>
      </trkpt>
      <trkpt lat="47.31216" lon="-1.32993">
        <ele>60</ele>
        <time>2021-07-19T16:13:27.000Z</time>
      </trkpt>
      <trkpt lat="47.31228" lon="-1.32988">
        <ele>59</ele>
        <time>2021-07-19T16:13:29.000Z</time>
      </trkpt>
      <trkpt lat="47.31239" lon="-1.32981">
        <ele>59</ele>
        <time>2021-07-19T16:13:31.000Z</time>
      </trkpt>
      <trkpt lat="47.31249" lon="-1.32974">
        <ele>59</ele>
        <time>2021-07-19T16:13:33.000Z</time>
      </trkpt>
      <trkpt lat="47.31259" lon="-1.32966">
        <ele>59</ele>
        <time>2021-07-19T16:13:35.000Z</time>
      </trkpt>
      <trkpt lat="47.3127" lon="-1.32958">
        <ele>59</ele>
        <time>2021-07-19T16:13:37.000Z</time>
      </trkpt>
      <trkpt lat="47.31281" lon="-1.3295">
        <ele>59</ele>
        <time>2021-07-19T16:13:39.000Z</time>
      </trkpt>
      <trkpt lat="47.31291" lon="-1.32941">
        <ele>60</ele>
        <time>2021-07-19T16:13:41.000Z</time>
      </trkpt>
      <trkpt lat="47.31301" lon="-1.32932">
        <ele>60</ele>
        <time>2021-07-19T16:13:43.000Z</time>
      </trkpt>
      <trkpt lat="47.31311" lon="-1.32922">
        <ele>60</ele>
        <time>2021-07-19T16:13:45.000Z</time>
      </trkpt>
      <trkpt lat="47.31322" lon="-1.32912">
        <ele>59</ele>
        <time>2021-07-19T16:13:47.000Z</time>
      </trkpt>
      <trkpt lat="47.31333" lon="-1.32904">
        <ele>60</ele>
        <time>2021-07-19T16:13:49.000Z</time>
      </trkpt>
      <trkpt lat="47.31343" lon="-1.32895">
        <ele>60</ele>
        <time>2021-07-19T16:13:51.000Z</time>
      </trkpt>
      <trkpt lat="47.31353" lon="-1.32886">
        <ele>59</ele>
        <time>2021-07-19T16:13:53.000Z</time>
      </trkpt>
      <trkpt lat="47.31364" lon="-1.32877">
        <ele>60</ele>
        <time>2021-07-19T16:13:55.000Z</time>
      </trkpt>
      <trkpt lat="47.31375" lon="-1.32869">
        <ele>59</ele>
        <time>2021-07-19T16:13:57.000Z</time>
      </trkpt>
      <trkpt lat="47.31386" lon="-1.3286">
        <ele>59</ele>
        <time>2021-07-19T16:13:59.000Z</time>
      </trkpt>
      <trkpt lat="47.31396" lon="-1.32851">
        <ele>59</ele>
        <time>2021-07-19T16:14:01.000Z</time>
      </trkpt>
      <trkpt lat="47.31407" lon="-1.32843">
        <ele>59</ele>
        <time>2021-07-19T16:14:03.000Z</time>
      </trkpt>
      <trkpt lat="47.31417" lon="-1.32833">
        <ele>59</ele>
        <time>2021-07-19T16:14:05.000Z</time>
      </trkpt>
      <trkpt lat="47.31428" lon="-1.32824">
        <ele>60</ele>
        <time>2021-07-19T16:14:07.000Z</time>
      </trkpt>
      <trkpt lat="47.31438" lon="-1.32815">
        <ele>59</ele>
        <time>2021-07-19T16:14:09.000Z</time>
      </trkpt>
      <trkpt lat="47.3145" lon="-1.32805">
        <ele>59</ele>
        <time>2021-07-19T16:14:11.000Z</time>
      </trkpt>
      <trkpt lat="47.31461" lon="-1.32798">
        <ele>59</ele>
        <time>2021-07-19T16:14:13.000Z</time>
      </trkpt>
      <trkpt lat="47.31472" lon="-1.3279">
        <ele>59</ele>
        <time>2021-07-19T16:14:15.000Z</time>
      </trkpt>
      <trkpt lat="47.31483" lon="-1.3278">
        <ele>59</ele>
        <time>2021-07-19T16:14:17.000Z</time>
      </trkpt>
      <trkpt lat="47.31493" lon="-1.32769">
        <ele>58</ele>
        <time>2021-07-19T16:14:19.000Z</time>
      </trkpt>
      <trkpt lat="47.31502" lon="-1.32758">
        <ele>59</ele>
        <time>2021-07-19T16:14:21.000Z</time>
      </trkpt>
      <trkpt lat="47.31511" lon="-1.32747">
        <ele>59</ele>
        <time>2021-07-19T16:14:23.000Z</time>
      </trkpt>
      <trkpt lat="47.3152" lon="-1.32737">
        <ele>59</ele>
        <time>2021-07-19T16:14:25.000Z</time>
      </trkpt>
      <trkpt lat="47.31529" lon="-1.32727">
        <ele>59</ele>
        <time>2021-07-19T16:14:27.000Z</time>
      </trkpt>
      <trkpt lat="47.31538" lon="-1.32716">
        <ele>59</ele>
        <time>2021-07-19T16:14:29.000Z</time>
      </trkpt>
      <trkpt lat="47.31547" lon="-1.32704">
        <ele>59</ele>
        <time>2021-07-19T16:14:31.000Z</time>
      </trkpt>
      <trkpt lat="47.31556" lon="-1.32693">
        <ele>59</ele>
        <time>2021-07-19T16:14:33.000Z</time>
      </trkpt>
      <trkpt lat="47.31565" lon="-1.32681">
        <ele>58</ele>
        <time>2021-07-19T16:14:35.000Z</time>
      </trkpt>
      <trkpt lat="47.31573" lon="-1.32671">
        <ele>58</ele>
        <time>2021-07-19T16:14:37.000Z</time>
      </trkpt>
      <trkpt lat="47.31583" lon="-1.3266">
        <ele>58</ele>
        <time>2021-07-19T16:14:39.000Z</time>
      </trkpt>
      <trkpt lat="47.31592" lon="-1.32647">
        <ele>58</ele>
        <time>2021-07-19T16:14:41.000Z</time>
      </trkpt>
      <trkpt lat="47.31601" lon="-1.32634">
        <ele>58</ele>
        <time>2021-07-19T16:14:43.000Z</time>
      </trkpt>
      <trkpt lat="47.3161" lon="-1.3262">
        <ele>58</ele>
        <time>2021-07-19T16:14:45.000Z</time>
      </trkpt>
      <trkpt lat="47.31619" lon="-1.32606">
        <ele>59</ele>
        <time>2021-07-19T16:14:47.000Z</time>
      </trkpt>
      <trkpt lat="47.31626" lon="-1.32592">
        <ele>58</ele>
        <time>2021-07-19T16:14:49.000Z</time>
      </trkpt>
      <trkpt lat="47.31634" lon="-1.32577">
        <ele>58</ele>
        <time>2021-07-19T16:14:51.000Z</time>
      </trkpt>
      <trkpt lat="47.31642" lon="-1.32563">
        <ele>58</ele>
        <time>2021-07-19T16:14:53.000Z</time>
      </trkpt>
      <trkpt lat="47.31649" lon="-1.32549">
        <ele>58</ele>
        <time>2021-07-19T16:14:55.000Z</time>
      </trkpt>
      <trkpt lat="47.31656" lon="-1.32535">
        <ele>58</ele>
        <time>2021-07-19T16:14:57.000Z</time>
      </trkpt>
      <trkpt lat="47.31663" lon="-1.32521">
        <ele>58</ele>
        <time>2021-07-19T16:14:59.000Z</time>
      </trkpt>
      <trkpt lat="47.3167" lon="-1.32508">
        <ele>57</ele>
        <time>2021-07-19T16:15:01.000Z</time>
      </trkpt>
      <trkpt lat="47.31676" lon="-1.32493">
        <ele>57</ele>
        <time>2021-07-19T16:15:03.000Z</time>
      </trkpt>
      <trkpt lat="47.31681" lon="-1.32477">
        <ele>57</ele>
        <time>2021-07-19T16:15:05.000Z</time>
      </trkpt>
      <trkpt lat="47.31684" lon="-1.3246">
        <ele>58</ele>
        <time>2021-07-19T16:15:07.000Z</time>
      </trkpt>
      <trkpt lat="47.31685" lon="-1.32443">
        <ele>57</ele>
        <time>2021-07-19T16:15:09.000Z</time>
      </trkpt>
      <trkpt lat="47.31685" lon="-1.32425">
        <ele>57</ele>
        <time>2021-07-19T16:15:11.000Z</time>
      </trkpt>
      <trkpt lat="47.31686" lon="-1.32408">
        <ele>58</ele>
        <time>2021-07-19T16:15:13.000Z</time>
      </trkpt>
      <trkpt lat="47.31688" lon="-1.32391">
        <ele>58</ele>
        <time>2021-07-19T16:15:15.000Z</time>
      </trkpt>
      <trkpt lat="47.3169" lon="-1.32373">
        <ele>58</ele>
        <time>2021-07-19T16:15:17.000Z</time>
      </trkpt>
      <trkpt lat="47.31691" lon="-1.32356">
        <ele>58</ele>
        <time>2021-07-19T16:15:19.000Z</time>
      </trkpt>
      <trkpt lat="47.31695" lon="-1.32339">
        <ele>58</ele>
        <time>2021-07-19T16:15:21.000Z</time>
      </trkpt>
      <trkpt lat="47.31699" lon="-1.32322">
        <ele>57</ele>
        <time>2021-07-19T16:15:23.000Z</time>
      </trkpt>
      <trkpt lat="47.31703" lon="-1.32305">
        <ele>57</ele>
        <time>2021-07-19T16:15:25.000Z</time>
      </trkpt>
      <trkpt lat="47.31706" lon="-1.32288">
        <ele>58</ele>
        <time>2021-07-19T16:15:27.000Z</time>
      </trkpt>
      <trkpt lat="47.3171" lon="-1.32271">
        <ele>58</ele>
        <time>2021-07-19T16:15:29.000Z</time>
      </trkpt>
      <trkpt lat="47.31714" lon="-1.32255">
        <ele>57</ele>
        <time>2021-07-19T16:15:31.000Z</time>
      </trkpt>
      <trkpt lat="47.31718" lon="-1.32238">
        <ele>57</ele>
        <time>2021-07-19T16:15:33.000Z</time>
      </trkpt>
      <trkpt lat="47.3172" lon="-1.32222">
        <ele>57</ele>
        <time>2021-07-19T16:15:35.000Z</time>
      </trkpt>
      <trkpt lat="47.31721" lon="-1.32204">
        <ele>57</ele>
        <time>2021-07-19T16:15:37.000Z</time>
      </trkpt>
      <trkpt lat="47.31723" lon="-1.32186">
        <ele>57</ele>
        <time>2021-07-19T16:15:39.000Z</time>
      </trkpt>
      <trkpt lat="47.31726" lon="-1.32169">
        <ele>57</ele>
        <time>2021-07-19T16:15:41.000Z</time>
      </trkpt>
      <trkpt lat="47.31729" lon="-1.32151">
        <ele>58</ele>
        <time>2021-07-19T16:15:43.000Z</time>
      </trkpt>
      <trkpt lat="47.31734" lon="-1.32136">
        <ele>58</ele>
        <time>2021-07-19T16:15:45.000Z</time>
      </trkpt>
      <trkpt lat="47.31738" lon="-1.32121">
        <ele>58</ele>
        <time>2021-07-19T16:15:47.000Z</time>
      </trkpt>
      <trkpt lat="47.31743" lon="-1.32106">
        <ele>59</ele>
        <time>2021-07-19T16:15:49.000Z</time>
      </trkpt>
      <trkpt lat="47.31748" lon="-1.32092">
        <ele>59</ele>
        <time>2021-07-19T16:15:51.000Z</time>
      </trkpt>
      <trkpt lat="47.31753" lon="-1.32077">
        <ele>59</ele>
        <time>2021-07-19T16:15:53.000Z</time>
      </trkpt>
      <trkpt lat="47.31758" lon="-1.32063">
        <ele>59</ele>
        <time>2021-07-19T16:15:55.000Z</time>
      </trkpt>
      <trkpt lat="47.31764" lon="-1.32049">
        <ele>58</ele>
        <time>2021-07-19T16:15:57.000Z</time>
      </trkpt>
      <trkpt lat="47.3177" lon="-1.32035">
        <ele>58</ele>
        <time>2021-07-19T16:15:59.000Z</time>
      </trkpt>
      <trkpt lat="47.31776" lon="-1.3202">
        <ele>59</ele>
        <time>2021-07-19T16:16:01.000Z</time>
      </trkpt>
      <trkpt lat="47.31781" lon="-1.32006">
        <ele>58</ele>
        <time>2021-07-19T16:16:03.000Z</time>
      </trkpt>
      <trkpt lat="47.31785" lon="-1.31991">
        <ele>58</ele>
        <time>2021-07-19T16:16:05.000Z</time>
      </trkpt>
      <trkpt lat="47.31789" lon="-1.31978">
        <ele>59</ele>
        <time>2021-07-19T16:16:07.000Z</time>
      </trkpt>
      <trkpt lat="47.31793" lon="-1.31966">
        <ele>59</ele>
        <time>2021-07-19T16:16:09.000Z</time>
      </trkpt>
      <trkpt lat="47.31799" lon="-1.31951">
        <ele>59</ele>
        <time>2021-07-19T16:16:12.000Z</time>
      </trkpt>
      <trkpt lat="47.31812" lon="-1.31951">
        <ele>60</ele>
        <time>2021-07-19T16:16:15.000Z</time>
      </trkpt>
      <trkpt lat="47.31824" lon="-1.31956">
        <ele>59</ele>
        <time>2021-07-19T16:16:17.000Z</time>
      </trkpt>
      <trkpt lat="47.31836" lon="-1.31966">
        <ele>59</ele>
        <time>2021-07-19T16:16:19.000Z</time>
      </trkpt>
      <trkpt lat="47.3185" lon="-1.31974">
        <ele>58</ele>
        <time>2021-07-19T16:16:21.000Z</time>
      </trkpt>
      <trkpt lat="47.31862" lon="-1.31982">
        <ele>58</ele>
        <time>2021-07-19T16:16:23.000Z</time>
      </trkpt>
      <trkpt lat="47.31875" lon="-1.3199">
        <ele>58</ele>
        <time>2021-07-19T16:16:25.000Z</time>
      </trkpt>
      <trkpt lat="47.31887" lon="-1.31998">
        <ele>58</ele>
        <time>2021-07-19T16:16:27.000Z</time>
      </trkpt>
      <trkpt lat="47.319" lon="-1.32004">
        <ele>58</ele>
        <time>2021-07-19T16:16:29.000Z</time>
      </trkpt>
      <trkpt lat="47.31913" lon="-1.32008">
        <ele>58</ele>
        <time>2021-07-19T16:16:31.000Z</time>
      </trkpt>
      <trkpt lat="47.31925" lon="-1.32011">
        <ele>58</ele>
        <time>2021-07-19T16:16:33.000Z</time>
      </trkpt>
      <trkpt lat="47.31937" lon="-1.32012">
        <ele>58</ele>
        <time>2021-07-19T16:16:35.000Z</time>
      </trkpt>
      <trkpt lat="47.31948" lon="-1.32008">
        <ele>58</ele>
        <time>2021-07-19T16:16:37.000Z</time>
      </trkpt>
      <trkpt lat="47.31958" lon="-1.32001">
        <ele>59</ele>
        <time>2021-07-19T16:16:39.000Z</time>
      </trkpt>
      <trkpt lat="47.31967" lon="-1.31986">
        <ele>59</ele>
        <time>2021-07-19T16:16:41.000Z</time>
      </trkpt>
      <trkpt lat="47.31977" lon="-1.31969">
        <ele>59</ele>
        <time>2021-07-19T16:16:43.000Z</time>
      </trkpt>
      <trkpt lat="47.31986" lon="-1.31952">
        <ele>59</ele>
        <time>2021-07-19T16:16:45.000Z</time>
      </trkpt>
      <trkpt lat="47.31994" lon="-1.31934">
        <ele>58</ele>
        <time>2021-07-19T16:16:47.000Z</time>
      </trkpt>
      <trkpt lat="47.32" lon="-1.31916">
        <ele>59</ele>
        <time>2021-07-19T16:16:49.000Z</time>
      </trkpt>
      <trkpt lat="47.32006" lon="-1.31898">
        <ele>58</ele>
        <time>2021-07-19T16:16:51.000Z</time>
      </trkpt>
      <trkpt lat="47.32013" lon="-1.31882">
        <ele>58</ele>
        <time>2021-07-19T16:16:53.000Z</time>
      </trkpt>
      <trkpt lat="47.32019" lon="-1.31864">
        <ele>58</ele>
        <time>2021-07-19T16:16:55.000Z</time>
      </trkpt>
      <trkpt lat="47.32025" lon="-1.31846">
        <ele>58</ele>
        <time>2021-07-19T16:16:57.000Z</time>
      </trkpt>
      <trkpt lat="47.3203" lon="-1.31829">
        <ele>58</ele>
        <time>2021-07-19T16:16:59.000Z</time>
      </trkpt>
      <trkpt lat="47.32036" lon="-1.31812">
        <ele>58</ele>
        <time>2021-07-19T16:17:01.000Z</time>
      </trkpt>
      <trkpt lat="47.32041" lon="-1.31795">
        <ele>59</ele>
        <time>2021-07-19T16:17:03.000Z</time>
      </trkpt>
      <trkpt lat="47.32047" lon="-1.31778">
        <ele>59</ele>
        <time>2021-07-19T16:17:05.000Z</time>
      </trkpt>
      <trkpt lat="47.32054" lon="-1.31762">
        <ele>59</ele>
        <time>2021-07-19T16:17:07.000Z</time>
      </trkpt>
      <trkpt lat="47.32061" lon="-1.31746">
        <ele>59</ele>
        <time>2021-07-19T16:17:09.000Z</time>
      </trkpt>
      <trkpt lat="47.32068" lon="-1.3173">
        <ele>59</ele>
        <time>2021-07-19T16:17:11.000Z</time>
      </trkpt>
      <trkpt lat="47.32075" lon="-1.31714">
        <ele>58</ele>
        <time>2021-07-19T16:17:13.000Z</time>
      </trkpt>
      <trkpt lat="47.32083" lon="-1.317">
        <ele>58</ele>
        <time>2021-07-19T16:17:15.000Z</time>
      </trkpt>
      <trkpt lat="47.32091" lon="-1.31687">
        <ele>58</ele>
        <time>2021-07-19T16:17:17.000Z</time>
      </trkpt>
      <trkpt lat="47.32099" lon="-1.31674">
        <ele>58</ele>
        <time>2021-07-19T16:17:19.000Z</time>
      </trkpt>
      <trkpt lat="47.32108" lon="-1.31661">
        <ele>58</ele>
        <time>2021-07-19T16:17:21.000Z</time>
      </trkpt>
      <trkpt lat="47.32115" lon="-1.31648">
        <ele>58</ele>
        <time>2021-07-19T16:17:23.000Z</time>
      </trkpt>
      <trkpt lat="47.32124" lon="-1.31634">
        <ele>57</ele>
        <time>2021-07-19T16:17:25.000Z</time>
      </trkpt>
      <trkpt lat="47.32133" lon="-1.31621">
        <ele>57</ele>
        <time>2021-07-19T16:17:27.000Z</time>
      </trkpt>
      <trkpt lat="47.32142" lon="-1.31607">
        <ele>57</ele>
        <time>2021-07-19T16:17:29.000Z</time>
      </trkpt>
      <trkpt lat="47.32151" lon="-1.31593">
        <ele>57</ele>
        <time>2021-07-19T16:17:31.000Z</time>
      </trkpt>
      <trkpt lat="47.32159" lon="-1.31579">
        <ele>57</ele>
        <time>2021-07-19T16:17:33.000Z</time>
      </trkpt>
      <trkpt lat="47.32168" lon="-1.31566">
        <ele>57</ele>
        <time>2021-07-19T16:17:35.000Z</time>
      </trkpt>
      <trkpt lat="47.32176" lon="-1.31551">
        <ele>57</ele>
        <time>2021-07-19T16:17:37.000Z</time>
      </trkpt>
      <trkpt lat="47.32185" lon="-1.31536">
        <ele>57</ele>
        <time>2021-07-19T16:17:39.000Z</time>
      </trkpt>
      <trkpt lat="47.32193" lon="-1.31522">
        <ele>57</ele>
        <time>2021-07-19T16:17:41.000Z</time>
      </trkpt>
      <trkpt lat="47.32201" lon="-1.31509">
        <ele>57</ele>
        <time>2021-07-19T16:17:43.000Z</time>
      </trkpt>
      <trkpt lat="47.3221" lon="-1.31496">
        <ele>56</ele>
        <time>2021-07-19T16:17:45.000Z</time>
      </trkpt>
      <trkpt lat="47.32218" lon="-1.31482">
        <ele>56</ele>
        <time>2021-07-19T16:17:47.000Z</time>
      </trkpt>
      <trkpt lat="47.32227" lon="-1.31467">
        <ele>56</ele>
        <time>2021-07-19T16:17:49.000Z</time>
      </trkpt>
      <trkpt lat="47.32235" lon="-1.31453">
        <ele>56</ele>
        <time>2021-07-19T16:17:51.000Z</time>
      </trkpt>
      <trkpt lat="47.32244" lon="-1.31439">
        <ele>57</ele>
        <time>2021-07-19T16:17:53.000Z</time>
      </trkpt>
      <trkpt lat="47.32252" lon="-1.31427">
        <ele>57</ele>
        <time>2021-07-19T16:17:55.000Z</time>
      </trkpt>
      <trkpt lat="47.32261" lon="-1.31414">
        <ele>57</ele>
        <time>2021-07-19T16:17:57.000Z</time>
      </trkpt>
      <trkpt lat="47.3227" lon="-1.31401">
        <ele>57</ele>
        <time>2021-07-19T16:17:59.000Z</time>
      </trkpt>
      <trkpt lat="47.32279" lon="-1.31388">
        <ele>56</ele>
        <time>2021-07-19T16:18:01.000Z</time>
      </trkpt>
      <trkpt lat="47.32287" lon="-1.31376">
        <ele>57</ele>
        <time>2021-07-19T16:18:03.000Z</time>
      </trkpt>
      <trkpt lat="47.32295" lon="-1.31363">
        <ele>56</ele>
        <time>2021-07-19T16:18:05.000Z</time>
      </trkpt>
      <trkpt lat="47.32304" lon="-1.3135">
        <ele>57</ele>
        <time>2021-07-19T16:18:07.000Z</time>
      </trkpt>
      <trkpt lat="47.32313" lon="-1.31337">
        <ele>57</ele>
        <time>2021-07-19T16:18:09.000Z</time>
      </trkpt>
      <trkpt lat="47.32322" lon="-1.31324">
        <ele>57</ele>
        <time>2021-07-19T16:18:11.000Z</time>
      </trkpt>
      <trkpt lat="47.32331" lon="-1.31311">
        <ele>56</ele>
        <time>2021-07-19T16:18:13.000Z</time>
      </trkpt>
      <trkpt lat="47.3234" lon="-1.31297">
        <ele>56</ele>
        <time>2021-07-19T16:18:15.000Z</time>
      </trkpt>
      <trkpt lat="47.32349" lon="-1.31283">
        <ele>56</ele>
        <time>2021-07-19T16:18:17.000Z</time>
      </trkpt>
      <trkpt lat="47.32358" lon="-1.31268">
        <ele>57</ele>
        <time>2021-07-19T16:18:19.000Z</time>
      </trkpt>
      <trkpt lat="47.32366" lon="-1.31253">
        <ele>57</ele>
        <time>2021-07-19T16:18:21.000Z</time>
      </trkpt>
      <trkpt lat="47.32373" lon="-1.31238">
        <ele>56</ele>
        <time>2021-07-19T16:18:23.000Z</time>
      </trkpt>
      <trkpt lat="47.32379" lon="-1.31221">
        <ele>57</ele>
        <time>2021-07-19T16:18:25.000Z</time>
      </trkpt>
      <trkpt lat="47.32385" lon="-1.31204">
        <ele>56</ele>
        <time>2021-07-19T16:18:27.000Z</time>
      </trkpt>
      <trkpt lat="47.32391" lon="-1.31188">
        <ele>56</ele>
        <time>2021-07-19T16:18:29.000Z</time>
      </trkpt>
      <trkpt lat="47.32396" lon="-1.31171">
        <ele>56</ele>
        <time>2021-07-19T16:18:31.000Z</time>
      </trkpt>
      <trkpt lat="47.32402" lon="-1.31155">
        <ele>56</ele>
        <time>2021-07-19T16:18:33.000Z</time>
      </trkpt>
      <trkpt lat="47.32407" lon="-1.31137">
        <ele>56</ele>
        <time>2021-07-19T16:18:35.000Z</time>
      </trkpt>
      <trkpt lat="47.32412" lon="-1.31121">
        <ele>57</ele>
        <time>2021-07-19T16:18:37.000Z</time>
      </trkpt>
      <trkpt lat="47.32418" lon="-1.31103">
        <ele>57</ele>
        <time>2021-07-19T16:18:39.000Z</time>
      </trkpt>
      <trkpt lat="47.32423" lon="-1.31086">
        <ele>56</ele>
        <time>2021-07-19T16:18:41.000Z</time>
      </trkpt>
      <trkpt lat="47.32429" lon="-1.31069">
        <ele>56</ele>
        <time>2021-07-19T16:18:43.000Z</time>
      </trkpt>
      <trkpt lat="47.32434" lon="-1.31051">
        <ele>57</ele>
        <time>2021-07-19T16:18:45.000Z</time>
      </trkpt>
      <trkpt lat="47.32438" lon="-1.31034">
        <ele>56</ele>
        <time>2021-07-19T16:18:47.000Z</time>
      </trkpt>
      <trkpt lat="47.32444" lon="-1.31016">
        <ele>57</ele>
        <time>2021-07-19T16:18:49.000Z</time>
      </trkpt>
      <trkpt lat="47.32448" lon="-1.30999">
        <ele>57</ele>
        <time>2021-07-19T16:18:51.000Z</time>
      </trkpt>
      <trkpt lat="47.32452" lon="-1.30982">
        <ele>57</ele>
        <time>2021-07-19T16:18:53.000Z</time>
      </trkpt>
      <trkpt lat="47.32456" lon="-1.30965">
        <ele>56</ele>
        <time>2021-07-19T16:18:55.000Z</time>
      </trkpt>
      <trkpt lat="47.32461" lon="-1.30948">
        <ele>56</ele>
        <time>2021-07-19T16:18:57.000Z</time>
      </trkpt>
      <trkpt lat="47.32467" lon="-1.30932">
        <ele>56</ele>
        <time>2021-07-19T16:18:59.000Z</time>
      </trkpt>
      <trkpt lat="47.32474" lon="-1.30915">
        <ele>56</ele>
        <time>2021-07-19T16:19:01.000Z</time>
      </trkpt>
      <trkpt lat="47.32479" lon="-1.30899">
        <ele>57</ele>
        <time>2021-07-19T16:19:03.000Z</time>
      </trkpt>
      <trkpt lat="47.32485" lon="-1.30883">
        <ele>57</ele>
        <time>2021-07-19T16:19:05.000Z</time>
      </trkpt>
      <trkpt lat="47.32491" lon="-1.30865">
        <ele>57</ele>
        <time>2021-07-19T16:19:07.000Z</time>
      </trkpt>
      <trkpt lat="47.32497" lon="-1.30848">
        <ele>57</ele>
        <time>2021-07-19T16:19:09.000Z</time>
      </trkpt>
      <trkpt lat="47.32504" lon="-1.30831">
        <ele>57</ele>
        <time>2021-07-19T16:19:11.000Z</time>
      </trkpt>
      <trkpt lat="47.32509" lon="-1.30815">
        <ele>57</ele>
        <time>2021-07-19T16:19:13.000Z</time>
      </trkpt>
      <trkpt lat="47.32516" lon="-1.30799">
        <ele>57</ele>
        <time>2021-07-19T16:19:15.000Z</time>
      </trkpt>
      <trkpt lat="47.32522" lon="-1.30783">
        <ele>57</ele>
        <time>2021-07-19T16:19:17.000Z</time>
      </trkpt>
      <trkpt lat="47.32527" lon="-1.30767">
        <ele>58</ele>
        <time>2021-07-19T16:19:19.000Z</time>
      </trkpt>
      <trkpt lat="47.32533" lon="-1.30753">
        <ele>58</ele>
        <time>2021-07-19T16:19:21.000Z</time>
      </trkpt>
      <trkpt lat="47.32538" lon="-1.30739">
        <ele>58</ele>
        <time>2021-07-19T16:19:23.000Z</time>
      </trkpt>
      <trkpt lat="47.32543" lon="-1.30725">
        <ele>58</ele>
        <time>2021-07-19T16:19:25.000Z</time>
      </trkpt>
      <trkpt lat="47.3255" lon="-1.30709">
        <ele>58</ele>
        <time>2021-07-19T16:19:27.000Z</time>
      </trkpt>
      <trkpt lat="47.32558" lon="-1.30694">
        <ele>58</ele>
        <time>2021-07-19T16:19:29.000Z</time>
      </trkpt>
      <trkpt lat="47.32565" lon="-1.30677">
        <ele>59</ele>
        <time>2021-07-19T16:19:31.000Z</time>
      </trkpt>
      <trkpt lat="47.32573" lon="-1.30661">
        <ele>59</ele>
        <time>2021-07-19T16:19:33.000Z</time>
      </trkpt>
      <trkpt lat="47.32579" lon="-1.30646">
        <ele>58</ele>
        <time>2021-07-19T16:19:35.000Z</time>
      </trkpt>
      <trkpt lat="47.32587" lon="-1.3063">
        <ele>58</ele>
        <time>2021-07-19T16:19:37.000Z</time>
      </trkpt>
      <trkpt lat="47.32594" lon="-1.30615">
        <ele>59</ele>
        <time>2021-07-19T16:19:39.000Z</time>
      </trkpt>
      <trkpt lat="47.32601" lon="-1.30599">
        <ele>58</ele>
        <time>2021-07-19T16:19:41.000Z</time>
      </trkpt>
      <trkpt lat="47.32608" lon="-1.30583">
        <ele>58</ele>
        <time>2021-07-19T16:19:43.000Z</time>
      </trkpt>
      <trkpt lat="47.32615" lon="-1.30567">
        <ele>58</ele>
        <time>2021-07-19T16:19:45.000Z</time>
      </trkpt>
      <trkpt lat="47.32622" lon="-1.30552">
        <ele>58</ele>
        <time>2021-07-19T16:19:47.000Z</time>
      </trkpt>
      <trkpt lat="47.32629" lon="-1.30536">
        <ele>58</ele>
        <time>2021-07-19T16:19:49.000Z</time>
      </trkpt>
      <trkpt lat="47.32636" lon="-1.30521">
        <ele>57</ele>
        <time>2021-07-19T16:19:51.000Z</time>
      </trkpt>
      <trkpt lat="47.32643" lon="-1.30506">
        <ele>57</ele>
        <time>2021-07-19T16:19:53.000Z</time>
      </trkpt>
      <trkpt lat="47.3265" lon="-1.30491">
        <ele>57</ele>
        <time>2021-07-19T16:19:55.000Z</time>
      </trkpt>
      <trkpt lat="47.32657" lon="-1.30475">
        <ele>57</ele>
        <time>2021-07-19T16:19:57.000Z</time>
      </trkpt>
      <trkpt lat="47.32664" lon="-1.3046">
        <ele>57</ele>
        <time>2021-07-19T16:19:59.000Z</time>
      </trkpt>
      <trkpt lat="47.3267" lon="-1.30445">
        <ele>57</ele>
        <time>2021-07-19T16:20:01.000Z</time>
      </trkpt>
      <trkpt lat="47.32677" lon="-1.30429">
        <ele>56</ele>
        <time>2021-07-19T16:20:03.000Z</time>
      </trkpt>
      <trkpt lat="47.32682" lon="-1.30412">
        <ele>56</ele>
        <time>2021-07-19T16:20:05.000Z</time>
      </trkpt>
      <trkpt lat="47.32685" lon="-1.30394">
        <ele>56</ele>
        <time>2021-07-19T16:20:07.000Z</time>
      </trkpt>
      <trkpt lat="47.32685" lon="-1.30376">
        <ele>56</ele>
        <time>2021-07-19T16:20:09.000Z</time>
      </trkpt>
      <trkpt lat="47.3268" lon="-1.3036">
        <ele>56</ele>
        <time>2021-07-19T16:20:11.000Z</time>
      </trkpt>
      <trkpt lat="47.32674" lon="-1.30345">
        <ele>56</ele>
        <time>2021-07-19T16:20:13.000Z</time>
      </trkpt>
      <trkpt lat="47.32668" lon="-1.30329">
        <ele>57</ele>
        <time>2021-07-19T16:20:15.000Z</time>
      </trkpt>
      <trkpt lat="47.32662" lon="-1.30315">
        <ele>57</ele>
        <time>2021-07-19T16:20:17.000Z</time>
      </trkpt>
      <trkpt lat="47.32655" lon="-1.30301">
        <ele>57</ele>
        <time>2021-07-19T16:20:19.000Z</time>
      </trkpt>
      <trkpt lat="47.32649" lon="-1.30286">
        <ele>57</ele>
        <time>2021-07-19T16:20:21.000Z</time>
      </trkpt>
      <trkpt lat="47.32643" lon="-1.3027">
        <ele>58</ele>
        <time>2021-07-19T16:20:23.000Z</time>
      </trkpt>
      <trkpt lat="47.32638" lon="-1.30255">
        <ele>58</ele>
        <time>2021-07-19T16:20:25.000Z</time>
      </trkpt>
      <trkpt lat="47.32643" lon="-1.3024">
        <ele>58</ele>
        <time>2021-07-19T16:20:27.000Z</time>
      </trkpt>
      <trkpt lat="47.32652" lon="-1.30227">
        <ele>58</ele>
        <time>2021-07-19T16:20:29.000Z</time>
      </trkpt>
      <trkpt lat="47.3266" lon="-1.30213">
        <ele>58</ele>
        <time>2021-07-19T16:20:31.000Z</time>
      </trkpt>
      <trkpt lat="47.32669" lon="-1.302">
        <ele>58</ele>
        <time>2021-07-19T16:20:33.000Z</time>
      </trkpt>
      <trkpt lat="47.32677" lon="-1.30186">
        <ele>59</ele>
        <time>2021-07-19T16:20:35.000Z</time>
      </trkpt>
      <trkpt lat="47.32685" lon="-1.30172">
        <ele>58</ele>
        <time>2021-07-19T16:20:37.000Z</time>
      </trkpt>
      <trkpt lat="47.32693" lon="-1.30159">
        <ele>59</ele>
        <time>2021-07-19T16:20:39.000Z</time>
      </trkpt>
      <trkpt lat="47.32701" lon="-1.30145">
        <ele>59</ele>
        <time>2021-07-19T16:20:41.000Z</time>
      </trkpt>
      <trkpt lat="47.3271" lon="-1.30132">
        <ele>59</ele>
        <time>2021-07-19T16:20:43.000Z</time>
      </trkpt>
      <trkpt lat="47.32717" lon="-1.30119">
        <ele>59</ele>
        <time>2021-07-19T16:20:45.000Z</time>
      </trkpt>
      <trkpt lat="47.32726" lon="-1.30106">
        <ele>58</ele>
        <time>2021-07-19T16:20:47.000Z</time>
      </trkpt>
      <trkpt lat="47.32734" lon="-1.30092">
        <ele>59</ele>
        <time>2021-07-19T16:20:49.000Z</time>
      </trkpt>
      <trkpt lat="47.32743" lon="-1.30078">
        <ele>59</ele>
        <time>2021-07-19T16:20:51.000Z</time>
      </trkpt>
      <trkpt lat="47.3275" lon="-1.30063">
        <ele>59</ele>
        <time>2021-07-19T16:20:53.000Z</time>
      </trkpt>
      <trkpt lat="47.32757" lon="-1.30048">
        <ele>59</ele>
        <time>2021-07-19T16:20:55.000Z</time>
      </trkpt>
      <trkpt lat="47.32765" lon="-1.30033">
        <ele>59</ele>
        <time>2021-07-19T16:20:57.000Z</time>
      </trkpt>
      <trkpt lat="47.32773" lon="-1.30018">
        <ele>59</ele>
        <time>2021-07-19T16:20:59.000Z</time>
      </trkpt>
      <trkpt lat="47.3278" lon="-1.30003">
        <ele>58</ele>
        <time>2021-07-19T16:21:01.000Z</time>
      </trkpt>
      <trkpt lat="47.32787" lon="-1.29989">
        <ele>58</ele>
        <time>2021-07-19T16:21:03.000Z</time>
      </trkpt>
      <trkpt lat="47.32795" lon="-1.29975">
        <ele>58</ele>
        <time>2021-07-19T16:21:05.000Z</time>
      </trkpt>
      <trkpt lat="47.32802" lon="-1.2996">
        <ele>59</ele>
        <time>2021-07-19T16:21:07.000Z</time>
      </trkpt>
      <trkpt lat="47.32809" lon="-1.29946">
        <ele>59</ele>
        <time>2021-07-19T16:21:09.000Z</time>
      </trkpt>
      <trkpt lat="47.32816" lon="-1.29931">
        <ele>59</ele>
        <time>2021-07-19T16:21:11.000Z</time>
      </trkpt>
      <trkpt lat="47.32823" lon="-1.29917">
        <ele>59</ele>
        <time>2021-07-19T16:21:13.000Z</time>
      </trkpt>
      <trkpt lat="47.3283" lon="-1.29904">
        <ele>59</ele>
        <time>2021-07-19T16:21:15.000Z</time>
      </trkpt>
      <trkpt lat="47.32837" lon="-1.2989">
        <ele>58</ele>
        <time>2021-07-19T16:21:17.000Z</time>
      </trkpt>
      <trkpt lat="47.32844" lon="-1.29877">
        <ele>58</ele>
        <time>2021-07-19T16:21:19.000Z</time>
      </trkpt>
      <trkpt lat="47.32853" lon="-1.29862">
        <ele>58</ele>
        <time>2021-07-19T16:21:21.000Z</time>
      </trkpt>
      <trkpt lat="47.32862" lon="-1.29847">
        <ele>58</ele>
        <time>2021-07-19T16:21:23.000Z</time>
      </trkpt>
      <trkpt lat="47.3287" lon="-1.29833">
        <ele>58</ele>
        <time>2021-07-19T16:21:25.000Z</time>
      </trkpt>
      <trkpt lat="47.32879" lon="-1.29818">
        <ele>58</ele>
        <time>2021-07-19T16:21:27.000Z</time>
      </trkpt>
      <trkpt lat="47.32888" lon="-1.29803">
        <ele>58</ele>
        <time>2021-07-19T16:21:29.000Z</time>
      </trkpt>
      <trkpt lat="47.32896" lon="-1.29788">
        <ele>58</ele>
        <time>2021-07-19T16:21:31.000Z</time>
      </trkpt>
      <trkpt lat="47.32904" lon="-1.29774">
        <ele>57</ele>
        <time>2021-07-19T16:21:33.000Z</time>
      </trkpt>
      <trkpt lat="47.32913" lon="-1.29759">
        <ele>57</ele>
        <time>2021-07-19T16:21:35.000Z</time>
      </trkpt>
      <trkpt lat="47.3292" lon="-1.29744">
        <ele>57</ele>
        <time>2021-07-19T16:21:37.000Z</time>
      </trkpt>
      <trkpt lat="47.32928" lon="-1.2973">
        <ele>57</ele>
        <time>2021-07-19T16:21:39.000Z</time>
      </trkpt>
      <trkpt lat="47.32935" lon="-1.29716">
        <ele>57</ele>
        <time>2021-07-19T16:21:41.000Z</time>
      </trkpt>
      <trkpt lat="47.32943" lon="-1.29702">
        <ele>58</ele>
        <time>2021-07-19T16:21:43.000Z</time>
      </trkpt>
      <trkpt lat="47.32952" lon="-1.29688">
        <ele>58</ele>
        <time>2021-07-19T16:21:45.000Z</time>
      </trkpt>
      <trkpt lat="47.32961" lon="-1.29675">
        <ele>58</ele>
        <time>2021-07-19T16:21:47.000Z</time>
      </trkpt>
      <trkpt lat="47.3297" lon="-1.29661">
        <ele>58</ele>
        <time>2021-07-19T16:21:49.000Z</time>
      </trkpt>
      <trkpt lat="47.32978" lon="-1.29647">
        <ele>58</ele>
        <time>2021-07-19T16:21:51.000Z</time>
      </trkpt>
      <trkpt lat="47.32987" lon="-1.29633">
        <ele>58</ele>
        <time>2021-07-19T16:21:53.000Z</time>
      </trkpt>
      <trkpt lat="47.32995" lon="-1.29619">
        <ele>57</ele>
        <time>2021-07-19T16:21:55.000Z</time>
      </trkpt>
      <trkpt lat="47.33003" lon="-1.29604">
        <ele>57</ele>
        <time>2021-07-19T16:21:57.000Z</time>
      </trkpt>
      <trkpt lat="47.33011" lon="-1.2959">
        <ele>57</ele>
        <time>2021-07-19T16:21:59.000Z</time>
      </trkpt>
      <trkpt lat="47.33019" lon="-1.29575">
        <ele>57</ele>
        <time>2021-07-19T16:22:01.000Z</time>
      </trkpt>
      <trkpt lat="47.33027" lon="-1.2956">
        <ele>57</ele>
        <time>2021-07-19T16:22:03.000Z</time>
      </trkpt>
      <trkpt lat="47.33036" lon="-1.29544">
        <ele>57</ele>
        <time>2021-07-19T16:22:05.000Z</time>
      </trkpt>
      <trkpt lat="47.33045" lon="-1.29528">
        <ele>57</ele>
        <time>2021-07-19T16:22:07.000Z</time>
      </trkpt>
      <trkpt lat="47.33054" lon="-1.29514">
        <ele>57</ele>
        <time>2021-07-19T16:22:09.000Z</time>
      </trkpt>
      <trkpt lat="47.33063" lon="-1.29498">
        <ele>56</ele>
        <time>2021-07-19T16:22:11.000Z</time>
      </trkpt>
      <trkpt lat="47.33072" lon="-1.29484">
        <ele>56</ele>
        <time>2021-07-19T16:22:13.000Z</time>
      </trkpt>
      <trkpt lat="47.33081" lon="-1.29469">
        <ele>57</ele>
        <time>2021-07-19T16:22:15.000Z</time>
      </trkpt>
      <trkpt lat="47.33091" lon="-1.29455">
        <ele>57</ele>
        <time>2021-07-19T16:22:17.000Z</time>
      </trkpt>
      <trkpt lat="47.331" lon="-1.29443">
        <ele>57</ele>
        <time>2021-07-19T16:22:19.000Z</time>
      </trkpt>
      <trkpt lat="47.33109" lon="-1.2943">
        <ele>57</ele>
        <time>2021-07-19T16:22:21.000Z</time>
      </trkpt>
      <trkpt lat="47.33118" lon="-1.29417">
        <ele>57</ele>
        <time>2021-07-19T16:22:23.000Z</time>
      </trkpt>
      <trkpt lat="47.33131" lon="-1.29397">
        <ele>57</ele>
        <time>2021-07-19T16:22:26.000Z</time>
      </trkpt>
      <trkpt lat="47.33139" lon="-1.29384">
        <ele>57</ele>
        <time>2021-07-19T16:22:28.000Z</time>
      </trkpt>
      <trkpt lat="47.3315" lon="-1.29364">
        <ele>57</ele>
        <time>2021-07-19T16:22:31.000Z</time>
      </trkpt>
      <trkpt lat="47.33149" lon="-1.29349">
        <ele>57</ele>
        <time>2021-07-19T16:22:33.000Z</time>
      </trkpt>
      <trkpt lat="47.33142" lon="-1.29338">
        <ele>57</ele>
        <time>2021-07-19T16:22:35.000Z</time>
      </trkpt>
      <trkpt lat="47.33132" lon="-1.29329">
        <ele>58</ele>
        <time>2021-07-19T16:22:37.000Z</time>
      </trkpt>
      <trkpt lat="47.33125" lon="-1.2932">
        <ele>58</ele>
        <time>2021-07-19T16:22:39.000Z</time>
      </trkpt>
      <trkpt lat="47.33123" lon="-1.29302">
        <ele>58</ele>
        <time>2021-07-19T16:22:42.000Z</time>
      </trkpt>
      <trkpt lat="47.33127" lon="-1.29284">
        <ele>58</ele>
        <time>2021-07-19T16:22:45.000Z</time>
      </trkpt>
      <trkpt lat="47.33134" lon="-1.29271">
        <ele>58</ele>
        <time>2021-07-19T16:22:47.000Z</time>
      </trkpt>
      <trkpt lat="47.33141" lon="-1.29257">
        <ele>58</ele>
        <time>2021-07-19T16:22:49.000Z</time>
      </trkpt>
      <trkpt lat="47.33149" lon="-1.29243">
        <ele>59</ele>
        <time>2021-07-19T16:22:51.000Z</time>
      </trkpt>
      <trkpt lat="47.33156" lon="-1.29229">
        <ele>59</ele>
        <time>2021-07-19T16:22:53.000Z</time>
      </trkpt>
      <trkpt lat="47.33166" lon="-1.2922">
        <ele>60</ele>
        <time>2021-07-19T16:22:55.000Z</time>
      </trkpt>
      <trkpt lat="47.33173" lon="-1.29207">
        <ele>60</ele>
        <time>2021-07-19T16:22:57.000Z</time>
      </trkpt>
      <trkpt lat="47.33173" lon="-1.29188">
        <ele>59</ele>
        <time>2021-07-19T16:22:59.000Z</time>
      </trkpt>
      <trkpt lat="47.33175" lon="-1.29172">
        <ele>60</ele>
        <time>2021-07-19T16:23:01.000Z</time>
      </trkpt>
      <trkpt lat="47.33183" lon="-1.29161">
        <ele>59</ele>
        <time>2021-07-19T16:23:03.000Z</time>
      </trkpt>
      <trkpt lat="47.33192" lon="-1.29152">
        <ele>59</ele>
        <time>2021-07-19T16:23:05.000Z</time>
      </trkpt>
      <trkpt lat="47.33202" lon="-1.29146">
        <ele>59</ele>
        <time>2021-07-19T16:23:07.000Z</time>
      </trkpt>
      <trkpt lat="47.33216" lon="-1.2915">
        <ele>59</ele>
        <time>2021-07-19T16:23:09.000Z</time>
      </trkpt>
      <trkpt lat="47.33229" lon="-1.29157">
        <ele>58</ele>
        <time>2021-07-19T16:23:11.000Z</time>
      </trkpt>
      <trkpt lat="47.33242" lon="-1.29165">
        <ele>57</ele>
        <time>2021-07-19T16:23:13.000Z</time>
      </trkpt>
      <trkpt lat="47.33255" lon="-1.29173">
        <ele>57</ele>
        <time>2021-07-19T16:23:15.000Z</time>
      </trkpt>
      <trkpt lat="47.33269" lon="-1.29181">
        <ele>57</ele>
        <time>2021-07-19T16:23:17.000Z</time>
      </trkpt>
      <trkpt lat="47.33282" lon="-1.2919">
        <ele>57</ele>
        <time>2021-07-19T16:23:19.000Z</time>
      </trkpt>
      <trkpt lat="47.33294" lon="-1.29198">
        <ele>57</ele>
        <time>2021-07-19T16:23:21.000Z</time>
      </trkpt>
      <trkpt lat="47.33305" lon="-1.29207">
        <ele>58</ele>
        <time>2021-07-19T16:23:23.000Z</time>
      </trkpt>
      <trkpt lat="47.33316" lon="-1.29216">
        <ele>58</ele>
        <time>2021-07-19T16:23:25.000Z</time>
      </trkpt>
      <trkpt lat="47.33326" lon="-1.29225">
        <ele>58</ele>
        <time>2021-07-19T16:23:27.000Z</time>
      </trkpt>
      <trkpt lat="47.33336" lon="-1.29233">
        <ele>58</ele>
        <time>2021-07-19T16:23:29.000Z</time>
      </trkpt>
      <trkpt lat="47.33345" lon="-1.29241">
        <ele>58</ele>
        <time>2021-07-19T16:23:31.000Z</time>
      </trkpt>
      <trkpt lat="47.33355" lon="-1.29251">
        <ele>58</ele>
        <time>2021-07-19T16:23:33.000Z</time>
      </trkpt>
      <trkpt lat="47.33363" lon="-1.29264">
        <ele>59</ele>
        <time>2021-07-19T16:23:35.000Z</time>
      </trkpt>
      <trkpt lat="47.3337" lon="-1.29277">
        <ele>59</ele>
        <time>2021-07-19T16:23:37.000Z</time>
      </trkpt>
      <trkpt lat="47.33378" lon="-1.2929">
        <ele>59</ele>
        <time>2021-07-19T16:23:39.000Z</time>
      </trkpt>
      <trkpt lat="47.33385" lon="-1.29303">
        <ele>59</ele>
        <time>2021-07-19T16:23:41.000Z</time>
      </trkpt>
      <trkpt lat="47.33391" lon="-1.29314">
        <ele>59</ele>
        <time>2021-07-19T16:23:43.000Z</time>
      </trkpt>
      <trkpt lat="47.33397" lon="-1.29326">
        <ele>59</ele>
        <time>2021-07-19T16:23:45.000Z</time>
      </trkpt>
      <trkpt lat="47.33402" lon="-1.29338">
        <ele>58</ele>
        <time>2021-07-19T16:23:47.000Z</time>
      </trkpt>
      <trkpt lat="47.33407" lon="-1.29351">
        <ele>59</ele>
        <time>2021-07-19T16:23:49.000Z</time>
      </trkpt>
      <trkpt lat="47.33409" lon="-1.29365">
        <ele>60</ele>
        <time>2021-07-19T16:23:51.000Z</time>
      </trkpt>
      <trkpt lat="47.33415" lon="-1.29381">
        <ele>59</ele>
        <time>2021-07-19T16:23:54.000Z</time>
      </trkpt>
      <trkpt lat="47.33424" lon="-1.29385">
        <ele>59</ele>
        <time>2021-07-19T16:23:56.000Z</time>
      </trkpt>
      <trkpt lat="47.33435" lon="-1.29393">
        <ele>60</ele>
        <time>2021-07-19T16:23:58.000Z</time>
      </trkpt>
      <trkpt lat="47.33446" lon="-1.29403">
        <ele>59</ele>
        <time>2021-07-19T16:24:00.000Z</time>
      </trkpt>
      <trkpt lat="47.33457" lon="-1.29411">
        <ele>60</ele>
        <time>2021-07-19T16:24:02.000Z</time>
      </trkpt>
      <trkpt lat="47.33467" lon="-1.29419">
        <ele>60</ele>
        <time>2021-07-19T16:24:04.000Z</time>
      </trkpt>
      <trkpt lat="47.33477" lon="-1.29428">
        <ele>60</ele>
        <time>2021-07-19T16:24:06.000Z</time>
      </trkpt>
      <trkpt lat="47.33487" lon="-1.29437">
        <ele>60</ele>
        <time>2021-07-19T16:24:08.000Z</time>
      </trkpt>
      <trkpt lat="47.33498" lon="-1.29445">
        <ele>60</ele>
        <time>2021-07-19T16:24:10.000Z</time>
      </trkpt>
      <trkpt lat="47.33509" lon="-1.29454">
        <ele>59</ele>
        <time>2021-07-19T16:24:12.000Z</time>
      </trkpt>
      <trkpt lat="47.33521" lon="-1.29462">
        <ele>59</ele>
        <time>2021-07-19T16:24:14.000Z</time>
      </trkpt>
      <trkpt lat="47.33532" lon="-1.29472">
        <ele>59</ele>
        <time>2021-07-19T16:24:16.000Z</time>
      </trkpt>
      <trkpt lat="47.33543" lon="-1.2948">
        <ele>59</ele>
        <time>2021-07-19T16:24:18.000Z</time>
      </trkpt>
      <trkpt lat="47.33553" lon="-1.29489">
        <ele>59</ele>
        <time>2021-07-19T16:24:20.000Z</time>
      </trkpt>
      <trkpt lat="47.33564" lon="-1.29498">
        <ele>59</ele>
        <time>2021-07-19T16:24:22.000Z</time>
      </trkpt>
      <trkpt lat="47.33574" lon="-1.29506">
        <ele>59</ele>
        <time>2021-07-19T16:24:24.000Z</time>
      </trkpt>
      <trkpt lat="47.33584" lon="-1.29514">
        <ele>59</ele>
        <time>2021-07-19T16:24:26.000Z</time>
      </trkpt>
      <trkpt lat="47.33594" lon="-1.29523">
        <ele>59</ele>
        <time>2021-07-19T16:24:28.000Z</time>
      </trkpt>
      <trkpt lat="47.33605" lon="-1.29531">
        <ele>59</ele>
        <time>2021-07-19T16:24:30.000Z</time>
      </trkpt>
      <trkpt lat="47.33614" lon="-1.29539">
        <ele>59</ele>
        <time>2021-07-19T16:24:32.000Z</time>
      </trkpt>
      <trkpt lat="47.33625" lon="-1.29545">
        <ele>60</ele>
        <time>2021-07-19T16:24:34.000Z</time>
      </trkpt>
      <trkpt lat="47.33637" lon="-1.29545">
        <ele>61</ele>
        <time>2021-07-19T16:24:36.000Z</time>
      </trkpt>
      <trkpt lat="47.33646" lon="-1.29538">
        <ele>61</ele>
        <time>2021-07-19T16:24:38.000Z</time>
      </trkpt>
      <trkpt lat="47.33651" lon="-1.29521">
        <ele>60</ele>
        <time>2021-07-19T16:24:40.000Z</time>
      </trkpt>
      <trkpt lat="47.33653" lon="-1.29502">
        <ele>60</ele>
        <time>2021-07-19T16:24:42.000Z</time>
      </trkpt>
      <trkpt lat="47.33658" lon="-1.29484">
        <ele>61</ele>
        <time>2021-07-19T16:24:44.000Z</time>
      </trkpt>
      <trkpt lat="47.3366" lon="-1.29465">
        <ele>60</ele>
        <time>2021-07-19T16:24:46.000Z</time>
      </trkpt>
      <trkpt lat="47.33664" lon="-1.29449">
        <ele>61</ele>
        <time>2021-07-19T16:24:48.000Z</time>
      </trkpt>
      <trkpt lat="47.3367" lon="-1.29434">
        <ele>61</ele>
        <time>2021-07-19T16:24:50.000Z</time>
      </trkpt>
      <trkpt lat="47.33677" lon="-1.29419">
        <ele>61</ele>
        <time>2021-07-19T16:24:52.000Z</time>
      </trkpt>
      <trkpt lat="47.33684" lon="-1.29402">
        <ele>60</ele>
        <time>2021-07-19T16:24:54.000Z</time>
      </trkpt>
      <trkpt lat="47.3369" lon="-1.29386">
        <ele>60</ele>
        <time>2021-07-19T16:24:56.000Z</time>
      </trkpt>
      <trkpt lat="47.33696" lon="-1.29369">
        <ele>60</ele>
        <time>2021-07-19T16:24:58.000Z</time>
      </trkpt>
      <trkpt lat="47.33701" lon="-1.29353">
        <ele>59</ele>
        <time>2021-07-19T16:25:00.000Z</time>
      </trkpt>
      <trkpt lat="47.33706" lon="-1.29337">
        <ele>59</ele>
        <time>2021-07-19T16:25:02.000Z</time>
      </trkpt>
      <trkpt lat="47.3371" lon="-1.29321">
        <ele>59</ele>
        <time>2021-07-19T16:25:04.000Z</time>
      </trkpt>
      <trkpt lat="47.33715" lon="-1.29305">
        <ele>59</ele>
        <time>2021-07-19T16:25:06.000Z</time>
      </trkpt>
      <trkpt lat="47.33719" lon="-1.29287">
        <ele>59</ele>
        <time>2021-07-19T16:25:08.000Z</time>
      </trkpt>
      <trkpt lat="47.33723" lon="-1.29272">
        <ele>59</ele>
        <time>2021-07-19T16:25:10.000Z</time>
      </trkpt>
      <trkpt lat="47.33727" lon="-1.29255">
        <ele>58</ele>
        <time>2021-07-19T16:25:12.000Z</time>
      </trkpt>
      <trkpt lat="47.33731" lon="-1.29239">
        <ele>58</ele>
        <time>2021-07-19T16:25:14.000Z</time>
      </trkpt>
      <trkpt lat="47.33733" lon="-1.29221">
        <ele>58</ele>
        <time>2021-07-19T16:25:16.000Z</time>
      </trkpt>
      <trkpt lat="47.33736" lon="-1.29204">
        <ele>58</ele>
        <time>2021-07-19T16:25:18.000Z</time>
      </trkpt>
      <trkpt lat="47.33741" lon="-1.29188">
        <ele>58</ele>
        <time>2021-07-19T16:25:20.000Z</time>
      </trkpt>
      <trkpt lat="47.33745" lon="-1.2917">
        <ele>59</ele>
        <time>2021-07-19T16:25:22.000Z</time>
      </trkpt>
      <trkpt lat="47.33749" lon="-1.29154">
        <ele>58</ele>
        <time>2021-07-19T16:25:24.000Z</time>
      </trkpt>
      <trkpt lat="47.33751" lon="-1.29138">
        <ele>58</ele>
        <time>2021-07-19T16:25:26.000Z</time>
      </trkpt>
      <trkpt lat="47.33751" lon="-1.29121">
        <ele>58</ele>
        <time>2021-07-19T16:25:28.000Z</time>
      </trkpt>
      <trkpt lat="47.33752" lon="-1.29104">
        <ele>59</ele>
        <time>2021-07-19T16:25:30.000Z</time>
      </trkpt>
      <trkpt lat="47.33752" lon="-1.29086">
        <ele>59</ele>
        <time>2021-07-19T16:25:32.000Z</time>
      </trkpt>
      <trkpt lat="47.33751" lon="-1.29068">
        <ele>59</ele>
        <time>2021-07-19T16:25:34.000Z</time>
      </trkpt>
      <trkpt lat="47.33751" lon="-1.29048">
        <ele>59</ele>
        <time>2021-07-19T16:25:36.000Z</time>
      </trkpt>
      <trkpt lat="47.33751" lon="-1.29031">
        <ele>60</ele>
        <time>2021-07-19T16:25:38.000Z</time>
      </trkpt>
      <trkpt lat="47.33752" lon="-1.29014">
        <ele>60</ele>
        <time>2021-07-19T16:25:40.000Z</time>
      </trkpt>
      <trkpt lat="47.33752" lon="-1.28996">
        <ele>60</ele>
        <time>2021-07-19T16:25:42.000Z</time>
      </trkpt>
      <trkpt lat="47.33753" lon="-1.28978">
        <ele>59</ele>
        <time>2021-07-19T16:25:44.000Z</time>
      </trkpt>
      <trkpt lat="47.33753" lon="-1.28961">
        <ele>58</ele>
        <time>2021-07-19T16:25:46.000Z</time>
      </trkpt>
      <trkpt lat="47.33753" lon="-1.28944">
        <ele>58</ele>
        <time>2021-07-19T16:25:48.000Z</time>
      </trkpt>
      <trkpt lat="47.33756" lon="-1.28926">
        <ele>59</ele>
        <time>2021-07-19T16:25:50.000Z</time>
      </trkpt>
      <trkpt lat="47.33759" lon="-1.2891">
        <ele>59</ele>
        <time>2021-07-19T16:25:52.000Z</time>
      </trkpt>
      <trkpt lat="47.33765" lon="-1.28896">
        <ele>59</ele>
        <time>2021-07-19T16:25:54.000Z</time>
      </trkpt>
      <trkpt lat="47.33769" lon="-1.2888">
        <ele>59</ele>
        <time>2021-07-19T16:25:56.000Z</time>
      </trkpt>
      <trkpt lat="47.33771" lon="-1.28863">
        <ele>58</ele>
        <time>2021-07-19T16:25:58.000Z</time>
      </trkpt>
      <trkpt lat="47.33771" lon="-1.28843">
        <ele>58</ele>
        <time>2021-07-19T16:26:00.000Z</time>
      </trkpt>
      <trkpt lat="47.3377" lon="-1.28825">
        <ele>57</ele>
        <time>2021-07-19T16:26:02.000Z</time>
      </trkpt>
      <trkpt lat="47.33769" lon="-1.28808">
        <ele>57</ele>
        <time>2021-07-19T16:26:04.000Z</time>
      </trkpt>
      <trkpt lat="47.33771" lon="-1.28791">
        <ele>58</ele>
        <time>2021-07-19T16:26:06.000Z</time>
      </trkpt>
      <trkpt lat="47.33773" lon="-1.28773">
        <ele>59</ele>
        <time>2021-07-19T16:26:08.000Z</time>
      </trkpt>
      <trkpt lat="47.33774" lon="-1.28755">
        <ele>59</ele>
        <time>2021-07-19T16:26:10.000Z</time>
      </trkpt>
      <trkpt lat="47.33775" lon="-1.28737">
        <ele>58</ele>
        <time>2021-07-19T16:26:12.000Z</time>
      </trkpt>
      <trkpt lat="47.33776" lon="-1.28719">
        <ele>59</ele>
        <time>2021-07-19T16:26:14.000Z</time>
      </trkpt>
      <trkpt lat="47.33779" lon="-1.287">
        <ele>60</ele>
        <time>2021-07-19T16:26:16.000Z</time>
      </trkpt>
      <trkpt lat="47.33784" lon="-1.28683">
        <ele>60</ele>
        <time>2021-07-19T16:26:18.000Z</time>
      </trkpt>
      <trkpt lat="47.33789" lon="-1.28666">
        <ele>60</ele>
        <time>2021-07-19T16:26:20.000Z</time>
      </trkpt>
      <trkpt lat="47.3379" lon="-1.28648">
        <ele>60</ele>
        <time>2021-07-19T16:26:22.000Z</time>
      </trkpt>
      <trkpt lat="47.33792" lon="-1.28629">
        <ele>59</ele>
        <time>2021-07-19T16:26:24.000Z</time>
      </trkpt>
      <trkpt lat="47.33796" lon="-1.28612">
        <ele>59</ele>
        <time>2021-07-19T16:26:26.000Z</time>
      </trkpt>
      <trkpt lat="47.33801" lon="-1.28597">
        <ele>59</ele>
        <time>2021-07-19T16:26:28.000Z</time>
      </trkpt>
      <trkpt lat="47.33807" lon="-1.28584">
        <ele>59</ele>
        <time>2021-07-19T16:26:30.000Z</time>
      </trkpt>
      <trkpt lat="47.33813" lon="-1.28573">
        <ele>58</ele>
        <time>2021-07-19T16:26:32.000Z</time>
      </trkpt>
      <trkpt lat="47.33811" lon="-1.28558">
        <ele>58</ele>
        <time>2021-07-19T16:26:34.000Z</time>
      </trkpt>
      <trkpt lat="47.33803" lon="-1.28546">
        <ele>58</ele>
        <time>2021-07-19T16:26:36.000Z</time>
      </trkpt>
      <trkpt lat="47.33797" lon="-1.28534">
        <ele>59</ele>
        <time>2021-07-19T16:26:38.000Z</time>
      </trkpt>
      <trkpt lat="47.338" lon="-1.28515">
        <ele>59</ele>
        <time>2021-07-19T16:26:40.000Z</time>
      </trkpt>
      <trkpt lat="47.33802" lon="-1.28496">
        <ele>58</ele>
        <time>2021-07-19T16:26:42.000Z</time>
      </trkpt>
      <trkpt lat="47.33804" lon="-1.28478">
        <ele>59</ele>
        <time>2021-07-19T16:26:44.000Z</time>
      </trkpt>
      <trkpt lat="47.33806" lon="-1.2846">
        <ele>58</ele>
        <time>2021-07-19T16:26:46.000Z</time>
      </trkpt>
      <trkpt lat="47.33808" lon="-1.28441">
        <ele>58</ele>
        <time>2021-07-19T16:26:48.000Z</time>
      </trkpt>
      <trkpt lat="47.3381" lon="-1.28423">
        <ele>58</ele>
        <time>2021-07-19T16:26:50.000Z</time>
      </trkpt>
      <trkpt lat="47.33813" lon="-1.28406">
        <ele>59</ele>
        <time>2021-07-19T16:26:52.000Z</time>
      </trkpt>
      <trkpt lat="47.33815" lon="-1.28389">
        <ele>58</ele>
        <time>2021-07-19T16:26:54.000Z</time>
      </trkpt>
      <trkpt lat="47.33818" lon="-1.28372">
        <ele>58</ele>
        <time>2021-07-19T16:26:56.000Z</time>
      </trkpt>
      <trkpt lat="47.33821" lon="-1.28355">
        <ele>58</ele>
        <time>2021-07-19T16:26:58.000Z</time>
      </trkpt>
      <trkpt lat="47.33823" lon="-1.28338">
        <ele>58</ele>
        <time>2021-07-19T16:27:00.000Z</time>
      </trkpt>
      <trkpt lat="47.33826" lon="-1.2832">
        <ele>58</ele>
        <time>2021-07-19T16:27:02.000Z</time>
      </trkpt>
      <trkpt lat="47.33829" lon="-1.28303">
        <ele>58</ele>
        <time>2021-07-19T16:27:04.000Z</time>
      </trkpt>
      <trkpt lat="47.33832" lon="-1.28285">
        <ele>58</ele>
        <time>2021-07-19T16:27:06.000Z</time>
      </trkpt>
      <trkpt lat="47.33835" lon="-1.28267">
        <ele>58</ele>
        <time>2021-07-19T16:27:08.000Z</time>
      </trkpt>
      <trkpt lat="47.33839" lon="-1.2825">
        <ele>58</ele>
        <time>2021-07-19T16:27:10.000Z</time>
      </trkpt>
      <trkpt lat="47.33841" lon="-1.28232">
        <ele>58</ele>
        <time>2021-07-19T16:27:12.000Z</time>
      </trkpt>
      <trkpt lat="47.33844" lon="-1.28214">
        <ele>58</ele>
        <time>2021-07-19T16:27:14.000Z</time>
      </trkpt>
      <trkpt lat="47.33846" lon="-1.28195">
        <ele>58</ele>
        <time>2021-07-19T16:27:16.000Z</time>
      </trkpt>
      <trkpt lat="47.33848" lon="-1.28177">
        <ele>58</ele>
        <time>2021-07-19T16:27:18.000Z</time>
      </trkpt>
      <trkpt lat="47.33851" lon="-1.2816">
        <ele>58</ele>
        <time>2021-07-19T16:27:20.000Z</time>
      </trkpt>
      <trkpt lat="47.33853" lon="-1.28143">
        <ele>57</ele>
        <time>2021-07-19T16:27:22.000Z</time>
      </trkpt>
      <trkpt lat="47.33855" lon="-1.28126">
        <ele>57</ele>
        <time>2021-07-19T16:27:24.000Z</time>
      </trkpt>
      <trkpt lat="47.33857" lon="-1.28107">
        <ele>57</ele>
        <time>2021-07-19T16:27:26.000Z</time>
      </trkpt>
      <trkpt lat="47.33859" lon="-1.28089">
        <ele>57</ele>
        <time>2021-07-19T16:27:28.000Z</time>
      </trkpt>
      <trkpt lat="47.33862" lon="-1.28071">
        <ele>57</ele>
        <time>2021-07-19T16:27:30.000Z</time>
      </trkpt>
      <trkpt lat="47.33865" lon="-1.28053">
        <ele>57</ele>
        <time>2021-07-19T16:27:32.000Z</time>
      </trkpt>
      <trkpt lat="47.33868" lon="-1.28035">
        <ele>57</ele>
        <time>2021-07-19T16:27:34.000Z</time>
      </trkpt>
      <trkpt lat="47.3387" lon="-1.28017">
        <ele>57</ele>
        <time>2021-07-19T16:27:36.000Z</time>
      </trkpt>
      <trkpt lat="47.33871" lon="-1.27999">
        <ele>57</ele>
        <time>2021-07-19T16:27:38.000Z</time>
      </trkpt>
      <trkpt lat="47.33873" lon="-1.2798">
        <ele>57</ele>
        <time>2021-07-19T16:27:40.000Z</time>
      </trkpt>
      <trkpt lat="47.33873" lon="-1.27962">
        <ele>57</ele>
        <time>2021-07-19T16:27:42.000Z</time>
      </trkpt>
      <trkpt lat="47.33873" lon="-1.27943">
        <ele>57</ele>
        <time>2021-07-19T16:27:44.000Z</time>
      </trkpt>
      <trkpt lat="47.33873" lon="-1.27924">
        <ele>57</ele>
        <time>2021-07-19T16:27:46.000Z</time>
      </trkpt>
      <trkpt lat="47.33873" lon="-1.27906">
        <ele>58</ele>
        <time>2021-07-19T16:27:48.000Z</time>
      </trkpt>
      <trkpt lat="47.33874" lon="-1.27889">
        <ele>57</ele>
        <time>2021-07-19T16:27:50.000Z</time>
      </trkpt>
      <trkpt lat="47.33873" lon="-1.27872">
        <ele>57</ele>
        <time>2021-07-19T16:27:52.000Z</time>
      </trkpt>
      <trkpt lat="47.33873" lon="-1.27855">
        <ele>57</ele>
        <time>2021-07-19T16:27:54.000Z</time>
      </trkpt>
      <trkpt lat="47.33874" lon="-1.2784">
        <ele>57</ele>
        <time>2021-07-19T16:27:56.000Z</time>
      </trkpt>
      <trkpt lat="47.33874" lon="-1.27825">
        <ele>57</ele>
        <time>2021-07-19T16:27:58.000Z</time>
      </trkpt>
      <trkpt lat="47.33875" lon="-1.27809">
        <ele>57</ele>
        <time>2021-07-19T16:28:00.000Z</time>
      </trkpt>
      <trkpt lat="47.33872" lon="-1.27792">
        <ele>58</ele>
        <time>2021-07-19T16:28:03.000Z</time>
      </trkpt>
      <trkpt lat="47.33862" lon="-1.27789">
        <ele>57</ele>
        <time>2021-07-19T16:28:05.000Z</time>
      </trkpt>
      <trkpt lat="47.33851" lon="-1.27785">
        <ele>58</ele>
        <time>2021-07-19T16:28:07.000Z</time>
      </trkpt>
      <trkpt lat="47.3384" lon="-1.27782">
        <ele>58</ele>
        <time>2021-07-19T16:28:09.000Z</time>
      </trkpt>
      <trkpt lat="47.33827" lon="-1.27779">
        <ele>57</ele>
        <time>2021-07-19T16:28:11.000Z</time>
      </trkpt>
      <trkpt lat="47.33815" lon="-1.27775">
        <ele>57</ele>
        <time>2021-07-19T16:28:13.000Z</time>
      </trkpt>
      <trkpt lat="47.33802" lon="-1.27771">
        <ele>57</ele>
        <time>2021-07-19T16:28:15.000Z</time>
      </trkpt>
      <trkpt lat="47.3379" lon="-1.27767">
        <ele>56</ele>
        <time>2021-07-19T16:28:17.000Z</time>
      </trkpt>
      <trkpt lat="47.33778" lon="-1.27763">
        <ele>56</ele>
        <time>2021-07-19T16:28:19.000Z</time>
      </trkpt>
      <trkpt lat="47.33768" lon="-1.27758">
        <ele>56</ele>
        <time>2021-07-19T16:28:21.000Z</time>
      </trkpt>
      <trkpt lat="47.33755" lon="-1.27755">
        <ele>57</ele>
        <time>2021-07-19T16:28:24.000Z</time>
      </trkpt>
      <trkpt lat="47.33742" lon="-1.27751">
        <ele>57</ele>
        <time>2021-07-19T16:28:27.000Z</time>
      </trkpt>
      <trkpt lat="47.33735" lon="-1.27741">
        <ele>58</ele>
        <time>2021-07-19T16:28:30.000Z</time>
      </trkpt>
      <trkpt lat="47.33741" lon="-1.27726">
        <ele>59</ele>
        <time>2021-07-19T16:28:33.000Z</time>
      </trkpt>
      <trkpt lat="47.33751" lon="-1.27719">
        <ele>59</ele>
        <time>2021-07-19T16:28:35.000Z</time>
      </trkpt>
      <trkpt lat="47.33761" lon="-1.27722">
        <ele>60</ele>
        <time>2021-07-19T16:28:37.000Z</time>
      </trkpt>
      <trkpt lat="47.33769" lon="-1.27733">
        <ele>61</ele>
        <time>2021-07-19T16:28:39.000Z</time>
      </trkpt>
      <trkpt lat="47.33777" lon="-1.27742">
        <ele>61</ele>
        <time>2021-07-19T16:28:41.000Z</time>
      </trkpt>
      <trkpt lat="47.33788" lon="-1.27744">
        <ele>61</ele>
        <time>2021-07-19T16:28:43.000Z</time>
      </trkpt>
      <trkpt lat="47.33798" lon="-1.27747">
        <ele>62</ele>
        <time>2021-07-19T16:28:45.000Z</time>
      </trkpt>
      <trkpt lat="47.33808" lon="-1.27751">
        <ele>62</ele>
        <time>2021-07-19T16:28:47.000Z</time>
      </trkpt>
      <trkpt lat="47.33818" lon="-1.27753">
        <ele>62</ele>
        <time>2021-07-19T16:28:49.000Z</time>
      </trkpt>
      <trkpt lat="47.33829" lon="-1.27757">
        <ele>63</ele>
        <time>2021-07-19T16:28:51.000Z</time>
      </trkpt>
      <trkpt lat="47.3384" lon="-1.27761">
        <ele>63</ele>
        <time>2021-07-19T16:28:53.000Z</time>
      </trkpt>
      <trkpt lat="47.33851" lon="-1.27765">
        <ele>63</ele>
        <time>2021-07-19T16:28:55.000Z</time>
      </trkpt>
      <trkpt lat="47.33862" lon="-1.27768">
        <ele>63</ele>
        <time>2021-07-19T16:28:57.000Z</time>
      </trkpt>
      <trkpt lat="47.33873" lon="-1.27771">
        <ele>64</ele>
        <time>2021-07-19T16:28:59.000Z</time>
      </trkpt>
      <trkpt lat="47.33884" lon="-1.27774">
        <ele>64</ele>
        <time>2021-07-19T16:29:01.000Z</time>
      </trkpt>
      <trkpt lat="47.33895" lon="-1.27777">
        <ele>64</ele>
        <time>2021-07-19T16:29:03.000Z</time>
      </trkpt>
      <trkpt lat="47.33906" lon="-1.27781">
        <ele>64</ele>
        <time>2021-07-19T16:29:05.000Z</time>
      </trkpt>
      <trkpt lat="47.33917" lon="-1.27784">
        <ele>65</ele>
        <time>2021-07-19T16:29:07.000Z</time>
      </trkpt>
      <trkpt lat="47.33928" lon="-1.27788">
        <ele>65</ele>
        <time>2021-07-19T16:29:09.000Z</time>
      </trkpt>
      <trkpt lat="47.33938" lon="-1.27791">
        <ele>65</ele>
        <time>2021-07-19T16:29:11.000Z</time>
      </trkpt>
      <trkpt lat="47.33948" lon="-1.27795">
        <ele>64</ele>
        <time>2021-07-19T16:29:13.000Z</time>
      </trkpt>
      <trkpt lat="47.33959" lon="-1.27798">
        <ele>64</ele>
        <time>2021-07-19T16:29:15.000Z</time>
      </trkpt>
      <trkpt lat="47.3397" lon="-1.27802">
        <ele>65</ele>
        <time>2021-07-19T16:29:17.000Z</time>
      </trkpt>
      <trkpt lat="47.33981" lon="-1.27805">
        <ele>65</ele>
        <time>2021-07-19T16:29:19.000Z</time>
      </trkpt>
      <trkpt lat="47.33993" lon="-1.27809">
        <ele>65</ele>
        <time>2021-07-19T16:29:21.000Z</time>
      </trkpt>
      <trkpt lat="47.34004" lon="-1.27812">
        <ele>64</ele>
        <time>2021-07-19T16:29:23.000Z</time>
      </trkpt>
      <trkpt lat="47.34016" lon="-1.27816">
        <ele>64</ele>
        <time>2021-07-19T16:29:25.000Z</time>
      </trkpt>
      <trkpt lat="47.34027" lon="-1.27819">
        <ele>65</ele>
        <time>2021-07-19T16:29:27.000Z</time>
      </trkpt>
      <trkpt lat="47.34038" lon="-1.27823">
        <ele>65</ele>
        <time>2021-07-19T16:29:29.000Z</time>
      </trkpt>
      <trkpt lat="47.34049" lon="-1.27826">
        <ele>65</ele>
        <time>2021-07-19T16:29:31.000Z</time>
      </trkpt>
      <trkpt lat="47.34059" lon="-1.2783">
        <ele>65</ele>
        <time>2021-07-19T16:29:33.000Z</time>
      </trkpt>
      <trkpt lat="47.34071" lon="-1.27834">
        <ele>65</ele>
        <time>2021-07-19T16:29:35.000Z</time>
      </trkpt>
      <trkpt lat="47.34082" lon="-1.27837">
        <ele>65</ele>
        <time>2021-07-19T16:29:37.000Z</time>
      </trkpt>
      <trkpt lat="47.34094" lon="-1.27841">
        <ele>66</ele>
        <time>2021-07-19T16:29:39.000Z</time>
      </trkpt>
      <trkpt lat="47.34106" lon="-1.27844">
        <ele>66</ele>
        <time>2021-07-19T16:29:41.000Z</time>
      </trkpt>
      <trkpt lat="47.34117" lon="-1.27848">
        <ele>66</ele>
        <time>2021-07-19T16:29:43.000Z</time>
      </trkpt>
      <trkpt lat="47.34129" lon="-1.27851">
        <ele>66</ele>
        <time>2021-07-19T16:29:45.000Z</time>
      </trkpt>
      <trkpt lat="47.34141" lon="-1.27855">
        <ele>66</ele>
        <time>2021-07-19T16:29:47.000Z</time>
      </trkpt>
      <trkpt lat="47.34152" lon="-1.27859">
        <ele>65</ele>
        <time>2021-07-19T16:29:49.000Z</time>
      </trkpt>
      <trkpt lat="47.34164" lon="-1.27862">
        <ele>65</ele>
        <time>2021-07-19T16:29:51.000Z</time>
      </trkpt>
      <trkpt lat="47.34176" lon="-1.27866">
        <ele>65</ele>
        <time>2021-07-19T16:29:53.000Z</time>
      </trkpt>
      <trkpt lat="47.34187" lon="-1.2787">
        <ele>65</ele>
        <time>2021-07-19T16:29:55.000Z</time>
      </trkpt>
      <trkpt lat="47.34199" lon="-1.27873">
        <ele>65</ele>
        <time>2021-07-19T16:29:57.000Z</time>
      </trkpt>
      <trkpt lat="47.34211" lon="-1.27877">
        <ele>66</ele>
        <time>2021-07-19T16:29:59.000Z</time>
      </trkpt>
      <trkpt lat="47.34223" lon="-1.27881">
        <ele>66</ele>
        <time>2021-07-19T16:30:01.000Z</time>
      </trkpt>
      <trkpt lat="47.34234" lon="-1.27884">
        <ele>66</ele>
        <time>2021-07-19T16:30:03.000Z</time>
      </trkpt>
      <trkpt lat="47.34246" lon="-1.27888">
        <ele>66</ele>
        <time>2021-07-19T16:30:05.000Z</time>
      </trkpt>
      <trkpt lat="47.34258" lon="-1.27893">
        <ele>66</ele>
        <time>2021-07-19T16:30:07.000Z</time>
      </trkpt>
      <trkpt lat="47.3427" lon="-1.27896">
        <ele>66</ele>
        <time>2021-07-19T16:30:09.000Z</time>
      </trkpt>
      <trkpt lat="47.34282" lon="-1.279">
        <ele>66</ele>
        <time>2021-07-19T16:30:11.000Z</time>
      </trkpt>
      <trkpt lat="47.34293" lon="-1.27904">
        <ele>66</ele>
        <time>2021-07-19T16:30:13.000Z</time>
      </trkpt>
      <trkpt lat="47.34305" lon="-1.27907">
        <ele>65</ele>
        <time>2021-07-19T16:30:15.000Z</time>
      </trkpt>
      <trkpt lat="47.34317" lon="-1.2791">
        <ele>66</ele>
        <time>2021-07-19T16:30:17.000Z</time>
      </trkpt>
      <trkpt lat="47.34328" lon="-1.27914">
        <ele>66</ele>
        <time>2021-07-19T16:30:19.000Z</time>
      </trkpt>
      <trkpt lat="47.3434" lon="-1.27917">
        <ele>66</ele>
        <time>2021-07-19T16:30:21.000Z</time>
      </trkpt>
      <trkpt lat="47.34352" lon="-1.27921">
        <ele>67</ele>
        <time>2021-07-19T16:30:23.000Z</time>
      </trkpt>
      <trkpt lat="47.34363" lon="-1.27924">
        <ele>66</ele>
        <time>2021-07-19T16:30:25.000Z</time>
      </trkpt>
      <trkpt lat="47.34375" lon="-1.27928">
        <ele>66</ele>
        <time>2021-07-19T16:30:27.000Z</time>
      </trkpt>
      <trkpt lat="47.34386" lon="-1.27931">
        <ele>66</ele>
        <time>2021-07-19T16:30:29.000Z</time>
      </trkpt>
      <trkpt lat="47.34398" lon="-1.27936">
        <ele>66</ele>
        <time>2021-07-19T16:30:31.000Z</time>
      </trkpt>
      <trkpt lat="47.34409" lon="-1.27942">
        <ele>66</ele>
        <time>2021-07-19T16:30:33.000Z</time>
      </trkpt>
      <trkpt lat="47.3442" lon="-1.27947">
        <ele>67</ele>
        <time>2021-07-19T16:30:35.000Z</time>
      </trkpt>
      <trkpt lat="47.34431" lon="-1.27954">
        <ele>67</ele>
        <time>2021-07-19T16:30:37.000Z</time>
      </trkpt>
      <trkpt lat="47.3444" lon="-1.2796">
        <ele>67</ele>
        <time>2021-07-19T16:30:39.000Z</time>
      </trkpt>
      <trkpt lat="47.3445" lon="-1.27968">
        <ele>67</ele>
        <time>2021-07-19T16:30:41.000Z</time>
      </trkpt>
      <trkpt lat="47.3446" lon="-1.27978">
        <ele>67</ele>
        <time>2021-07-19T16:30:43.000Z</time>
      </trkpt>
      <trkpt lat="47.34469" lon="-1.27988">
        <ele>67</ele>
        <time>2021-07-19T16:30:45.000Z</time>
      </trkpt>
      <trkpt lat="47.34478" lon="-1.28001">
        <ele>67</ele>
        <time>2021-07-19T16:30:47.000Z</time>
      </trkpt>
      <trkpt lat="47.34488" lon="-1.28015">
        <ele>67</ele>
        <time>2021-07-19T16:30:49.000Z</time>
      </trkpt>
      <trkpt lat="47.34496" lon="-1.2803">
        <ele>66</ele>
        <time>2021-07-19T16:30:51.000Z</time>
      </trkpt>
      <trkpt lat="47.34504" lon="-1.28048">
        <ele>66</ele>
        <time>2021-07-19T16:30:53.000Z</time>
      </trkpt>
      <trkpt lat="47.3451" lon="-1.28066">
        <ele>65</ele>
        <time>2021-07-19T16:30:55.000Z</time>
      </trkpt>
      <trkpt lat="47.34517" lon="-1.28086">
        <ele>65</ele>
        <time>2021-07-19T16:30:57.000Z</time>
      </trkpt>
      <trkpt lat="47.34522" lon="-1.28108">
        <ele>64</ele>
        <time>2021-07-19T16:30:59.000Z</time>
      </trkpt>
      <trkpt lat="47.34525" lon="-1.28132">
        <ele>62</ele>
        <time>2021-07-19T16:31:01.000Z</time>
      </trkpt>
      <trkpt lat="47.34527" lon="-1.28157">
        <ele>62</ele>
        <time>2021-07-19T16:31:03.000Z</time>
      </trkpt>
      <trkpt lat="47.34528" lon="-1.28182">
        <ele>62</ele>
        <time>2021-07-19T16:31:05.000Z</time>
      </trkpt>
      <trkpt lat="47.34527" lon="-1.28204">
        <ele>61</ele>
        <time>2021-07-19T16:31:07.000Z</time>
      </trkpt>
      <trkpt lat="47.34526" lon="-1.28227">
        <ele>60</ele>
        <time>2021-07-19T16:31:09.000Z</time>
      </trkpt>
      <trkpt lat="47.34523" lon="-1.28249">
        <ele>60</ele>
        <time>2021-07-19T16:31:11.000Z</time>
      </trkpt>
      <trkpt lat="47.3452" lon="-1.2827">
        <ele>59</ele>
        <time>2021-07-19T16:31:13.000Z</time>
      </trkpt>
      <trkpt lat="47.34518" lon="-1.28292">
        <ele>59</ele>
        <time>2021-07-19T16:31:15.000Z</time>
      </trkpt>
      <trkpt lat="47.34516" lon="-1.28314">
        <ele>59</ele>
        <time>2021-07-19T16:31:17.000Z</time>
      </trkpt>
      <trkpt lat="47.34514" lon="-1.28336">
        <ele>59</ele>
        <time>2021-07-19T16:31:19.000Z</time>
      </trkpt>
      <trkpt lat="47.34513" lon="-1.28358">
        <ele>59</ele>
        <time>2021-07-19T16:31:21.000Z</time>
      </trkpt>
      <trkpt lat="47.34514" lon="-1.28379">
        <ele>58</ele>
        <time>2021-07-19T16:31:23.000Z</time>
      </trkpt>
      <trkpt lat="47.34517" lon="-1.28401">
        <ele>58</ele>
        <time>2021-07-19T16:31:25.000Z</time>
      </trkpt>
      <trkpt lat="47.34521" lon="-1.28421">
        <ele>58</ele>
        <time>2021-07-19T16:31:27.000Z</time>
      </trkpt>
      <trkpt lat="47.34527" lon="-1.2844">
        <ele>58</ele>
        <time>2021-07-19T16:31:29.000Z</time>
      </trkpt>
      <trkpt lat="47.34533" lon="-1.28459">
        <ele>57</ele>
        <time>2021-07-19T16:31:31.000Z</time>
      </trkpt>
      <trkpt lat="47.34541" lon="-1.28476">
        <ele>57</ele>
        <time>2021-07-19T16:31:33.000Z</time>
      </trkpt>
      <trkpt lat="47.34549" lon="-1.28491">
        <ele>58</ele>
        <time>2021-07-19T16:31:35.000Z</time>
      </trkpt>
      <trkpt lat="47.34559" lon="-1.28505">
        <ele>58</ele>
        <time>2021-07-19T16:31:37.000Z</time>
      </trkpt>
      <trkpt lat="47.3457" lon="-1.28518">
        <ele>58</ele>
        <time>2021-07-19T16:31:39.000Z</time>
      </trkpt>
      <trkpt lat="47.34582" lon="-1.2853">
        <ele>59</ele>
        <time>2021-07-19T16:31:41.000Z</time>
      </trkpt>
      <trkpt lat="47.34594" lon="-1.28541">
        <ele>59</ele>
        <time>2021-07-19T16:31:43.000Z</time>
      </trkpt>
      <trkpt lat="47.34606" lon="-1.28552">
        <ele>59</ele>
        <time>2021-07-19T16:31:45.000Z</time>
      </trkpt>
      <trkpt lat="47.34617" lon="-1.28562">
        <ele>59</ele>
        <time>2021-07-19T16:31:47.000Z</time>
      </trkpt>
      <trkpt lat="47.34628" lon="-1.28572">
        <ele>60</ele>
        <time>2021-07-19T16:31:49.000Z</time>
      </trkpt>
      <trkpt lat="47.34638" lon="-1.28579">
        <ele>61</ele>
        <time>2021-07-19T16:31:51.000Z</time>
      </trkpt>
      <trkpt lat="47.34646" lon="-1.28586">
        <ele>61</ele>
        <time>2021-07-19T16:31:53.000Z</time>
      </trkpt>
      <trkpt lat="47.34651" lon="-1.28603">
        <ele>62</ele>
        <time>2021-07-19T16:31:56.000Z</time>
      </trkpt>
      <trkpt lat="47.34644" lon="-1.28615">
        <ele>63</ele>
        <time>2021-07-19T16:31:58.000Z</time>
      </trkpt>
      <trkpt lat="47.34635" lon="-1.28628">
        <ele>62</ele>
        <time>2021-07-19T16:32:00.000Z</time>
      </trkpt>
      <trkpt lat="47.34625" lon="-1.28643">
        <ele>61</ele>
        <time>2021-07-19T16:32:02.000Z</time>
      </trkpt>
      <trkpt lat="47.34616" lon="-1.28661">
        <ele>61</ele>
        <time>2021-07-19T16:32:04.000Z</time>
      </trkpt>
      <trkpt lat="47.34608" lon="-1.28677">
        <ele>60</ele>
        <time>2021-07-19T16:32:06.000Z</time>
      </trkpt>
      <trkpt lat="47.34602" lon="-1.28689">
        <ele>60</ele>
        <time>2021-07-19T16:32:08.000Z</time>
      </trkpt>
      <trkpt lat="47.34607" lon="-1.28702">
        <ele>60</ele>
        <time>2021-07-19T16:32:10.000Z</time>
      </trkpt>
      <trkpt lat="47.34616" lon="-1.28713">
        <ele>59</ele>
        <time>2021-07-19T16:32:12.000Z</time>
      </trkpt>
      <trkpt lat="47.34625" lon="-1.28727">
        <ele>60</ele>
        <time>2021-07-19T16:32:14.000Z</time>
      </trkpt>
      <trkpt lat="47.34631" lon="-1.28741">
        <ele>61</ele>
        <time>2021-07-19T16:32:16.000Z</time>
      </trkpt>
      <trkpt lat="47.34635" lon="-1.28757">
        <ele>60</ele>
        <time>2021-07-19T16:32:18.000Z</time>
      </trkpt>
      <trkpt lat="47.34634" lon="-1.28775">
        <ele>60</ele>
        <time>2021-07-19T16:32:20.000Z</time>
      </trkpt>
      <trkpt lat="47.34627" lon="-1.2879">
        <ele>59</ele>
        <time>2021-07-19T16:32:22.000Z</time>
      </trkpt>
      <trkpt lat="47.34619" lon="-1.28803">
        <ele>60</ele>
        <time>2021-07-19T16:32:24.000Z</time>
      </trkpt>
      <trkpt lat="47.34617" lon="-1.28817">
        <ele>60</ele>
        <time>2021-07-19T16:32:29.000Z</time>
      </trkpt>
      <trkpt lat="47.3461" lon="-1.28826">
        <ele>60</ele>
        <time>2021-07-19T16:32:32.000Z</time>
      </trkpt>
      <trkpt lat="47.34604" lon="-1.28836">
        <ele>59</ele>
        <time>2021-07-19T16:32:34.000Z</time>
      </trkpt>
      <trkpt lat="47.34597" lon="-1.28847">
        <ele>59</ele>
        <time>2021-07-19T16:32:36.000Z</time>
      </trkpt>
      <trkpt lat="47.34592" lon="-1.28859">
        <ele>58</ele>
        <time>2021-07-19T16:32:38.000Z</time>
      </trkpt>
      <trkpt lat="47.34585" lon="-1.2887">
        <ele>57</ele>
        <time>2021-07-19T16:32:40.000Z</time>
      </trkpt>
      <trkpt lat="47.34581" lon="-1.28883">
        <ele>58</ele>
        <time>2021-07-19T16:32:42.000Z</time>
      </trkpt>
      <trkpt lat="47.34569" lon="-1.28889">
        <ele>59</ele>
        <time>2021-07-19T16:32:45.000Z</time>
      </trkpt>
      <trkpt lat="47.34559" lon="-1.28882">
        <ele>59</ele>
        <time>2021-07-19T16:32:47.000Z</time>
      </trkpt>
      <trkpt lat="47.34548" lon="-1.28878">
        <ele>59</ele>
        <time>2021-07-19T16:32:49.000Z</time>
      </trkpt>
      <trkpt lat="47.34541" lon="-1.28889">
        <ele>59</ele>
        <time>2021-07-19T16:32:51.000Z</time>
      </trkpt>
      <trkpt lat="47.34535" lon="-1.28904">
        <ele>59</ele>
        <time>2021-07-19T16:32:53.000Z</time>
      </trkpt>
      <trkpt lat="47.34527" lon="-1.28918">
        <ele>60</ele>
        <time>2021-07-19T16:32:55.000Z</time>
      </trkpt>
      <trkpt lat="47.3452" lon="-1.28932">
        <ele>60</ele>
        <time>2021-07-19T16:32:57.000Z</time>
      </trkpt>
      <trkpt lat="47.34514" lon="-1.28946">
        <ele>61</ele>
        <time>2021-07-19T16:32:59.000Z</time>
      </trkpt>
      <trkpt lat="47.34508" lon="-1.28959">
        <ele>61</ele>
        <time>2021-07-19T16:33:01.000Z</time>
      </trkpt>
      <trkpt lat="47.34501" lon="-1.28972">
        <ele>60</ele>
        <time>2021-07-19T16:33:03.000Z</time>
      </trkpt>
      <trkpt lat="47.34493" lon="-1.28986">
        <ele>61</ele>
        <time>2021-07-19T16:33:05.000Z</time>
      </trkpt>
      <trkpt lat="47.34486" lon="-1.29002">
        <ele>60</ele>
        <time>2021-07-19T16:33:07.000Z</time>
      </trkpt>
      <trkpt lat="47.34479" lon="-1.29021">
        <ele>60</ele>
        <time>2021-07-19T16:33:09.000Z</time>
      </trkpt>
      <trkpt lat="47.34475" lon="-1.29041">
        <ele>59</ele>
        <time>2021-07-19T16:33:11.000Z</time>
      </trkpt>
      <trkpt lat="47.34469" lon="-1.29061">
        <ele>60</ele>
        <time>2021-07-19T16:33:13.000Z</time>
      </trkpt>
      <trkpt lat="47.34464" lon="-1.29082">
        <ele>60</ele>
        <time>2021-07-19T16:33:15.000Z</time>
      </trkpt>
      <trkpt lat="47.34459" lon="-1.29103">
        <ele>59</ele>
        <time>2021-07-19T16:33:17.000Z</time>
      </trkpt>
      <trkpt lat="47.34456" lon="-1.29121">
        <ele>59</ele>
        <time>2021-07-19T16:33:19.000Z</time>
      </trkpt>
      <trkpt lat="47.34446" lon="-1.29131">
        <ele>58</ele>
        <time>2021-07-19T16:33:21.000Z</time>
      </trkpt>
      <trkpt lat="47.3444" lon="-1.29148">
        <ele>57</ele>
        <time>2021-07-19T16:33:23.000Z</time>
      </trkpt>
      <trkpt lat="47.3444" lon="-1.2917">
        <ele>57</ele>
        <time>2021-07-19T16:33:25.000Z</time>
      </trkpt>
      <trkpt lat="47.34441" lon="-1.2919">
        <ele>57</ele>
        <time>2021-07-19T16:33:27.000Z</time>
      </trkpt>
      <trkpt lat="47.3444" lon="-1.29211">
        <ele>57</ele>
        <time>2021-07-19T16:33:29.000Z</time>
      </trkpt>
      <trkpt lat="47.34441" lon="-1.29231">
        <ele>57</ele>
        <time>2021-07-19T16:33:31.000Z</time>
      </trkpt>
      <trkpt lat="47.34442" lon="-1.29252">
        <ele>57</ele>
        <time>2021-07-19T16:33:33.000Z</time>
      </trkpt>
      <trkpt lat="47.34443" lon="-1.29273">
        <ele>56</ele>
        <time>2021-07-19T16:33:35.000Z</time>
      </trkpt>
      <trkpt lat="47.34443" lon="-1.29294">
        <ele>55</ele>
        <time>2021-07-19T16:33:37.000Z</time>
      </trkpt>
      <trkpt lat="47.34443" lon="-1.29316">
        <ele>55</ele>
        <time>2021-07-19T16:33:39.000Z</time>
      </trkpt>
      <trkpt lat="47.34443" lon="-1.29338">
        <ele>55</ele>
        <time>2021-07-19T16:33:41.000Z</time>
      </trkpt>
      <trkpt lat="47.34444" lon="-1.2936">
        <ele>54</ele>
        <time>2021-07-19T16:33:43.000Z</time>
      </trkpt>
      <trkpt lat="47.34445" lon="-1.29382">
        <ele>54</ele>
        <time>2021-07-19T16:33:45.000Z</time>
      </trkpt>
      <trkpt lat="47.34446" lon="-1.29403">
        <ele>54</ele>
        <time>2021-07-19T16:33:47.000Z</time>
      </trkpt>
      <trkpt lat="47.34444" lon="-1.29424">
        <ele>54</ele>
        <time>2021-07-19T16:33:49.000Z</time>
      </trkpt>
      <trkpt lat="47.34444" lon="-1.29444">
        <ele>54</ele>
        <time>2021-07-19T16:33:51.000Z</time>
      </trkpt>
      <trkpt lat="47.34441" lon="-1.29464">
        <ele>53</ele>
        <time>2021-07-19T16:33:53.000Z</time>
      </trkpt>
      <trkpt lat="47.34438" lon="-1.29484">
        <ele>53</ele>
        <time>2021-07-19T16:33:55.000Z</time>
      </trkpt>
      <trkpt lat="47.34436" lon="-1.29505">
        <ele>53</ele>
        <time>2021-07-19T16:33:57.000Z</time>
      </trkpt>
      <trkpt lat="47.34432" lon="-1.29526">
        <ele>53</ele>
        <time>2021-07-19T16:33:59.000Z</time>
      </trkpt>
      <trkpt lat="47.34429" lon="-1.29546">
        <ele>53</ele>
        <time>2021-07-19T16:34:01.000Z</time>
      </trkpt>
      <trkpt lat="47.34426" lon="-1.29567">
        <ele>54</ele>
        <time>2021-07-19T16:34:03.000Z</time>
      </trkpt>
      <trkpt lat="47.34424" lon="-1.29588">
        <ele>55</ele>
        <time>2021-07-19T16:34:05.000Z</time>
      </trkpt>
      <trkpt lat="47.34421" lon="-1.29609">
        <ele>55</ele>
        <time>2021-07-19T16:34:07.000Z</time>
      </trkpt>
      <trkpt lat="47.34416" lon="-1.29628">
        <ele>55</ele>
        <time>2021-07-19T16:34:09.000Z</time>
      </trkpt>
      <trkpt lat="47.3441" lon="-1.29647">
        <ele>54</ele>
        <time>2021-07-19T16:34:11.000Z</time>
      </trkpt>
      <trkpt lat="47.34402" lon="-1.29665">
        <ele>55</ele>
        <time>2021-07-19T16:34:13.000Z</time>
      </trkpt>
      <trkpt lat="47.34394" lon="-1.29681">
        <ele>55</ele>
        <time>2021-07-19T16:34:15.000Z</time>
      </trkpt>
      <trkpt lat="47.34385" lon="-1.29698">
        <ele>55</ele>
        <time>2021-07-19T16:34:17.000Z</time>
      </trkpt>
      <trkpt lat="47.34376" lon="-1.29715">
        <ele>55</ele>
        <time>2021-07-19T16:34:19.000Z</time>
      </trkpt>
      <trkpt lat="47.34368" lon="-1.29732">
        <ele>55</ele>
        <time>2021-07-19T16:34:21.000Z</time>
      </trkpt>
      <trkpt lat="47.34359" lon="-1.2975">
        <ele>55</ele>
        <time>2021-07-19T16:34:23.000Z</time>
      </trkpt>
      <trkpt lat="47.34351" lon="-1.29768">
        <ele>55</ele>
        <time>2021-07-19T16:34:25.000Z</time>
      </trkpt>
      <trkpt lat="47.34342" lon="-1.29786">
        <ele>55</ele>
        <time>2021-07-19T16:34:27.000Z</time>
      </trkpt>
      <trkpt lat="47.34334" lon="-1.29804">
        <ele>55</ele>
        <time>2021-07-19T16:34:29.000Z</time>
      </trkpt>
      <trkpt lat="47.34326" lon="-1.29822">
        <ele>56</ele>
        <time>2021-07-19T16:34:31.000Z</time>
      </trkpt>
      <trkpt lat="47.34319" lon="-1.29841">
        <ele>56</ele>
        <time>2021-07-19T16:34:33.000Z</time>
      </trkpt>
      <trkpt lat="47.34312" lon="-1.29859">
        <ele>56</ele>
        <time>2021-07-19T16:34:35.000Z</time>
      </trkpt>
      <trkpt lat="47.34305" lon="-1.29877">
        <ele>56</ele>
        <time>2021-07-19T16:34:37.000Z</time>
      </trkpt>
      <trkpt lat="47.34299" lon="-1.29896">
        <ele>56</ele>
        <time>2021-07-19T16:34:39.000Z</time>
      </trkpt>
      <trkpt lat="47.34293" lon="-1.29915">
        <ele>56</ele>
        <time>2021-07-19T16:34:41.000Z</time>
      </trkpt>
      <trkpt lat="47.34287" lon="-1.29934">
        <ele>56</ele>
        <time>2021-07-19T16:34:43.000Z</time>
      </trkpt>
      <trkpt lat="47.34281" lon="-1.29952">
        <ele>56</ele>
        <time>2021-07-19T16:34:45.000Z</time>
      </trkpt>
      <trkpt lat="47.34276" lon="-1.29971">
        <ele>56</ele>
        <time>2021-07-19T16:34:47.000Z</time>
      </trkpt>
      <trkpt lat="47.34273" lon="-1.29991">
        <ele>56</ele>
        <time>2021-07-19T16:34:49.000Z</time>
      </trkpt>
      <trkpt lat="47.34269" lon="-1.3001">
        <ele>56</ele>
        <time>2021-07-19T16:34:51.000Z</time>
      </trkpt>
      <trkpt lat="47.34264" lon="-1.30029">
        <ele>56</ele>
        <time>2021-07-19T16:34:53.000Z</time>
      </trkpt>
      <trkpt lat="47.34259" lon="-1.30048">
        <ele>56</ele>
        <time>2021-07-19T16:34:55.000Z</time>
      </trkpt>
      <trkpt lat="47.34255" lon="-1.30069">
        <ele>55</ele>
        <time>2021-07-19T16:34:57.000Z</time>
      </trkpt>
      <trkpt lat="47.3425" lon="-1.30088">
        <ele>55</ele>
        <time>2021-07-19T16:34:59.000Z</time>
      </trkpt>
      <trkpt lat="47.34245" lon="-1.30106">
        <ele>55</ele>
        <time>2021-07-19T16:35:01.000Z</time>
      </trkpt>
      <trkpt lat="47.34241" lon="-1.30124">
        <ele>55</ele>
        <time>2021-07-19T16:35:03.000Z</time>
      </trkpt>
      <trkpt lat="47.34236" lon="-1.30142">
        <ele>54</ele>
        <time>2021-07-19T16:35:05.000Z</time>
      </trkpt>
      <trkpt lat="47.34233" lon="-1.30159">
        <ele>53</ele>
        <time>2021-07-19T16:35:07.000Z</time>
      </trkpt>
      <trkpt lat="47.34228" lon="-1.30178">
        <ele>52</ele>
        <time>2021-07-19T16:35:09.000Z</time>
      </trkpt>
      <trkpt lat="47.34222" lon="-1.30196">
        <ele>52</ele>
        <time>2021-07-19T16:35:11.000Z</time>
      </trkpt>
      <trkpt lat="47.34216" lon="-1.30214">
        <ele>51</ele>
        <time>2021-07-19T16:35:13.000Z</time>
      </trkpt>
      <trkpt lat="47.3421" lon="-1.30234">
        <ele>52</ele>
        <time>2021-07-19T16:35:15.000Z</time>
      </trkpt>
      <trkpt lat="47.34202" lon="-1.30253">
        <ele>52</ele>
        <time>2021-07-19T16:35:17.000Z</time>
      </trkpt>
      <trkpt lat="47.34194" lon="-1.30272">
        <ele>52</ele>
        <time>2021-07-19T16:35:19.000Z</time>
      </trkpt>
      <trkpt lat="47.34186" lon="-1.3029">
        <ele>52</ele>
        <time>2021-07-19T16:35:21.000Z</time>
      </trkpt>
      <trkpt lat="47.34178" lon="-1.30307">
        <ele>53</ele>
        <time>2021-07-19T16:35:23.000Z</time>
      </trkpt>
      <trkpt lat="47.34171" lon="-1.30325">
        <ele>53</ele>
        <time>2021-07-19T16:35:25.000Z</time>
      </trkpt>
      <trkpt lat="47.34165" lon="-1.30341">
        <ele>54</ele>
        <time>2021-07-19T16:35:27.000Z</time>
      </trkpt>
      <trkpt lat="47.34159" lon="-1.30355">
        <ele>54</ele>
        <time>2021-07-19T16:35:29.000Z</time>
      </trkpt>
      <trkpt lat="47.34153" lon="-1.30369">
        <ele>55</ele>
        <time>2021-07-19T16:35:31.000Z</time>
      </trkpt>
      <trkpt lat="47.34145" lon="-1.30385">
        <ele>56</ele>
        <time>2021-07-19T16:35:33.000Z</time>
      </trkpt>
      <trkpt lat="47.34139" lon="-1.30399">
        <ele>57</ele>
        <time>2021-07-19T16:35:35.000Z</time>
      </trkpt>
      <trkpt lat="47.34132" lon="-1.30413">
        <ele>57</ele>
        <time>2021-07-19T16:35:37.000Z</time>
      </trkpt>
      <trkpt lat="47.34126" lon="-1.30425">
        <ele>59</ele>
        <time>2021-07-19T16:35:39.000Z</time>
      </trkpt>
      <trkpt lat="47.34119" lon="-1.30439">
        <ele>59</ele>
        <time>2021-07-19T16:35:41.000Z</time>
      </trkpt>
      <trkpt lat="47.34113" lon="-1.30455">
        <ele>59</ele>
        <time>2021-07-19T16:35:43.000Z</time>
      </trkpt>
      <trkpt lat="47.34106" lon="-1.30473">
        <ele>59</ele>
        <time>2021-07-19T16:35:45.000Z</time>
      </trkpt>
      <trkpt lat="47.34099" lon="-1.3049">
        <ele>58</ele>
        <time>2021-07-19T16:35:47.000Z</time>
      </trkpt>
      <trkpt lat="47.3409" lon="-1.30507">
        <ele>57</ele>
        <time>2021-07-19T16:35:49.000Z</time>
      </trkpt>
      <trkpt lat="47.34082" lon="-1.30525">
        <ele>57</ele>
        <time>2021-07-19T16:35:51.000Z</time>
      </trkpt>
      <trkpt lat="47.34073" lon="-1.30544">
        <ele>57</ele>
        <time>2021-07-19T16:35:53.000Z</time>
      </trkpt>
      <trkpt lat="47.34064" lon="-1.30562">
        <ele>57</ele>
        <time>2021-07-19T16:35:55.000Z</time>
      </trkpt>
      <trkpt lat="47.34055" lon="-1.30579">
        <ele>57</ele>
        <time>2021-07-19T16:35:57.000Z</time>
      </trkpt>
      <trkpt lat="47.34044" lon="-1.30596">
        <ele>57</ele>
        <time>2021-07-19T16:35:59.000Z</time>
      </trkpt>
      <trkpt lat="47.34036" lon="-1.30614">
        <ele>57</ele>
        <time>2021-07-19T16:36:01.000Z</time>
      </trkpt>
      <trkpt lat="47.34028" lon="-1.30631">
        <ele>57</ele>
        <time>2021-07-19T16:36:03.000Z</time>
      </trkpt>
      <trkpt lat="47.3402" lon="-1.30646">
        <ele>57</ele>
        <time>2021-07-19T16:36:05.000Z</time>
      </trkpt>
      <trkpt lat="47.3401" lon="-1.30659">
        <ele>57</ele>
        <time>2021-07-19T16:36:07.000Z</time>
      </trkpt>
      <trkpt lat="47.34001" lon="-1.30673">
        <ele>57</ele>
        <time>2021-07-19T16:36:09.000Z</time>
      </trkpt>
      <trkpt lat="47.33992" lon="-1.30685">
        <ele>57</ele>
        <time>2021-07-19T16:36:11.000Z</time>
      </trkpt>
      <trkpt lat="47.33983" lon="-1.30694">
        <ele>58</ele>
        <time>2021-07-19T16:36:13.000Z</time>
      </trkpt>
      <trkpt lat="47.33972" lon="-1.3069">
        <ele>58</ele>
        <time>2021-07-19T16:36:16.000Z</time>
      </trkpt>
      <trkpt lat="47.33965" lon="-1.30681">
        <ele>57</ele>
        <time>2021-07-19T16:36:18.000Z</time>
      </trkpt>
      <trkpt lat="47.33955" lon="-1.30682">
        <ele>56</ele>
        <time>2021-07-19T16:36:20.000Z</time>
      </trkpt>
      <trkpt lat="47.33944" lon="-1.30696">
        <ele>55</ele>
        <time>2021-07-19T16:36:23.000Z</time>
      </trkpt>
      <trkpt lat="47.33935" lon="-1.30708">
        <ele>54</ele>
        <time>2021-07-19T16:36:25.000Z</time>
      </trkpt>
      <trkpt lat="47.33927" lon="-1.3072">
        <ele>54</ele>
        <time>2021-07-19T16:36:27.000Z</time>
      </trkpt>
      <trkpt lat="47.33919" lon="-1.30734">
        <ele>54</ele>
        <time>2021-07-19T16:36:29.000Z</time>
      </trkpt>
      <trkpt lat="47.3391" lon="-1.30746">
        <ele>54</ele>
        <time>2021-07-19T16:36:31.000Z</time>
      </trkpt>
      <trkpt lat="47.339" lon="-1.30756">
        <ele>54</ele>
        <time>2021-07-19T16:36:33.000Z</time>
      </trkpt>
      <trkpt lat="47.3389" lon="-1.30766">
        <ele>54</ele>
        <time>2021-07-19T16:36:35.000Z</time>
      </trkpt>
      <trkpt lat="47.33879" lon="-1.30777">
        <ele>54</ele>
        <time>2021-07-19T16:36:37.000Z</time>
      </trkpt>
      <trkpt lat="47.33869" lon="-1.30788">
        <ele>54</ele>
        <time>2021-07-19T16:36:39.000Z</time>
      </trkpt>
      <trkpt lat="47.33859" lon="-1.30797">
        <ele>54</ele>
        <time>2021-07-19T16:36:41.000Z</time>
      </trkpt>
      <trkpt lat="47.33848" lon="-1.30807">
        <ele>54</ele>
        <time>2021-07-19T16:36:43.000Z</time>
      </trkpt>
      <trkpt lat="47.33838" lon="-1.30817">
        <ele>55</ele>
        <time>2021-07-19T16:36:45.000Z</time>
      </trkpt>
      <trkpt lat="47.33828" lon="-1.30827">
        <ele>55</ele>
        <time>2021-07-19T16:36:47.000Z</time>
      </trkpt>
      <trkpt lat="47.33817" lon="-1.30837">
        <ele>54</ele>
        <time>2021-07-19T16:36:49.000Z</time>
      </trkpt>
      <trkpt lat="47.33802" lon="-1.30852">
        <ele>55</ele>
        <time>2021-07-19T16:36:52.000Z</time>
      </trkpt>
      <trkpt lat="47.33786" lon="-1.30868">
        <ele>55</ele>
        <time>2021-07-19T16:36:55.000Z</time>
      </trkpt>
      <trkpt lat="47.33776" lon="-1.30878">
        <ele>54</ele>
        <time>2021-07-19T16:36:57.000Z</time>
      </trkpt>
      <trkpt lat="47.33767" lon="-1.30889">
        <ele>54</ele>
        <time>2021-07-19T16:36:59.000Z</time>
      </trkpt>
      <trkpt lat="47.33757" lon="-1.30899">
        <ele>54</ele>
        <time>2021-07-19T16:37:01.000Z</time>
      </trkpt>
      <trkpt lat="47.33748" lon="-1.30909">
        <ele>55</ele>
        <time>2021-07-19T16:37:03.000Z</time>
      </trkpt>
      <trkpt lat="47.33738" lon="-1.3092">
        <ele>55</ele>
        <time>2021-07-19T16:37:05.000Z</time>
      </trkpt>
      <trkpt lat="47.33729" lon="-1.3093">
        <ele>56</ele>
        <time>2021-07-19T16:37:07.000Z</time>
      </trkpt>
      <trkpt lat="47.33722" lon="-1.30939">
        <ele>56</ele>
        <time>2021-07-19T16:37:09.000Z</time>
      </trkpt>
      <trkpt lat="47.33714" lon="-1.30949">
        <ele>56</ele>
        <time>2021-07-19T16:37:11.000Z</time>
      </trkpt>
      <trkpt lat="47.33705" lon="-1.3096">
        <ele>56</ele>
        <time>2021-07-19T16:37:13.000Z</time>
      </trkpt>
      <trkpt lat="47.33696" lon="-1.30971">
        <ele>56</ele>
        <time>2021-07-19T16:37:15.000Z</time>
      </trkpt>
      <trkpt lat="47.33687" lon="-1.30979">
        <ele>56</ele>
        <time>2021-07-19T16:37:17.000Z</time>
      </trkpt>
      <trkpt lat="47.33678" lon="-1.30986">
        <ele>55</ele>
        <time>2021-07-19T16:37:22.000Z</time>
      </trkpt>
      <trkpt lat="47.33673" lon="-1.30999">
        <ele>54</ele>
        <time>2021-07-19T16:37:25.000Z</time>
      </trkpt>
      <trkpt lat="47.33665" lon="-1.31012">
        <ele>54</ele>
        <time>2021-07-19T16:37:27.000Z</time>
      </trkpt>
      <trkpt lat="47.33656" lon="-1.31027">
        <ele>54</ele>
        <time>2021-07-19T16:37:29.000Z</time>
      </trkpt>
      <trkpt lat="47.33647" lon="-1.3104">
        <ele>54</ele>
        <time>2021-07-19T16:37:31.000Z</time>
      </trkpt>
      <trkpt lat="47.33638" lon="-1.31053">
        <ele>55</ele>
        <time>2021-07-19T16:37:33.000Z</time>
      </trkpt>
      <trkpt lat="47.3363" lon="-1.31067">
        <ele>55</ele>
        <time>2021-07-19T16:37:35.000Z</time>
      </trkpt>
      <trkpt lat="47.33622" lon="-1.31079">
        <ele>54</ele>
        <time>2021-07-19T16:37:37.000Z</time>
      </trkpt>
      <trkpt lat="47.33614" lon="-1.31091">
        <ele>55</ele>
        <time>2021-07-19T16:37:39.000Z</time>
      </trkpt>
      <trkpt lat="47.33607" lon="-1.31104">
        <ele>54</ele>
        <time>2021-07-19T16:37:41.000Z</time>
      </trkpt>
      <trkpt lat="47.33598" lon="-1.31117">
        <ele>54</ele>
        <time>2021-07-19T16:37:43.000Z</time>
      </trkpt>
      <trkpt lat="47.33589" lon="-1.31131">
        <ele>54</ele>
        <time>2021-07-19T16:37:45.000Z</time>
      </trkpt>
      <trkpt lat="47.33582" lon="-1.31146">
        <ele>54</ele>
        <time>2021-07-19T16:37:47.000Z</time>
      </trkpt>
      <trkpt lat="47.33574" lon="-1.31161">
        <ele>54</ele>
        <time>2021-07-19T16:37:49.000Z</time>
      </trkpt>
      <trkpt lat="47.33566" lon="-1.31176">
        <ele>54</ele>
        <time>2021-07-19T16:37:51.000Z</time>
      </trkpt>
      <trkpt lat="47.33559" lon="-1.31191">
        <ele>54</ele>
        <time>2021-07-19T16:37:53.000Z</time>
      </trkpt>
      <trkpt lat="47.33551" lon="-1.31206">
        <ele>54</ele>
        <time>2021-07-19T16:37:55.000Z</time>
      </trkpt>
      <trkpt lat="47.33543" lon="-1.31221">
        <ele>54</ele>
        <time>2021-07-19T16:37:57.000Z</time>
      </trkpt>
      <trkpt lat="47.33536" lon="-1.31235">
        <ele>54</ele>
        <time>2021-07-19T16:37:59.000Z</time>
      </trkpt>
      <trkpt lat="47.33528" lon="-1.31249">
        <ele>54</ele>
        <time>2021-07-19T16:38:01.000Z</time>
      </trkpt>
      <trkpt lat="47.33521" lon="-1.31264">
        <ele>54</ele>
        <time>2021-07-19T16:38:03.000Z</time>
      </trkpt>
      <trkpt lat="47.33514" lon="-1.31277">
        <ele>54</ele>
        <time>2021-07-19T16:38:05.000Z</time>
      </trkpt>
      <trkpt lat="47.33507" lon="-1.31288">
        <ele>54</ele>
        <time>2021-07-19T16:38:07.000Z</time>
      </trkpt>
      <trkpt lat="47.335" lon="-1.31301">
        <ele>53</ele>
        <time>2021-07-19T16:38:09.000Z</time>
      </trkpt>
      <trkpt lat="47.33493" lon="-1.31316">
        <ele>52</ele>
        <time>2021-07-19T16:38:11.000Z</time>
      </trkpt>
      <trkpt lat="47.33485" lon="-1.3133">
        <ele>52</ele>
        <time>2021-07-19T16:38:13.000Z</time>
      </trkpt>
      <trkpt lat="47.33477" lon="-1.31344">
        <ele>52</ele>
        <time>2021-07-19T16:38:15.000Z</time>
      </trkpt>
      <trkpt lat="47.33469" lon="-1.31359">
        <ele>52</ele>
        <time>2021-07-19T16:38:17.000Z</time>
      </trkpt>
      <trkpt lat="47.33462" lon="-1.31373">
        <ele>52</ele>
        <time>2021-07-19T16:38:19.000Z</time>
      </trkpt>
      <trkpt lat="47.33456" lon="-1.31387">
        <ele>51</ele>
        <time>2021-07-19T16:38:21.000Z</time>
      </trkpt>
      <trkpt lat="47.33449" lon="-1.314">
        <ele>50</ele>
        <time>2021-07-19T16:38:23.000Z</time>
      </trkpt>
      <trkpt lat="47.33442" lon="-1.31415">
        <ele>50</ele>
        <time>2021-07-19T16:38:25.000Z</time>
      </trkpt>
      <trkpt lat="47.33436" lon="-1.3143">
        <ele>50</ele>
        <time>2021-07-19T16:38:27.000Z</time>
      </trkpt>
      <trkpt lat="47.33428" lon="-1.31444">
        <ele>50</ele>
        <time>2021-07-19T16:38:29.000Z</time>
      </trkpt>
      <trkpt lat="47.33421" lon="-1.31458">
        <ele>50</ele>
        <time>2021-07-19T16:38:31.000Z</time>
      </trkpt>
      <trkpt lat="47.33414" lon="-1.31473">
        <ele>50</ele>
        <time>2021-07-19T16:38:33.000Z</time>
      </trkpt>
      <trkpt lat="47.33407" lon="-1.31487">
        <ele>51</ele>
        <time>2021-07-19T16:38:35.000Z</time>
      </trkpt>
      <trkpt lat="47.33399" lon="-1.31502">
        <ele>51</ele>
        <time>2021-07-19T16:38:37.000Z</time>
      </trkpt>
      <trkpt lat="47.33391" lon="-1.31516">
        <ele>51</ele>
        <time>2021-07-19T16:38:39.000Z</time>
      </trkpt>
      <trkpt lat="47.33384" lon="-1.3153">
        <ele>51</ele>
        <time>2021-07-19T16:38:41.000Z</time>
      </trkpt>
      <trkpt lat="47.33376" lon="-1.31544">
        <ele>50</ele>
        <time>2021-07-19T16:38:43.000Z</time>
      </trkpt>
      <trkpt lat="47.33369" lon="-1.31559">
        <ele>50</ele>
        <time>2021-07-19T16:38:45.000Z</time>
      </trkpt>
      <trkpt lat="47.33361" lon="-1.31574">
        <ele>49</ele>
        <time>2021-07-19T16:38:47.000Z</time>
      </trkpt>
      <trkpt lat="47.33353" lon="-1.31589">
        <ele>48</ele>
        <time>2021-07-19T16:38:49.000Z</time>
      </trkpt>
      <trkpt lat="47.33344" lon="-1.31605">
        <ele>48</ele>
        <time>2021-07-19T16:38:51.000Z</time>
      </trkpt>
      <trkpt lat="47.33336" lon="-1.3162">
        <ele>48</ele>
        <time>2021-07-19T16:38:53.000Z</time>
      </trkpt>
      <trkpt lat="47.33327" lon="-1.31635">
        <ele>48</ele>
        <time>2021-07-19T16:38:55.000Z</time>
      </trkpt>
      <trkpt lat="47.3332" lon="-1.3165">
        <ele>48</ele>
        <time>2021-07-19T16:38:57.000Z</time>
      </trkpt>
      <trkpt lat="47.33313" lon="-1.31665">
        <ele>48</ele>
        <time>2021-07-19T16:38:59.000Z</time>
      </trkpt>
      <trkpt lat="47.33307" lon="-1.31681">
        <ele>48</ele>
        <time>2021-07-19T16:39:01.000Z</time>
      </trkpt>
      <trkpt lat="47.33299" lon="-1.31697">
        <ele>47</ele>
        <time>2021-07-19T16:39:03.000Z</time>
      </trkpt>
      <trkpt lat="47.3329" lon="-1.31712">
        <ele>48</ele>
        <time>2021-07-19T16:39:05.000Z</time>
      </trkpt>
      <trkpt lat="47.33282" lon="-1.31728">
        <ele>48</ele>
        <time>2021-07-19T16:39:07.000Z</time>
      </trkpt>
      <trkpt lat="47.33274" lon="-1.31744">
        <ele>48</ele>
        <time>2021-07-19T16:39:09.000Z</time>
      </trkpt>
      <trkpt lat="47.33266" lon="-1.31759">
        <ele>48</ele>
        <time>2021-07-19T16:39:11.000Z</time>
      </trkpt>
      <trkpt lat="47.33258" lon="-1.31774">
        <ele>48</ele>
        <time>2021-07-19T16:39:13.000Z</time>
      </trkpt>
      <trkpt lat="47.33251" lon="-1.31789">
        <ele>49</ele>
        <time>2021-07-19T16:39:15.000Z</time>
      </trkpt>
      <trkpt lat="47.33243" lon="-1.31804">
        <ele>49</ele>
        <time>2021-07-19T16:39:17.000Z</time>
      </trkpt>
      <trkpt lat="47.33235" lon="-1.3182">
        <ele>49</ele>
        <time>2021-07-19T16:39:19.000Z</time>
      </trkpt>
      <trkpt lat="47.33227" lon="-1.31835">
        <ele>49</ele>
        <time>2021-07-19T16:39:21.000Z</time>
      </trkpt>
      <trkpt lat="47.3322" lon="-1.3185">
        <ele>49</ele>
        <time>2021-07-19T16:39:23.000Z</time>
      </trkpt>
      <trkpt lat="47.33212" lon="-1.31865">
        <ele>49</ele>
        <time>2021-07-19T16:39:25.000Z</time>
      </trkpt>
      <trkpt lat="47.33204" lon="-1.31881">
        <ele>50</ele>
        <time>2021-07-19T16:39:27.000Z</time>
      </trkpt>
      <trkpt lat="47.33197" lon="-1.31896">
        <ele>49</ele>
        <time>2021-07-19T16:39:29.000Z</time>
      </trkpt>
      <trkpt lat="47.33189" lon="-1.31911">
        <ele>49</ele>
        <time>2021-07-19T16:39:31.000Z</time>
      </trkpt>
      <trkpt lat="47.3318" lon="-1.31926">
        <ele>50</ele>
        <time>2021-07-19T16:39:33.000Z</time>
      </trkpt>
      <trkpt lat="47.33173" lon="-1.3194">
        <ele>50</ele>
        <time>2021-07-19T16:39:35.000Z</time>
      </trkpt>
      <trkpt lat="47.33165" lon="-1.31955">
        <ele>50</ele>
        <time>2021-07-19T16:39:37.000Z</time>
      </trkpt>
      <trkpt lat="47.33158" lon="-1.31968">
        <ele>50</ele>
        <time>2021-07-19T16:39:39.000Z</time>
      </trkpt>
      <trkpt lat="47.3315" lon="-1.31977">
        <ele>50</ele>
        <time>2021-07-19T16:39:41.000Z</time>
      </trkpt>
      <trkpt lat="47.3314" lon="-1.31983">
        <ele>50</ele>
        <time>2021-07-19T16:39:43.000Z</time>
      </trkpt>
      <trkpt lat="47.3313" lon="-1.31992">
        <ele>50</ele>
        <time>2021-07-19T16:39:45.000Z</time>
      </trkpt>
      <trkpt lat="47.3312" lon="-1.32002">
        <ele>51</ele>
        <time>2021-07-19T16:39:47.000Z</time>
      </trkpt>
      <trkpt lat="47.33113" lon="-1.32012">
        <ele>52</ele>
        <time>2021-07-19T16:39:49.000Z</time>
      </trkpt>
      <trkpt lat="47.33107" lon="-1.32024">
        <ele>52</ele>
        <time>2021-07-19T16:39:51.000Z</time>
      </trkpt>
      <trkpt lat="47.33101" lon="-1.32036">
        <ele>52</ele>
        <time>2021-07-19T16:39:53.000Z</time>
      </trkpt>
      <trkpt lat="47.33096" lon="-1.32047">
        <ele>53</ele>
        <time>2021-07-19T16:39:55.000Z</time>
      </trkpt>
      <trkpt lat="47.33098" lon="-1.32061">
        <ele>54</ele>
        <time>2021-07-19T16:39:57.000Z</time>
      </trkpt>
      <trkpt lat="47.33097" lon="-1.32076">
        <ele>54</ele>
        <time>2021-07-19T16:39:59.000Z</time>
      </trkpt>
      <trkpt lat="47.33093" lon="-1.32092">
        <ele>53</ele>
        <time>2021-07-19T16:40:01.000Z</time>
      </trkpt>
      <trkpt lat="47.33086" lon="-1.32108">
        <ele>53</ele>
        <time>2021-07-19T16:40:03.000Z</time>
      </trkpt>
      <trkpt lat="47.33078" lon="-1.32122">
        <ele>53</ele>
        <time>2021-07-19T16:40:05.000Z</time>
      </trkpt>
      <trkpt lat="47.33069" lon="-1.32136">
        <ele>54</ele>
        <time>2021-07-19T16:40:07.000Z</time>
      </trkpt>
      <trkpt lat="47.33062" lon="-1.32151">
        <ele>54</ele>
        <time>2021-07-19T16:40:09.000Z</time>
      </trkpt>
      <trkpt lat="47.33055" lon="-1.32166">
        <ele>55</ele>
        <time>2021-07-19T16:40:11.000Z</time>
      </trkpt>
      <trkpt lat="47.33049" lon="-1.32182">
        <ele>55</ele>
        <time>2021-07-19T16:40:13.000Z</time>
      </trkpt>
      <trkpt lat="47.33042" lon="-1.32197">
        <ele>55</ele>
        <time>2021-07-19T16:40:15.000Z</time>
      </trkpt>
      <trkpt lat="47.33033" lon="-1.32213">
        <ele>55</ele>
        <time>2021-07-19T16:40:17.000Z</time>
      </trkpt>
      <trkpt lat="47.33024" lon="-1.32229">
        <ele>55</ele>
        <time>2021-07-19T16:40:19.000Z</time>
      </trkpt>
      <trkpt lat="47.33016" lon="-1.32245">
        <ele>56</ele>
        <time>2021-07-19T16:40:21.000Z</time>
      </trkpt>
      <trkpt lat="47.33008" lon="-1.3226">
        <ele>56</ele>
        <time>2021-07-19T16:40:23.000Z</time>
      </trkpt>
      <trkpt lat="47.33" lon="-1.32275">
        <ele>56</ele>
        <time>2021-07-19T16:40:25.000Z</time>
      </trkpt>
      <trkpt lat="47.32992" lon="-1.3229">
        <ele>56</ele>
        <time>2021-07-19T16:40:27.000Z</time>
      </trkpt>
      <trkpt lat="47.32984" lon="-1.32306">
        <ele>55</ele>
        <time>2021-07-19T16:40:29.000Z</time>
      </trkpt>
      <trkpt lat="47.32976" lon="-1.32321">
        <ele>55</ele>
        <time>2021-07-19T16:40:31.000Z</time>
      </trkpt>
      <trkpt lat="47.32968" lon="-1.32336">
        <ele>55</ele>
        <time>2021-07-19T16:40:33.000Z</time>
      </trkpt>
      <trkpt lat="47.3296" lon="-1.32352">
        <ele>55</ele>
        <time>2021-07-19T16:40:35.000Z</time>
      </trkpt>
      <trkpt lat="47.32952" lon="-1.32367">
        <ele>54</ele>
        <time>2021-07-19T16:40:37.000Z</time>
      </trkpt>
      <trkpt lat="47.32943" lon="-1.32383">
        <ele>54</ele>
        <time>2021-07-19T16:40:39.000Z</time>
      </trkpt>
      <trkpt lat="47.32935" lon="-1.32398">
        <ele>54</ele>
        <time>2021-07-19T16:40:41.000Z</time>
      </trkpt>
      <trkpt lat="47.32927" lon="-1.32413">
        <ele>53</ele>
        <time>2021-07-19T16:40:43.000Z</time>
      </trkpt>
      <trkpt lat="47.32919" lon="-1.32428">
        <ele>53</ele>
        <time>2021-07-19T16:40:45.000Z</time>
      </trkpt>
      <trkpt lat="47.32911" lon="-1.32444">
        <ele>53</ele>
        <time>2021-07-19T16:40:47.000Z</time>
      </trkpt>
      <trkpt lat="47.32903" lon="-1.3246">
        <ele>53</ele>
        <time>2021-07-19T16:40:49.000Z</time>
      </trkpt>
      <trkpt lat="47.32895" lon="-1.32475">
        <ele>53</ele>
        <time>2021-07-19T16:40:51.000Z</time>
      </trkpt>
      <trkpt lat="47.32887" lon="-1.32491">
        <ele>53</ele>
        <time>2021-07-19T16:40:53.000Z</time>
      </trkpt>
      <trkpt lat="47.32879" lon="-1.32506">
        <ele>53</ele>
        <time>2021-07-19T16:40:55.000Z</time>
      </trkpt>
      <trkpt lat="47.32871" lon="-1.32521">
        <ele>53</ele>
        <time>2021-07-19T16:40:57.000Z</time>
      </trkpt>
      <trkpt lat="47.32863" lon="-1.32537">
        <ele>52</ele>
        <time>2021-07-19T16:40:59.000Z</time>
      </trkpt>
      <trkpt lat="47.32855" lon="-1.32553">
        <ele>52</ele>
        <time>2021-07-19T16:41:01.000Z</time>
      </trkpt>
      <trkpt lat="47.32847" lon="-1.32568">
        <ele>52</ele>
        <time>2021-07-19T16:41:03.000Z</time>
      </trkpt>
      <trkpt lat="47.32839" lon="-1.32584">
        <ele>52</ele>
        <time>2021-07-19T16:41:05.000Z</time>
      </trkpt>
      <trkpt lat="47.32831" lon="-1.32598">
        <ele>53</ele>
        <time>2021-07-19T16:41:07.000Z</time>
      </trkpt>
      <trkpt lat="47.32823" lon="-1.32612">
        <ele>52</ele>
        <time>2021-07-19T16:41:09.000Z</time>
      </trkpt>
      <trkpt lat="47.32814" lon="-1.32625">
        <ele>52</ele>
        <time>2021-07-19T16:41:11.000Z</time>
      </trkpt>
      <trkpt lat="47.32806" lon="-1.32638">
        <ele>52</ele>
        <time>2021-07-19T16:41:13.000Z</time>
      </trkpt>
      <trkpt lat="47.32797" lon="-1.32651">
        <ele>52</ele>
        <time>2021-07-19T16:41:15.000Z</time>
      </trkpt>
      <trkpt lat="47.32789" lon="-1.32665">
        <ele>52</ele>
        <time>2021-07-19T16:41:17.000Z</time>
      </trkpt>
      <trkpt lat="47.32782" lon="-1.3268">
        <ele>51</ele>
        <time>2021-07-19T16:41:19.000Z</time>
      </trkpt>
      <trkpt lat="47.32776" lon="-1.32697">
        <ele>51</ele>
        <time>2021-07-19T16:41:21.000Z</time>
      </trkpt>
      <trkpt lat="47.3277" lon="-1.32715">
        <ele>51</ele>
        <time>2021-07-19T16:41:23.000Z</time>
      </trkpt>
      <trkpt lat="47.32762" lon="-1.32731">
        <ele>51</ele>
        <time>2021-07-19T16:41:25.000Z</time>
      </trkpt>
      <trkpt lat="47.32754" lon="-1.32747">
        <ele>51</ele>
        <time>2021-07-19T16:41:27.000Z</time>
      </trkpt>
      <trkpt lat="47.32746" lon="-1.32761">
        <ele>51</ele>
        <time>2021-07-19T16:41:29.000Z</time>
      </trkpt>
      <trkpt lat="47.32737" lon="-1.32775">
        <ele>51</ele>
        <time>2021-07-19T16:41:31.000Z</time>
      </trkpt>
      <trkpt lat="47.32729" lon="-1.3279">
        <ele>51</ele>
        <time>2021-07-19T16:41:33.000Z</time>
      </trkpt>
      <trkpt lat="47.32721" lon="-1.32804">
        <ele>51</ele>
        <time>2021-07-19T16:41:35.000Z</time>
      </trkpt>
      <trkpt lat="47.32712" lon="-1.32819">
        <ele>51</ele>
        <time>2021-07-19T16:41:37.000Z</time>
      </trkpt>
      <trkpt lat="47.32703" lon="-1.32833">
        <ele>52</ele>
        <time>2021-07-19T16:41:39.000Z</time>
      </trkpt>
      <trkpt lat="47.32694" lon="-1.32847">
        <ele>52</ele>
        <time>2021-07-19T16:41:41.000Z</time>
      </trkpt>
      <trkpt lat="47.32685" lon="-1.32861">
        <ele>52</ele>
        <time>2021-07-19T16:41:43.000Z</time>
      </trkpt>
      <trkpt lat="47.32677" lon="-1.32874">
        <ele>51</ele>
        <time>2021-07-19T16:41:45.000Z</time>
      </trkpt>
      <trkpt lat="47.32668" lon="-1.32886">
        <ele>51</ele>
        <time>2021-07-19T16:41:47.000Z</time>
      </trkpt>
      <trkpt lat="47.32659" lon="-1.32899">
        <ele>51</ele>
        <time>2021-07-19T16:41:49.000Z</time>
      </trkpt>
      <trkpt lat="47.32649" lon="-1.32911">
        <ele>51</ele>
        <time>2021-07-19T16:41:51.000Z</time>
      </trkpt>
      <trkpt lat="47.32641" lon="-1.32922">
        <ele>51</ele>
        <time>2021-07-19T16:41:53.000Z</time>
      </trkpt>
      <trkpt lat="47.32631" lon="-1.32932">
        <ele>51</ele>
        <time>2021-07-19T16:41:55.000Z</time>
      </trkpt>
      <trkpt lat="47.32622" lon="-1.3294">
        <ele>52</ele>
        <time>2021-07-19T16:41:57.000Z</time>
      </trkpt>
      <trkpt lat="47.32614" lon="-1.32949">
        <ele>53</ele>
        <time>2021-07-19T16:41:59.000Z</time>
      </trkpt>
      <trkpt lat="47.32607" lon="-1.32959">
        <ele>54</ele>
        <time>2021-07-19T16:42:01.000Z</time>
      </trkpt>
      <trkpt lat="47.326" lon="-1.32971">
        <ele>54</ele>
        <time>2021-07-19T16:42:03.000Z</time>
      </trkpt>
      <trkpt lat="47.32593" lon="-1.32983">
        <ele>54</ele>
        <time>2021-07-19T16:42:05.000Z</time>
      </trkpt>
      <trkpt lat="47.32585" lon="-1.32992">
        <ele>56</ele>
        <time>2021-07-19T16:42:07.000Z</time>
      </trkpt>
      <trkpt lat="47.32577" lon="-1.33002">
        <ele>56</ele>
        <time>2021-07-19T16:42:09.000Z</time>
      </trkpt>
      <trkpt lat="47.32569" lon="-1.33011">
        <ele>57</ele>
        <time>2021-07-19T16:42:11.000Z</time>
      </trkpt>
      <trkpt lat="47.3256" lon="-1.3302">
        <ele>57</ele>
        <time>2021-07-19T16:42:13.000Z</time>
      </trkpt>
      <trkpt lat="47.3255" lon="-1.33029">
        <ele>57</ele>
        <time>2021-07-19T16:42:15.000Z</time>
      </trkpt>
      <trkpt lat="47.3254" lon="-1.33038">
        <ele>57</ele>
        <time>2021-07-19T16:42:17.000Z</time>
      </trkpt>
      <trkpt lat="47.32527" lon="-1.33049">
        <ele>56</ele>
        <time>2021-07-19T16:42:19.000Z</time>
      </trkpt>
      <trkpt lat="47.32516" lon="-1.3306">
        <ele>56</ele>
        <time>2021-07-19T16:42:21.000Z</time>
      </trkpt>
      <trkpt lat="47.32505" lon="-1.33071">
        <ele>56</ele>
        <time>2021-07-19T16:42:23.000Z</time>
      </trkpt>
      <trkpt lat="47.32494" lon="-1.33081">
        <ele>56</ele>
        <time>2021-07-19T16:42:25.000Z</time>
      </trkpt>
      <trkpt lat="47.32484" lon="-1.33091">
        <ele>55</ele>
        <time>2021-07-19T16:42:27.000Z</time>
      </trkpt>
      <trkpt lat="47.32474" lon="-1.33103">
        <ele>55</ele>
        <time>2021-07-19T16:42:29.000Z</time>
      </trkpt>
      <trkpt lat="47.32464" lon="-1.33115">
        <ele>54</ele>
        <time>2021-07-19T16:42:31.000Z</time>
      </trkpt>
      <trkpt lat="47.32455" lon="-1.33126">
        <ele>54</ele>
        <time>2021-07-19T16:42:33.000Z</time>
      </trkpt>
      <trkpt lat="47.32447" lon="-1.33136">
        <ele>55</ele>
        <time>2021-07-19T16:42:35.000Z</time>
      </trkpt>
      <trkpt lat="47.32435" lon="-1.33141">
        <ele>54</ele>
        <time>2021-07-19T16:42:38.000Z</time>
      </trkpt>
      <trkpt lat="47.32422" lon="-1.33142">
        <ele>54</ele>
        <time>2021-07-19T16:42:41.000Z</time>
      </trkpt>
      <trkpt lat="47.32414" lon="-1.33151">
        <ele>53</ele>
        <time>2021-07-19T16:42:43.000Z</time>
      </trkpt>
      <trkpt lat="47.32406" lon="-1.33161">
        <ele>53</ele>
        <time>2021-07-19T16:42:45.000Z</time>
      </trkpt>
      <trkpt lat="47.32397" lon="-1.33173">
        <ele>53</ele>
        <time>2021-07-19T16:42:47.000Z</time>
      </trkpt>
      <trkpt lat="47.32389" lon="-1.33187">
        <ele>53</ele>
        <time>2021-07-19T16:42:49.000Z</time>
      </trkpt>
      <trkpt lat="47.3238" lon="-1.33201">
        <ele>53</ele>
        <time>2021-07-19T16:42:51.000Z</time>
      </trkpt>
      <trkpt lat="47.32372" lon="-1.33215">
        <ele>53</ele>
        <time>2021-07-19T16:42:53.000Z</time>
      </trkpt>
      <trkpt lat="47.32365" lon="-1.33229">
        <ele>54</ele>
        <time>2021-07-19T16:42:55.000Z</time>
      </trkpt>
      <trkpt lat="47.32358" lon="-1.33244">
        <ele>55</ele>
        <time>2021-07-19T16:42:57.000Z</time>
      </trkpt>
      <trkpt lat="47.32351" lon="-1.3326">
        <ele>56</ele>
        <time>2021-07-19T16:42:59.000Z</time>
      </trkpt>
      <trkpt lat="47.32343" lon="-1.33277">
        <ele>56</ele>
        <time>2021-07-19T16:43:01.000Z</time>
      </trkpt>
      <trkpt lat="47.32336" lon="-1.33293">
        <ele>56</ele>
        <time>2021-07-19T16:43:03.000Z</time>
      </trkpt>
      <trkpt lat="47.32329" lon="-1.33309">
        <ele>56</ele>
        <time>2021-07-19T16:43:05.000Z</time>
      </trkpt>
      <trkpt lat="47.32321" lon="-1.33326">
        <ele>56</ele>
        <time>2021-07-19T16:43:07.000Z</time>
      </trkpt>
      <trkpt lat="47.32314" lon="-1.33342">
        <ele>55</ele>
        <time>2021-07-19T16:43:09.000Z</time>
      </trkpt>
      <trkpt lat="47.32307" lon="-1.33359">
        <ele>55</ele>
        <time>2021-07-19T16:43:11.000Z</time>
      </trkpt>
      <trkpt lat="47.323" lon="-1.33374">
        <ele>55</ele>
        <time>2021-07-19T16:43:13.000Z</time>
      </trkpt>
      <trkpt lat="47.32292" lon="-1.3339">
        <ele>54</ele>
        <time>2021-07-19T16:43:15.000Z</time>
      </trkpt>
      <trkpt lat="47.32284" lon="-1.33405">
        <ele>55</ele>
        <time>2021-07-19T16:43:17.000Z</time>
      </trkpt>
      <trkpt lat="47.32276" lon="-1.33422">
        <ele>54</ele>
        <time>2021-07-19T16:43:19.000Z</time>
      </trkpt>
      <trkpt lat="47.32269" lon="-1.33439">
        <ele>55</ele>
        <time>2021-07-19T16:43:21.000Z</time>
      </trkpt>
      <trkpt lat="47.32261" lon="-1.33456">
        <ele>55</ele>
        <time>2021-07-19T16:43:23.000Z</time>
      </trkpt>
      <trkpt lat="47.32254" lon="-1.33473">
        <ele>54</ele>
        <time>2021-07-19T16:43:25.000Z</time>
      </trkpt>
      <trkpt lat="47.32246" lon="-1.33489">
        <ele>54</ele>
        <time>2021-07-19T16:43:27.000Z</time>
      </trkpt>
      <trkpt lat="47.32239" lon="-1.33504">
        <ele>54</ele>
        <time>2021-07-19T16:43:29.000Z</time>
      </trkpt>
      <trkpt lat="47.32232" lon="-1.3352">
        <ele>54</ele>
        <time>2021-07-19T16:43:31.000Z</time>
      </trkpt>
      <trkpt lat="47.32224" lon="-1.33535">
        <ele>53</ele>
        <time>2021-07-19T16:43:33.000Z</time>
      </trkpt>
      <trkpt lat="47.32217" lon="-1.33551">
        <ele>53</ele>
        <time>2021-07-19T16:43:35.000Z</time>
      </trkpt>
      <trkpt lat="47.32212" lon="-1.33566">
        <ele>52</ele>
        <time>2021-07-19T16:43:37.000Z</time>
      </trkpt>
      <trkpt lat="47.32205" lon="-1.33582">
        <ele>52</ele>
        <time>2021-07-19T16:43:39.000Z</time>
      </trkpt>
      <trkpt lat="47.32198" lon="-1.33597">
        <ele>51</ele>
        <time>2021-07-19T16:43:41.000Z</time>
      </trkpt>
      <trkpt lat="47.32192" lon="-1.33611">
        <ele>51</ele>
        <time>2021-07-19T16:43:43.000Z</time>
      </trkpt>
      <trkpt lat="47.32187" lon="-1.33626">
        <ele>51</ele>
        <time>2021-07-19T16:43:45.000Z</time>
      </trkpt>
      <trkpt lat="47.32181" lon="-1.33637">
        <ele>51</ele>
        <time>2021-07-19T16:43:47.000Z</time>
      </trkpt>
      <trkpt lat="47.32176" lon="-1.33652">
        <ele>51</ele>
        <time>2021-07-19T16:43:50.000Z</time>
      </trkpt>
      <trkpt lat="47.3217" lon="-1.33664">
        <ele>51</ele>
        <time>2021-07-19T16:43:52.000Z</time>
      </trkpt>
      <trkpt lat="47.32164" lon="-1.33678">
        <ele>51</ele>
        <time>2021-07-19T16:43:54.000Z</time>
      </trkpt>
      <trkpt lat="47.32159" lon="-1.33694">
        <ele>51</ele>
        <time>2021-07-19T16:43:56.000Z</time>
      </trkpt>
      <trkpt lat="47.32154" lon="-1.33711">
        <ele>51</ele>
        <time>2021-07-19T16:43:58.000Z</time>
      </trkpt>
      <trkpt lat="47.32148" lon="-1.33727">
        <ele>50</ele>
        <time>2021-07-19T16:44:00.000Z</time>
      </trkpt>
      <trkpt lat="47.32141" lon="-1.33743">
        <ele>49</ele>
        <time>2021-07-19T16:44:02.000Z</time>
      </trkpt>
      <trkpt lat="47.32134" lon="-1.33759">
        <ele>49</ele>
        <time>2021-07-19T16:44:04.000Z</time>
      </trkpt>
      <trkpt lat="47.32128" lon="-1.33776">
        <ele>49</ele>
        <time>2021-07-19T16:44:06.000Z</time>
      </trkpt>
      <trkpt lat="47.3212" lon="-1.33792">
        <ele>49</ele>
        <time>2021-07-19T16:44:08.000Z</time>
      </trkpt>
      <trkpt lat="47.32114" lon="-1.33807">
        <ele>49</ele>
        <time>2021-07-19T16:44:10.000Z</time>
      </trkpt>
      <trkpt lat="47.32107" lon="-1.33822">
        <ele>49</ele>
        <time>2021-07-19T16:44:12.000Z</time>
      </trkpt>
      <trkpt lat="47.32099" lon="-1.33838">
        <ele>48</ele>
        <time>2021-07-19T16:44:14.000Z</time>
      </trkpt>
      <trkpt lat="47.32092" lon="-1.33854">
        <ele>49</ele>
        <time>2021-07-19T16:44:16.000Z</time>
      </trkpt>
      <trkpt lat="47.32084" lon="-1.33869">
        <ele>49</ele>
        <time>2021-07-19T16:44:18.000Z</time>
      </trkpt>
      <trkpt lat="47.32076" lon="-1.33884">
        <ele>49</ele>
        <time>2021-07-19T16:44:20.000Z</time>
      </trkpt>
      <trkpt lat="47.32068" lon="-1.33899">
        <ele>49</ele>
        <time>2021-07-19T16:44:22.000Z</time>
      </trkpt>
      <trkpt lat="47.3206" lon="-1.33913">
        <ele>49</ele>
        <time>2021-07-19T16:44:24.000Z</time>
      </trkpt>
      <trkpt lat="47.32051" lon="-1.33927">
        <ele>50</ele>
        <time>2021-07-19T16:44:26.000Z</time>
      </trkpt>
      <trkpt lat="47.32042" lon="-1.33941">
        <ele>50</ele>
        <time>2021-07-19T16:44:28.000Z</time>
      </trkpt>
      <trkpt lat="47.32036" lon="-1.33954">
        <ele>51</ele>
        <time>2021-07-19T16:44:30.000Z</time>
      </trkpt>
      <trkpt lat="47.32029" lon="-1.3397">
        <ele>52</ele>
        <time>2021-07-19T16:44:33.000Z</time>
      </trkpt>
      <trkpt lat="47.32021" lon="-1.33981">
        <ele>52</ele>
        <time>2021-07-19T16:44:35.000Z</time>
      </trkpt>
      <trkpt lat="47.32011" lon="-1.33994">
        <ele>51</ele>
        <time>2021-07-19T16:44:37.000Z</time>
      </trkpt>
      <trkpt lat="47.32001" lon="-1.34009">
        <ele>51</ele>
        <time>2021-07-19T16:44:39.000Z</time>
      </trkpt>
      <trkpt lat="47.31992" lon="-1.34025">
        <ele>50</ele>
        <time>2021-07-19T16:44:41.000Z</time>
      </trkpt>
      <trkpt lat="47.31983" lon="-1.34039">
        <ele>51</ele>
        <time>2021-07-19T16:44:43.000Z</time>
      </trkpt>
      <trkpt lat="47.31973" lon="-1.34052">
        <ele>51</ele>
        <time>2021-07-19T16:44:45.000Z</time>
      </trkpt>
      <trkpt lat="47.31964" lon="-1.34066">
        <ele>50</ele>
        <time>2021-07-19T16:44:47.000Z</time>
      </trkpt>
      <trkpt lat="47.31956" lon="-1.34081">
        <ele>50</ele>
        <time>2021-07-19T16:44:49.000Z</time>
      </trkpt>
      <trkpt lat="47.31947" lon="-1.34096">
        <ele>50</ele>
        <time>2021-07-19T16:44:51.000Z</time>
      </trkpt>
      <trkpt lat="47.31938" lon="-1.3411">
        <ele>51</ele>
        <time>2021-07-19T16:44:53.000Z</time>
      </trkpt>
      <trkpt lat="47.31929" lon="-1.34125">
        <ele>51</ele>
        <time>2021-07-19T16:44:55.000Z</time>
      </trkpt>
      <trkpt lat="47.3192" lon="-1.3414">
        <ele>52</ele>
        <time>2021-07-19T16:44:57.000Z</time>
      </trkpt>
      <trkpt lat="47.3191" lon="-1.34154">
        <ele>53</ele>
        <time>2021-07-19T16:44:59.000Z</time>
      </trkpt>
      <trkpt lat="47.319" lon="-1.34168">
        <ele>53</ele>
        <time>2021-07-19T16:45:01.000Z</time>
      </trkpt>
      <trkpt lat="47.31889" lon="-1.34182">
        <ele>51</ele>
        <time>2021-07-19T16:45:03.000Z</time>
      </trkpt>
      <trkpt lat="47.31878" lon="-1.34197">
        <ele>51</ele>
        <time>2021-07-19T16:45:05.000Z</time>
      </trkpt>
      <trkpt lat="47.31868" lon="-1.34212">
        <ele>52</ele>
        <time>2021-07-19T16:45:07.000Z</time>
      </trkpt>
      <trkpt lat="47.31859" lon="-1.34227">
        <ele>52</ele>
        <time>2021-07-19T16:45:09.000Z</time>
      </trkpt>
      <trkpt lat="47.31849" lon="-1.34242">
        <ele>52</ele>
        <time>2021-07-19T16:45:11.000Z</time>
      </trkpt>
      <trkpt lat="47.3184" lon="-1.34256">
        <ele>52</ele>
        <time>2021-07-19T16:45:13.000Z</time>
      </trkpt>
      <trkpt lat="47.31831" lon="-1.34272">
        <ele>52</ele>
        <time>2021-07-19T16:45:15.000Z</time>
      </trkpt>
      <trkpt lat="47.31822" lon="-1.34286">
        <ele>52</ele>
        <time>2021-07-19T16:45:17.000Z</time>
      </trkpt>
      <trkpt lat="47.31813" lon="-1.34301">
        <ele>52</ele>
        <time>2021-07-19T16:45:19.000Z</time>
      </trkpt>
      <trkpt lat="47.31804" lon="-1.34315">
        <ele>52</ele>
        <time>2021-07-19T16:45:21.000Z</time>
      </trkpt>
      <trkpt lat="47.31795" lon="-1.34329">
        <ele>51</ele>
        <time>2021-07-19T16:45:23.000Z</time>
      </trkpt>
      <trkpt lat="47.31786" lon="-1.34343">
        <ele>51</ele>
        <time>2021-07-19T16:45:25.000Z</time>
      </trkpt>
      <trkpt lat="47.31776" lon="-1.34356">
        <ele>51</ele>
        <time>2021-07-19T16:45:27.000Z</time>
      </trkpt>
      <trkpt lat="47.31767" lon="-1.3437">
        <ele>51</ele>
        <time>2021-07-19T16:45:29.000Z</time>
      </trkpt>
      <trkpt lat="47.31759" lon="-1.34384">
        <ele>50</ele>
        <time>2021-07-19T16:45:31.000Z</time>
      </trkpt>
      <trkpt lat="47.31751" lon="-1.34398">
        <ele>50</ele>
        <time>2021-07-19T16:45:33.000Z</time>
      </trkpt>
      <trkpt lat="47.31741" lon="-1.34413">
        <ele>50</ele>
        <time>2021-07-19T16:45:35.000Z</time>
      </trkpt>
      <trkpt lat="47.31732" lon="-1.34428">
        <ele>49</ele>
        <time>2021-07-19T16:45:37.000Z</time>
      </trkpt>
      <trkpt lat="47.31724" lon="-1.34443">
        <ele>49</ele>
        <time>2021-07-19T16:45:39.000Z</time>
      </trkpt>
      <trkpt lat="47.31715" lon="-1.34457">
        <ele>49</ele>
        <time>2021-07-19T16:45:41.000Z</time>
      </trkpt>
      <trkpt lat="47.31706" lon="-1.34471">
        <ele>49</ele>
        <time>2021-07-19T16:45:43.000Z</time>
      </trkpt>
      <trkpt lat="47.31698" lon="-1.34485">
        <ele>48</ele>
        <time>2021-07-19T16:45:45.000Z</time>
      </trkpt>
      <trkpt lat="47.31688" lon="-1.34499">
        <ele>48</ele>
        <time>2021-07-19T16:45:47.000Z</time>
      </trkpt>
      <trkpt lat="47.31678" lon="-1.34513">
        <ele>48</ele>
        <time>2021-07-19T16:45:49.000Z</time>
      </trkpt>
      <trkpt lat="47.31669" lon="-1.34527">
        <ele>48</ele>
        <time>2021-07-19T16:45:51.000Z</time>
      </trkpt>
      <trkpt lat="47.31661" lon="-1.34541">
        <ele>49</ele>
        <time>2021-07-19T16:45:53.000Z</time>
      </trkpt>
      <trkpt lat="47.31652" lon="-1.34555">
        <ele>49</ele>
        <time>2021-07-19T16:45:55.000Z</time>
      </trkpt>
      <trkpt lat="47.31645" lon="-1.34569">
        <ele>49</ele>
        <time>2021-07-19T16:45:57.000Z</time>
      </trkpt>
      <trkpt lat="47.31638" lon="-1.34581">
        <ele>48</ele>
        <time>2021-07-19T16:45:59.000Z</time>
      </trkpt>
      <trkpt lat="47.31629" lon="-1.34594">
        <ele>47</ele>
        <time>2021-07-19T16:46:01.000Z</time>
      </trkpt>
      <trkpt lat="47.3162" lon="-1.34608">
        <ele>47</ele>
        <time>2021-07-19T16:46:03.000Z</time>
      </trkpt>
      <trkpt lat="47.31611" lon="-1.34622">
        <ele>46</ele>
        <time>2021-07-19T16:46:05.000Z</time>
      </trkpt>
      <trkpt lat="47.31602" lon="-1.34636">
        <ele>46</ele>
        <time>2021-07-19T16:46:07.000Z</time>
      </trkpt>
      <trkpt lat="47.31593" lon="-1.3465">
        <ele>46</ele>
        <time>2021-07-19T16:46:09.000Z</time>
      </trkpt>
      <trkpt lat="47.31584" lon="-1.34664">
        <ele>46</ele>
        <time>2021-07-19T16:46:11.000Z</time>
      </trkpt>
      <trkpt lat="47.31575" lon="-1.34678">
        <ele>46</ele>
        <time>2021-07-19T16:46:13.000Z</time>
      </trkpt>
      <trkpt lat="47.31566" lon="-1.34692">
        <ele>46</ele>
        <time>2021-07-19T16:46:15.000Z</time>
      </trkpt>
      <trkpt lat="47.31558" lon="-1.34706">
        <ele>46</ele>
        <time>2021-07-19T16:46:17.000Z</time>
      </trkpt>
      <trkpt lat="47.3155" lon="-1.34719">
        <ele>46</ele>
        <time>2021-07-19T16:46:19.000Z</time>
      </trkpt>
      <trkpt lat="47.31541" lon="-1.34733">
        <ele>44</ele>
        <time>2021-07-19T16:46:21.000Z</time>
      </trkpt>
      <trkpt lat="47.31532" lon="-1.34746">
        <ele>45</ele>
        <time>2021-07-19T16:46:23.000Z</time>
      </trkpt>
      <trkpt lat="47.31523" lon="-1.34759">
        <ele>45</ele>
        <time>2021-07-19T16:46:25.000Z</time>
      </trkpt>
      <trkpt lat="47.31514" lon="-1.34773">
        <ele>45</ele>
        <time>2021-07-19T16:46:27.000Z</time>
      </trkpt>
      <trkpt lat="47.31505" lon="-1.34787">
        <ele>45</ele>
        <time>2021-07-19T16:46:29.000Z</time>
      </trkpt>
      <trkpt lat="47.31497" lon="-1.348">
        <ele>45</ele>
        <time>2021-07-19T16:46:31.000Z</time>
      </trkpt>
      <trkpt lat="47.31488" lon="-1.34813">
        <ele>45</ele>
        <time>2021-07-19T16:46:33.000Z</time>
      </trkpt>
      <trkpt lat="47.31479" lon="-1.34828">
        <ele>45</ele>
        <time>2021-07-19T16:46:35.000Z</time>
      </trkpt>
      <trkpt lat="47.3147" lon="-1.34842">
        <ele>45</ele>
        <time>2021-07-19T16:46:37.000Z</time>
      </trkpt>
      <trkpt lat="47.31461" lon="-1.34856">
        <ele>45</ele>
        <time>2021-07-19T16:46:39.000Z</time>
      </trkpt>
      <trkpt lat="47.31452" lon="-1.34869">
        <ele>45</ele>
        <time>2021-07-19T16:46:41.000Z</time>
      </trkpt>
      <trkpt lat="47.31443" lon="-1.34884">
        <ele>45</ele>
        <time>2021-07-19T16:46:43.000Z</time>
      </trkpt>
      <trkpt lat="47.31435" lon="-1.34897">
        <ele>45</ele>
        <time>2021-07-19T16:46:45.000Z</time>
      </trkpt>
      <trkpt lat="47.31427" lon="-1.34911">
        <ele>45</ele>
        <time>2021-07-19T16:46:47.000Z</time>
      </trkpt>
      <trkpt lat="47.31418" lon="-1.34925">
        <ele>46</ele>
        <time>2021-07-19T16:46:49.000Z</time>
      </trkpt>
      <trkpt lat="47.3141" lon="-1.34938">
        <ele>46</ele>
        <time>2021-07-19T16:46:51.000Z</time>
      </trkpt>
      <trkpt lat="47.31401" lon="-1.34952">
        <ele>47</ele>
        <time>2021-07-19T16:46:53.000Z</time>
      </trkpt>
      <trkpt lat="47.31393" lon="-1.34967">
        <ele>47</ele>
        <time>2021-07-19T16:46:55.000Z</time>
      </trkpt>
      <trkpt lat="47.31384" lon="-1.3498">
        <ele>47</ele>
        <time>2021-07-19T16:46:57.000Z</time>
      </trkpt>
      <trkpt lat="47.31376" lon="-1.34995">
        <ele>47</ele>
        <time>2021-07-19T16:46:59.000Z</time>
      </trkpt>
      <trkpt lat="47.31368" lon="-1.3501">
        <ele>47</ele>
        <time>2021-07-19T16:47:01.000Z</time>
      </trkpt>
      <trkpt lat="47.31359" lon="-1.35025">
        <ele>47</ele>
        <time>2021-07-19T16:47:03.000Z</time>
      </trkpt>
      <trkpt lat="47.3135" lon="-1.35038">
        <ele>47</ele>
        <time>2021-07-19T16:47:05.000Z</time>
      </trkpt>
      <trkpt lat="47.31342" lon="-1.35052">
        <ele>47</ele>
        <time>2021-07-19T16:47:07.000Z</time>
      </trkpt>
      <trkpt lat="47.31334" lon="-1.35066">
        <ele>47</ele>
        <time>2021-07-19T16:47:09.000Z</time>
      </trkpt>
      <trkpt lat="47.31325" lon="-1.35079">
        <ele>48</ele>
        <time>2021-07-19T16:47:11.000Z</time>
      </trkpt>
      <trkpt lat="47.31314" lon="-1.35085">
        <ele>49</ele>
        <time>2021-07-19T16:47:13.000Z</time>
      </trkpt>
      <trkpt lat="47.31303" lon="-1.35093">
        <ele>50</ele>
        <time>2021-07-19T16:47:15.000Z</time>
      </trkpt>
      <trkpt lat="47.31295" lon="-1.35107">
        <ele>51</ele>
        <time>2021-07-19T16:47:17.000Z</time>
      </trkpt>
      <trkpt lat="47.31288" lon="-1.35121">
        <ele>52</ele>
        <time>2021-07-19T16:47:19.000Z</time>
      </trkpt>
      <trkpt lat="47.31283" lon="-1.35137">
        <ele>52</ele>
        <time>2021-07-19T16:47:21.000Z</time>
      </trkpt>
      <trkpt lat="47.31276" lon="-1.35152">
        <ele>53</ele>
        <time>2021-07-19T16:47:23.000Z</time>
      </trkpt>
      <trkpt lat="47.31267" lon="-1.35167">
        <ele>53</ele>
        <time>2021-07-19T16:47:25.000Z</time>
      </trkpt>
      <trkpt lat="47.31258" lon="-1.35182">
        <ele>53</ele>
        <time>2021-07-19T16:47:27.000Z</time>
      </trkpt>
      <trkpt lat="47.31249" lon="-1.35196">
        <ele>54</ele>
        <time>2021-07-19T16:47:29.000Z</time>
      </trkpt>
      <trkpt lat="47.3124" lon="-1.35211">
        <ele>55</ele>
        <time>2021-07-19T16:47:31.000Z</time>
      </trkpt>
      <trkpt lat="47.3123" lon="-1.35226">
        <ele>55</ele>
        <time>2021-07-19T16:47:33.000Z</time>
      </trkpt>
      <trkpt lat="47.31221" lon="-1.35241">
        <ele>55</ele>
        <time>2021-07-19T16:47:35.000Z</time>
      </trkpt>
      <trkpt lat="47.31211" lon="-1.35256">
        <ele>55</ele>
        <time>2021-07-19T16:47:37.000Z</time>
      </trkpt>
      <trkpt lat="47.31202" lon="-1.35271">
        <ele>55</ele>
        <time>2021-07-19T16:47:39.000Z</time>
      </trkpt>
      <trkpt lat="47.31192" lon="-1.35286">
        <ele>55</ele>
        <time>2021-07-19T16:47:41.000Z</time>
      </trkpt>
      <trkpt lat="47.31183" lon="-1.353">
        <ele>55</ele>
        <time>2021-07-19T16:47:43.000Z</time>
      </trkpt>
      <trkpt lat="47.31173" lon="-1.35315">
        <ele>55</ele>
        <time>2021-07-19T16:47:45.000Z</time>
      </trkpt>
      <trkpt lat="47.31164" lon="-1.3533">
        <ele>55</ele>
        <time>2021-07-19T16:47:47.000Z</time>
      </trkpt>
      <trkpt lat="47.31154" lon="-1.35345">
        <ele>55</ele>
        <time>2021-07-19T16:47:49.000Z</time>
      </trkpt>
      <trkpt lat="47.31144" lon="-1.3536">
        <ele>55</ele>
        <time>2021-07-19T16:47:51.000Z</time>
      </trkpt>
      <trkpt lat="47.31135" lon="-1.35375">
        <ele>54</ele>
        <time>2021-07-19T16:47:53.000Z</time>
      </trkpt>
      <trkpt lat="47.31125" lon="-1.35389">
        <ele>53</ele>
        <time>2021-07-19T16:47:55.000Z</time>
      </trkpt>
      <trkpt lat="47.31115" lon="-1.35404">
        <ele>52</ele>
        <time>2021-07-19T16:47:57.000Z</time>
      </trkpt>
      <trkpt lat="47.31105" lon="-1.35419">
        <ele>51</ele>
        <time>2021-07-19T16:47:59.000Z</time>
      </trkpt>
      <trkpt lat="47.31094" lon="-1.35433">
        <ele>51</ele>
        <time>2021-07-19T16:48:01.000Z</time>
      </trkpt>
      <trkpt lat="47.31083" lon="-1.35448">
        <ele>51</ele>
        <time>2021-07-19T16:48:03.000Z</time>
      </trkpt>
      <trkpt lat="47.31072" lon="-1.35462">
        <ele>50</ele>
        <time>2021-07-19T16:48:05.000Z</time>
      </trkpt>
      <trkpt lat="47.31061" lon="-1.35476">
        <ele>50</ele>
        <time>2021-07-19T16:48:07.000Z</time>
      </trkpt>
      <trkpt lat="47.3105" lon="-1.35489">
        <ele>50</ele>
        <time>2021-07-19T16:48:09.000Z</time>
      </trkpt>
      <trkpt lat="47.31039" lon="-1.35503">
        <ele>50</ele>
        <time>2021-07-19T16:48:11.000Z</time>
      </trkpt>
      <trkpt lat="47.31027" lon="-1.35517">
        <ele>50</ele>
        <time>2021-07-19T16:48:13.000Z</time>
      </trkpt>
      <trkpt lat="47.31016" lon="-1.35529">
        <ele>51</ele>
        <time>2021-07-19T16:48:15.000Z</time>
      </trkpt>
      <trkpt lat="47.31004" lon="-1.35543">
        <ele>51</ele>
        <time>2021-07-19T16:48:17.000Z</time>
      </trkpt>
      <trkpt lat="47.30993" lon="-1.35556">
        <ele>50</ele>
        <time>2021-07-19T16:48:19.000Z</time>
      </trkpt>
      <trkpt lat="47.30981" lon="-1.35569">
        <ele>51</ele>
        <time>2021-07-19T16:48:21.000Z</time>
      </trkpt>
      <trkpt lat="47.30969" lon="-1.35584">
        <ele>52</ele>
        <time>2021-07-19T16:48:23.000Z</time>
      </trkpt>
      <trkpt lat="47.30957" lon="-1.35598">
        <ele>52</ele>
        <time>2021-07-19T16:48:25.000Z</time>
      </trkpt>
      <trkpt lat="47.30946" lon="-1.35611">
        <ele>52</ele>
        <time>2021-07-19T16:48:27.000Z</time>
      </trkpt>
      <trkpt lat="47.30935" lon="-1.35623">
        <ele>52</ele>
        <time>2021-07-19T16:48:29.000Z</time>
      </trkpt>
      <trkpt lat="47.30924" lon="-1.35636">
        <ele>51</ele>
        <time>2021-07-19T16:48:31.000Z</time>
      </trkpt>
      <trkpt lat="47.30913" lon="-1.35648">
        <ele>52</ele>
        <time>2021-07-19T16:48:33.000Z</time>
      </trkpt>
      <trkpt lat="47.30902" lon="-1.3566">
        <ele>52</ele>
        <time>2021-07-19T16:48:35.000Z</time>
      </trkpt>
      <trkpt lat="47.3089" lon="-1.35673">
        <ele>52</ele>
        <time>2021-07-19T16:48:37.000Z</time>
      </trkpt>
      <trkpt lat="47.30879" lon="-1.35686">
        <ele>52</ele>
        <time>2021-07-19T16:48:39.000Z</time>
      </trkpt>
      <trkpt lat="47.30868" lon="-1.35699">
        <ele>53</ele>
        <time>2021-07-19T16:48:41.000Z</time>
      </trkpt>
      <trkpt lat="47.30857" lon="-1.35713">
        <ele>53</ele>
        <time>2021-07-19T16:48:43.000Z</time>
      </trkpt>
      <trkpt lat="47.30846" lon="-1.35727">
        <ele>53</ele>
        <time>2021-07-19T16:48:45.000Z</time>
      </trkpt>
      <trkpt lat="47.30835" lon="-1.3574">
        <ele>52</ele>
        <time>2021-07-19T16:48:47.000Z</time>
      </trkpt>
      <trkpt lat="47.30824" lon="-1.35753">
        <ele>52</ele>
        <time>2021-07-19T16:48:49.000Z</time>
      </trkpt>
      <trkpt lat="47.30813" lon="-1.35767">
        <ele>51</ele>
        <time>2021-07-19T16:48:51.000Z</time>
      </trkpt>
      <trkpt lat="47.30802" lon="-1.35779">
        <ele>51</ele>
        <time>2021-07-19T16:48:53.000Z</time>
      </trkpt>
      <trkpt lat="47.30791" lon="-1.35792">
        <ele>51</ele>
        <time>2021-07-19T16:48:55.000Z</time>
      </trkpt>
      <trkpt lat="47.3078" lon="-1.35805">
        <ele>51</ele>
        <time>2021-07-19T16:48:57.000Z</time>
      </trkpt>
      <trkpt lat="47.30769" lon="-1.35818">
        <ele>51</ele>
        <time>2021-07-19T16:48:59.000Z</time>
      </trkpt>
      <trkpt lat="47.30758" lon="-1.3583">
        <ele>51</ele>
        <time>2021-07-19T16:49:01.000Z</time>
      </trkpt>
      <trkpt lat="47.30747" lon="-1.35843">
        <ele>51</ele>
        <time>2021-07-19T16:49:03.000Z</time>
      </trkpt>
      <trkpt lat="47.30737" lon="-1.35855">
        <ele>51</ele>
        <time>2021-07-19T16:49:05.000Z</time>
      </trkpt>
      <trkpt lat="47.30727" lon="-1.35868">
        <ele>51</ele>
        <time>2021-07-19T16:49:07.000Z</time>
      </trkpt>
      <trkpt lat="47.30716" lon="-1.3588">
        <ele>51</ele>
        <time>2021-07-19T16:49:09.000Z</time>
      </trkpt>
      <trkpt lat="47.30706" lon="-1.35891">
        <ele>51</ele>
        <time>2021-07-19T16:49:11.000Z</time>
      </trkpt>
      <trkpt lat="47.30695" lon="-1.35904">
        <ele>51</ele>
        <time>2021-07-19T16:49:13.000Z</time>
      </trkpt>
      <trkpt lat="47.30684" lon="-1.35917">
        <ele>51</ele>
        <time>2021-07-19T16:49:15.000Z</time>
      </trkpt>
      <trkpt lat="47.30674" lon="-1.35929">
        <ele>52</ele>
        <time>2021-07-19T16:49:17.000Z</time>
      </trkpt>
      <trkpt lat="47.30663" lon="-1.35941">
        <ele>51</ele>
        <time>2021-07-19T16:49:19.000Z</time>
      </trkpt>
      <trkpt lat="47.30653" lon="-1.35953">
        <ele>51</ele>
        <time>2021-07-19T16:49:21.000Z</time>
      </trkpt>
      <trkpt lat="47.30643" lon="-1.35964">
        <ele>50</ele>
        <time>2021-07-19T16:49:23.000Z</time>
      </trkpt>
      <trkpt lat="47.30632" lon="-1.35977">
        <ele>50</ele>
        <time>2021-07-19T16:49:25.000Z</time>
      </trkpt>
      <trkpt lat="47.30622" lon="-1.35989">
        <ele>49</ele>
        <time>2021-07-19T16:49:27.000Z</time>
      </trkpt>
      <trkpt lat="47.30612" lon="-1.36002">
        <ele>51</ele>
        <time>2021-07-19T16:49:29.000Z</time>
      </trkpt>
      <trkpt lat="47.30603" lon="-1.36012">
        <ele>51</ele>
        <time>2021-07-19T16:49:31.000Z</time>
      </trkpt>
      <trkpt lat="47.30592" lon="-1.36022">
        <ele>51</ele>
        <time>2021-07-19T16:49:33.000Z</time>
      </trkpt>
      <trkpt lat="47.30585" lon="-1.36034">
        <ele>51</ele>
        <time>2021-07-19T16:49:36.000Z</time>
      </trkpt>
      <trkpt lat="47.30581" lon="-1.36051">
        <ele>51</ele>
        <time>2021-07-19T16:49:39.000Z</time>
      </trkpt>
      <trkpt lat="47.30571" lon="-1.36062">
        <ele>51</ele>
        <time>2021-07-19T16:49:41.000Z</time>
      </trkpt>
      <trkpt lat="47.30562" lon="-1.36074">
        <ele>50</ele>
        <time>2021-07-19T16:49:43.000Z</time>
      </trkpt>
      <trkpt lat="47.30552" lon="-1.36088">
        <ele>51</ele>
        <time>2021-07-19T16:49:45.000Z</time>
      </trkpt>
      <trkpt lat="47.30542" lon="-1.36102">
        <ele>51</ele>
        <time>2021-07-19T16:49:47.000Z</time>
      </trkpt>
      <trkpt lat="47.30534" lon="-1.36117">
        <ele>51</ele>
        <time>2021-07-19T16:49:49.000Z</time>
      </trkpt>
      <trkpt lat="47.30524" lon="-1.36132">
        <ele>51</ele>
        <time>2021-07-19T16:49:51.000Z</time>
      </trkpt>
      <trkpt lat="47.30514" lon="-1.36147">
        <ele>50</ele>
        <time>2021-07-19T16:49:53.000Z</time>
      </trkpt>
      <trkpt lat="47.30506" lon="-1.36162">
        <ele>50</ele>
        <time>2021-07-19T16:49:55.000Z</time>
      </trkpt>
      <trkpt lat="47.30497" lon="-1.36177">
        <ele>50</ele>
        <time>2021-07-19T16:49:57.000Z</time>
      </trkpt>
      <trkpt lat="47.30488" lon="-1.36193">
        <ele>50</ele>
        <time>2021-07-19T16:49:59.000Z</time>
      </trkpt>
      <trkpt lat="47.3048" lon="-1.3621">
        <ele>51</ele>
        <time>2021-07-19T16:50:01.000Z</time>
      </trkpt>
      <trkpt lat="47.30472" lon="-1.36227">
        <ele>51</ele>
        <time>2021-07-19T16:50:03.000Z</time>
      </trkpt>
      <trkpt lat="47.30463" lon="-1.36243">
        <ele>50</ele>
        <time>2021-07-19T16:50:05.000Z</time>
      </trkpt>
      <trkpt lat="47.30455" lon="-1.36259">
        <ele>50</ele>
        <time>2021-07-19T16:50:07.000Z</time>
      </trkpt>
      <trkpt lat="47.30446" lon="-1.36276">
        <ele>51</ele>
        <time>2021-07-19T16:50:09.000Z</time>
      </trkpt>
      <trkpt lat="47.30438" lon="-1.36292">
        <ele>51</ele>
        <time>2021-07-19T16:50:11.000Z</time>
      </trkpt>
      <trkpt lat="47.30431" lon="-1.36308">
        <ele>50</ele>
        <time>2021-07-19T16:50:13.000Z</time>
      </trkpt>
      <trkpt lat="47.30422" lon="-1.36325">
        <ele>50</ele>
        <time>2021-07-19T16:50:15.000Z</time>
      </trkpt>
      <trkpt lat="47.30414" lon="-1.36341">
        <ele>50</ele>
        <time>2021-07-19T16:50:17.000Z</time>
      </trkpt>
      <trkpt lat="47.30407" lon="-1.36358">
        <ele>49</ele>
        <time>2021-07-19T16:50:19.000Z</time>
      </trkpt>
      <trkpt lat="47.30399" lon="-1.36374">
        <ele>49</ele>
        <time>2021-07-19T16:50:21.000Z</time>
      </trkpt>
      <trkpt lat="47.30391" lon="-1.3639">
        <ele>48</ele>
        <time>2021-07-19T16:50:23.000Z</time>
      </trkpt>
      <trkpt lat="47.30384" lon="-1.36406">
        <ele>48</ele>
        <time>2021-07-19T16:50:25.000Z</time>
      </trkpt>
      <trkpt lat="47.30376" lon="-1.36423">
        <ele>49</ele>
        <time>2021-07-19T16:50:27.000Z</time>
      </trkpt>
      <trkpt lat="47.30368" lon="-1.36439">
        <ele>48</ele>
        <time>2021-07-19T16:50:29.000Z</time>
      </trkpt>
      <trkpt lat="47.30359" lon="-1.36456">
        <ele>49</ele>
        <time>2021-07-19T16:50:31.000Z</time>
      </trkpt>
      <trkpt lat="47.30351" lon="-1.36472">
        <ele>48</ele>
        <time>2021-07-19T16:50:33.000Z</time>
      </trkpt>
      <trkpt lat="47.30344" lon="-1.36488">
        <ele>49</ele>
        <time>2021-07-19T16:50:35.000Z</time>
      </trkpt>
      <trkpt lat="47.30336" lon="-1.36504">
        <ele>48</ele>
        <time>2021-07-19T16:50:37.000Z</time>
      </trkpt>
      <trkpt lat="47.30328" lon="-1.3652">
        <ele>47</ele>
        <time>2021-07-19T16:50:39.000Z</time>
      </trkpt>
      <trkpt lat="47.3032" lon="-1.36536">
        <ele>47</ele>
        <time>2021-07-19T16:50:41.000Z</time>
      </trkpt>
      <trkpt lat="47.30312" lon="-1.36551">
        <ele>47</ele>
        <time>2021-07-19T16:50:43.000Z</time>
      </trkpt>
      <trkpt lat="47.30305" lon="-1.36568">
        <ele>47</ele>
        <time>2021-07-19T16:50:45.000Z</time>
      </trkpt>
      <trkpt lat="47.30293" lon="-1.36593">
        <ele>46</ele>
        <time>2021-07-19T16:50:48.000Z</time>
      </trkpt>
      <trkpt lat="47.30286" lon="-1.36609">
        <ele>46</ele>
        <time>2021-07-19T16:50:50.000Z</time>
      </trkpt>
      <trkpt lat="47.30278" lon="-1.36625">
        <ele>46</ele>
        <time>2021-07-19T16:50:52.000Z</time>
      </trkpt>
      <trkpt lat="47.3027" lon="-1.36641">
        <ele>46</ele>
        <time>2021-07-19T16:50:54.000Z</time>
      </trkpt>
      <trkpt lat="47.30263" lon="-1.36657">
        <ele>46</ele>
        <time>2021-07-19T16:50:56.000Z</time>
      </trkpt>
      <trkpt lat="47.30251" lon="-1.36681">
        <ele>46</ele>
        <time>2021-07-19T16:50:59.000Z</time>
      </trkpt>
      <trkpt lat="47.30242" lon="-1.36698">
        <ele>47</ele>
        <time>2021-07-19T16:51:01.000Z</time>
      </trkpt>
      <trkpt lat="47.3023" lon="-1.36722">
        <ele>47</ele>
        <time>2021-07-19T16:51:04.000Z</time>
      </trkpt>
      <trkpt lat="47.30223" lon="-1.36738">
        <ele>48</ele>
        <time>2021-07-19T16:51:06.000Z</time>
      </trkpt>
      <trkpt lat="47.30215" lon="-1.36754">
        <ele>48</ele>
        <time>2021-07-19T16:51:08.000Z</time>
      </trkpt>
      <trkpt lat="47.30207" lon="-1.3677">
        <ele>48</ele>
        <time>2021-07-19T16:51:10.000Z</time>
      </trkpt>
      <trkpt lat="47.302" lon="-1.36786">
        <ele>48</ele>
        <time>2021-07-19T16:51:12.000Z</time>
      </trkpt>
      <trkpt lat="47.30192" lon="-1.36801">
        <ele>48</ele>
        <time>2021-07-19T16:51:14.000Z</time>
      </trkpt>
      <trkpt lat="47.30185" lon="-1.36817">
        <ele>48</ele>
        <time>2021-07-19T16:51:16.000Z</time>
      </trkpt>
      <trkpt lat="47.30177" lon="-1.36832">
        <ele>48</ele>
        <time>2021-07-19T16:51:18.000Z</time>
      </trkpt>
      <trkpt lat="47.3017" lon="-1.36848">
        <ele>48</ele>
        <time>2021-07-19T16:51:20.000Z</time>
      </trkpt>
      <trkpt lat="47.30162" lon="-1.36863">
        <ele>48</ele>
        <time>2021-07-19T16:51:22.000Z</time>
      </trkpt>
      <trkpt lat="47.30155" lon="-1.36878">
        <ele>48</ele>
        <time>2021-07-19T16:51:24.000Z</time>
      </trkpt>
      <trkpt lat="47.30147" lon="-1.36894">
        <ele>48</ele>
        <time>2021-07-19T16:51:26.000Z</time>
      </trkpt>
      <trkpt lat="47.30139" lon="-1.3691">
        <ele>49</ele>
        <time>2021-07-19T16:51:28.000Z</time>
      </trkpt>
      <trkpt lat="47.30132" lon="-1.36926">
        <ele>49</ele>
        <time>2021-07-19T16:51:30.000Z</time>
      </trkpt>
      <trkpt lat="47.30124" lon="-1.36942">
        <ele>50</ele>
        <time>2021-07-19T16:51:32.000Z</time>
      </trkpt>
      <trkpt lat="47.30119" lon="-1.36961">
        <ele>51</ele>
        <time>2021-07-19T16:51:34.000Z</time>
      </trkpt>
      <trkpt lat="47.30113" lon="-1.36976">
        <ele>52</ele>
        <time>2021-07-19T16:51:36.000Z</time>
      </trkpt>
      <trkpt lat="47.30105" lon="-1.36991">
        <ele>52</ele>
        <time>2021-07-19T16:51:38.000Z</time>
      </trkpt>
      <trkpt lat="47.30098" lon="-1.37006">
        <ele>51</ele>
        <time>2021-07-19T16:51:40.000Z</time>
      </trkpt>
      <trkpt lat="47.30089" lon="-1.37021">
        <ele>52</ele>
        <time>2021-07-19T16:51:42.000Z</time>
      </trkpt>
      <trkpt lat="47.30081" lon="-1.37036">
        <ele>52</ele>
        <time>2021-07-19T16:51:44.000Z</time>
      </trkpt>
      <trkpt lat="47.30073" lon="-1.3705">
        <ele>52</ele>
        <time>2021-07-19T16:51:46.000Z</time>
      </trkpt>
      <trkpt lat="47.30065" lon="-1.37064">
        <ele>52</ele>
        <time>2021-07-19T16:51:48.000Z</time>
      </trkpt>
      <trkpt lat="47.30057" lon="-1.37079">
        <ele>52</ele>
        <time>2021-07-19T16:51:50.000Z</time>
      </trkpt>
      <trkpt lat="47.30048" lon="-1.37094">
        <ele>52</ele>
        <time>2021-07-19T16:51:52.000Z</time>
      </trkpt>
      <trkpt lat="47.3004" lon="-1.37108">
        <ele>52</ele>
        <time>2021-07-19T16:51:54.000Z</time>
      </trkpt>
      <trkpt lat="47.30032" lon="-1.37122">
        <ele>53</ele>
        <time>2021-07-19T16:51:56.000Z</time>
      </trkpt>
      <trkpt lat="47.30023" lon="-1.37136">
        <ele>53</ele>
        <time>2021-07-19T16:51:58.000Z</time>
      </trkpt>
      <trkpt lat="47.30014" lon="-1.3715">
        <ele>52</ele>
        <time>2021-07-19T16:52:00.000Z</time>
      </trkpt>
      <trkpt lat="47.30006" lon="-1.37165">
        <ele>52</ele>
        <time>2021-07-19T16:52:02.000Z</time>
      </trkpt>
      <trkpt lat="47.29996" lon="-1.37179">
        <ele>52</ele>
        <time>2021-07-19T16:52:04.000Z</time>
      </trkpt>
      <trkpt lat="47.29986" lon="-1.37194">
        <ele>53</ele>
        <time>2021-07-19T16:52:06.000Z</time>
      </trkpt>
      <trkpt lat="47.29977" lon="-1.37208">
        <ele>53</ele>
        <time>2021-07-19T16:52:08.000Z</time>
      </trkpt>
      <trkpt lat="47.29968" lon="-1.37222">
        <ele>54</ele>
        <time>2021-07-19T16:52:10.000Z</time>
      </trkpt>
      <trkpt lat="47.29959" lon="-1.37235">
        <ele>54</ele>
        <time>2021-07-19T16:52:12.000Z</time>
      </trkpt>
      <trkpt lat="47.29949" lon="-1.37249">
        <ele>54</ele>
        <time>2021-07-19T16:52:14.000Z</time>
      </trkpt>
      <trkpt lat="47.29939" lon="-1.37264">
        <ele>54</ele>
        <time>2021-07-19T16:52:16.000Z</time>
      </trkpt>
      <trkpt lat="47.2993" lon="-1.37279">
        <ele>54</ele>
        <time>2021-07-19T16:52:18.000Z</time>
      </trkpt>
      <trkpt lat="47.2992" lon="-1.37294">
        <ele>54</ele>
        <time>2021-07-19T16:52:20.000Z</time>
      </trkpt>
      <trkpt lat="47.2991" lon="-1.37309">
        <ele>55</ele>
        <time>2021-07-19T16:52:22.000Z</time>
      </trkpt>
      <trkpt lat="47.299" lon="-1.37323">
        <ele>55</ele>
        <time>2021-07-19T16:52:24.000Z</time>
      </trkpt>
      <trkpt lat="47.29891" lon="-1.37338">
        <ele>55</ele>
        <time>2021-07-19T16:52:26.000Z</time>
      </trkpt>
      <trkpt lat="47.29881" lon="-1.37352">
        <ele>55</ele>
        <time>2021-07-19T16:52:28.000Z</time>
      </trkpt>
      <trkpt lat="47.29872" lon="-1.37367">
        <ele>56</ele>
        <time>2021-07-19T16:52:30.000Z</time>
      </trkpt>
      <trkpt lat="47.29862" lon="-1.37381">
        <ele>56</ele>
        <time>2021-07-19T16:52:32.000Z</time>
      </trkpt>
      <trkpt lat="47.29853" lon="-1.37396">
        <ele>56</ele>
        <time>2021-07-19T16:52:34.000Z</time>
      </trkpt>
      <trkpt lat="47.29844" lon="-1.3741">
        <ele>56</ele>
        <time>2021-07-19T16:52:36.000Z</time>
      </trkpt>
      <trkpt lat="47.29835" lon="-1.37424">
        <ele>55</ele>
        <time>2021-07-19T16:52:38.000Z</time>
      </trkpt>
      <trkpt lat="47.29826" lon="-1.37438">
        <ele>55</ele>
        <time>2021-07-19T16:52:40.000Z</time>
      </trkpt>
      <trkpt lat="47.29818" lon="-1.37451">
        <ele>55</ele>
        <time>2021-07-19T16:52:42.000Z</time>
      </trkpt>
      <trkpt lat="47.2981" lon="-1.37464">
        <ele>55</ele>
        <time>2021-07-19T16:52:44.000Z</time>
      </trkpt>
      <trkpt lat="47.29801" lon="-1.37478">
        <ele>55</ele>
        <time>2021-07-19T16:52:46.000Z</time>
      </trkpt>
      <trkpt lat="47.29793" lon="-1.37493">
        <ele>55</ele>
        <time>2021-07-19T16:52:48.000Z</time>
      </trkpt>
      <trkpt lat="47.29784" lon="-1.37508">
        <ele>55</ele>
        <time>2021-07-19T16:52:50.000Z</time>
      </trkpt>
      <trkpt lat="47.29776" lon="-1.37522">
        <ele>55</ele>
        <time>2021-07-19T16:52:52.000Z</time>
      </trkpt>
      <trkpt lat="47.29768" lon="-1.37537">
        <ele>55</ele>
        <time>2021-07-19T16:52:54.000Z</time>
      </trkpt>
      <trkpt lat="47.2976" lon="-1.37552">
        <ele>55</ele>
        <time>2021-07-19T16:52:56.000Z</time>
      </trkpt>
      <trkpt lat="47.29752" lon="-1.37568">
        <ele>54</ele>
        <time>2021-07-19T16:52:58.000Z</time>
      </trkpt>
      <trkpt lat="47.29744" lon="-1.37583">
        <ele>54</ele>
        <time>2021-07-19T16:53:00.000Z</time>
      </trkpt>
      <trkpt lat="47.29736" lon="-1.37599">
        <ele>53</ele>
        <time>2021-07-19T16:53:02.000Z</time>
      </trkpt>
      <trkpt lat="47.29728" lon="-1.37614">
        <ele>53</ele>
        <time>2021-07-19T16:53:04.000Z</time>
      </trkpt>
      <trkpt lat="47.2972" lon="-1.3763">
        <ele>52</ele>
        <time>2021-07-19T16:53:06.000Z</time>
      </trkpt>
      <trkpt lat="47.29712" lon="-1.37645">
        <ele>52</ele>
        <time>2021-07-19T16:53:08.000Z</time>
      </trkpt>
      <trkpt lat="47.29705" lon="-1.37661">
        <ele>52</ele>
        <time>2021-07-19T16:53:10.000Z</time>
      </trkpt>
      <trkpt lat="47.29696" lon="-1.37677">
        <ele>53</ele>
        <time>2021-07-19T16:53:12.000Z</time>
      </trkpt>
      <trkpt lat="47.29689" lon="-1.37693">
        <ele>53</ele>
        <time>2021-07-19T16:53:14.000Z</time>
      </trkpt>
      <trkpt lat="47.29682" lon="-1.37708">
        <ele>53</ele>
        <time>2021-07-19T16:53:16.000Z</time>
      </trkpt>
      <trkpt lat="47.29674" lon="-1.37724">
        <ele>53</ele>
        <time>2021-07-19T16:53:18.000Z</time>
      </trkpt>
      <trkpt lat="47.29665" lon="-1.3774">
        <ele>54</ele>
        <time>2021-07-19T16:53:20.000Z</time>
      </trkpt>
      <trkpt lat="47.29657" lon="-1.37756">
        <ele>54</ele>
        <time>2021-07-19T16:53:22.000Z</time>
      </trkpt>
      <trkpt lat="47.2965" lon="-1.37772">
        <ele>54</ele>
        <time>2021-07-19T16:53:24.000Z</time>
      </trkpt>
      <trkpt lat="47.29641" lon="-1.37787">
        <ele>55</ele>
        <time>2021-07-19T16:53:26.000Z</time>
      </trkpt>
      <trkpt lat="47.29632" lon="-1.378">
        <ele>56</ele>
        <time>2021-07-19T16:53:28.000Z</time>
      </trkpt>
      <trkpt lat="47.29624" lon="-1.37814">
        <ele>56</ele>
        <time>2021-07-19T16:53:30.000Z</time>
      </trkpt>
      <trkpt lat="47.29616" lon="-1.3783">
        <ele>56</ele>
        <time>2021-07-19T16:53:32.000Z</time>
      </trkpt>
      <trkpt lat="47.29607" lon="-1.37846">
        <ele>56</ele>
        <time>2021-07-19T16:53:34.000Z</time>
      </trkpt>
      <trkpt lat="47.296" lon="-1.37862">
        <ele>56</ele>
        <time>2021-07-19T16:53:36.000Z</time>
      </trkpt>
      <trkpt lat="47.29594" lon="-1.37878">
        <ele>56</ele>
        <time>2021-07-19T16:53:38.000Z</time>
      </trkpt>
      <trkpt lat="47.29588" lon="-1.37894">
        <ele>56</ele>
        <time>2021-07-19T16:53:40.000Z</time>
      </trkpt>
      <trkpt lat="47.29581" lon="-1.37909">
        <ele>56</ele>
        <time>2021-07-19T16:53:42.000Z</time>
      </trkpt>
      <trkpt lat="47.29574" lon="-1.37924">
        <ele>56</ele>
        <time>2021-07-19T16:53:44.000Z</time>
      </trkpt>
      <trkpt lat="47.29568" lon="-1.3794">
        <ele>56</ele>
        <time>2021-07-19T16:53:46.000Z</time>
      </trkpt>
      <trkpt lat="47.29562" lon="-1.37957">
        <ele>56</ele>
        <time>2021-07-19T16:53:48.000Z</time>
      </trkpt>
      <trkpt lat="47.29555" lon="-1.37974">
        <ele>56</ele>
        <time>2021-07-19T16:53:50.000Z</time>
      </trkpt>
      <trkpt lat="47.29548" lon="-1.3799">
        <ele>56</ele>
        <time>2021-07-19T16:53:52.000Z</time>
      </trkpt>
      <trkpt lat="47.29542" lon="-1.38007">
        <ele>56</ele>
        <time>2021-07-19T16:53:54.000Z</time>
      </trkpt>
      <trkpt lat="47.29536" lon="-1.38025">
        <ele>56</ele>
        <time>2021-07-19T16:53:56.000Z</time>
      </trkpt>
      <trkpt lat="47.29529" lon="-1.38043">
        <ele>56</ele>
        <time>2021-07-19T16:53:58.000Z</time>
      </trkpt>
      <trkpt lat="47.29524" lon="-1.38061">
        <ele>56</ele>
        <time>2021-07-19T16:54:00.000Z</time>
      </trkpt>
      <trkpt lat="47.29518" lon="-1.38079">
        <ele>56</ele>
        <time>2021-07-19T16:54:02.000Z</time>
      </trkpt>
      <trkpt lat="47.29512" lon="-1.38098">
        <ele>56</ele>
        <time>2021-07-19T16:54:04.000Z</time>
      </trkpt>
      <trkpt lat="47.29507" lon="-1.38116">
        <ele>56</ele>
        <time>2021-07-19T16:54:06.000Z</time>
      </trkpt>
      <trkpt lat="47.29502" lon="-1.38134">
        <ele>56</ele>
        <time>2021-07-19T16:54:08.000Z</time>
      </trkpt>
      <trkpt lat="47.29497" lon="-1.38153">
        <ele>56</ele>
        <time>2021-07-19T16:54:10.000Z</time>
      </trkpt>
      <trkpt lat="47.29492" lon="-1.38172">
        <ele>56</ele>
        <time>2021-07-19T16:54:12.000Z</time>
      </trkpt>
      <trkpt lat="47.29487" lon="-1.3819">
        <ele>56</ele>
        <time>2021-07-19T16:54:14.000Z</time>
      </trkpt>
      <trkpt lat="47.29483" lon="-1.38209">
        <ele>56</ele>
        <time>2021-07-19T16:54:16.000Z</time>
      </trkpt>
      <trkpt lat="47.29477" lon="-1.38228">
        <ele>56</ele>
        <time>2021-07-19T16:54:18.000Z</time>
      </trkpt>
      <trkpt lat="47.29472" lon="-1.38246">
        <ele>56</ele>
        <time>2021-07-19T16:54:20.000Z</time>
      </trkpt>
      <trkpt lat="47.29467" lon="-1.38265">
        <ele>56</ele>
        <time>2021-07-19T16:54:22.000Z</time>
      </trkpt>
      <trkpt lat="47.29462" lon="-1.38284">
        <ele>56</ele>
        <time>2021-07-19T16:54:24.000Z</time>
      </trkpt>
      <trkpt lat="47.29458" lon="-1.38301">
        <ele>56</ele>
        <time>2021-07-19T16:54:26.000Z</time>
      </trkpt>
      <trkpt lat="47.29452" lon="-1.38317">
        <ele>56</ele>
        <time>2021-07-19T16:54:28.000Z</time>
      </trkpt>
      <trkpt lat="47.29446" lon="-1.38328">
        <ele>56</ele>
        <time>2021-07-19T16:54:30.000Z</time>
      </trkpt>
      <trkpt lat="47.2944" lon="-1.38341">
        <ele>56</ele>
        <time>2021-07-19T16:54:32.000Z</time>
      </trkpt>
      <trkpt lat="47.29437" lon="-1.3836">
        <ele>56</ele>
        <time>2021-07-19T16:54:34.000Z</time>
      </trkpt>
      <trkpt lat="47.29434" lon="-1.3838">
        <ele>55</ele>
        <time>2021-07-19T16:54:36.000Z</time>
      </trkpt>
      <trkpt lat="47.2943" lon="-1.384">
        <ele>55</ele>
        <time>2021-07-19T16:54:38.000Z</time>
      </trkpt>
      <trkpt lat="47.29425" lon="-1.3842">
        <ele>55</ele>
        <time>2021-07-19T16:54:40.000Z</time>
      </trkpt>
      <trkpt lat="47.29419" lon="-1.3844">
        <ele>55</ele>
        <time>2021-07-19T16:54:42.000Z</time>
      </trkpt>
      <trkpt lat="47.29415" lon="-1.3846">
        <ele>55</ele>
        <time>2021-07-19T16:54:44.000Z</time>
      </trkpt>
      <trkpt lat="47.29408" lon="-1.38479">
        <ele>55</ele>
        <time>2021-07-19T16:54:46.000Z</time>
      </trkpt>
      <trkpt lat="47.29402" lon="-1.38496">
        <ele>55</ele>
        <time>2021-07-19T16:54:48.000Z</time>
      </trkpt>
      <trkpt lat="47.29394" lon="-1.38515">
        <ele>55</ele>
        <time>2021-07-19T16:54:50.000Z</time>
      </trkpt>
      <trkpt lat="47.29386" lon="-1.38533">
        <ele>55</ele>
        <time>2021-07-19T16:54:52.000Z</time>
      </trkpt>
      <trkpt lat="47.29379" lon="-1.38552">
        <ele>55</ele>
        <time>2021-07-19T16:54:54.000Z</time>
      </trkpt>
      <trkpt lat="47.29372" lon="-1.38572">
        <ele>54</ele>
        <time>2021-07-19T16:54:56.000Z</time>
      </trkpt>
      <trkpt lat="47.29365" lon="-1.38592">
        <ele>53</ele>
        <time>2021-07-19T16:54:58.000Z</time>
      </trkpt>
      <trkpt lat="47.29359" lon="-1.38614">
        <ele>52</ele>
        <time>2021-07-19T16:55:00.000Z</time>
      </trkpt>
      <trkpt lat="47.29353" lon="-1.38634">
        <ele>52</ele>
        <time>2021-07-19T16:55:02.000Z</time>
      </trkpt>
      <trkpt lat="47.29347" lon="-1.38654">
        <ele>52</ele>
        <time>2021-07-19T16:55:04.000Z</time>
      </trkpt>
      <trkpt lat="47.29341" lon="-1.38673">
        <ele>52</ele>
        <time>2021-07-19T16:55:06.000Z</time>
      </trkpt>
      <trkpt lat="47.29334" lon="-1.38691">
        <ele>52</ele>
        <time>2021-07-19T16:55:08.000Z</time>
      </trkpt>
      <trkpt lat="47.29326" lon="-1.38709">
        <ele>51</ele>
        <time>2021-07-19T16:55:10.000Z</time>
      </trkpt>
      <trkpt lat="47.29323" lon="-1.38729">
        <ele>51</ele>
        <time>2021-07-19T16:55:12.000Z</time>
      </trkpt>
      <trkpt lat="47.2932" lon="-1.3875">
        <ele>52</ele>
        <time>2021-07-19T16:55:14.000Z</time>
      </trkpt>
      <trkpt lat="47.29315" lon="-1.38767">
        <ele>52</ele>
        <time>2021-07-19T16:55:16.000Z</time>
      </trkpt>
      <trkpt lat="47.2931" lon="-1.38786">
        <ele>51</ele>
        <time>2021-07-19T16:55:18.000Z</time>
      </trkpt>
      <trkpt lat="47.29305" lon="-1.38805">
        <ele>51</ele>
        <time>2021-07-19T16:55:20.000Z</time>
      </trkpt>
      <trkpt lat="47.293" lon="-1.38824">
        <ele>52</ele>
        <time>2021-07-19T16:55:22.000Z</time>
      </trkpt>
      <trkpt lat="47.29295" lon="-1.38843">
        <ele>52</ele>
        <time>2021-07-19T16:55:24.000Z</time>
      </trkpt>
      <trkpt lat="47.2929" lon="-1.38862">
        <ele>52</ele>
        <time>2021-07-19T16:55:26.000Z</time>
      </trkpt>
      <trkpt lat="47.29285" lon="-1.38881">
        <ele>53</ele>
        <time>2021-07-19T16:55:28.000Z</time>
      </trkpt>
      <trkpt lat="47.2928" lon="-1.389">
        <ele>52</ele>
        <time>2021-07-19T16:55:30.000Z</time>
      </trkpt>
      <trkpt lat="47.29275" lon="-1.38918">
        <ele>52</ele>
        <time>2021-07-19T16:55:32.000Z</time>
      </trkpt>
      <trkpt lat="47.2927" lon="-1.38937">
        <ele>52</ele>
        <time>2021-07-19T16:55:34.000Z</time>
      </trkpt>
      <trkpt lat="47.29265" lon="-1.38956">
        <ele>52</ele>
        <time>2021-07-19T16:55:36.000Z</time>
      </trkpt>
      <trkpt lat="47.2926" lon="-1.38975">
        <ele>52</ele>
        <time>2021-07-19T16:55:38.000Z</time>
      </trkpt>
      <trkpt lat="47.29254" lon="-1.38995">
        <ele>53</ele>
        <time>2021-07-19T16:55:40.000Z</time>
      </trkpt>
      <trkpt lat="47.29249" lon="-1.39013">
        <ele>52</ele>
        <time>2021-07-19T16:55:42.000Z</time>
      </trkpt>
      <trkpt lat="47.29244" lon="-1.39033">
        <ele>53</ele>
        <time>2021-07-19T16:55:44.000Z</time>
      </trkpt>
      <trkpt lat="47.29239" lon="-1.39052">
        <ele>54</ele>
        <time>2021-07-19T16:55:46.000Z</time>
      </trkpt>
      <trkpt lat="47.29234" lon="-1.3907">
        <ele>53</ele>
        <time>2021-07-19T16:55:48.000Z</time>
      </trkpt>
      <trkpt lat="47.29229" lon="-1.39088">
        <ele>54</ele>
        <time>2021-07-19T16:55:50.000Z</time>
      </trkpt>
      <trkpt lat="47.2922" lon="-1.39105">
        <ele>54</ele>
        <time>2021-07-19T16:55:52.000Z</time>
      </trkpt>
      <trkpt lat="47.29211" lon="-1.39121">
        <ele>54</ele>
        <time>2021-07-19T16:55:54.000Z</time>
      </trkpt>
      <trkpt lat="47.292" lon="-1.39135">
        <ele>54</ele>
        <time>2021-07-19T16:55:56.000Z</time>
      </trkpt>
      <trkpt lat="47.29189" lon="-1.39149">
        <ele>55</ele>
        <time>2021-07-19T16:55:58.000Z</time>
      </trkpt>
      <trkpt lat="47.29177" lon="-1.39162">
        <ele>54</ele>
        <time>2021-07-19T16:56:00.000Z</time>
      </trkpt>
      <trkpt lat="47.29166" lon="-1.39176">
        <ele>55</ele>
        <time>2021-07-19T16:56:02.000Z</time>
      </trkpt>
      <trkpt lat="47.29155" lon="-1.39189">
        <ele>55</ele>
        <time>2021-07-19T16:56:04.000Z</time>
      </trkpt>
      <trkpt lat="47.29143" lon="-1.39202">
        <ele>55</ele>
        <time>2021-07-19T16:56:06.000Z</time>
      </trkpt>
      <trkpt lat="47.29132" lon="-1.39216">
        <ele>55</ele>
        <time>2021-07-19T16:56:08.000Z</time>
      </trkpt>
      <trkpt lat="47.29121" lon="-1.3923">
        <ele>55</ele>
        <time>2021-07-19T16:56:10.000Z</time>
      </trkpt>
      <trkpt lat="47.2911" lon="-1.39244">
        <ele>56</ele>
        <time>2021-07-19T16:56:12.000Z</time>
      </trkpt>
      <trkpt lat="47.29101" lon="-1.39258">
        <ele>56</ele>
        <time>2021-07-19T16:56:14.000Z</time>
      </trkpt>
      <trkpt lat="47.29092" lon="-1.39273">
        <ele>56</ele>
        <time>2021-07-19T16:56:16.000Z</time>
      </trkpt>
      <trkpt lat="47.29084" lon="-1.39288">
        <ele>56</ele>
        <time>2021-07-19T16:56:18.000Z</time>
      </trkpt>
      <trkpt lat="47.29073" lon="-1.39302">
        <ele>56</ele>
        <time>2021-07-19T16:56:20.000Z</time>
      </trkpt>
      <trkpt lat="47.29062" lon="-1.39313">
        <ele>56</ele>
        <time>2021-07-19T16:56:22.000Z</time>
      </trkpt>
      <trkpt lat="47.29051" lon="-1.39323">
        <ele>56</ele>
        <time>2021-07-19T16:56:24.000Z</time>
      </trkpt>
      <trkpt lat="47.29041" lon="-1.39335">
        <ele>55</ele>
        <time>2021-07-19T16:56:26.000Z</time>
      </trkpt>
      <trkpt lat="47.2903" lon="-1.39347">
        <ele>55</ele>
        <time>2021-07-19T16:56:28.000Z</time>
      </trkpt>
      <trkpt lat="47.2902" lon="-1.3936">
        <ele>55</ele>
        <time>2021-07-19T16:56:30.000Z</time>
      </trkpt>
      <trkpt lat="47.29011" lon="-1.39374">
        <ele>55</ele>
        <time>2021-07-19T16:56:32.000Z</time>
      </trkpt>
      <trkpt lat="47.29001" lon="-1.39387">
        <ele>55</ele>
        <time>2021-07-19T16:56:34.000Z</time>
      </trkpt>
      <trkpt lat="47.28991" lon="-1.39401">
        <ele>55</ele>
        <time>2021-07-19T16:56:36.000Z</time>
      </trkpt>
      <trkpt lat="47.2898" lon="-1.39414">
        <ele>55</ele>
        <time>2021-07-19T16:56:38.000Z</time>
      </trkpt>
      <trkpt lat="47.28969" lon="-1.39429">
        <ele>55</ele>
        <time>2021-07-19T16:56:40.000Z</time>
      </trkpt>
      <trkpt lat="47.28958" lon="-1.39442">
        <ele>55</ele>
        <time>2021-07-19T16:56:42.000Z</time>
      </trkpt>
      <trkpt lat="47.28948" lon="-1.39455">
        <ele>55</ele>
        <time>2021-07-19T16:56:44.000Z</time>
      </trkpt>
      <trkpt lat="47.28937" lon="-1.39468">
        <ele>54</ele>
        <time>2021-07-19T16:56:46.000Z</time>
      </trkpt>
      <trkpt lat="47.28926" lon="-1.39481">
        <ele>54</ele>
        <time>2021-07-19T16:56:48.000Z</time>
      </trkpt>
      <trkpt lat="47.28915" lon="-1.39493">
        <ele>54</ele>
        <time>2021-07-19T16:56:50.000Z</time>
      </trkpt>
      <trkpt lat="47.28904" lon="-1.39506">
        <ele>54</ele>
        <time>2021-07-19T16:56:52.000Z</time>
      </trkpt>
      <trkpt lat="47.28894" lon="-1.3952">
        <ele>55</ele>
        <time>2021-07-19T16:56:54.000Z</time>
      </trkpt>
      <trkpt lat="47.28883" lon="-1.39533">
        <ele>55</ele>
        <time>2021-07-19T16:56:56.000Z</time>
      </trkpt>
      <trkpt lat="47.28872" lon="-1.39546">
        <ele>55</ele>
        <time>2021-07-19T16:56:58.000Z</time>
      </trkpt>
      <trkpt lat="47.28861" lon="-1.3956">
        <ele>55</ele>
        <time>2021-07-19T16:57:00.000Z</time>
      </trkpt>
      <trkpt lat="47.2885" lon="-1.39573">
        <ele>55</ele>
        <time>2021-07-19T16:57:02.000Z</time>
      </trkpt>
      <trkpt lat="47.28839" lon="-1.39585">
        <ele>55</ele>
        <time>2021-07-19T16:57:04.000Z</time>
      </trkpt>
      <trkpt lat="47.28828" lon="-1.39599">
        <ele>55</ele>
        <time>2021-07-19T16:57:06.000Z</time>
      </trkpt>
      <trkpt lat="47.28817" lon="-1.39612">
        <ele>55</ele>
        <time>2021-07-19T16:57:08.000Z</time>
      </trkpt>
      <trkpt lat="47.28806" lon="-1.39625">
        <ele>55</ele>
        <time>2021-07-19T16:57:10.000Z</time>
      </trkpt>
      <trkpt lat="47.28796" lon="-1.39638">
        <ele>55</ele>
        <time>2021-07-19T16:57:12.000Z</time>
      </trkpt>
      <trkpt lat="47.28785" lon="-1.39652">
        <ele>55</ele>
        <time>2021-07-19T16:57:14.000Z</time>
      </trkpt>
      <trkpt lat="47.28774" lon="-1.39665">
        <ele>55</ele>
        <time>2021-07-19T16:57:16.000Z</time>
      </trkpt>
      <trkpt lat="47.28763" lon="-1.39678">
        <ele>54</ele>
        <time>2021-07-19T16:57:18.000Z</time>
      </trkpt>
      <trkpt lat="47.28752" lon="-1.39691">
        <ele>55</ele>
        <time>2021-07-19T16:57:20.000Z</time>
      </trkpt>
      <trkpt lat="47.28741" lon="-1.39703">
        <ele>54</ele>
        <time>2021-07-19T16:57:22.000Z</time>
      </trkpt>
      <trkpt lat="47.2873" lon="-1.39716">
        <ele>54</ele>
        <time>2021-07-19T16:57:24.000Z</time>
      </trkpt>
      <trkpt lat="47.2872" lon="-1.39729">
        <ele>54</ele>
        <time>2021-07-19T16:57:26.000Z</time>
      </trkpt>
      <trkpt lat="47.2871" lon="-1.39743">
        <ele>55</ele>
        <time>2021-07-19T16:57:28.000Z</time>
      </trkpt>
      <trkpt lat="47.28699" lon="-1.39756">
        <ele>55</ele>
        <time>2021-07-19T16:57:30.000Z</time>
      </trkpt>
      <trkpt lat="47.28688" lon="-1.39768">
        <ele>55</ele>
        <time>2021-07-19T16:57:32.000Z</time>
      </trkpt>
      <trkpt lat="47.28678" lon="-1.3978">
        <ele>55</ele>
        <time>2021-07-19T16:57:34.000Z</time>
      </trkpt>
      <trkpt lat="47.28669" lon="-1.39794">
        <ele>54</ele>
        <time>2021-07-19T16:57:36.000Z</time>
      </trkpt>
      <trkpt lat="47.28659" lon="-1.39809">
        <ele>54</ele>
        <time>2021-07-19T16:57:38.000Z</time>
      </trkpt>
      <trkpt lat="47.2865" lon="-1.39823">
        <ele>54</ele>
        <time>2021-07-19T16:57:40.000Z</time>
      </trkpt>
      <trkpt lat="47.2864" lon="-1.39838">
        <ele>54</ele>
        <time>2021-07-19T16:57:42.000Z</time>
      </trkpt>
      <trkpt lat="47.28631" lon="-1.39853">
        <ele>54</ele>
        <time>2021-07-19T16:57:44.000Z</time>
      </trkpt>
      <trkpt lat="47.28622" lon="-1.39867">
        <ele>54</ele>
        <time>2021-07-19T16:57:46.000Z</time>
      </trkpt>
      <trkpt lat="47.28612" lon="-1.39882">
        <ele>54</ele>
        <time>2021-07-19T16:57:48.000Z</time>
      </trkpt>
      <trkpt lat="47.28603" lon="-1.39896">
        <ele>54</ele>
        <time>2021-07-19T16:57:50.000Z</time>
      </trkpt>
      <trkpt lat="47.28594" lon="-1.3991">
        <ele>54</ele>
        <time>2021-07-19T16:57:52.000Z</time>
      </trkpt>
      <trkpt lat="47.28585" lon="-1.39925">
        <ele>54</ele>
        <time>2021-07-19T16:57:54.000Z</time>
      </trkpt>
      <trkpt lat="47.28575" lon="-1.39939">
        <ele>54</ele>
        <time>2021-07-19T16:57:56.000Z</time>
      </trkpt>
      <trkpt lat="47.28565" lon="-1.39953">
        <ele>53</ele>
        <time>2021-07-19T16:57:58.000Z</time>
      </trkpt>
      <trkpt lat="47.28554" lon="-1.39968">
        <ele>53</ele>
        <time>2021-07-19T16:58:00.000Z</time>
      </trkpt>
      <trkpt lat="47.28544" lon="-1.39981">
        <ele>53</ele>
        <time>2021-07-19T16:58:02.000Z</time>
      </trkpt>
      <trkpt lat="47.28534" lon="-1.39995">
        <ele>54</ele>
        <time>2021-07-19T16:58:04.000Z</time>
      </trkpt>
      <trkpt lat="47.28525" lon="-1.40009">
        <ele>54</ele>
        <time>2021-07-19T16:58:06.000Z</time>
      </trkpt>
      <trkpt lat="47.28515" lon="-1.40023">
        <ele>55</ele>
        <time>2021-07-19T16:58:08.000Z</time>
      </trkpt>
      <trkpt lat="47.28506" lon="-1.40037">
        <ele>54</ele>
        <time>2021-07-19T16:58:10.000Z</time>
      </trkpt>
      <trkpt lat="47.28498" lon="-1.40052">
        <ele>54</ele>
        <time>2021-07-19T16:58:12.000Z</time>
      </trkpt>
      <trkpt lat="47.28491" lon="-1.40068">
        <ele>54</ele>
        <time>2021-07-19T16:58:14.000Z</time>
      </trkpt>
      <trkpt lat="47.28483" lon="-1.40085">
        <ele>54</ele>
        <time>2021-07-19T16:58:16.000Z</time>
      </trkpt>
      <trkpt lat="47.28476" lon="-1.40102">
        <ele>54</ele>
        <time>2021-07-19T16:58:18.000Z</time>
      </trkpt>
      <trkpt lat="47.2847" lon="-1.40119">
        <ele>54</ele>
        <time>2021-07-19T16:58:20.000Z</time>
      </trkpt>
      <trkpt lat="47.28463" lon="-1.40137">
        <ele>53</ele>
        <time>2021-07-19T16:58:22.000Z</time>
      </trkpt>
      <trkpt lat="47.28456" lon="-1.40155">
        <ele>53</ele>
        <time>2021-07-19T16:58:24.000Z</time>
      </trkpt>
      <trkpt lat="47.28449" lon="-1.40173">
        <ele>53</ele>
        <time>2021-07-19T16:58:26.000Z</time>
      </trkpt>
      <trkpt lat="47.28441" lon="-1.4019">
        <ele>52</ele>
        <time>2021-07-19T16:58:28.000Z</time>
      </trkpt>
      <trkpt lat="47.28435" lon="-1.40207">
        <ele>52</ele>
        <time>2021-07-19T16:58:30.000Z</time>
      </trkpt>
      <trkpt lat="47.28428" lon="-1.40223">
        <ele>52</ele>
        <time>2021-07-19T16:58:32.000Z</time>
      </trkpt>
      <trkpt lat="47.28421" lon="-1.40239">
        <ele>52</ele>
        <time>2021-07-19T16:58:34.000Z</time>
      </trkpt>
      <trkpt lat="47.28414" lon="-1.40257">
        <ele>52</ele>
        <time>2021-07-19T16:58:36.000Z</time>
      </trkpt>
      <trkpt lat="47.28407" lon="-1.40274">
        <ele>52</ele>
        <time>2021-07-19T16:58:38.000Z</time>
      </trkpt>
      <trkpt lat="47.28399" lon="-1.4029">
        <ele>52</ele>
        <time>2021-07-19T16:58:40.000Z</time>
      </trkpt>
      <trkpt lat="47.2839" lon="-1.40306">
        <ele>51</ele>
        <time>2021-07-19T16:58:42.000Z</time>
      </trkpt>
      <trkpt lat="47.28381" lon="-1.40322">
        <ele>52</ele>
        <time>2021-07-19T16:58:44.000Z</time>
      </trkpt>
      <trkpt lat="47.28372" lon="-1.40336">
        <ele>52</ele>
        <time>2021-07-19T16:58:46.000Z</time>
      </trkpt>
      <trkpt lat="47.28362" lon="-1.4035">
        <ele>52</ele>
        <time>2021-07-19T16:58:48.000Z</time>
      </trkpt>
      <trkpt lat="47.28353" lon="-1.40364">
        <ele>52</ele>
        <time>2021-07-19T16:58:50.000Z</time>
      </trkpt>
      <trkpt lat="47.28343" lon="-1.40378">
        <ele>52</ele>
        <time>2021-07-19T16:58:52.000Z</time>
      </trkpt>
      <trkpt lat="47.28332" lon="-1.40392">
        <ele>52</ele>
        <time>2021-07-19T16:58:54.000Z</time>
      </trkpt>
      <trkpt lat="47.28322" lon="-1.40406">
        <ele>53</ele>
        <time>2021-07-19T16:58:56.000Z</time>
      </trkpt>
      <trkpt lat="47.28311" lon="-1.40419">
        <ele>53</ele>
        <time>2021-07-19T16:58:58.000Z</time>
      </trkpt>
      <trkpt lat="47.28299" lon="-1.40431">
        <ele>53</ele>
        <time>2021-07-19T16:59:00.000Z</time>
      </trkpt>
      <trkpt lat="47.28287" lon="-1.40443">
        <ele>53</ele>
        <time>2021-07-19T16:59:02.000Z</time>
      </trkpt>
      <trkpt lat="47.28274" lon="-1.40455">
        <ele>54</ele>
        <time>2021-07-19T16:59:04.000Z</time>
      </trkpt>
      <trkpt lat="47.28263" lon="-1.40466">
        <ele>54</ele>
        <time>2021-07-19T16:59:06.000Z</time>
      </trkpt>
      <trkpt lat="47.28252" lon="-1.40477">
        <ele>54</ele>
        <time>2021-07-19T16:59:08.000Z</time>
      </trkpt>
      <trkpt lat="47.2824" lon="-1.40489">
        <ele>54</ele>
        <time>2021-07-19T16:59:10.000Z</time>
      </trkpt>
      <trkpt lat="47.28228" lon="-1.405">
        <ele>54</ele>
        <time>2021-07-19T16:59:12.000Z</time>
      </trkpt>
      <trkpt lat="47.28216" lon="-1.40511">
        <ele>54</ele>
        <time>2021-07-19T16:59:14.000Z</time>
      </trkpt>
      <trkpt lat="47.28204" lon="-1.40523">
        <ele>54</ele>
        <time>2021-07-19T16:59:16.000Z</time>
      </trkpt>
      <trkpt lat="47.28192" lon="-1.40534">
        <ele>55</ele>
        <time>2021-07-19T16:59:18.000Z</time>
      </trkpt>
      <trkpt lat="47.2818" lon="-1.40544">
        <ele>55</ele>
        <time>2021-07-19T16:59:20.000Z</time>
      </trkpt>
      <trkpt lat="47.28169" lon="-1.40556">
        <ele>55</ele>
        <time>2021-07-19T16:59:22.000Z</time>
      </trkpt>
      <trkpt lat="47.28157" lon="-1.40568">
        <ele>56</ele>
        <time>2021-07-19T16:59:24.000Z</time>
      </trkpt>
      <trkpt lat="47.28145" lon="-1.40579">
        <ele>56</ele>
        <time>2021-07-19T16:59:26.000Z</time>
      </trkpt>
      <trkpt lat="47.28134" lon="-1.4059">
        <ele>56</ele>
        <time>2021-07-19T16:59:28.000Z</time>
      </trkpt>
      <trkpt lat="47.28122" lon="-1.40601">
        <ele>56</ele>
        <time>2021-07-19T16:59:30.000Z</time>
      </trkpt>
      <trkpt lat="47.28111" lon="-1.40612">
        <ele>55</ele>
        <time>2021-07-19T16:59:32.000Z</time>
      </trkpt>
      <trkpt lat="47.28099" lon="-1.40623">
        <ele>55</ele>
        <time>2021-07-19T16:59:34.000Z</time>
      </trkpt>
      <trkpt lat="47.28088" lon="-1.40633">
        <ele>55</ele>
        <time>2021-07-19T16:59:36.000Z</time>
      </trkpt>
      <trkpt lat="47.28076" lon="-1.40644">
        <ele>55</ele>
        <time>2021-07-19T16:59:38.000Z</time>
      </trkpt>
      <trkpt lat="47.28065" lon="-1.40654">
        <ele>55</ele>
        <time>2021-07-19T16:59:40.000Z</time>
      </trkpt>
      <trkpt lat="47.28053" lon="-1.40666">
        <ele>55</ele>
        <time>2021-07-19T16:59:42.000Z</time>
      </trkpt>
      <trkpt lat="47.28042" lon="-1.40677">
        <ele>55</ele>
        <time>2021-07-19T16:59:44.000Z</time>
      </trkpt>
      <trkpt lat="47.2803" lon="-1.4069">
        <ele>55</ele>
        <time>2021-07-19T16:59:46.000Z</time>
      </trkpt>
      <trkpt lat="47.28019" lon="-1.40702">
        <ele>55</ele>
        <time>2021-07-19T16:59:48.000Z</time>
      </trkpt>
      <trkpt lat="47.28008" lon="-1.40713">
        <ele>55</ele>
        <time>2021-07-19T16:59:50.000Z</time>
      </trkpt>
      <trkpt lat="47.27997" lon="-1.40725">
        <ele>56</ele>
        <time>2021-07-19T16:59:52.000Z</time>
      </trkpt>
      <trkpt lat="47.27985" lon="-1.40736">
        <ele>56</ele>
        <time>2021-07-19T16:59:54.000Z</time>
      </trkpt>
      <trkpt lat="47.27973" lon="-1.40747">
        <ele>56</ele>
        <time>2021-07-19T16:59:56.000Z</time>
      </trkpt>
      <trkpt lat="47.27961" lon="-1.40758">
        <ele>56</ele>
        <time>2021-07-19T16:59:58.000Z</time>
      </trkpt>
      <trkpt lat="47.27949" lon="-1.40769">
        <ele>56</ele>
        <time>2021-07-19T17:00:00.000Z</time>
      </trkpt>
      <trkpt lat="47.27938" lon="-1.4078">
        <ele>56</ele>
        <time>2021-07-19T17:00:02.000Z</time>
      </trkpt>
      <trkpt lat="47.27926" lon="-1.40791">
        <ele>57</ele>
        <time>2021-07-19T17:00:04.000Z</time>
      </trkpt>
      <trkpt lat="47.27914" lon="-1.40802">
        <ele>56</ele>
        <time>2021-07-19T17:00:06.000Z</time>
      </trkpt>
      <trkpt lat="47.27902" lon="-1.40813">
        <ele>56</ele>
        <time>2021-07-19T17:00:08.000Z</time>
      </trkpt>
      <trkpt lat="47.27891" lon="-1.40825">
        <ele>56</ele>
        <time>2021-07-19T17:00:10.000Z</time>
      </trkpt>
      <trkpt lat="47.27881" lon="-1.4084">
        <ele>56</ele>
        <time>2021-07-19T17:00:12.000Z</time>
      </trkpt>
      <trkpt lat="47.27873" lon="-1.40858">
        <ele>56</ele>
        <time>2021-07-19T17:00:14.000Z</time>
      </trkpt>
      <trkpt lat="47.27865" lon="-1.40874">
        <ele>56</ele>
        <time>2021-07-19T17:00:16.000Z</time>
      </trkpt>
      <trkpt lat="47.27857" lon="-1.40892">
        <ele>56</ele>
        <time>2021-07-19T17:00:18.000Z</time>
      </trkpt>
      <trkpt lat="47.2785" lon="-1.40908">
        <ele>56</ele>
        <time>2021-07-19T17:00:20.000Z</time>
      </trkpt>
      <trkpt lat="47.27842" lon="-1.40924">
        <ele>55</ele>
        <time>2021-07-19T17:00:22.000Z</time>
      </trkpt>
      <trkpt lat="47.27833" lon="-1.4094">
        <ele>55</ele>
        <time>2021-07-19T17:00:24.000Z</time>
      </trkpt>
      <trkpt lat="47.27825" lon="-1.40956">
        <ele>55</ele>
        <time>2021-07-19T17:00:26.000Z</time>
      </trkpt>
      <trkpt lat="47.27817" lon="-1.40972">
        <ele>55</ele>
        <time>2021-07-19T17:00:28.000Z</time>
      </trkpt>
      <trkpt lat="47.27807" lon="-1.40987">
        <ele>55</ele>
        <time>2021-07-19T17:00:30.000Z</time>
      </trkpt>
      <trkpt lat="47.27797" lon="-1.41001">
        <ele>55</ele>
        <time>2021-07-19T17:00:32.000Z</time>
      </trkpt>
      <trkpt lat="47.27787" lon="-1.41015">
        <ele>55</ele>
        <time>2021-07-19T17:00:34.000Z</time>
      </trkpt>
      <trkpt lat="47.27778" lon="-1.41029">
        <ele>55</ele>
        <time>2021-07-19T17:00:36.000Z</time>
      </trkpt>
      <trkpt lat="47.27773" lon="-1.41047">
        <ele>55</ele>
        <time>2021-07-19T17:00:38.000Z</time>
      </trkpt>
      <trkpt lat="47.27766" lon="-1.41066">
        <ele>55</ele>
        <time>2021-07-19T17:00:40.000Z</time>
      </trkpt>
      <trkpt lat="47.27756" lon="-1.41081">
        <ele>55</ele>
        <time>2021-07-19T17:00:42.000Z</time>
      </trkpt>
      <trkpt lat="47.27744" lon="-1.41093">
        <ele>55</ele>
        <time>2021-07-19T17:00:44.000Z</time>
      </trkpt>
      <trkpt lat="47.27731" lon="-1.41104">
        <ele>56</ele>
        <time>2021-07-19T17:00:46.000Z</time>
      </trkpt>
      <trkpt lat="47.2772" lon="-1.41116">
        <ele>56</ele>
        <time>2021-07-19T17:00:48.000Z</time>
      </trkpt>
      <trkpt lat="47.27708" lon="-1.41128">
        <ele>56</ele>
        <time>2021-07-19T17:00:50.000Z</time>
      </trkpt>
      <trkpt lat="47.27697" lon="-1.4114">
        <ele>56</ele>
        <time>2021-07-19T17:00:52.000Z</time>
      </trkpt>
      <trkpt lat="47.27686" lon="-1.41152">
        <ele>56</ele>
        <time>2021-07-19T17:00:54.000Z</time>
      </trkpt>
      <trkpt lat="47.27676" lon="-1.41166">
        <ele>56</ele>
        <time>2021-07-19T17:00:56.000Z</time>
      </trkpt>
      <trkpt lat="47.27664" lon="-1.41179">
        <ele>56</ele>
        <time>2021-07-19T17:00:58.000Z</time>
      </trkpt>
      <trkpt lat="47.27652" lon="-1.41191">
        <ele>56</ele>
        <time>2021-07-19T17:01:00.000Z</time>
      </trkpt>
      <trkpt lat="47.2764" lon="-1.41204">
        <ele>57</ele>
        <time>2021-07-19T17:01:02.000Z</time>
      </trkpt>
      <trkpt lat="47.27629" lon="-1.41215">
        <ele>57</ele>
        <time>2021-07-19T17:01:04.000Z</time>
      </trkpt>
      <trkpt lat="47.27616" lon="-1.41227">
        <ele>57</ele>
        <time>2021-07-19T17:01:06.000Z</time>
      </trkpt>
      <trkpt lat="47.27604" lon="-1.41239">
        <ele>57</ele>
        <time>2021-07-19T17:01:08.000Z</time>
      </trkpt>
      <trkpt lat="47.27593" lon="-1.41252">
        <ele>57</ele>
        <time>2021-07-19T17:01:10.000Z</time>
      </trkpt>
      <trkpt lat="47.27582" lon="-1.41265">
        <ele>57</ele>
        <time>2021-07-19T17:01:12.000Z</time>
      </trkpt>
      <trkpt lat="47.2757" lon="-1.41277">
        <ele>57</ele>
        <time>2021-07-19T17:01:14.000Z</time>
      </trkpt>
      <trkpt lat="47.27559" lon="-1.41291">
        <ele>56</ele>
        <time>2021-07-19T17:01:16.000Z</time>
      </trkpt>
      <trkpt lat="47.27548" lon="-1.41306">
        <ele>57</ele>
        <time>2021-07-19T17:01:18.000Z</time>
      </trkpt>
      <trkpt lat="47.27537" lon="-1.4132">
        <ele>57</ele>
        <time>2021-07-19T17:01:20.000Z</time>
      </trkpt>
      <trkpt lat="47.27527" lon="-1.41334">
        <ele>56</ele>
        <time>2021-07-19T17:01:22.000Z</time>
      </trkpt>
      <trkpt lat="47.27516" lon="-1.41349">
        <ele>57</ele>
        <time>2021-07-19T17:01:24.000Z</time>
      </trkpt>
      <trkpt lat="47.27506" lon="-1.41363">
        <ele>56</ele>
        <time>2021-07-19T17:01:26.000Z</time>
      </trkpt>
      <trkpt lat="47.27496" lon="-1.41377">
        <ele>56</ele>
        <time>2021-07-19T17:01:28.000Z</time>
      </trkpt>
      <trkpt lat="47.27487" lon="-1.41392">
        <ele>56</ele>
        <time>2021-07-19T17:01:30.000Z</time>
      </trkpt>
      <trkpt lat="47.27477" lon="-1.41408">
        <ele>56</ele>
        <time>2021-07-19T17:01:32.000Z</time>
      </trkpt>
      <trkpt lat="47.27468" lon="-1.41424">
        <ele>56</ele>
        <time>2021-07-19T17:01:34.000Z</time>
      </trkpt>
      <trkpt lat="47.27458" lon="-1.41441">
        <ele>55</ele>
        <time>2021-07-19T17:01:36.000Z</time>
      </trkpt>
      <trkpt lat="47.2745" lon="-1.41457">
        <ele>55</ele>
        <time>2021-07-19T17:01:38.000Z</time>
      </trkpt>
      <trkpt lat="47.27441" lon="-1.41474">
        <ele>55</ele>
        <time>2021-07-19T17:01:40.000Z</time>
      </trkpt>
      <trkpt lat="47.27432" lon="-1.4149">
        <ele>55</ele>
        <time>2021-07-19T17:01:42.000Z</time>
      </trkpt>
      <trkpt lat="47.27423" lon="-1.41505">
        <ele>54</ele>
        <time>2021-07-19T17:01:44.000Z</time>
      </trkpt>
      <trkpt lat="47.27414" lon="-1.41521">
        <ele>54</ele>
        <time>2021-07-19T17:01:46.000Z</time>
      </trkpt>
      <trkpt lat="47.27404" lon="-1.41536">
        <ele>54</ele>
        <time>2021-07-19T17:01:48.000Z</time>
      </trkpt>
      <trkpt lat="47.27394" lon="-1.4155">
        <ele>54</ele>
        <time>2021-07-19T17:01:50.000Z</time>
      </trkpt>
      <trkpt lat="47.27384" lon="-1.41565">
        <ele>53</ele>
        <time>2021-07-19T17:01:52.000Z</time>
      </trkpt>
      <trkpt lat="47.27375" lon="-1.41579">
        <ele>53</ele>
        <time>2021-07-19T17:01:54.000Z</time>
      </trkpt>
      <trkpt lat="47.27365" lon="-1.41594">
        <ele>53</ele>
        <time>2021-07-19T17:01:56.000Z</time>
      </trkpt>
      <trkpt lat="47.27355" lon="-1.41609">
        <ele>53</ele>
        <time>2021-07-19T17:01:58.000Z</time>
      </trkpt>
      <trkpt lat="47.27345" lon="-1.41624">
        <ele>52</ele>
        <time>2021-07-19T17:02:00.000Z</time>
      </trkpt>
      <trkpt lat="47.27336" lon="-1.41638">
        <ele>52</ele>
        <time>2021-07-19T17:02:02.000Z</time>
      </trkpt>
      <trkpt lat="47.27326" lon="-1.41652">
        <ele>52</ele>
        <time>2021-07-19T17:02:04.000Z</time>
      </trkpt>
      <trkpt lat="47.27318" lon="-1.41667">
        <ele>52</ele>
        <time>2021-07-19T17:02:06.000Z</time>
      </trkpt>
      <trkpt lat="47.2731" lon="-1.41682">
        <ele>52</ele>
        <time>2021-07-19T17:02:08.000Z</time>
      </trkpt>
      <trkpt lat="47.27302" lon="-1.41697">
        <ele>52</ele>
        <time>2021-07-19T17:02:10.000Z</time>
      </trkpt>
      <trkpt lat="47.27293" lon="-1.41713">
        <ele>53</ele>
        <time>2021-07-19T17:02:12.000Z</time>
      </trkpt>
      <trkpt lat="47.27285" lon="-1.41729">
        <ele>53</ele>
        <time>2021-07-19T17:02:14.000Z</time>
      </trkpt>
      <trkpt lat="47.27276" lon="-1.41747">
        <ele>54</ele>
        <time>2021-07-19T17:02:16.000Z</time>
      </trkpt>
      <trkpt lat="47.27268" lon="-1.41766">
        <ele>54</ele>
        <time>2021-07-19T17:02:18.000Z</time>
      </trkpt>
      <trkpt lat="47.27259" lon="-1.41783">
        <ele>55</ele>
        <time>2021-07-19T17:02:20.000Z</time>
      </trkpt>
      <trkpt lat="47.2725" lon="-1.41801">
        <ele>55</ele>
        <time>2021-07-19T17:02:22.000Z</time>
      </trkpt>
      <trkpt lat="47.2724" lon="-1.41818">
        <ele>55</ele>
        <time>2021-07-19T17:02:24.000Z</time>
      </trkpt>
      <trkpt lat="47.2723" lon="-1.41835">
        <ele>55</ele>
        <time>2021-07-19T17:02:26.000Z</time>
      </trkpt>
      <trkpt lat="47.27221" lon="-1.41853">
        <ele>55</ele>
        <time>2021-07-19T17:02:28.000Z</time>
      </trkpt>
      <trkpt lat="47.27211" lon="-1.4187">
        <ele>54</ele>
        <time>2021-07-19T17:02:30.000Z</time>
      </trkpt>
      <trkpt lat="47.27202" lon="-1.41886">
        <ele>55</ele>
        <time>2021-07-19T17:02:32.000Z</time>
      </trkpt>
      <trkpt lat="47.27192" lon="-1.41904">
        <ele>55</ele>
        <time>2021-07-19T17:02:34.000Z</time>
      </trkpt>
      <trkpt lat="47.27182" lon="-1.41921">
        <ele>55</ele>
        <time>2021-07-19T17:02:36.000Z</time>
      </trkpt>
      <trkpt lat="47.27172" lon="-1.41938">
        <ele>54</ele>
        <time>2021-07-19T17:02:38.000Z</time>
      </trkpt>
      <trkpt lat="47.27162" lon="-1.41955">
        <ele>54</ele>
        <time>2021-07-19T17:02:40.000Z</time>
      </trkpt>
      <trkpt lat="47.27152" lon="-1.41972">
        <ele>54</ele>
        <time>2021-07-19T17:02:42.000Z</time>
      </trkpt>
      <trkpt lat="47.27143" lon="-1.4199">
        <ele>54</ele>
        <time>2021-07-19T17:02:44.000Z</time>
      </trkpt>
      <trkpt lat="47.27134" lon="-1.42008">
        <ele>54</ele>
        <time>2021-07-19T17:02:46.000Z</time>
      </trkpt>
      <trkpt lat="47.27124" lon="-1.42023">
        <ele>54</ele>
        <time>2021-07-19T17:02:48.000Z</time>
      </trkpt>
      <trkpt lat="47.27113" lon="-1.42039">
        <ele>55</ele>
        <time>2021-07-19T17:02:50.000Z</time>
      </trkpt>
      <trkpt lat="47.27103" lon="-1.42055">
        <ele>56</ele>
        <time>2021-07-19T17:02:52.000Z</time>
      </trkpt>
      <trkpt lat="47.27093" lon="-1.42071">
        <ele>55</ele>
        <time>2021-07-19T17:02:54.000Z</time>
      </trkpt>
      <trkpt lat="47.27083" lon="-1.42086">
        <ele>56</ele>
        <time>2021-07-19T17:02:56.000Z</time>
      </trkpt>
      <trkpt lat="47.27074" lon="-1.42103">
        <ele>56</ele>
        <time>2021-07-19T17:02:58.000Z</time>
      </trkpt>
      <trkpt lat="47.27065" lon="-1.42119">
        <ele>56</ele>
        <time>2021-07-19T17:03:00.000Z</time>
      </trkpt>
      <trkpt lat="47.27056" lon="-1.42136">
        <ele>55</ele>
        <time>2021-07-19T17:03:02.000Z</time>
      </trkpt>
      <trkpt lat="47.27047" lon="-1.42152">
        <ele>55</ele>
        <time>2021-07-19T17:03:04.000Z</time>
      </trkpt>
      <trkpt lat="47.27038" lon="-1.42168">
        <ele>55</ele>
        <time>2021-07-19T17:03:06.000Z</time>
      </trkpt>
      <trkpt lat="47.27028" lon="-1.42183">
        <ele>55</ele>
        <time>2021-07-19T17:03:08.000Z</time>
      </trkpt>
      <trkpt lat="47.27019" lon="-1.42198">
        <ele>55</ele>
        <time>2021-07-19T17:03:10.000Z</time>
      </trkpt>
      <trkpt lat="47.2701" lon="-1.42215">
        <ele>54</ele>
        <time>2021-07-19T17:03:12.000Z</time>
      </trkpt>
      <trkpt lat="47.27001" lon="-1.42231">
        <ele>54</ele>
        <time>2021-07-19T17:03:14.000Z</time>
      </trkpt>
      <trkpt lat="47.26992" lon="-1.42247">
        <ele>54</ele>
        <time>2021-07-19T17:03:16.000Z</time>
      </trkpt>
      <trkpt lat="47.26983" lon="-1.42263">
        <ele>54</ele>
        <time>2021-07-19T17:03:18.000Z</time>
      </trkpt>
      <trkpt lat="47.26975" lon="-1.4228">
        <ele>55</ele>
        <time>2021-07-19T17:03:20.000Z</time>
      </trkpt>
      <trkpt lat="47.26966" lon="-1.42296">
        <ele>55</ele>
        <time>2021-07-19T17:03:22.000Z</time>
      </trkpt>
      <trkpt lat="47.26958" lon="-1.42313">
        <ele>55</ele>
        <time>2021-07-19T17:03:24.000Z</time>
      </trkpt>
      <trkpt lat="47.2695" lon="-1.4233">
        <ele>55</ele>
        <time>2021-07-19T17:03:26.000Z</time>
      </trkpt>
      <trkpt lat="47.26942" lon="-1.42347">
        <ele>55</ele>
        <time>2021-07-19T17:03:28.000Z</time>
      </trkpt>
      <trkpt lat="47.26934" lon="-1.42362">
        <ele>55</ele>
        <time>2021-07-19T17:03:30.000Z</time>
      </trkpt>
      <trkpt lat="47.26926" lon="-1.42378">
        <ele>55</ele>
        <time>2021-07-19T17:03:32.000Z</time>
      </trkpt>
      <trkpt lat="47.26918" lon="-1.42394">
        <ele>55</ele>
        <time>2021-07-19T17:03:34.000Z</time>
      </trkpt>
      <trkpt lat="47.2691" lon="-1.42411">
        <ele>55</ele>
        <time>2021-07-19T17:03:36.000Z</time>
      </trkpt>
      <trkpt lat="47.26902" lon="-1.42427">
        <ele>56</ele>
        <time>2021-07-19T17:03:38.000Z</time>
      </trkpt>
      <trkpt lat="47.26892" lon="-1.42442">
        <ele>56</ele>
        <time>2021-07-19T17:03:40.000Z</time>
      </trkpt>
      <trkpt lat="47.26884" lon="-1.42458">
        <ele>56</ele>
        <time>2021-07-19T17:03:42.000Z</time>
      </trkpt>
      <trkpt lat="47.26875" lon="-1.42475">
        <ele>56</ele>
        <time>2021-07-19T17:03:44.000Z</time>
      </trkpt>
      <trkpt lat="47.26866" lon="-1.4249">
        <ele>55</ele>
        <time>2021-07-19T17:03:46.000Z</time>
      </trkpt>
      <trkpt lat="47.26857" lon="-1.42506">
        <ele>55</ele>
        <time>2021-07-19T17:03:48.000Z</time>
      </trkpt>
      <trkpt lat="47.26849" lon="-1.42522">
        <ele>56</ele>
        <time>2021-07-19T17:03:50.000Z</time>
      </trkpt>
      <trkpt lat="47.2684" lon="-1.42539">
        <ele>56</ele>
        <time>2021-07-19T17:03:52.000Z</time>
      </trkpt>
      <trkpt lat="47.26832" lon="-1.42556">
        <ele>55</ele>
        <time>2021-07-19T17:03:54.000Z</time>
      </trkpt>
      <trkpt lat="47.26824" lon="-1.42573">
        <ele>56</ele>
        <time>2021-07-19T17:03:56.000Z</time>
      </trkpt>
      <trkpt lat="47.26815" lon="-1.4259">
        <ele>55</ele>
        <time>2021-07-19T17:03:58.000Z</time>
      </trkpt>
      <trkpt lat="47.26808" lon="-1.42607">
        <ele>55</ele>
        <time>2021-07-19T17:04:00.000Z</time>
      </trkpt>
      <trkpt lat="47.26802" lon="-1.42626">
        <ele>55</ele>
        <time>2021-07-19T17:04:02.000Z</time>
      </trkpt>
      <trkpt lat="47.26795" lon="-1.42644">
        <ele>56</ele>
        <time>2021-07-19T17:04:04.000Z</time>
      </trkpt>
      <trkpt lat="47.26788" lon="-1.42662">
        <ele>55</ele>
        <time>2021-07-19T17:04:06.000Z</time>
      </trkpt>
      <trkpt lat="47.26781" lon="-1.4268">
        <ele>55</ele>
        <time>2021-07-19T17:04:08.000Z</time>
      </trkpt>
      <trkpt lat="47.26774" lon="-1.42699">
        <ele>55</ele>
        <time>2021-07-19T17:04:10.000Z</time>
      </trkpt>
      <trkpt lat="47.26766" lon="-1.42717">
        <ele>55</ele>
        <time>2021-07-19T17:04:12.000Z</time>
      </trkpt>
      <trkpt lat="47.26759" lon="-1.42733">
        <ele>55</ele>
        <time>2021-07-19T17:04:14.000Z</time>
      </trkpt>
      <trkpt lat="47.2675" lon="-1.4275">
        <ele>55</ele>
        <time>2021-07-19T17:04:16.000Z</time>
      </trkpt>
      <trkpt lat="47.26741" lon="-1.42768">
        <ele>55</ele>
        <time>2021-07-19T17:04:18.000Z</time>
      </trkpt>
      <trkpt lat="47.26735" lon="-1.42786">
        <ele>55</ele>
        <time>2021-07-19T17:04:20.000Z</time>
      </trkpt>
      <trkpt lat="47.26731" lon="-1.42803">
        <ele>56</ele>
        <time>2021-07-19T17:04:22.000Z</time>
      </trkpt>
      <trkpt lat="47.26727" lon="-1.4282">
        <ele>56</ele>
        <time>2021-07-19T17:04:24.000Z</time>
      </trkpt>
      <trkpt lat="47.26719" lon="-1.42837">
        <ele>56</ele>
        <time>2021-07-19T17:04:26.000Z</time>
      </trkpt>
      <trkpt lat="47.26711" lon="-1.42856">
        <ele>55</ele>
        <time>2021-07-19T17:04:28.000Z</time>
      </trkpt>
      <trkpt lat="47.26703" lon="-1.42873">
        <ele>54</ele>
        <time>2021-07-19T17:04:30.000Z</time>
      </trkpt>
      <trkpt lat="47.26694" lon="-1.42891">
        <ele>55</ele>
        <time>2021-07-19T17:04:32.000Z</time>
      </trkpt>
      <trkpt lat="47.26685" lon="-1.42909">
        <ele>55</ele>
        <time>2021-07-19T17:04:34.000Z</time>
      </trkpt>
      <trkpt lat="47.26677" lon="-1.42926">
        <ele>55</ele>
        <time>2021-07-19T17:04:36.000Z</time>
      </trkpt>
      <trkpt lat="47.26669" lon="-1.42944">
        <ele>56</ele>
        <time>2021-07-19T17:04:38.000Z</time>
      </trkpt>
      <trkpt lat="47.2666" lon="-1.42962">
        <ele>55</ele>
        <time>2021-07-19T17:04:40.000Z</time>
      </trkpt>
      <trkpt lat="47.26652" lon="-1.42979">
        <ele>55</ele>
        <time>2021-07-19T17:04:42.000Z</time>
      </trkpt>
      <trkpt lat="47.26644" lon="-1.42996">
        <ele>56</ele>
        <time>2021-07-19T17:04:44.000Z</time>
      </trkpt>
      <trkpt lat="47.26636" lon="-1.43014">
        <ele>56</ele>
        <time>2021-07-19T17:04:46.000Z</time>
      </trkpt>
      <trkpt lat="47.26628" lon="-1.43031">
        <ele>57</ele>
        <time>2021-07-19T17:04:48.000Z</time>
      </trkpt>
      <trkpt lat="47.2662" lon="-1.43047">
        <ele>56</ele>
        <time>2021-07-19T17:04:50.000Z</time>
      </trkpt>
      <trkpt lat="47.26611" lon="-1.43064">
        <ele>56</ele>
        <time>2021-07-19T17:04:52.000Z</time>
      </trkpt>
      <trkpt lat="47.26603" lon="-1.4308">
        <ele>56</ele>
        <time>2021-07-19T17:04:54.000Z</time>
      </trkpt>
      <trkpt lat="47.26594" lon="-1.43095">
        <ele>56</ele>
        <time>2021-07-19T17:04:56.000Z</time>
      </trkpt>
      <trkpt lat="47.26585" lon="-1.4311">
        <ele>56</ele>
        <time>2021-07-19T17:04:58.000Z</time>
      </trkpt>
      <trkpt lat="47.26575" lon="-1.43125">
        <ele>56</ele>
        <time>2021-07-19T17:05:00.000Z</time>
      </trkpt>
      <trkpt lat="47.26562" lon="-1.43145">
        <ele>56</ele>
        <time>2021-07-19T17:05:03.000Z</time>
      </trkpt>
      <trkpt lat="47.26553" lon="-1.43161">
        <ele>55</ele>
        <time>2021-07-19T17:05:05.000Z</time>
      </trkpt>
      <trkpt lat="47.26543" lon="-1.43176">
        <ele>56</ele>
        <time>2021-07-19T17:05:07.000Z</time>
      </trkpt>
      <trkpt lat="47.26528" lon="-1.43198">
        <ele>55</ele>
        <time>2021-07-19T17:05:10.000Z</time>
      </trkpt>
      <trkpt lat="47.26518" lon="-1.43213">
        <ele>55</ele>
        <time>2021-07-19T17:05:12.000Z</time>
      </trkpt>
      <trkpt lat="47.26508" lon="-1.43225">
        <ele>55</ele>
        <time>2021-07-19T17:05:14.000Z</time>
      </trkpt>
      <trkpt lat="47.26498" lon="-1.43237">
        <ele>55</ele>
        <time>2021-07-19T17:05:16.000Z</time>
      </trkpt>
      <trkpt lat="47.26482" lon="-1.43256">
        <ele>55</ele>
        <time>2021-07-19T17:05:19.000Z</time>
      </trkpt>
      <trkpt lat="47.26473" lon="-1.4327">
        <ele>54</ele>
        <time>2021-07-19T17:05:21.000Z</time>
      </trkpt>
      <trkpt lat="47.26464" lon="-1.43285">
        <ele>53</ele>
        <time>2021-07-19T17:05:23.000Z</time>
      </trkpt>
      <trkpt lat="47.26454" lon="-1.43299">
        <ele>53</ele>
        <time>2021-07-19T17:05:25.000Z</time>
      </trkpt>
      <trkpt lat="47.26444" lon="-1.43316">
        <ele>53</ele>
        <time>2021-07-19T17:05:27.000Z</time>
      </trkpt>
      <trkpt lat="47.26434" lon="-1.43332">
        <ele>53</ele>
        <time>2021-07-19T17:05:29.000Z</time>
      </trkpt>
      <trkpt lat="47.26423" lon="-1.43346">
        <ele>53</ele>
        <time>2021-07-19T17:05:31.000Z</time>
      </trkpt>
      <trkpt lat="47.26411" lon="-1.43359">
        <ele>52</ele>
        <time>2021-07-19T17:05:33.000Z</time>
      </trkpt>
      <trkpt lat="47.264" lon="-1.43374">
        <ele>53</ele>
        <time>2021-07-19T17:05:35.000Z</time>
      </trkpt>
      <trkpt lat="47.26388" lon="-1.43388">
        <ele>54</ele>
        <time>2021-07-19T17:05:37.000Z</time>
      </trkpt>
      <trkpt lat="47.26377" lon="-1.43401">
        <ele>54</ele>
        <time>2021-07-19T17:05:39.000Z</time>
      </trkpt>
      <trkpt lat="47.26364" lon="-1.43415">
        <ele>54</ele>
        <time>2021-07-19T17:05:41.000Z</time>
      </trkpt>
      <trkpt lat="47.26352" lon="-1.43427">
        <ele>54</ele>
        <time>2021-07-19T17:05:43.000Z</time>
      </trkpt>
      <trkpt lat="47.2634" lon="-1.4344">
        <ele>54</ele>
        <time>2021-07-19T17:05:45.000Z</time>
      </trkpt>
      <trkpt lat="47.26329" lon="-1.43452">
        <ele>54</ele>
        <time>2021-07-19T17:05:47.000Z</time>
      </trkpt>
      <trkpt lat="47.26317" lon="-1.43464">
        <ele>54</ele>
        <time>2021-07-19T17:05:49.000Z</time>
      </trkpt>
      <trkpt lat="47.26305" lon="-1.43475">
        <ele>54</ele>
        <time>2021-07-19T17:05:51.000Z</time>
      </trkpt>
      <trkpt lat="47.26293" lon="-1.43485">
        <ele>54</ele>
        <time>2021-07-19T17:05:53.000Z</time>
      </trkpt>
      <trkpt lat="47.2628" lon="-1.43488">
        <ele>54</ele>
        <time>2021-07-19T17:05:55.000Z</time>
      </trkpt>
      <trkpt lat="47.26267" lon="-1.43492">
        <ele>54</ele>
        <time>2021-07-19T17:05:57.000Z</time>
      </trkpt>
      <trkpt lat="47.26255" lon="-1.43501">
        <ele>54</ele>
        <time>2021-07-19T17:05:59.000Z</time>
      </trkpt>
      <trkpt lat="47.26243" lon="-1.43513">
        <ele>54</ele>
        <time>2021-07-19T17:06:01.000Z</time>
      </trkpt>
      <trkpt lat="47.26231" lon="-1.43526">
        <ele>54</ele>
        <time>2021-07-19T17:06:03.000Z</time>
      </trkpt>
      <trkpt lat="47.26222" lon="-1.43539">
        <ele>53</ele>
        <time>2021-07-19T17:06:05.000Z</time>
      </trkpt>
      <trkpt lat="47.26216" lon="-1.43556">
        <ele>53</ele>
        <time>2021-07-19T17:06:07.000Z</time>
      </trkpt>
      <trkpt lat="47.26213" lon="-1.43576">
        <ele>53</ele>
        <time>2021-07-19T17:06:09.000Z</time>
      </trkpt>
      <trkpt lat="47.26205" lon="-1.43594">
        <ele>53</ele>
        <time>2021-07-19T17:06:11.000Z</time>
      </trkpt>
      <trkpt lat="47.26195" lon="-1.43609">
        <ele>54</ele>
        <time>2021-07-19T17:06:13.000Z</time>
      </trkpt>
      <trkpt lat="47.26186" lon="-1.43624">
        <ele>54</ele>
        <time>2021-07-19T17:06:15.000Z</time>
      </trkpt>
      <trkpt lat="47.26178" lon="-1.43639">
        <ele>54</ele>
        <time>2021-07-19T17:06:17.000Z</time>
      </trkpt>
      <trkpt lat="47.2617" lon="-1.43655">
        <ele>54</ele>
        <time>2021-07-19T17:06:19.000Z</time>
      </trkpt>
      <trkpt lat="47.2616" lon="-1.4367">
        <ele>54</ele>
        <time>2021-07-19T17:06:21.000Z</time>
      </trkpt>
      <trkpt lat="47.2615" lon="-1.43685">
        <ele>56</ele>
        <time>2021-07-19T17:06:23.000Z</time>
      </trkpt>
      <trkpt lat="47.2614" lon="-1.437">
        <ele>56</ele>
        <time>2021-07-19T17:06:25.000Z</time>
      </trkpt>
      <trkpt lat="47.26132" lon="-1.43714">
        <ele>56</ele>
        <time>2021-07-19T17:06:27.000Z</time>
      </trkpt>
      <trkpt lat="47.26123" lon="-1.43729">
        <ele>55</ele>
        <time>2021-07-19T17:06:29.000Z</time>
      </trkpt>
      <trkpt lat="47.26113" lon="-1.43743">
        <ele>56</ele>
        <time>2021-07-19T17:06:31.000Z</time>
      </trkpt>
      <trkpt lat="47.26101" lon="-1.43755">
        <ele>55</ele>
        <time>2021-07-19T17:06:33.000Z</time>
      </trkpt>
      <trkpt lat="47.26091" lon="-1.43768">
        <ele>55</ele>
        <time>2021-07-19T17:06:35.000Z</time>
      </trkpt>
      <trkpt lat="47.26079" lon="-1.4378">
        <ele>55</ele>
        <time>2021-07-19T17:06:37.000Z</time>
      </trkpt>
      <trkpt lat="47.26068" lon="-1.43793">
        <ele>55</ele>
        <time>2021-07-19T17:06:39.000Z</time>
      </trkpt>
      <trkpt lat="47.26059" lon="-1.43807">
        <ele>55</ele>
        <time>2021-07-19T17:06:41.000Z</time>
      </trkpt>
      <trkpt lat="47.26051" lon="-1.43823">
        <ele>55</ele>
        <time>2021-07-19T17:06:43.000Z</time>
      </trkpt>
      <trkpt lat="47.26044" lon="-1.43842">
        <ele>54</ele>
        <time>2021-07-19T17:06:45.000Z</time>
      </trkpt>
      <trkpt lat="47.26036" lon="-1.4386">
        <ele>54</ele>
        <time>2021-07-19T17:06:47.000Z</time>
      </trkpt>
      <trkpt lat="47.26026" lon="-1.43872">
        <ele>54</ele>
        <time>2021-07-19T17:06:49.000Z</time>
      </trkpt>
      <trkpt lat="47.26017" lon="-1.43883">
        <ele>55</ele>
        <time>2021-07-19T17:06:51.000Z</time>
      </trkpt>
      <trkpt lat="47.26006" lon="-1.43895">
        <ele>54</ele>
        <time>2021-07-19T17:06:53.000Z</time>
      </trkpt>
      <trkpt lat="47.25996" lon="-1.43907">
        <ele>55</ele>
        <time>2021-07-19T17:06:55.000Z</time>
      </trkpt>
      <trkpt lat="47.25985" lon="-1.4392">
        <ele>55</ele>
        <time>2021-07-19T17:06:57.000Z</time>
      </trkpt>
      <trkpt lat="47.25974" lon="-1.43933">
        <ele>56</ele>
        <time>2021-07-19T17:06:59.000Z</time>
      </trkpt>
      <trkpt lat="47.25962" lon="-1.43947">
        <ele>56</ele>
        <time>2021-07-19T17:07:01.000Z</time>
      </trkpt>
      <trkpt lat="47.25951" lon="-1.4396">
        <ele>57</ele>
        <time>2021-07-19T17:07:03.000Z</time>
      </trkpt>
      <trkpt lat="47.2594" lon="-1.43972">
        <ele>56</ele>
        <time>2021-07-19T17:07:05.000Z</time>
      </trkpt>
      <trkpt lat="47.25928" lon="-1.43983">
        <ele>56</ele>
        <time>2021-07-19T17:07:07.000Z</time>
      </trkpt>
      <trkpt lat="47.25917" lon="-1.43997">
        <ele>56</ele>
        <time>2021-07-19T17:07:09.000Z</time>
      </trkpt>
      <trkpt lat="47.25906" lon="-1.4401">
        <ele>55</ele>
        <time>2021-07-19T17:07:11.000Z</time>
      </trkpt>
      <trkpt lat="47.25894" lon="-1.44024">
        <ele>55</ele>
        <time>2021-07-19T17:07:13.000Z</time>
      </trkpt>
      <trkpt lat="47.25883" lon="-1.44039">
        <ele>55</ele>
        <time>2021-07-19T17:07:15.000Z</time>
      </trkpt>
      <trkpt lat="47.25875" lon="-1.44059">
        <ele>55</ele>
        <time>2021-07-19T17:07:17.000Z</time>
      </trkpt>
      <trkpt lat="47.25868" lon="-1.44076">
        <ele>55</ele>
        <time>2021-07-19T17:07:19.000Z</time>
      </trkpt>
      <trkpt lat="47.25859" lon="-1.44091">
        <ele>54</ele>
        <time>2021-07-19T17:07:21.000Z</time>
      </trkpt>
      <trkpt lat="47.25849" lon="-1.44105">
        <ele>54</ele>
        <time>2021-07-19T17:07:23.000Z</time>
      </trkpt>
      <trkpt lat="47.25838" lon="-1.44118">
        <ele>54</ele>
        <time>2021-07-19T17:07:25.000Z</time>
      </trkpt>
      <trkpt lat="47.25827" lon="-1.4413">
        <ele>54</ele>
        <time>2021-07-19T17:07:27.000Z</time>
      </trkpt>
      <trkpt lat="47.25816" lon="-1.44142">
        <ele>54</ele>
        <time>2021-07-19T17:07:29.000Z</time>
      </trkpt>
      <trkpt lat="47.25804" lon="-1.44155">
        <ele>54</ele>
        <time>2021-07-19T17:07:31.000Z</time>
      </trkpt>
      <trkpt lat="47.25792" lon="-1.44167">
        <ele>55</ele>
        <time>2021-07-19T17:07:33.000Z</time>
      </trkpt>
      <trkpt lat="47.25781" lon="-1.44179">
        <ele>55</ele>
        <time>2021-07-19T17:07:35.000Z</time>
      </trkpt>
      <trkpt lat="47.2577" lon="-1.44192">
        <ele>56</ele>
        <time>2021-07-19T17:07:37.000Z</time>
      </trkpt>
      <trkpt lat="47.2576" lon="-1.44205">
        <ele>56</ele>
        <time>2021-07-19T17:07:39.000Z</time>
      </trkpt>
      <trkpt lat="47.25749" lon="-1.44219">
        <ele>56</ele>
        <time>2021-07-19T17:07:41.000Z</time>
      </trkpt>
      <trkpt lat="47.25739" lon="-1.44233">
        <ele>56</ele>
        <time>2021-07-19T17:07:43.000Z</time>
      </trkpt>
      <trkpt lat="47.25728" lon="-1.44247">
        <ele>56</ele>
        <time>2021-07-19T17:07:45.000Z</time>
      </trkpt>
      <trkpt lat="47.25717" lon="-1.44261">
        <ele>56</ele>
        <time>2021-07-19T17:07:47.000Z</time>
      </trkpt>
      <trkpt lat="47.25706" lon="-1.44274">
        <ele>56</ele>
        <time>2021-07-19T17:07:49.000Z</time>
      </trkpt>
      <trkpt lat="47.25694" lon="-1.44287">
        <ele>56</ele>
        <time>2021-07-19T17:07:51.000Z</time>
      </trkpt>
      <trkpt lat="47.25683" lon="-1.443">
        <ele>56</ele>
        <time>2021-07-19T17:07:53.000Z</time>
      </trkpt>
      <trkpt lat="47.25672" lon="-1.44313">
        <ele>56</ele>
        <time>2021-07-19T17:07:55.000Z</time>
      </trkpt>
      <trkpt lat="47.25662" lon="-1.44326">
        <ele>56</ele>
        <time>2021-07-19T17:07:57.000Z</time>
      </trkpt>
      <trkpt lat="47.25652" lon="-1.44339">
        <ele>55</ele>
        <time>2021-07-19T17:07:59.000Z</time>
      </trkpt>
      <trkpt lat="47.25641" lon="-1.44351">
        <ele>55</ele>
        <time>2021-07-19T17:08:01.000Z</time>
      </trkpt>
      <trkpt lat="47.2563" lon="-1.44363">
        <ele>55</ele>
        <time>2021-07-19T17:08:03.000Z</time>
      </trkpt>
      <trkpt lat="47.25618" lon="-1.44376">
        <ele>55</ele>
        <time>2021-07-19T17:08:05.000Z</time>
      </trkpt>
      <trkpt lat="47.25606" lon="-1.44389">
        <ele>54</ele>
        <time>2021-07-19T17:08:07.000Z</time>
      </trkpt>
      <trkpt lat="47.25595" lon="-1.44402">
        <ele>54</ele>
        <time>2021-07-19T17:08:09.000Z</time>
      </trkpt>
      <trkpt lat="47.25584" lon="-1.44416">
        <ele>54</ele>
        <time>2021-07-19T17:08:11.000Z</time>
      </trkpt>
      <trkpt lat="47.25573" lon="-1.44429">
        <ele>54</ele>
        <time>2021-07-19T17:08:13.000Z</time>
      </trkpt>
      <trkpt lat="47.25563" lon="-1.44443">
        <ele>55</ele>
        <time>2021-07-19T17:08:15.000Z</time>
      </trkpt>
      <trkpt lat="47.25552" lon="-1.44458">
        <ele>55</ele>
        <time>2021-07-19T17:08:17.000Z</time>
      </trkpt>
      <trkpt lat="47.25541" lon="-1.44474">
        <ele>56</ele>
        <time>2021-07-19T17:08:19.000Z</time>
      </trkpt>
      <trkpt lat="47.25531" lon="-1.44489">
        <ele>56</ele>
        <time>2021-07-19T17:08:21.000Z</time>
      </trkpt>
      <trkpt lat="47.25521" lon="-1.44505">
        <ele>56</ele>
        <time>2021-07-19T17:08:23.000Z</time>
      </trkpt>
      <trkpt lat="47.25511" lon="-1.4452">
        <ele>55</ele>
        <time>2021-07-19T17:08:25.000Z</time>
      </trkpt>
      <trkpt lat="47.25501" lon="-1.44534">
        <ele>55</ele>
        <time>2021-07-19T17:08:27.000Z</time>
      </trkpt>
      <trkpt lat="47.2549" lon="-1.44548">
        <ele>55</ele>
        <time>2021-07-19T17:08:29.000Z</time>
      </trkpt>
      <trkpt lat="47.25479" lon="-1.44563">
        <ele>55</ele>
        <time>2021-07-19T17:08:31.000Z</time>
      </trkpt>
      <trkpt lat="47.25469" lon="-1.44579">
        <ele>54</ele>
        <time>2021-07-19T17:08:33.000Z</time>
      </trkpt>
      <trkpt lat="47.25459" lon="-1.44594">
        <ele>54</ele>
        <time>2021-07-19T17:08:35.000Z</time>
      </trkpt>
      <trkpt lat="47.25449" lon="-1.44609">
        <ele>53</ele>
        <time>2021-07-19T17:08:37.000Z</time>
      </trkpt>
      <trkpt lat="47.25438" lon="-1.44623">
        <ele>53</ele>
        <time>2021-07-19T17:08:39.000Z</time>
      </trkpt>
      <trkpt lat="47.25428" lon="-1.44638">
        <ele>53</ele>
        <time>2021-07-19T17:08:41.000Z</time>
      </trkpt>
      <trkpt lat="47.25418" lon="-1.44653">
        <ele>52</ele>
        <time>2021-07-19T17:08:43.000Z</time>
      </trkpt>
      <trkpt lat="47.25408" lon="-1.44667">
        <ele>53</ele>
        <time>2021-07-19T17:08:45.000Z</time>
      </trkpt>
      <trkpt lat="47.25397" lon="-1.44682">
        <ele>53</ele>
        <time>2021-07-19T17:08:47.000Z</time>
      </trkpt>
      <trkpt lat="47.25385" lon="-1.44695">
        <ele>53</ele>
        <time>2021-07-19T17:08:49.000Z</time>
      </trkpt>
      <trkpt lat="47.25375" lon="-1.44708">
        <ele>53</ele>
        <time>2021-07-19T17:08:51.000Z</time>
      </trkpt>
      <trkpt lat="47.25363" lon="-1.4472">
        <ele>53</ele>
        <time>2021-07-19T17:08:53.000Z</time>
      </trkpt>
      <trkpt lat="47.25352" lon="-1.44731">
        <ele>52</ele>
        <time>2021-07-19T17:08:55.000Z</time>
      </trkpt>
      <trkpt lat="47.25341" lon="-1.44742">
        <ele>52</ele>
        <time>2021-07-19T17:08:57.000Z</time>
      </trkpt>
      <trkpt lat="47.25327" lon="-1.44754">
        <ele>51</ele>
        <time>2021-07-19T17:08:59.000Z</time>
      </trkpt>
      <trkpt lat="47.25316" lon="-1.44765">
        <ele>51</ele>
        <time>2021-07-19T17:09:01.000Z</time>
      </trkpt>
      <trkpt lat="47.25305" lon="-1.44778">
        <ele>51</ele>
        <time>2021-07-19T17:09:03.000Z</time>
      </trkpt>
      <trkpt lat="47.25294" lon="-1.4479">
        <ele>51</ele>
        <time>2021-07-19T17:09:05.000Z</time>
      </trkpt>
      <trkpt lat="47.25284" lon="-1.44802">
        <ele>51</ele>
        <time>2021-07-19T17:09:07.000Z</time>
      </trkpt>
      <trkpt lat="47.25272" lon="-1.44814">
        <ele>51</ele>
        <time>2021-07-19T17:09:09.000Z</time>
      </trkpt>
      <trkpt lat="47.25261" lon="-1.44828">
        <ele>51</ele>
        <time>2021-07-19T17:09:11.000Z</time>
      </trkpt>
      <trkpt lat="47.25249" lon="-1.44841">
        <ele>51</ele>
        <time>2021-07-19T17:09:13.000Z</time>
      </trkpt>
      <trkpt lat="47.25238" lon="-1.44852">
        <ele>51</ele>
        <time>2021-07-19T17:09:15.000Z</time>
      </trkpt>
      <trkpt lat="47.25226" lon="-1.44864">
        <ele>51</ele>
        <time>2021-07-19T17:09:17.000Z</time>
      </trkpt>
      <trkpt lat="47.25215" lon="-1.44874">
        <ele>51</ele>
        <time>2021-07-19T17:09:19.000Z</time>
      </trkpt>
      <trkpt lat="47.25202" lon="-1.44884">
        <ele>52</ele>
        <time>2021-07-19T17:09:21.000Z</time>
      </trkpt>
      <trkpt lat="47.25189" lon="-1.44893">
        <ele>51</ele>
        <time>2021-07-19T17:09:23.000Z</time>
      </trkpt>
      <trkpt lat="47.25177" lon="-1.44906">
        <ele>50</ele>
        <time>2021-07-19T17:09:25.000Z</time>
      </trkpt>
      <trkpt lat="47.25165" lon="-1.44919">
        <ele>50</ele>
        <time>2021-07-19T17:09:27.000Z</time>
      </trkpt>
      <trkpt lat="47.25153" lon="-1.44929">
        <ele>50</ele>
        <time>2021-07-19T17:09:29.000Z</time>
      </trkpt>
      <trkpt lat="47.25141" lon="-1.44941">
        <ele>50</ele>
        <time>2021-07-19T17:09:31.000Z</time>
      </trkpt>
      <trkpt lat="47.25129" lon="-1.44953">
        <ele>50</ele>
        <time>2021-07-19T17:09:33.000Z</time>
      </trkpt>
      <trkpt lat="47.25117" lon="-1.44964">
        <ele>50</ele>
        <time>2021-07-19T17:09:35.000Z</time>
      </trkpt>
      <trkpt lat="47.25105" lon="-1.44975">
        <ele>50</ele>
        <time>2021-07-19T17:09:37.000Z</time>
      </trkpt>
      <trkpt lat="47.25093" lon="-1.44986">
        <ele>50</ele>
        <time>2021-07-19T17:09:39.000Z</time>
      </trkpt>
      <trkpt lat="47.25082" lon="-1.44997">
        <ele>51</ele>
        <time>2021-07-19T17:09:41.000Z</time>
      </trkpt>
      <trkpt lat="47.25071" lon="-1.45007">
        <ele>51</ele>
        <time>2021-07-19T17:09:43.000Z</time>
      </trkpt>
      <trkpt lat="47.25059" lon="-1.45017">
        <ele>51</ele>
        <time>2021-07-19T17:09:45.000Z</time>
      </trkpt>
      <trkpt lat="47.25046" lon="-1.45026">
        <ele>51</ele>
        <time>2021-07-19T17:09:47.000Z</time>
      </trkpt>
      <trkpt lat="47.25034" lon="-1.45035">
        <ele>51</ele>
        <time>2021-07-19T17:09:49.000Z</time>
      </trkpt>
      <trkpt lat="47.25022" lon="-1.45045">
        <ele>52</ele>
        <time>2021-07-19T17:09:51.000Z</time>
      </trkpt>
      <trkpt lat="47.25009" lon="-1.45056">
        <ele>51</ele>
        <time>2021-07-19T17:09:53.000Z</time>
      </trkpt>
      <trkpt lat="47.24997" lon="-1.45067">
        <ele>52</ele>
        <time>2021-07-19T17:09:55.000Z</time>
      </trkpt>
      <trkpt lat="47.24986" lon="-1.45079">
        <ele>51</ele>
        <time>2021-07-19T17:09:57.000Z</time>
      </trkpt>
      <trkpt lat="47.24975" lon="-1.45092">
        <ele>51</ele>
        <time>2021-07-19T17:09:59.000Z</time>
      </trkpt>
      <trkpt lat="47.24964" lon="-1.45104">
        <ele>51</ele>
        <time>2021-07-19T17:10:01.000Z</time>
      </trkpt>
      <trkpt lat="47.24953" lon="-1.45115">
        <ele>50</ele>
        <time>2021-07-19T17:10:03.000Z</time>
      </trkpt>
      <trkpt lat="47.24942" lon="-1.45127">
        <ele>50</ele>
        <time>2021-07-19T17:10:05.000Z</time>
      </trkpt>
      <trkpt lat="47.24931" lon="-1.45138">
        <ele>49</ele>
        <time>2021-07-19T17:10:07.000Z</time>
      </trkpt>
      <trkpt lat="47.24919" lon="-1.4515">
        <ele>50</ele>
        <time>2021-07-19T17:10:09.000Z</time>
      </trkpt>
      <trkpt lat="47.24908" lon="-1.45162">
        <ele>50</ele>
        <time>2021-07-19T17:10:11.000Z</time>
      </trkpt>
      <trkpt lat="47.24899" lon="-1.45176">
        <ele>50</ele>
        <time>2021-07-19T17:10:13.000Z</time>
      </trkpt>
      <trkpt lat="47.2489" lon="-1.4519">
        <ele>51</ele>
        <time>2021-07-19T17:10:15.000Z</time>
      </trkpt>
      <trkpt lat="47.24883" lon="-1.45203">
        <ele>51</ele>
        <time>2021-07-19T17:10:17.000Z</time>
      </trkpt>
      <trkpt lat="47.24874" lon="-1.45216">
        <ele>51</ele>
        <time>2021-07-19T17:10:19.000Z</time>
      </trkpt>
      <trkpt lat="47.24864" lon="-1.45228">
        <ele>50</ele>
        <time>2021-07-19T17:10:21.000Z</time>
      </trkpt>
      <trkpt lat="47.24854" lon="-1.45242">
        <ele>51</ele>
        <time>2021-07-19T17:10:23.000Z</time>
      </trkpt>
      <trkpt lat="47.24844" lon="-1.45258">
        <ele>51</ele>
        <time>2021-07-19T17:10:25.000Z</time>
      </trkpt>
      <trkpt lat="47.24835" lon="-1.45274">
        <ele>51</ele>
        <time>2021-07-19T17:10:27.000Z</time>
      </trkpt>
      <trkpt lat="47.24826" lon="-1.4529">
        <ele>51</ele>
        <time>2021-07-19T17:10:29.000Z</time>
      </trkpt>
      <trkpt lat="47.24817" lon="-1.45305">
        <ele>52</ele>
        <time>2021-07-19T17:10:31.000Z</time>
      </trkpt>
      <trkpt lat="47.24807" lon="-1.45322">
        <ele>52</ele>
        <time>2021-07-19T17:10:33.000Z</time>
      </trkpt>
      <trkpt lat="47.248" lon="-1.45339">
        <ele>52</ele>
        <time>2021-07-19T17:10:35.000Z</time>
      </trkpt>
      <trkpt lat="47.24791" lon="-1.45356">
        <ele>51</ele>
        <time>2021-07-19T17:10:37.000Z</time>
      </trkpt>
      <trkpt lat="47.24783" lon="-1.45376">
        <ele>51</ele>
        <time>2021-07-19T17:10:39.000Z</time>
      </trkpt>
      <trkpt lat="47.24777" lon="-1.45396">
        <ele>53</ele>
        <time>2021-07-19T17:10:41.000Z</time>
      </trkpt>
      <trkpt lat="47.24769" lon="-1.45415">
        <ele>53</ele>
        <time>2021-07-19T17:10:43.000Z</time>
      </trkpt>
      <trkpt lat="47.24763" lon="-1.45432">
        <ele>54</ele>
        <time>2021-07-19T17:10:45.000Z</time>
      </trkpt>
      <trkpt lat="47.24756" lon="-1.45449">
        <ele>53</ele>
        <time>2021-07-19T17:10:47.000Z</time>
      </trkpt>
      <trkpt lat="47.2475" lon="-1.45466">
        <ele>53</ele>
        <time>2021-07-19T17:10:49.000Z</time>
      </trkpt>
      <trkpt lat="47.24744" lon="-1.45482">
        <ele>53</ele>
        <time>2021-07-19T17:10:51.000Z</time>
      </trkpt>
      <trkpt lat="47.24737" lon="-1.455">
        <ele>53</ele>
        <time>2021-07-19T17:10:53.000Z</time>
      </trkpt>
      <trkpt lat="47.2473" lon="-1.45518">
        <ele>53</ele>
        <time>2021-07-19T17:10:55.000Z</time>
      </trkpt>
      <trkpt lat="47.24723" lon="-1.45535">
        <ele>53</ele>
        <time>2021-07-19T17:10:57.000Z</time>
      </trkpt>
      <trkpt lat="47.24716" lon="-1.45552">
        <ele>53</ele>
        <time>2021-07-19T17:10:59.000Z</time>
      </trkpt>
      <trkpt lat="47.2471" lon="-1.45571">
        <ele>53</ele>
        <time>2021-07-19T17:11:01.000Z</time>
      </trkpt>
      <trkpt lat="47.24705" lon="-1.45588">
        <ele>53</ele>
        <time>2021-07-19T17:11:03.000Z</time>
      </trkpt>
      <trkpt lat="47.24698" lon="-1.45606">
        <ele>54</ele>
        <time>2021-07-19T17:11:05.000Z</time>
      </trkpt>
      <trkpt lat="47.24693" lon="-1.45625">
        <ele>54</ele>
        <time>2021-07-19T17:11:07.000Z</time>
      </trkpt>
      <trkpt lat="47.24686" lon="-1.45642">
        <ele>54</ele>
        <time>2021-07-19T17:11:09.000Z</time>
      </trkpt>
      <trkpt lat="47.2468" lon="-1.45658">
        <ele>54</ele>
        <time>2021-07-19T17:11:11.000Z</time>
      </trkpt>
      <trkpt lat="47.24676" lon="-1.45677">
        <ele>55</ele>
        <time>2021-07-19T17:11:13.000Z</time>
      </trkpt>
      <trkpt lat="47.24673" lon="-1.45695">
        <ele>55</ele>
        <time>2021-07-19T17:11:15.000Z</time>
      </trkpt>
      <trkpt lat="47.24668" lon="-1.45715">
        <ele>54</ele>
        <time>2021-07-19T17:11:17.000Z</time>
      </trkpt>
      <trkpt lat="47.24664" lon="-1.45735">
        <ele>55</ele>
        <time>2021-07-19T17:11:19.000Z</time>
      </trkpt>
      <trkpt lat="47.2466" lon="-1.45754">
        <ele>55</ele>
        <time>2021-07-19T17:11:21.000Z</time>
      </trkpt>
      <trkpt lat="47.24656" lon="-1.45772">
        <ele>55</ele>
        <time>2021-07-19T17:11:23.000Z</time>
      </trkpt>
      <trkpt lat="47.24651" lon="-1.45789">
        <ele>56</ele>
        <time>2021-07-19T17:11:25.000Z</time>
      </trkpt>
      <trkpt lat="47.24646" lon="-1.45806">
        <ele>56</ele>
        <time>2021-07-19T17:11:27.000Z</time>
      </trkpt>
      <trkpt lat="47.24641" lon="-1.45822">
        <ele>56</ele>
        <time>2021-07-19T17:11:29.000Z</time>
      </trkpt>
      <trkpt lat="47.24636" lon="-1.45839">
        <ele>56</ele>
        <time>2021-07-19T17:11:31.000Z</time>
      </trkpt>
      <trkpt lat="47.24631" lon="-1.45857">
        <ele>56</ele>
        <time>2021-07-19T17:11:33.000Z</time>
      </trkpt>
      <trkpt lat="47.24624" lon="-1.45876">
        <ele>56</ele>
        <time>2021-07-19T17:11:35.000Z</time>
      </trkpt>
      <trkpt lat="47.24619" lon="-1.45897">
        <ele>54</ele>
        <time>2021-07-19T17:11:37.000Z</time>
      </trkpt>
      <trkpt lat="47.24613" lon="-1.45915">
        <ele>54</ele>
        <time>2021-07-19T17:11:39.000Z</time>
      </trkpt>
      <trkpt lat="47.24606" lon="-1.45933">
        <ele>54</ele>
        <time>2021-07-19T17:11:41.000Z</time>
      </trkpt>
      <trkpt lat="47.24598" lon="-1.45951">
        <ele>53</ele>
        <time>2021-07-19T17:11:43.000Z</time>
      </trkpt>
      <trkpt lat="47.24592" lon="-1.45966">
        <ele>53</ele>
        <time>2021-07-19T17:11:45.000Z</time>
      </trkpt>
      <trkpt lat="47.24584" lon="-1.45982">
        <ele>54</ele>
        <time>2021-07-19T17:11:47.000Z</time>
      </trkpt>
      <trkpt lat="47.24577" lon="-1.45998">
        <ele>55</ele>
        <time>2021-07-19T17:11:49.000Z</time>
      </trkpt>
      <trkpt lat="47.24569" lon="-1.46014">
        <ele>54</ele>
        <time>2021-07-19T17:11:51.000Z</time>
      </trkpt>
      <trkpt lat="47.2456" lon="-1.4603">
        <ele>54</ele>
        <time>2021-07-19T17:11:53.000Z</time>
      </trkpt>
      <trkpt lat="47.24552" lon="-1.46046">
        <ele>54</ele>
        <time>2021-07-19T17:11:55.000Z</time>
      </trkpt>
      <trkpt lat="47.24544" lon="-1.46063">
        <ele>54</ele>
        <time>2021-07-19T17:11:57.000Z</time>
      </trkpt>
      <trkpt lat="47.24534" lon="-1.46082">
        <ele>54</ele>
        <time>2021-07-19T17:11:59.000Z</time>
      </trkpt>
      <trkpt lat="47.24525" lon="-1.46098">
        <ele>54</ele>
        <time>2021-07-19T17:12:01.000Z</time>
      </trkpt>
      <trkpt lat="47.24514" lon="-1.46112">
        <ele>53</ele>
        <time>2021-07-19T17:12:03.000Z</time>
      </trkpt>
      <trkpt lat="47.24504" lon="-1.46124">
        <ele>53</ele>
        <time>2021-07-19T17:12:05.000Z</time>
      </trkpt>
      <trkpt lat="47.24494" lon="-1.46137">
        <ele>53</ele>
        <time>2021-07-19T17:12:07.000Z</time>
      </trkpt>
      <trkpt lat="47.24484" lon="-1.4615">
        <ele>53</ele>
        <time>2021-07-19T17:12:09.000Z</time>
      </trkpt>
      <trkpt lat="47.24474" lon="-1.46163">
        <ele>54</ele>
        <time>2021-07-19T17:12:11.000Z</time>
      </trkpt>
      <trkpt lat="47.24465" lon="-1.46176">
        <ele>54</ele>
        <time>2021-07-19T17:12:13.000Z</time>
      </trkpt>
      <trkpt lat="47.24455" lon="-1.46186">
        <ele>54</ele>
        <time>2021-07-19T17:12:15.000Z</time>
      </trkpt>
      <trkpt lat="47.24443" lon="-1.46199">
        <ele>53</ele>
        <time>2021-07-19T17:12:17.000Z</time>
      </trkpt>
      <trkpt lat="47.24432" lon="-1.46212">
        <ele>53</ele>
        <time>2021-07-19T17:12:19.000Z</time>
      </trkpt>
      <trkpt lat="47.24422" lon="-1.46225">
        <ele>53</ele>
        <time>2021-07-19T17:12:21.000Z</time>
      </trkpt>
      <trkpt lat="47.24412" lon="-1.46239">
        <ele>54</ele>
        <time>2021-07-19T17:12:23.000Z</time>
      </trkpt>
      <trkpt lat="47.24401" lon="-1.46253">
        <ele>53</ele>
        <time>2021-07-19T17:12:25.000Z</time>
      </trkpt>
      <trkpt lat="47.24392" lon="-1.46266">
        <ele>54</ele>
        <time>2021-07-19T17:12:27.000Z</time>
      </trkpt>
      <trkpt lat="47.24383" lon="-1.4628">
        <ele>54</ele>
        <time>2021-07-19T17:12:29.000Z</time>
      </trkpt>
      <trkpt lat="47.24373" lon="-1.46294">
        <ele>55</ele>
        <time>2021-07-19T17:12:31.000Z</time>
      </trkpt>
      <trkpt lat="47.24364" lon="-1.46308">
        <ele>55</ele>
        <time>2021-07-19T17:12:33.000Z</time>
      </trkpt>
      <trkpt lat="47.24356" lon="-1.46322">
        <ele>55</ele>
        <time>2021-07-19T17:12:35.000Z</time>
      </trkpt>
      <trkpt lat="47.24348" lon="-1.46338">
        <ele>54</ele>
        <time>2021-07-19T17:12:37.000Z</time>
      </trkpt>
      <trkpt lat="47.2434" lon="-1.46352">
        <ele>54</ele>
        <time>2021-07-19T17:12:39.000Z</time>
      </trkpt>
      <trkpt lat="47.24331" lon="-1.46368">
        <ele>54</ele>
        <time>2021-07-19T17:12:41.000Z</time>
      </trkpt>
      <trkpt lat="47.24322" lon="-1.46383">
        <ele>54</ele>
        <time>2021-07-19T17:12:43.000Z</time>
      </trkpt>
      <trkpt lat="47.24313" lon="-1.464">
        <ele>53</ele>
        <time>2021-07-19T17:12:45.000Z</time>
      </trkpt>
      <trkpt lat="47.24303" lon="-1.46416">
        <ele>53</ele>
        <time>2021-07-19T17:12:47.000Z</time>
      </trkpt>
      <trkpt lat="47.24294" lon="-1.46431">
        <ele>53</ele>
        <time>2021-07-19T17:12:49.000Z</time>
      </trkpt>
      <trkpt lat="47.24284" lon="-1.46445">
        <ele>53</ele>
        <time>2021-07-19T17:12:51.000Z</time>
      </trkpt>
      <trkpt lat="47.24273" lon="-1.46458">
        <ele>53</ele>
        <time>2021-07-19T17:12:53.000Z</time>
      </trkpt>
      <trkpt lat="47.24264" lon="-1.46471">
        <ele>54</ele>
        <time>2021-07-19T17:12:55.000Z</time>
      </trkpt>
      <trkpt lat="47.24254" lon="-1.46484">
        <ele>54</ele>
        <time>2021-07-19T17:12:57.000Z</time>
      </trkpt>
      <trkpt lat="47.24243" lon="-1.46498">
        <ele>54</ele>
        <time>2021-07-19T17:12:59.000Z</time>
      </trkpt>
      <trkpt lat="47.24233" lon="-1.46511">
        <ele>55</ele>
        <time>2021-07-19T17:13:01.000Z</time>
      </trkpt>
      <trkpt lat="47.24222" lon="-1.46524">
        <ele>55</ele>
        <time>2021-07-19T17:13:03.000Z</time>
      </trkpt>
      <trkpt lat="47.24212" lon="-1.46536">
        <ele>55</ele>
        <time>2021-07-19T17:13:05.000Z</time>
      </trkpt>
      <trkpt lat="47.24202" lon="-1.4655">
        <ele>55</ele>
        <time>2021-07-19T17:13:07.000Z</time>
      </trkpt>
      <trkpt lat="47.24191" lon="-1.46563">
        <ele>55</ele>
        <time>2021-07-19T17:13:09.000Z</time>
      </trkpt>
      <trkpt lat="47.24181" lon="-1.46575">
        <ele>56</ele>
        <time>2021-07-19T17:13:11.000Z</time>
      </trkpt>
      <trkpt lat="47.24171" lon="-1.46588">
        <ele>56</ele>
        <time>2021-07-19T17:13:13.000Z</time>
      </trkpt>
      <trkpt lat="47.24162" lon="-1.46601">
        <ele>56</ele>
        <time>2021-07-19T17:13:15.000Z</time>
      </trkpt>
      <trkpt lat="47.24152" lon="-1.46613">
        <ele>56</ele>
        <time>2021-07-19T17:13:17.000Z</time>
      </trkpt>
      <trkpt lat="47.24142" lon="-1.46627">
        <ele>56</ele>
        <time>2021-07-19T17:13:19.000Z</time>
      </trkpt>
      <trkpt lat="47.24132" lon="-1.4664">
        <ele>56</ele>
        <time>2021-07-19T17:13:21.000Z</time>
      </trkpt>
      <trkpt lat="47.24123" lon="-1.46654">
        <ele>56</ele>
        <time>2021-07-19T17:13:23.000Z</time>
      </trkpt>
      <trkpt lat="47.24113" lon="-1.46667">
        <ele>56</ele>
        <time>2021-07-19T17:13:25.000Z</time>
      </trkpt>
      <trkpt lat="47.24103" lon="-1.46681">
        <ele>55</ele>
        <time>2021-07-19T17:13:27.000Z</time>
      </trkpt>
      <trkpt lat="47.24094" lon="-1.46695">
        <ele>55</ele>
        <time>2021-07-19T17:13:29.000Z</time>
      </trkpt>
      <trkpt lat="47.24086" lon="-1.4671">
        <ele>55</ele>
        <time>2021-07-19T17:13:31.000Z</time>
      </trkpt>
      <trkpt lat="47.2408" lon="-1.46726">
        <ele>55</ele>
        <time>2021-07-19T17:13:33.000Z</time>
      </trkpt>
      <trkpt lat="47.24071" lon="-1.4674">
        <ele>56</ele>
        <time>2021-07-19T17:13:35.000Z</time>
      </trkpt>
      <trkpt lat="47.24059" lon="-1.46748">
        <ele>57</ele>
        <time>2021-07-19T17:13:37.000Z</time>
      </trkpt>
      <trkpt lat="47.24046" lon="-1.46757">
        <ele>57</ele>
        <time>2021-07-19T17:13:39.000Z</time>
      </trkpt>
      <trkpt lat="47.24035" lon="-1.46769">
        <ele>57</ele>
        <time>2021-07-19T17:13:41.000Z</time>
      </trkpt>
      <trkpt lat="47.24024" lon="-1.46782">
        <ele>57</ele>
        <time>2021-07-19T17:13:43.000Z</time>
      </trkpt>
      <trkpt lat="47.24013" lon="-1.46794">
        <ele>56</ele>
        <time>2021-07-19T17:13:45.000Z</time>
      </trkpt>
      <trkpt lat="47.24001" lon="-1.46807">
        <ele>56</ele>
        <time>2021-07-19T17:13:47.000Z</time>
      </trkpt>
      <trkpt lat="47.2399" lon="-1.4682">
        <ele>57</ele>
        <time>2021-07-19T17:13:49.000Z</time>
      </trkpt>
      <trkpt lat="47.23979" lon="-1.46831">
        <ele>57</ele>
        <time>2021-07-19T17:13:51.000Z</time>
      </trkpt>
      <trkpt lat="47.23968" lon="-1.46843">
        <ele>57</ele>
        <time>2021-07-19T17:13:53.000Z</time>
      </trkpt>
      <trkpt lat="47.23957" lon="-1.46854">
        <ele>57</ele>
        <time>2021-07-19T17:13:55.000Z</time>
      </trkpt>
      <trkpt lat="47.23945" lon="-1.46864">
        <ele>57</ele>
        <time>2021-07-19T17:13:57.000Z</time>
      </trkpt>
      <trkpt lat="47.23933" lon="-1.46873">
        <ele>57</ele>
        <time>2021-07-19T17:13:59.000Z</time>
      </trkpt>
      <trkpt lat="47.23922" lon="-1.46885">
        <ele>57</ele>
        <time>2021-07-19T17:14:01.000Z</time>
      </trkpt>
      <trkpt lat="47.23911" lon="-1.46898">
        <ele>57</ele>
        <time>2021-07-19T17:14:03.000Z</time>
      </trkpt>
      <trkpt lat="47.23901" lon="-1.46912">
        <ele>57</ele>
        <time>2021-07-19T17:14:05.000Z</time>
      </trkpt>
      <trkpt lat="47.23891" lon="-1.46926">
        <ele>58</ele>
        <time>2021-07-19T17:14:07.000Z</time>
      </trkpt>
      <trkpt lat="47.23881" lon="-1.4694">
        <ele>58</ele>
        <time>2021-07-19T17:14:09.000Z</time>
      </trkpt>
      <trkpt lat="47.2387" lon="-1.46955">
        <ele>58</ele>
        <time>2021-07-19T17:14:11.000Z</time>
      </trkpt>
      <trkpt lat="47.23858" lon="-1.4697">
        <ele>57</ele>
        <time>2021-07-19T17:14:13.000Z</time>
      </trkpt>
      <trkpt lat="47.23847" lon="-1.46985">
        <ele>58</ele>
        <time>2021-07-19T17:14:15.000Z</time>
      </trkpt>
      <trkpt lat="47.23837" lon="-1.46999">
        <ele>57</ele>
        <time>2021-07-19T17:14:17.000Z</time>
      </trkpt>
      <trkpt lat="47.23827" lon="-1.47014">
        <ele>57</ele>
        <time>2021-07-19T17:14:19.000Z</time>
      </trkpt>
      <trkpt lat="47.23817" lon="-1.47029">
        <ele>57</ele>
        <time>2021-07-19T17:14:21.000Z</time>
      </trkpt>
      <trkpt lat="47.23807" lon="-1.47043">
        <ele>57</ele>
        <time>2021-07-19T17:14:23.000Z</time>
      </trkpt>
      <trkpt lat="47.23797" lon="-1.47058">
        <ele>56</ele>
        <time>2021-07-19T17:14:25.000Z</time>
      </trkpt>
      <trkpt lat="47.23787" lon="-1.47072">
        <ele>55</ele>
        <time>2021-07-19T17:14:27.000Z</time>
      </trkpt>
      <trkpt lat="47.23776" lon="-1.47087">
        <ele>55</ele>
        <time>2021-07-19T17:14:29.000Z</time>
      </trkpt>
      <trkpt lat="47.23766" lon="-1.47101">
        <ele>55</ele>
        <time>2021-07-19T17:14:31.000Z</time>
      </trkpt>
      <trkpt lat="47.23756" lon="-1.47115">
        <ele>55</ele>
        <time>2021-07-19T17:14:33.000Z</time>
      </trkpt>
      <trkpt lat="47.23746" lon="-1.47128">
        <ele>55</ele>
        <time>2021-07-19T17:14:35.000Z</time>
      </trkpt>
      <trkpt lat="47.23735" lon="-1.47141">
        <ele>55</ele>
        <time>2021-07-19T17:14:37.000Z</time>
      </trkpt>
      <trkpt lat="47.23724" lon="-1.47155">
        <ele>55</ele>
        <time>2021-07-19T17:14:39.000Z</time>
      </trkpt>
      <trkpt lat="47.23714" lon="-1.47169">
        <ele>55</ele>
        <time>2021-07-19T17:14:41.000Z</time>
      </trkpt>
      <trkpt lat="47.23704" lon="-1.47182">
        <ele>55</ele>
        <time>2021-07-19T17:14:43.000Z</time>
      </trkpt>
      <trkpt lat="47.23693" lon="-1.47196">
        <ele>54</ele>
        <time>2021-07-19T17:14:45.000Z</time>
      </trkpt>
      <trkpt lat="47.23684" lon="-1.47214">
        <ele>54</ele>
        <time>2021-07-19T17:14:47.000Z</time>
      </trkpt>
      <trkpt lat="47.23673" lon="-1.47227">
        <ele>54</ele>
        <time>2021-07-19T17:14:49.000Z</time>
      </trkpt>
      <trkpt lat="47.23661" lon="-1.4724">
        <ele>54</ele>
        <time>2021-07-19T17:14:51.000Z</time>
      </trkpt>
      <trkpt lat="47.23651" lon="-1.47253">
        <ele>55</ele>
        <time>2021-07-19T17:14:53.000Z</time>
      </trkpt>
      <trkpt lat="47.23639" lon="-1.47265">
        <ele>55</ele>
        <time>2021-07-19T17:14:55.000Z</time>
      </trkpt>
      <trkpt lat="47.23628" lon="-1.47278">
        <ele>56</ele>
        <time>2021-07-19T17:14:57.000Z</time>
      </trkpt>
      <trkpt lat="47.23617" lon="-1.4729">
        <ele>55</ele>
        <time>2021-07-19T17:14:59.000Z</time>
      </trkpt>
      <trkpt lat="47.23606" lon="-1.47302">
        <ele>56</ele>
        <time>2021-07-19T17:15:01.000Z</time>
      </trkpt>
      <trkpt lat="47.23594" lon="-1.47313">
        <ele>56</ele>
        <time>2021-07-19T17:15:03.000Z</time>
      </trkpt>
      <trkpt lat="47.23582" lon="-1.47324">
        <ele>56</ele>
        <time>2021-07-19T17:15:05.000Z</time>
      </trkpt>
      <trkpt lat="47.23569" lon="-1.47335">
        <ele>56</ele>
        <time>2021-07-19T17:15:07.000Z</time>
      </trkpt>
      <trkpt lat="47.23557" lon="-1.47345">
        <ele>55</ele>
        <time>2021-07-19T17:15:09.000Z</time>
      </trkpt>
      <trkpt lat="47.23545" lon="-1.47355">
        <ele>56</ele>
        <time>2021-07-19T17:15:11.000Z</time>
      </trkpt>
      <trkpt lat="47.23533" lon="-1.47365">
        <ele>56</ele>
        <time>2021-07-19T17:15:13.000Z</time>
      </trkpt>
      <trkpt lat="47.23521" lon="-1.47375">
        <ele>56</ele>
        <time>2021-07-19T17:15:15.000Z</time>
      </trkpt>
      <trkpt lat="47.23509" lon="-1.47385">
        <ele>56</ele>
        <time>2021-07-19T17:15:17.000Z</time>
      </trkpt>
      <trkpt lat="47.23496" lon="-1.47395">
        <ele>56</ele>
        <time>2021-07-19T17:15:19.000Z</time>
      </trkpt>
      <trkpt lat="47.23483" lon="-1.47403">
        <ele>56</ele>
        <time>2021-07-19T17:15:21.000Z</time>
      </trkpt>
      <trkpt lat="47.2347" lon="-1.47409">
        <ele>56</ele>
        <time>2021-07-19T17:15:23.000Z</time>
      </trkpt>
      <trkpt lat="47.23456" lon="-1.47415">
        <ele>55</ele>
        <time>2021-07-19T17:15:25.000Z</time>
      </trkpt>
      <trkpt lat="47.23442" lon="-1.4742">
        <ele>56</ele>
        <time>2021-07-19T17:15:27.000Z</time>
      </trkpt>
      <trkpt lat="47.2343" lon="-1.47425">
        <ele>55</ele>
        <time>2021-07-19T17:15:29.000Z</time>
      </trkpt>
      <trkpt lat="47.23417" lon="-1.47433">
        <ele>55</ele>
        <time>2021-07-19T17:15:31.000Z</time>
      </trkpt>
      <trkpt lat="47.23405" lon="-1.47443">
        <ele>55</ele>
        <time>2021-07-19T17:15:33.000Z</time>
      </trkpt>
      <trkpt lat="47.23392" lon="-1.47452">
        <ele>56</ele>
        <time>2021-07-19T17:15:35.000Z</time>
      </trkpt>
      <trkpt lat="47.23379" lon="-1.4746">
        <ele>56</ele>
        <time>2021-07-19T17:15:37.000Z</time>
      </trkpt>
      <trkpt lat="47.23366" lon="-1.47467">
        <ele>56</ele>
        <time>2021-07-19T17:15:39.000Z</time>
      </trkpt>
      <trkpt lat="47.23353" lon="-1.47472">
        <ele>56</ele>
        <time>2021-07-19T17:15:41.000Z</time>
      </trkpt>
      <trkpt lat="47.2334" lon="-1.47479">
        <ele>56</ele>
        <time>2021-07-19T17:15:43.000Z</time>
      </trkpt>
      <trkpt lat="47.23328" lon="-1.47488">
        <ele>56</ele>
        <time>2021-07-19T17:15:45.000Z</time>
      </trkpt>
      <trkpt lat="47.23317" lon="-1.47496">
        <ele>56</ele>
        <time>2021-07-19T17:15:47.000Z</time>
      </trkpt>
      <trkpt lat="47.23305" lon="-1.47504">
        <ele>57</ele>
        <time>2021-07-19T17:15:49.000Z</time>
      </trkpt>
      <trkpt lat="47.23292" lon="-1.47511">
        <ele>58</ele>
        <time>2021-07-19T17:15:51.000Z</time>
      </trkpt>
      <trkpt lat="47.2328" lon="-1.47519">
        <ele>57</ele>
        <time>2021-07-19T17:15:53.000Z</time>
      </trkpt>
      <trkpt lat="47.23269" lon="-1.47529">
        <ele>57</ele>
        <time>2021-07-19T17:15:55.000Z</time>
      </trkpt>
      <trkpt lat="47.23259" lon="-1.47543">
        <ele>56</ele>
        <time>2021-07-19T17:15:57.000Z</time>
      </trkpt>
      <trkpt lat="47.23251" lon="-1.47557">
        <ele>57</ele>
        <time>2021-07-19T17:15:59.000Z</time>
      </trkpt>
      <trkpt lat="47.23242" lon="-1.47573">
        <ele>57</ele>
        <time>2021-07-19T17:16:01.000Z</time>
      </trkpt>
      <trkpt lat="47.23234" lon="-1.47588">
        <ele>57</ele>
        <time>2021-07-19T17:16:03.000Z</time>
      </trkpt>
      <trkpt lat="47.23226" lon="-1.47602">
        <ele>57</ele>
        <time>2021-07-19T17:16:05.000Z</time>
      </trkpt>
      <trkpt lat="47.23219" lon="-1.47618">
        <ele>57</ele>
        <time>2021-07-19T17:16:07.000Z</time>
      </trkpt>
      <trkpt lat="47.23213" lon="-1.47635">
        <ele>57</ele>
        <time>2021-07-19T17:16:09.000Z</time>
      </trkpt>
      <trkpt lat="47.23206" lon="-1.47651">
        <ele>56</ele>
        <time>2021-07-19T17:16:11.000Z</time>
      </trkpt>
      <trkpt lat="47.23199" lon="-1.47668">
        <ele>56</ele>
        <time>2021-07-19T17:16:13.000Z</time>
      </trkpt>
      <trkpt lat="47.23191" lon="-1.47684">
        <ele>56</ele>
        <time>2021-07-19T17:16:15.000Z</time>
      </trkpt>
      <trkpt lat="47.23183" lon="-1.47701">
        <ele>56</ele>
        <time>2021-07-19T17:16:17.000Z</time>
      </trkpt>
      <trkpt lat="47.23175" lon="-1.47718">
        <ele>56</ele>
        <time>2021-07-19T17:16:19.000Z</time>
      </trkpt>
      <trkpt lat="47.23167" lon="-1.47735">
        <ele>55</ele>
        <time>2021-07-19T17:16:21.000Z</time>
      </trkpt>
      <trkpt lat="47.2316" lon="-1.47752">
        <ele>55</ele>
        <time>2021-07-19T17:16:23.000Z</time>
      </trkpt>
      <trkpt lat="47.23152" lon="-1.47769">
        <ele>55</ele>
        <time>2021-07-19T17:16:25.000Z</time>
      </trkpt>
      <trkpt lat="47.23147" lon="-1.47787">
        <ele>55</ele>
        <time>2021-07-19T17:16:27.000Z</time>
      </trkpt>
      <trkpt lat="47.23143" lon="-1.47805">
        <ele>55</ele>
        <time>2021-07-19T17:16:29.000Z</time>
      </trkpt>
      <trkpt lat="47.23137" lon="-1.47821">
        <ele>56</ele>
        <time>2021-07-19T17:16:31.000Z</time>
      </trkpt>
      <trkpt lat="47.2313" lon="-1.47837">
        <ele>56</ele>
        <time>2021-07-19T17:16:33.000Z</time>
      </trkpt>
      <trkpt lat="47.23122" lon="-1.47853">
        <ele>57</ele>
        <time>2021-07-19T17:16:35.000Z</time>
      </trkpt>
      <trkpt lat="47.23113" lon="-1.47869">
        <ele>57</ele>
        <time>2021-07-19T17:16:37.000Z</time>
      </trkpt>
      <trkpt lat="47.23103" lon="-1.47883">
        <ele>57</ele>
        <time>2021-07-19T17:16:39.000Z</time>
      </trkpt>
      <trkpt lat="47.23093" lon="-1.47896">
        <ele>57</ele>
        <time>2021-07-19T17:16:41.000Z</time>
      </trkpt>
      <trkpt lat="47.23083" lon="-1.47909">
        <ele>57</ele>
        <time>2021-07-19T17:16:43.000Z</time>
      </trkpt>
      <trkpt lat="47.23073" lon="-1.47923">
        <ele>57</ele>
        <time>2021-07-19T17:16:45.000Z</time>
      </trkpt>
      <trkpt lat="47.23063" lon="-1.47936">
        <ele>58</ele>
        <time>2021-07-19T17:16:47.000Z</time>
      </trkpt>
      <trkpt lat="47.23052" lon="-1.47949">
        <ele>57</ele>
        <time>2021-07-19T17:16:49.000Z</time>
      </trkpt>
      <trkpt lat="47.23042" lon="-1.47962">
        <ele>57</ele>
        <time>2021-07-19T17:16:51.000Z</time>
      </trkpt>
      <trkpt lat="47.23032" lon="-1.47976">
        <ele>57</ele>
        <time>2021-07-19T17:16:53.000Z</time>
      </trkpt>
      <trkpt lat="47.23023" lon="-1.47989">
        <ele>56</ele>
        <time>2021-07-19T17:16:55.000Z</time>
      </trkpt>
      <trkpt lat="47.23014" lon="-1.48003">
        <ele>56</ele>
        <time>2021-07-19T17:16:57.000Z</time>
      </trkpt>
      <trkpt lat="47.23005" lon="-1.48018">
        <ele>56</ele>
        <time>2021-07-19T17:16:59.000Z</time>
      </trkpt>
      <trkpt lat="47.22996" lon="-1.48033">
        <ele>56</ele>
        <time>2021-07-19T17:17:01.000Z</time>
      </trkpt>
      <trkpt lat="47.22987" lon="-1.48049">
        <ele>56</ele>
        <time>2021-07-19T17:17:03.000Z</time>
      </trkpt>
      <trkpt lat="47.22977" lon="-1.48063">
        <ele>56</ele>
        <time>2021-07-19T17:17:05.000Z</time>
      </trkpt>
      <trkpt lat="47.22968" lon="-1.48078">
        <ele>56</ele>
        <time>2021-07-19T17:17:07.000Z</time>
      </trkpt>
      <trkpt lat="47.22959" lon="-1.48091">
        <ele>56</ele>
        <time>2021-07-19T17:17:09.000Z</time>
      </trkpt>
      <trkpt lat="47.2295" lon="-1.48105">
        <ele>56</ele>
        <time>2021-07-19T17:17:11.000Z</time>
      </trkpt>
      <trkpt lat="47.22938" lon="-1.48109">
        <ele>56</ele>
        <time>2021-07-19T17:17:13.000Z</time>
      </trkpt>
      <trkpt lat="47.22924" lon="-1.48112">
        <ele>56</ele>
        <time>2021-07-19T17:17:15.000Z</time>
      </trkpt>
      <trkpt lat="47.2291" lon="-1.48118">
        <ele>56</ele>
        <time>2021-07-19T17:17:17.000Z</time>
      </trkpt>
      <trkpt lat="47.229" lon="-1.48129">
        <ele>56</ele>
        <time>2021-07-19T17:17:19.000Z</time>
      </trkpt>
      <trkpt lat="47.2289" lon="-1.48143">
        <ele>55</ele>
        <time>2021-07-19T17:17:21.000Z</time>
      </trkpt>
      <trkpt lat="47.22881" lon="-1.48158">
        <ele>55</ele>
        <time>2021-07-19T17:17:23.000Z</time>
      </trkpt>
      <trkpt lat="47.22872" lon="-1.48173">
        <ele>55</ele>
        <time>2021-07-19T17:17:25.000Z</time>
      </trkpt>
      <trkpt lat="47.22863" lon="-1.48188">
        <ele>56</ele>
        <time>2021-07-19T17:17:27.000Z</time>
      </trkpt>
      <trkpt lat="47.22854" lon="-1.48203">
        <ele>56</ele>
        <time>2021-07-19T17:17:29.000Z</time>
      </trkpt>
      <trkpt lat="47.22844" lon="-1.48218">
        <ele>56</ele>
        <time>2021-07-19T17:17:31.000Z</time>
      </trkpt>
      <trkpt lat="47.22834" lon="-1.48232">
        <ele>56</ele>
        <time>2021-07-19T17:17:33.000Z</time>
      </trkpt>
      <trkpt lat="47.22824" lon="-1.48246">
        <ele>56</ele>
        <time>2021-07-19T17:17:35.000Z</time>
      </trkpt>
      <trkpt lat="47.22814" lon="-1.48259">
        <ele>56</ele>
        <time>2021-07-19T17:17:37.000Z</time>
      </trkpt>
      <trkpt lat="47.22805" lon="-1.48275">
        <ele>57</ele>
        <time>2021-07-19T17:17:39.000Z</time>
      </trkpt>
      <trkpt lat="47.22795" lon="-1.48291">
        <ele>57</ele>
        <time>2021-07-19T17:17:41.000Z</time>
      </trkpt>
      <trkpt lat="47.22786" lon="-1.48306">
        <ele>57</ele>
        <time>2021-07-19T17:17:43.000Z</time>
      </trkpt>
      <trkpt lat="47.22776" lon="-1.48321">
        <ele>57</ele>
        <time>2021-07-19T17:17:45.000Z</time>
      </trkpt>
      <trkpt lat="47.22768" lon="-1.48334">
        <ele>57</ele>
        <time>2021-07-19T17:17:47.000Z</time>
      </trkpt>
      <trkpt lat="47.22758" lon="-1.48347">
        <ele>57</ele>
        <time>2021-07-19T17:17:49.000Z</time>
      </trkpt>
      <trkpt lat="47.22748" lon="-1.48361">
        <ele>57</ele>
        <time>2021-07-19T17:17:51.000Z</time>
      </trkpt>
      <trkpt lat="47.22739" lon="-1.48375">
        <ele>56</ele>
        <time>2021-07-19T17:17:53.000Z</time>
      </trkpt>
      <trkpt lat="47.22729" lon="-1.48389">
        <ele>57</ele>
        <time>2021-07-19T17:17:55.000Z</time>
      </trkpt>
      <trkpt lat="47.22719" lon="-1.48401">
        <ele>57</ele>
        <time>2021-07-19T17:17:57.000Z</time>
      </trkpt>
      <trkpt lat="47.2271" lon="-1.48416">
        <ele>57</ele>
        <time>2021-07-19T17:17:59.000Z</time>
      </trkpt>
      <trkpt lat="47.22703" lon="-1.48434">
        <ele>56</ele>
        <time>2021-07-19T17:18:01.000Z</time>
      </trkpt>
      <trkpt lat="47.22697" lon="-1.48452">
        <ele>56</ele>
        <time>2021-07-19T17:18:03.000Z</time>
      </trkpt>
      <trkpt lat="47.22691" lon="-1.48469">
        <ele>56</ele>
        <time>2021-07-19T17:18:05.000Z</time>
      </trkpt>
      <trkpt lat="47.22683" lon="-1.48486">
        <ele>56</ele>
        <time>2021-07-19T17:18:07.000Z</time>
      </trkpt>
      <trkpt lat="47.22676" lon="-1.48502">
        <ele>56</ele>
        <time>2021-07-19T17:18:09.000Z</time>
      </trkpt>
      <trkpt lat="47.2267" lon="-1.48518">
        <ele>55</ele>
        <time>2021-07-19T17:18:11.000Z</time>
      </trkpt>
      <trkpt lat="47.22664" lon="-1.48536">
        <ele>55</ele>
        <time>2021-07-19T17:18:13.000Z</time>
      </trkpt>
      <trkpt lat="47.22659" lon="-1.48556">
        <ele>55</ele>
        <time>2021-07-19T17:18:15.000Z</time>
      </trkpt>
      <trkpt lat="47.22652" lon="-1.48574">
        <ele>55</ele>
        <time>2021-07-19T17:18:17.000Z</time>
      </trkpt>
      <trkpt lat="47.22645" lon="-1.48591">
        <ele>55</ele>
        <time>2021-07-19T17:18:19.000Z</time>
      </trkpt>
      <trkpt lat="47.22639" lon="-1.48606">
        <ele>55</ele>
        <time>2021-07-19T17:18:21.000Z</time>
      </trkpt>
      <trkpt lat="47.22634" lon="-1.48621">
        <ele>55</ele>
        <time>2021-07-19T17:18:23.000Z</time>
      </trkpt>
      <trkpt lat="47.22627" lon="-1.48638">
        <ele>56</ele>
        <time>2021-07-19T17:18:25.000Z</time>
      </trkpt>
      <trkpt lat="47.22621" lon="-1.48655">
        <ele>56</ele>
        <time>2021-07-19T17:18:27.000Z</time>
      </trkpt>
      <trkpt lat="47.22614" lon="-1.48676">
        <ele>57</ele>
        <time>2021-07-19T17:18:29.000Z</time>
      </trkpt>
      <trkpt lat="47.22609" lon="-1.48696">
        <ele>56</ele>
        <time>2021-07-19T17:18:31.000Z</time>
      </trkpt>
      <trkpt lat="47.22603" lon="-1.48714">
        <ele>57</ele>
        <time>2021-07-19T17:18:33.000Z</time>
      </trkpt>
      <trkpt lat="47.22598" lon="-1.48733">
        <ele>57</ele>
        <time>2021-07-19T17:18:35.000Z</time>
      </trkpt>
      <trkpt lat="47.22593" lon="-1.48752">
        <ele>57</ele>
        <time>2021-07-19T17:18:37.000Z</time>
      </trkpt>
      <trkpt lat="47.22588" lon="-1.4877">
        <ele>57</ele>
        <time>2021-07-19T17:18:39.000Z</time>
      </trkpt>
      <trkpt lat="47.22583" lon="-1.48788">
        <ele>57</ele>
        <time>2021-07-19T17:18:41.000Z</time>
      </trkpt>
      <trkpt lat="47.22578" lon="-1.48806">
        <ele>58</ele>
        <time>2021-07-19T17:18:43.000Z</time>
      </trkpt>
      <trkpt lat="47.22571" lon="-1.48823">
        <ele>58</ele>
        <time>2021-07-19T17:18:45.000Z</time>
      </trkpt>
      <trkpt lat="47.22566" lon="-1.48839">
        <ele>58</ele>
        <time>2021-07-19T17:18:47.000Z</time>
      </trkpt>
      <trkpt lat="47.22562" lon="-1.48854">
        <ele>58</ele>
        <time>2021-07-19T17:18:49.000Z</time>
      </trkpt>
      <trkpt lat="47.22558" lon="-1.4887">
        <ele>57</ele>
        <time>2021-07-19T17:18:51.000Z</time>
      </trkpt>
      <trkpt lat="47.22552" lon="-1.48886">
        <ele>57</ele>
        <time>2021-07-19T17:18:53.000Z</time>
      </trkpt>
      <trkpt lat="47.22546" lon="-1.48903">
        <ele>57</ele>
        <time>2021-07-19T17:18:55.000Z</time>
      </trkpt>
      <trkpt lat="47.22539" lon="-1.48923">
        <ele>56</ele>
        <time>2021-07-19T17:18:57.000Z</time>
      </trkpt>
      <trkpt lat="47.22532" lon="-1.48942">
        <ele>56</ele>
        <time>2021-07-19T17:18:59.000Z</time>
      </trkpt>
      <trkpt lat="47.22526" lon="-1.48961">
        <ele>55</ele>
        <time>2021-07-19T17:19:01.000Z</time>
      </trkpt>
      <trkpt lat="47.22518" lon="-1.4898">
        <ele>55</ele>
        <time>2021-07-19T17:19:03.000Z</time>
      </trkpt>
      <trkpt lat="47.22512" lon="-1.48999">
        <ele>55</ele>
        <time>2021-07-19T17:19:05.000Z</time>
      </trkpt>
      <trkpt lat="47.22507" lon="-1.49018">
        <ele>55</ele>
        <time>2021-07-19T17:19:07.000Z</time>
      </trkpt>
      <trkpt lat="47.22501" lon="-1.49035">
        <ele>55</ele>
        <time>2021-07-19T17:19:09.000Z</time>
      </trkpt>
      <trkpt lat="47.22494" lon="-1.49053">
        <ele>55</ele>
        <time>2021-07-19T17:19:11.000Z</time>
      </trkpt>
      <trkpt lat="47.22488" lon="-1.4907">
        <ele>55</ele>
        <time>2021-07-19T17:19:13.000Z</time>
      </trkpt>
      <trkpt lat="47.22482" lon="-1.49088">
        <ele>55</ele>
        <time>2021-07-19T17:19:15.000Z</time>
      </trkpt>
      <trkpt lat="47.22474" lon="-1.49117">
        <ele>56</ele>
        <time>2021-07-19T17:19:18.000Z</time>
      </trkpt>
      <trkpt lat="47.22467" lon="-1.49136">
        <ele>56</ele>
        <time>2021-07-19T17:19:20.000Z</time>
      </trkpt>
      <trkpt lat="47.22461" lon="-1.49156">
        <ele>55</ele>
        <time>2021-07-19T17:19:22.000Z</time>
      </trkpt>
      <trkpt lat="47.22454" lon="-1.49174">
        <ele>55</ele>
        <time>2021-07-19T17:19:24.000Z</time>
      </trkpt>
      <trkpt lat="47.22444" lon="-1.49203">
        <ele>55</ele>
        <time>2021-07-19T17:19:27.000Z</time>
      </trkpt>
      <trkpt lat="47.22436" lon="-1.4923">
        <ele>54</ele>
        <time>2021-07-19T17:19:30.000Z</time>
      </trkpt>
      <trkpt lat="47.22429" lon="-1.49248">
        <ele>54</ele>
        <time>2021-07-19T17:19:32.000Z</time>
      </trkpt>
      <trkpt lat="47.22422" lon="-1.49265">
        <ele>54</ele>
        <time>2021-07-19T17:19:34.000Z</time>
      </trkpt>
      <trkpt lat="47.22415" lon="-1.49283">
        <ele>54</ele>
        <time>2021-07-19T17:19:36.000Z</time>
      </trkpt>
      <trkpt lat="47.22406" lon="-1.49309">
        <ele>53</ele>
        <time>2021-07-19T17:19:39.000Z</time>
      </trkpt>
      <trkpt lat="47.22399" lon="-1.49327">
        <ele>53</ele>
        <time>2021-07-19T17:19:41.000Z</time>
      </trkpt>
      <trkpt lat="47.2239" lon="-1.49354">
        <ele>53</ele>
        <time>2021-07-19T17:19:44.000Z</time>
      </trkpt>
      <trkpt lat="47.22382" lon="-1.4937">
        <ele>53</ele>
        <time>2021-07-19T17:19:46.000Z</time>
      </trkpt>
      <trkpt lat="47.22375" lon="-1.49386">
        <ele>53</ele>
        <time>2021-07-19T17:19:48.000Z</time>
      </trkpt>
      <trkpt lat="47.22367" lon="-1.49402">
        <ele>53</ele>
        <time>2021-07-19T17:19:50.000Z</time>
      </trkpt>
      <trkpt lat="47.22361" lon="-1.49418">
        <ele>53</ele>
        <time>2021-07-19T17:19:52.000Z</time>
      </trkpt>
      <trkpt lat="47.22354" lon="-1.49436">
        <ele>53</ele>
        <time>2021-07-19T17:19:54.000Z</time>
      </trkpt>
      <trkpt lat="47.22348" lon="-1.49453">
        <ele>54</ele>
        <time>2021-07-19T17:19:56.000Z</time>
      </trkpt>
      <trkpt lat="47.22343" lon="-1.49471">
        <ele>55</ele>
        <time>2021-07-19T17:19:58.000Z</time>
      </trkpt>
      <trkpt lat="47.22337" lon="-1.49491">
        <ele>55</ele>
        <time>2021-07-19T17:20:00.000Z</time>
      </trkpt>
      <trkpt lat="47.22332" lon="-1.49511">
        <ele>55</ele>
        <time>2021-07-19T17:20:02.000Z</time>
      </trkpt>
      <trkpt lat="47.22325" lon="-1.49529">
        <ele>55</ele>
        <time>2021-07-19T17:20:04.000Z</time>
      </trkpt>
      <trkpt lat="47.22319" lon="-1.49547">
        <ele>54</ele>
        <time>2021-07-19T17:20:06.000Z</time>
      </trkpt>
      <trkpt lat="47.22312" lon="-1.49565">
        <ele>53</ele>
        <time>2021-07-19T17:20:08.000Z</time>
      </trkpt>
      <trkpt lat="47.22306" lon="-1.49583">
        <ele>53</ele>
        <time>2021-07-19T17:20:10.000Z</time>
      </trkpt>
      <trkpt lat="47.22301" lon="-1.49601">
        <ele>54</ele>
        <time>2021-07-19T17:20:12.000Z</time>
      </trkpt>
      <trkpt lat="47.22296" lon="-1.49618">
        <ele>54</ele>
        <time>2021-07-19T17:20:14.000Z</time>
      </trkpt>
      <trkpt lat="47.22291" lon="-1.49637">
        <ele>53</ele>
        <time>2021-07-19T17:20:16.000Z</time>
      </trkpt>
      <trkpt lat="47.22285" lon="-1.49655">
        <ele>53</ele>
        <time>2021-07-19T17:20:18.000Z</time>
      </trkpt>
      <trkpt lat="47.2228" lon="-1.49674">
        <ele>53</ele>
        <time>2021-07-19T17:20:20.000Z</time>
      </trkpt>
      <trkpt lat="47.22274" lon="-1.49692">
        <ele>53</ele>
        <time>2021-07-19T17:20:22.000Z</time>
      </trkpt>
      <trkpt lat="47.22267" lon="-1.4971">
        <ele>53</ele>
        <time>2021-07-19T17:20:24.000Z</time>
      </trkpt>
      <trkpt lat="47.22261" lon="-1.49727">
        <ele>53</ele>
        <time>2021-07-19T17:20:26.000Z</time>
      </trkpt>
      <trkpt lat="47.22256" lon="-1.49746">
        <ele>53</ele>
        <time>2021-07-19T17:20:28.000Z</time>
      </trkpt>
      <trkpt lat="47.22253" lon="-1.49764">
        <ele>54</ele>
        <time>2021-07-19T17:20:30.000Z</time>
      </trkpt>
      <trkpt lat="47.22249" lon="-1.49784">
        <ele>54</ele>
        <time>2021-07-19T17:20:32.000Z</time>
      </trkpt>
      <trkpt lat="47.22246" lon="-1.49803">
        <ele>54</ele>
        <time>2021-07-19T17:20:34.000Z</time>
      </trkpt>
      <trkpt lat="47.22242" lon="-1.49821">
        <ele>55</ele>
        <time>2021-07-19T17:20:36.000Z</time>
      </trkpt>
      <trkpt lat="47.22237" lon="-1.4984">
        <ele>55</ele>
        <time>2021-07-19T17:20:38.000Z</time>
      </trkpt>
      <trkpt lat="47.22234" lon="-1.49859">
        <ele>55</ele>
        <time>2021-07-19T17:20:40.000Z</time>
      </trkpt>
      <trkpt lat="47.2223" lon="-1.49877">
        <ele>55</ele>
        <time>2021-07-19T17:20:42.000Z</time>
      </trkpt>
      <trkpt lat="47.22226" lon="-1.49896">
        <ele>54</ele>
        <time>2021-07-19T17:20:44.000Z</time>
      </trkpt>
      <trkpt lat="47.22221" lon="-1.49915">
        <ele>54</ele>
        <time>2021-07-19T17:20:46.000Z</time>
      </trkpt>
      <trkpt lat="47.22215" lon="-1.49934">
        <ele>54</ele>
        <time>2021-07-19T17:20:48.000Z</time>
      </trkpt>
      <trkpt lat="47.22211" lon="-1.49953">
        <ele>55</ele>
        <time>2021-07-19T17:20:50.000Z</time>
      </trkpt>
      <trkpt lat="47.22207" lon="-1.49969">
        <ele>55</ele>
        <time>2021-07-19T17:20:52.000Z</time>
      </trkpt>
      <trkpt lat="47.22202" lon="-1.49986">
        <ele>55</ele>
        <time>2021-07-19T17:20:54.000Z</time>
      </trkpt>
      <trkpt lat="47.22195" lon="-1.50005">
        <ele>55</ele>
        <time>2021-07-19T17:20:56.000Z</time>
      </trkpt>
      <trkpt lat="47.22191" lon="-1.50026">
        <ele>55</ele>
        <time>2021-07-19T17:20:58.000Z</time>
      </trkpt>
      <trkpt lat="47.22187" lon="-1.50047">
        <ele>55</ele>
        <time>2021-07-19T17:21:00.000Z</time>
      </trkpt>
      <trkpt lat="47.22184" lon="-1.50067">
        <ele>55</ele>
        <time>2021-07-19T17:21:02.000Z</time>
      </trkpt>
      <trkpt lat="47.22179" lon="-1.50087">
        <ele>55</ele>
        <time>2021-07-19T17:21:04.000Z</time>
      </trkpt>
      <trkpt lat="47.22174" lon="-1.50105">
        <ele>55</ele>
        <time>2021-07-19T17:21:06.000Z</time>
      </trkpt>
      <trkpt lat="47.22167" lon="-1.50122">
        <ele>55</ele>
        <time>2021-07-19T17:21:08.000Z</time>
      </trkpt>
      <trkpt lat="47.22162" lon="-1.5014">
        <ele>55</ele>
        <time>2021-07-19T17:21:10.000Z</time>
      </trkpt>
      <trkpt lat="47.22155" lon="-1.50159">
        <ele>55</ele>
        <time>2021-07-19T17:21:12.000Z</time>
      </trkpt>
      <trkpt lat="47.22151" lon="-1.50179">
        <ele>54</ele>
        <time>2021-07-19T17:21:14.000Z</time>
      </trkpt>
      <trkpt lat="47.22147" lon="-1.50199">
        <ele>54</ele>
        <time>2021-07-19T17:21:16.000Z</time>
      </trkpt>
      <trkpt lat="47.22144" lon="-1.50217">
        <ele>54</ele>
        <time>2021-07-19T17:21:18.000Z</time>
      </trkpt>
      <trkpt lat="47.22138" lon="-1.50236">
        <ele>54</ele>
        <time>2021-07-19T17:21:20.000Z</time>
      </trkpt>
      <trkpt lat="47.22133" lon="-1.50254">
        <ele>54</ele>
        <time>2021-07-19T17:21:22.000Z</time>
      </trkpt>
      <trkpt lat="47.22128" lon="-1.50272">
        <ele>54</ele>
        <time>2021-07-19T17:21:24.000Z</time>
      </trkpt>
      <trkpt lat="47.2212" lon="-1.5029">
        <ele>55</ele>
        <time>2021-07-19T17:21:26.000Z</time>
      </trkpt>
      <trkpt lat="47.22112" lon="-1.50305">
        <ele>55</ele>
        <time>2021-07-19T17:21:28.000Z</time>
      </trkpt>
      <trkpt lat="47.22102" lon="-1.5032">
        <ele>55</ele>
        <time>2021-07-19T17:21:30.000Z</time>
      </trkpt>
      <trkpt lat="47.22094" lon="-1.50334">
        <ele>55</ele>
        <time>2021-07-19T17:21:32.000Z</time>
      </trkpt>
      <trkpt lat="47.22088" lon="-1.50352">
        <ele>55</ele>
        <time>2021-07-19T17:21:34.000Z</time>
      </trkpt>
      <trkpt lat="47.22085" lon="-1.50371">
        <ele>56</ele>
        <time>2021-07-19T17:21:36.000Z</time>
      </trkpt>
      <trkpt lat="47.22081" lon="-1.50391">
        <ele>56</ele>
        <time>2021-07-19T17:21:38.000Z</time>
      </trkpt>
      <trkpt lat="47.22076" lon="-1.50408">
        <ele>55</ele>
        <time>2021-07-19T17:21:40.000Z</time>
      </trkpt>
      <trkpt lat="47.22072" lon="-1.50425">
        <ele>54</ele>
        <time>2021-07-19T17:21:42.000Z</time>
      </trkpt>
      <trkpt lat="47.22068" lon="-1.50443">
        <ele>54</ele>
        <time>2021-07-19T17:21:44.000Z</time>
      </trkpt>
      <trkpt lat="47.22065" lon="-1.50463">
        <ele>55</ele>
        <time>2021-07-19T17:21:46.000Z</time>
      </trkpt>
      <trkpt lat="47.22062" lon="-1.50485">
        <ele>54</ele>
        <time>2021-07-19T17:21:48.000Z</time>
      </trkpt>
      <trkpt lat="47.22061" lon="-1.50508">
        <ele>54</ele>
        <time>2021-07-19T17:21:50.000Z</time>
      </trkpt>
      <trkpt lat="47.2206" lon="-1.50531">
        <ele>54</ele>
        <time>2021-07-19T17:21:52.000Z</time>
      </trkpt>
      <trkpt lat="47.22059" lon="-1.50553">
        <ele>53</ele>
        <time>2021-07-19T17:21:54.000Z</time>
      </trkpt>
      <trkpt lat="47.22058" lon="-1.50574">
        <ele>53</ele>
        <time>2021-07-19T17:21:56.000Z</time>
      </trkpt>
      <trkpt lat="47.22058" lon="-1.50593">
        <ele>53</ele>
        <time>2021-07-19T17:21:58.000Z</time>
      </trkpt>
      <trkpt lat="47.22056" lon="-1.50615">
        <ele>53</ele>
        <time>2021-07-19T17:22:00.000Z</time>
      </trkpt>
      <trkpt lat="47.22056" lon="-1.50637">
        <ele>53</ele>
        <time>2021-07-19T17:22:02.000Z</time>
      </trkpt>
      <trkpt lat="47.22053" lon="-1.5066">
        <ele>53</ele>
        <time>2021-07-19T17:22:04.000Z</time>
      </trkpt>
      <trkpt lat="47.22051" lon="-1.5068">
        <ele>53</ele>
        <time>2021-07-19T17:22:06.000Z</time>
      </trkpt>
      <trkpt lat="47.2205" lon="-1.507">
        <ele>53</ele>
        <time>2021-07-19T17:22:08.000Z</time>
      </trkpt>
      <trkpt lat="47.22049" lon="-1.50722">
        <ele>52</ele>
        <time>2021-07-19T17:22:10.000Z</time>
      </trkpt>
      <trkpt lat="47.22045" lon="-1.50743">
        <ele>52</ele>
        <time>2021-07-19T17:22:12.000Z</time>
      </trkpt>
      <trkpt lat="47.2204" lon="-1.50766">
        <ele>52</ele>
        <time>2021-07-19T17:22:14.000Z</time>
      </trkpt>
      <trkpt lat="47.22035" lon="-1.50787">
        <ele>51</ele>
        <time>2021-07-19T17:22:16.000Z</time>
      </trkpt>
      <trkpt lat="47.22029" lon="-1.50806">
        <ele>51</ele>
        <time>2021-07-19T17:22:18.000Z</time>
      </trkpt>
      <trkpt lat="47.22023" lon="-1.50824">
        <ele>51</ele>
        <time>2021-07-19T17:22:20.000Z</time>
      </trkpt>
      <trkpt lat="47.22017" lon="-1.50843">
        <ele>51</ele>
        <time>2021-07-19T17:22:22.000Z</time>
      </trkpt>
      <trkpt lat="47.22008" lon="-1.50862">
        <ele>51</ele>
        <time>2021-07-19T17:22:24.000Z</time>
      </trkpt>
      <trkpt lat="47.22001" lon="-1.50885">
        <ele>50</ele>
        <time>2021-07-19T17:22:26.000Z</time>
      </trkpt>
      <trkpt lat="47.21994" lon="-1.50907">
        <ele>50</ele>
        <time>2021-07-19T17:22:28.000Z</time>
      </trkpt>
      <trkpt lat="47.21988" lon="-1.50928">
        <ele>51</ele>
        <time>2021-07-19T17:22:30.000Z</time>
      </trkpt>
      <trkpt lat="47.21983" lon="-1.50949">
        <ele>52</ele>
        <time>2021-07-19T17:22:32.000Z</time>
      </trkpt>
      <trkpt lat="47.21976" lon="-1.50969">
        <ele>53</ele>
        <time>2021-07-19T17:22:34.000Z</time>
      </trkpt>
      <trkpt lat="47.2197" lon="-1.50989">
        <ele>53</ele>
        <time>2021-07-19T17:22:36.000Z</time>
      </trkpt>
      <trkpt lat="47.21964" lon="-1.51009">
        <ele>54</ele>
        <time>2021-07-19T17:22:38.000Z</time>
      </trkpt>
      <trkpt lat="47.2196" lon="-1.51029">
        <ele>54</ele>
        <time>2021-07-19T17:22:40.000Z</time>
      </trkpt>
      <trkpt lat="47.21955" lon="-1.51048">
        <ele>55</ele>
        <time>2021-07-19T17:22:42.000Z</time>
      </trkpt>
      <trkpt lat="47.21946" lon="-1.51062">
        <ele>56</ele>
        <time>2021-07-19T17:22:44.000Z</time>
      </trkpt>
      <trkpt lat="47.21936" lon="-1.51075">
        <ele>56</ele>
        <time>2021-07-19T17:22:46.000Z</time>
      </trkpt>
      <trkpt lat="47.2193" lon="-1.51094">
        <ele>56</ele>
        <time>2021-07-19T17:22:48.000Z</time>
      </trkpt>
      <trkpt lat="47.21923" lon="-1.51115">
        <ele>56</ele>
        <time>2021-07-19T17:22:50.000Z</time>
      </trkpt>
      <trkpt lat="47.21917" lon="-1.51135">
        <ele>57</ele>
        <time>2021-07-19T17:22:52.000Z</time>
      </trkpt>
      <trkpt lat="47.21911" lon="-1.51156">
        <ele>58</ele>
        <time>2021-07-19T17:22:54.000Z</time>
      </trkpt>
      <trkpt lat="47.21904" lon="-1.51176">
        <ele>57</ele>
        <time>2021-07-19T17:22:56.000Z</time>
      </trkpt>
      <trkpt lat="47.21898" lon="-1.51195">
        <ele>58</ele>
        <time>2021-07-19T17:22:58.000Z</time>
      </trkpt>
      <trkpt lat="47.21892" lon="-1.51215">
        <ele>58</ele>
        <time>2021-07-19T17:23:00.000Z</time>
      </trkpt>
      <trkpt lat="47.21886" lon="-1.51234">
        <ele>58</ele>
        <time>2021-07-19T17:23:02.000Z</time>
      </trkpt>
      <trkpt lat="47.21879" lon="-1.51253">
        <ele>58</ele>
        <time>2021-07-19T17:23:04.000Z</time>
      </trkpt>
      <trkpt lat="47.21873" lon="-1.51271">
        <ele>58</ele>
        <time>2021-07-19T17:23:06.000Z</time>
      </trkpt>
      <trkpt lat="47.21867" lon="-1.5129">
        <ele>58</ele>
        <time>2021-07-19T17:23:08.000Z</time>
      </trkpt>
      <trkpt lat="47.21861" lon="-1.51309">
        <ele>58</ele>
        <time>2021-07-19T17:23:10.000Z</time>
      </trkpt>
      <trkpt lat="47.21855" lon="-1.51327">
        <ele>58</ele>
        <time>2021-07-19T17:23:12.000Z</time>
      </trkpt>
      <trkpt lat="47.2185" lon="-1.51346">
        <ele>58</ele>
        <time>2021-07-19T17:23:14.000Z</time>
      </trkpt>
      <trkpt lat="47.21844" lon="-1.51365">
        <ele>58</ele>
        <time>2021-07-19T17:23:16.000Z</time>
      </trkpt>
      <trkpt lat="47.21839" lon="-1.51384">
        <ele>58</ele>
        <time>2021-07-19T17:23:18.000Z</time>
      </trkpt>
      <trkpt lat="47.21835" lon="-1.51404">
        <ele>58</ele>
        <time>2021-07-19T17:23:20.000Z</time>
      </trkpt>
      <trkpt lat="47.21831" lon="-1.51423">
        <ele>57</ele>
        <time>2021-07-19T17:23:22.000Z</time>
      </trkpt>
      <trkpt lat="47.21828" lon="-1.51442">
        <ele>57</ele>
        <time>2021-07-19T17:23:24.000Z</time>
      </trkpt>
      <trkpt lat="47.21823" lon="-1.51461">
        <ele>56</ele>
        <time>2021-07-19T17:23:26.000Z</time>
      </trkpt>
      <trkpt lat="47.21819" lon="-1.51481">
        <ele>56</ele>
        <time>2021-07-19T17:23:28.000Z</time>
      </trkpt>
      <trkpt lat="47.21813" lon="-1.51499">
        <ele>55</ele>
        <time>2021-07-19T17:23:30.000Z</time>
      </trkpt>
      <trkpt lat="47.21805" lon="-1.51516">
        <ele>56</ele>
        <time>2021-07-19T17:23:32.000Z</time>
      </trkpt>
      <trkpt lat="47.21798" lon="-1.51534">
        <ele>57</ele>
        <time>2021-07-19T17:23:34.000Z</time>
      </trkpt>
      <trkpt lat="47.2179" lon="-1.51553">
        <ele>58</ele>
        <time>2021-07-19T17:23:36.000Z</time>
      </trkpt>
      <trkpt lat="47.21783" lon="-1.51569">
        <ele>57</ele>
        <time>2021-07-19T17:23:38.000Z</time>
      </trkpt>
      <trkpt lat="47.21774" lon="-1.51585">
        <ele>58</ele>
        <time>2021-07-19T17:23:40.000Z</time>
      </trkpt>
      <trkpt lat="47.21764" lon="-1.51599">
        <ele>58</ele>
        <time>2021-07-19T17:23:42.000Z</time>
      </trkpt>
      <trkpt lat="47.21754" lon="-1.51613">
        <ele>58</ele>
        <time>2021-07-19T17:23:44.000Z</time>
      </trkpt>
      <trkpt lat="47.21746" lon="-1.51629">
        <ele>58</ele>
        <time>2021-07-19T17:23:46.000Z</time>
      </trkpt>
      <trkpt lat="47.21738" lon="-1.51646">
        <ele>58</ele>
        <time>2021-07-19T17:23:48.000Z</time>
      </trkpt>
      <trkpt lat="47.2173" lon="-1.51663">
        <ele>58</ele>
        <time>2021-07-19T17:23:50.000Z</time>
      </trkpt>
      <trkpt lat="47.21723" lon="-1.51681">
        <ele>58</ele>
        <time>2021-07-19T17:23:52.000Z</time>
      </trkpt>
      <trkpt lat="47.21715" lon="-1.51698">
        <ele>58</ele>
        <time>2021-07-19T17:23:54.000Z</time>
      </trkpt>
      <trkpt lat="47.21708" lon="-1.51715">
        <ele>58</ele>
        <time>2021-07-19T17:23:56.000Z</time>
      </trkpt>
      <trkpt lat="47.21701" lon="-1.51732">
        <ele>58</ele>
        <time>2021-07-19T17:23:58.000Z</time>
      </trkpt>
      <trkpt lat="47.21693" lon="-1.51751">
        <ele>58</ele>
        <time>2021-07-19T17:24:00.000Z</time>
      </trkpt>
      <trkpt lat="47.21684" lon="-1.5177">
        <ele>58</ele>
        <time>2021-07-19T17:24:02.000Z</time>
      </trkpt>
      <trkpt lat="47.21676" lon="-1.51788">
        <ele>58</ele>
        <time>2021-07-19T17:24:04.000Z</time>
      </trkpt>
      <trkpt lat="47.21668" lon="-1.51806">
        <ele>59</ele>
        <time>2021-07-19T17:24:06.000Z</time>
      </trkpt>
      <trkpt lat="47.21661" lon="-1.51824">
        <ele>58</ele>
        <time>2021-07-19T17:24:08.000Z</time>
      </trkpt>
      <trkpt lat="47.21654" lon="-1.51843">
        <ele>57</ele>
        <time>2021-07-19T17:24:10.000Z</time>
      </trkpt>
      <trkpt lat="47.2165" lon="-1.51862">
        <ele>57</ele>
        <time>2021-07-19T17:24:12.000Z</time>
      </trkpt>
      <trkpt lat="47.21646" lon="-1.51882">
        <ele>58</ele>
        <time>2021-07-19T17:24:14.000Z</time>
      </trkpt>
      <trkpt lat="47.21638" lon="-1.51899">
        <ele>59</ele>
        <time>2021-07-19T17:24:16.000Z</time>
      </trkpt>
      <trkpt lat="47.21631" lon="-1.51917">
        <ele>58</ele>
        <time>2021-07-19T17:24:18.000Z</time>
      </trkpt>
      <trkpt lat="47.21626" lon="-1.51937">
        <ele>58</ele>
        <time>2021-07-19T17:24:20.000Z</time>
      </trkpt>
      <trkpt lat="47.21622" lon="-1.51955">
        <ele>57</ele>
        <time>2021-07-19T17:24:22.000Z</time>
      </trkpt>
      <trkpt lat="47.21617" lon="-1.51975">
        <ele>58</ele>
        <time>2021-07-19T17:24:24.000Z</time>
      </trkpt>
      <trkpt lat="47.2161" lon="-1.51991">
        <ele>58</ele>
        <time>2021-07-19T17:24:26.000Z</time>
      </trkpt>
      <trkpt lat="47.21603" lon="-1.5201">
        <ele>58</ele>
        <time>2021-07-19T17:24:28.000Z</time>
      </trkpt>
      <trkpt lat="47.21595" lon="-1.52032">
        <ele>58</ele>
        <time>2021-07-19T17:24:30.000Z</time>
      </trkpt>
      <trkpt lat="47.21588" lon="-1.52053">
        <ele>58</ele>
        <time>2021-07-19T17:24:32.000Z</time>
      </trkpt>
      <trkpt lat="47.21581" lon="-1.52074">
        <ele>58</ele>
        <time>2021-07-19T17:24:34.000Z</time>
      </trkpt>
      <trkpt lat="47.21574" lon="-1.52094">
        <ele>59</ele>
        <time>2021-07-19T17:24:36.000Z</time>
      </trkpt>
      <trkpt lat="47.21568" lon="-1.52114">
        <ele>59</ele>
        <time>2021-07-19T17:24:38.000Z</time>
      </trkpt>
      <trkpt lat="47.21561" lon="-1.52134">
        <ele>59</ele>
        <time>2021-07-19T17:24:40.000Z</time>
      </trkpt>
      <trkpt lat="47.21555" lon="-1.52155">
        <ele>59</ele>
        <time>2021-07-19T17:24:42.000Z</time>
      </trkpt>
      <trkpt lat="47.21548" lon="-1.52175">
        <ele>59</ele>
        <time>2021-07-19T17:24:44.000Z</time>
      </trkpt>
      <trkpt lat="47.21541" lon="-1.52195">
        <ele>59</ele>
        <time>2021-07-19T17:24:46.000Z</time>
      </trkpt>
      <trkpt lat="47.21535" lon="-1.52215">
        <ele>59</ele>
        <time>2021-07-19T17:24:48.000Z</time>
      </trkpt>
      <trkpt lat="47.21529" lon="-1.52235">
        <ele>59</ele>
        <time>2021-07-19T17:24:50.000Z</time>
      </trkpt>
      <trkpt lat="47.21522" lon="-1.52255">
        <ele>58</ele>
        <time>2021-07-19T17:24:52.000Z</time>
      </trkpt>
      <trkpt lat="47.21516" lon="-1.52274">
        <ele>59</ele>
        <time>2021-07-19T17:24:54.000Z</time>
      </trkpt>
      <trkpt lat="47.2151" lon="-1.52294">
        <ele>59</ele>
        <time>2021-07-19T17:24:56.000Z</time>
      </trkpt>
      <trkpt lat="47.21504" lon="-1.52314">
        <ele>60</ele>
        <time>2021-07-19T17:24:58.000Z</time>
      </trkpt>
      <trkpt lat="47.21497" lon="-1.52333">
        <ele>60</ele>
        <time>2021-07-19T17:25:00.000Z</time>
      </trkpt>
      <trkpt lat="47.21491" lon="-1.52353">
        <ele>61</ele>
        <time>2021-07-19T17:25:02.000Z</time>
      </trkpt>
      <trkpt lat="47.21484" lon="-1.52375">
        <ele>61</ele>
        <time>2021-07-19T17:25:04.000Z</time>
      </trkpt>
      <trkpt lat="47.21478" lon="-1.52394">
        <ele>61</ele>
        <time>2021-07-19T17:25:06.000Z</time>
      </trkpt>
      <trkpt lat="47.21472" lon="-1.52414">
        <ele>61</ele>
        <time>2021-07-19T17:25:08.000Z</time>
      </trkpt>
      <trkpt lat="47.21465" lon="-1.52434">
        <ele>61</ele>
        <time>2021-07-19T17:25:10.000Z</time>
      </trkpt>
      <trkpt lat="47.21459" lon="-1.52454">
        <ele>61</ele>
        <time>2021-07-19T17:25:12.000Z</time>
      </trkpt>
      <trkpt lat="47.21453" lon="-1.52473">
        <ele>60</ele>
        <time>2021-07-19T17:25:14.000Z</time>
      </trkpt>
      <trkpt lat="47.21447" lon="-1.52493">
        <ele>60</ele>
        <time>2021-07-19T17:25:16.000Z</time>
      </trkpt>
      <trkpt lat="47.21441" lon="-1.52513">
        <ele>61</ele>
        <time>2021-07-19T17:25:18.000Z</time>
      </trkpt>
      <trkpt lat="47.21434" lon="-1.52532">
        <ele>60</ele>
        <time>2021-07-19T17:25:20.000Z</time>
      </trkpt>
      <trkpt lat="47.21427" lon="-1.52552">
        <ele>60</ele>
        <time>2021-07-19T17:25:22.000Z</time>
      </trkpt>
      <trkpt lat="47.21421" lon="-1.52571">
        <ele>61</ele>
        <time>2021-07-19T17:25:24.000Z</time>
      </trkpt>
      <trkpt lat="47.21416" lon="-1.52589">
        <ele>61</ele>
        <time>2021-07-19T17:25:26.000Z</time>
      </trkpt>
      <trkpt lat="47.21409" lon="-1.52607">
        <ele>61</ele>
        <time>2021-07-19T17:25:28.000Z</time>
      </trkpt>
      <trkpt lat="47.21403" lon="-1.52625">
        <ele>62</ele>
        <time>2021-07-19T17:25:30.000Z</time>
      </trkpt>
      <trkpt lat="47.21397" lon="-1.52643">
        <ele>62</ele>
        <time>2021-07-19T17:25:32.000Z</time>
      </trkpt>
      <trkpt lat="47.21394" lon="-1.52662">
        <ele>62</ele>
        <time>2021-07-19T17:25:34.000Z</time>
      </trkpt>
      <trkpt lat="47.21389" lon="-1.52681">
        <ele>63</ele>
        <time>2021-07-19T17:25:36.000Z</time>
      </trkpt>
      <trkpt lat="47.21385" lon="-1.52698">
        <ele>62</ele>
        <time>2021-07-19T17:25:38.000Z</time>
      </trkpt>
      <trkpt lat="47.21382" lon="-1.52716">
        <ele>63</ele>
        <time>2021-07-19T17:25:41.000Z</time>
      </trkpt>
      <trkpt lat="47.2138" lon="-1.52733">
        <ele>63</ele>
        <time>2021-07-19T17:25:43.000Z</time>
      </trkpt>
      <trkpt lat="47.21376" lon="-1.52756">
        <ele>62</ele>
        <time>2021-07-19T17:25:45.000Z</time>
      </trkpt>
      <trkpt lat="47.21372" lon="-1.52781">
        <ele>62</ele>
        <time>2021-07-19T17:25:47.000Z</time>
      </trkpt>
      <trkpt lat="47.2137" lon="-1.52794">
        <ele>62</ele>
        <time>2021-07-19T17:25:48.000Z</time>
      </trkpt>
      <trkpt lat="47.21365" lon="-1.52818">
        <ele>61</ele>
        <time>2021-07-19T17:25:50.000Z</time>
      </trkpt>
      <trkpt lat="47.21359" lon="-1.52842">
        <ele>60</ele>
        <time>2021-07-19T17:25:52.000Z</time>
      </trkpt>
      <trkpt lat="47.21353" lon="-1.52865">
        <ele>60</ele>
        <time>2021-07-19T17:25:54.000Z</time>
      </trkpt>
      <trkpt lat="47.21349" lon="-1.5289">
        <ele>60</ele>
        <time>2021-07-19T17:25:56.000Z</time>
      </trkpt>
      <trkpt lat="47.21346" lon="-1.52914">
        <ele>59</ele>
        <time>2021-07-19T17:25:58.000Z</time>
      </trkpt>
      <trkpt lat="47.21342" lon="-1.52937">
        <ele>58</ele>
        <time>2021-07-19T17:26:00.000Z</time>
      </trkpt>
      <trkpt lat="47.21339" lon="-1.5296">
        <ele>58</ele>
        <time>2021-07-19T17:26:02.000Z</time>
      </trkpt>
      <trkpt lat="47.21338" lon="-1.52983">
        <ele>58</ele>
        <time>2021-07-19T17:26:04.000Z</time>
      </trkpt>
      <trkpt lat="47.21336" lon="-1.53004">
        <ele>57</ele>
        <time>2021-07-19T17:26:06.000Z</time>
      </trkpt>
      <trkpt lat="47.21332" lon="-1.53025">
        <ele>57</ele>
        <time>2021-07-19T17:26:08.000Z</time>
      </trkpt>
      <trkpt lat="47.2133" lon="-1.53046">
        <ele>57</ele>
        <time>2021-07-19T17:26:10.000Z</time>
      </trkpt>
      <trkpt lat="47.21329" lon="-1.53067">
        <ele>57</ele>
        <time>2021-07-19T17:26:12.000Z</time>
      </trkpt>
      <trkpt lat="47.21327" lon="-1.5309">
        <ele>58</ele>
        <time>2021-07-19T17:26:14.000Z</time>
      </trkpt>
      <trkpt lat="47.21325" lon="-1.53111">
        <ele>57</ele>
        <time>2021-07-19T17:26:16.000Z</time>
      </trkpt>
      <trkpt lat="47.21321" lon="-1.53132">
        <ele>57</ele>
        <time>2021-07-19T17:26:18.000Z</time>
      </trkpt>
      <trkpt lat="47.21318" lon="-1.53153">
        <ele>57</ele>
        <time>2021-07-19T17:26:20.000Z</time>
      </trkpt>
      <trkpt lat="47.21315" lon="-1.53173">
        <ele>57</ele>
        <time>2021-07-19T17:26:22.000Z</time>
      </trkpt>
      <trkpt lat="47.21314" lon="-1.53195">
        <ele>57</ele>
        <time>2021-07-19T17:26:24.000Z</time>
      </trkpt>
      <trkpt lat="47.21312" lon="-1.53216">
        <ele>58</ele>
        <time>2021-07-19T17:26:26.000Z</time>
      </trkpt>
      <trkpt lat="47.21311" lon="-1.53238">
        <ele>58</ele>
        <time>2021-07-19T17:26:28.000Z</time>
      </trkpt>
      <trkpt lat="47.21311" lon="-1.53259">
        <ele>58</ele>
        <time>2021-07-19T17:26:30.000Z</time>
      </trkpt>
      <trkpt lat="47.21311" lon="-1.5328">
        <ele>58</ele>
        <time>2021-07-19T17:26:32.000Z</time>
      </trkpt>
      <trkpt lat="47.2131" lon="-1.53301">
        <ele>58</ele>
        <time>2021-07-19T17:26:34.000Z</time>
      </trkpt>
      <trkpt lat="47.21308" lon="-1.53322">
        <ele>58</ele>
        <time>2021-07-19T17:26:36.000Z</time>
      </trkpt>
      <trkpt lat="47.21305" lon="-1.53343">
        <ele>58</ele>
        <time>2021-07-19T17:26:38.000Z</time>
      </trkpt>
      <trkpt lat="47.21301" lon="-1.53363">
        <ele>58</ele>
        <time>2021-07-19T17:26:40.000Z</time>
      </trkpt>
      <trkpt lat="47.21297" lon="-1.53384">
        <ele>58</ele>
        <time>2021-07-19T17:26:42.000Z</time>
      </trkpt>
      <trkpt lat="47.21295" lon="-1.53405">
        <ele>58</ele>
        <time>2021-07-19T17:26:44.000Z</time>
      </trkpt>
      <trkpt lat="47.21293" lon="-1.53424">
        <ele>58</ele>
        <time>2021-07-19T17:26:46.000Z</time>
      </trkpt>
      <trkpt lat="47.21291" lon="-1.53443">
        <ele>58</ele>
        <time>2021-07-19T17:26:48.000Z</time>
      </trkpt>
      <trkpt lat="47.21294" lon="-1.53461">
        <ele>58</ele>
        <time>2021-07-19T17:26:50.000Z</time>
      </trkpt>
      <trkpt lat="47.213" lon="-1.53479">
        <ele>57</ele>
        <time>2021-07-19T17:26:52.000Z</time>
      </trkpt>
      <trkpt lat="47.21302" lon="-1.53499">
        <ele>57</ele>
        <time>2021-07-19T17:26:54.000Z</time>
      </trkpt>
      <trkpt lat="47.21303" lon="-1.53518">
        <ele>57</ele>
        <time>2021-07-19T17:26:56.000Z</time>
      </trkpt>
      <trkpt lat="47.21304" lon="-1.53538">
        <ele>58</ele>
        <time>2021-07-19T17:26:58.000Z</time>
      </trkpt>
      <trkpt lat="47.21305" lon="-1.53558">
        <ele>58</ele>
        <time>2021-07-19T17:27:00.000Z</time>
      </trkpt>
      <trkpt lat="47.21305" lon="-1.53578">
        <ele>57</ele>
        <time>2021-07-19T17:27:02.000Z</time>
      </trkpt>
      <trkpt lat="47.21306" lon="-1.53595">
        <ele>57</ele>
        <time>2021-07-19T17:27:04.000Z</time>
      </trkpt>
      <trkpt lat="47.21307" lon="-1.53612">
        <ele>57</ele>
        <time>2021-07-19T17:27:06.000Z</time>
      </trkpt>
      <trkpt lat="47.21305" lon="-1.53628">
        <ele>58</ele>
        <time>2021-07-19T17:27:08.000Z</time>
      </trkpt>
      <trkpt lat="47.21299" lon="-1.5364">
        <ele>58</ele>
        <time>2021-07-19T17:27:12.000Z</time>
      </trkpt>
      <trkpt lat="47.21297" lon="-1.53658">
        <ele>60</ele>
        <time>2021-07-19T17:27:16.000Z</time>
      </trkpt>
      <trkpt lat="47.21297" lon="-1.53672">
        <ele>60</ele>
        <time>2021-07-19T17:27:18.000Z</time>
      </trkpt>
      <trkpt lat="47.21301" lon="-1.53684">
        <ele>60</ele>
        <time>2021-07-19T17:27:20.000Z</time>
      </trkpt>
      <trkpt lat="47.21305" lon="-1.53701">
        <ele>60</ele>
        <time>2021-07-19T17:27:22.000Z</time>
      </trkpt>
      <trkpt lat="47.21311" lon="-1.5372">
        <ele>60</ele>
        <time>2021-07-19T17:27:24.000Z</time>
      </trkpt>
      <trkpt lat="47.21315" lon="-1.5374">
        <ele>60</ele>
        <time>2021-07-19T17:27:26.000Z</time>
      </trkpt>
      <trkpt lat="47.21318" lon="-1.53761">
        <ele>60</ele>
        <time>2021-07-19T17:27:28.000Z</time>
      </trkpt>
      <trkpt lat="47.21321" lon="-1.53782">
        <ele>60</ele>
        <time>2021-07-19T17:27:30.000Z</time>
      </trkpt>
      <trkpt lat="47.21323" lon="-1.53801">
        <ele>60</ele>
        <time>2021-07-19T17:27:32.000Z</time>
      </trkpt>
      <trkpt lat="47.21326" lon="-1.53819">
        <ele>61</ele>
        <time>2021-07-19T17:27:34.000Z</time>
      </trkpt>
      <trkpt lat="47.21328" lon="-1.53838">
        <ele>61</ele>
        <time>2021-07-19T17:27:36.000Z</time>
      </trkpt>
      <trkpt lat="47.21331" lon="-1.53856">
        <ele>61</ele>
        <time>2021-07-19T17:27:38.000Z</time>
      </trkpt>
      <trkpt lat="47.21335" lon="-1.53874">
        <ele>61</ele>
        <time>2021-07-19T17:27:40.000Z</time>
      </trkpt>
      <trkpt lat="47.21338" lon="-1.53891">
        <ele>62</ele>
        <time>2021-07-19T17:27:42.000Z</time>
      </trkpt>
      <trkpt lat="47.2134" lon="-1.53907">
        <ele>62</ele>
        <time>2021-07-19T17:27:44.000Z</time>
      </trkpt>
      <trkpt lat="47.21342" lon="-1.5392">
        <ele>61</ele>
        <time>2021-07-19T17:27:46.000Z</time>
      </trkpt>
      <trkpt lat="47.21355" lon="-1.53923">
        <ele>59</ele>
        <time>2021-07-19T17:27:49.000Z</time>
      </trkpt>
      <trkpt lat="47.21366" lon="-1.53927">
        <ele>59</ele>
        <time>2021-07-19T17:27:51.000Z</time>
      </trkpt>
      <trkpt lat="47.21378" lon="-1.5393">
        <ele>59</ele>
        <time>2021-07-19T17:27:53.000Z</time>
      </trkpt>
      <trkpt lat="47.21387" lon="-1.53944">
        <ele>59</ele>
        <time>2021-07-19T17:27:55.000Z</time>
      </trkpt>
      <trkpt lat="47.2139" lon="-1.53966">
        <ele>60</ele>
        <time>2021-07-19T17:27:57.000Z</time>
      </trkpt>
      <trkpt lat="47.21389" lon="-1.53988">
        <ele>60</ele>
        <time>2021-07-19T17:27:59.000Z</time>
      </trkpt>
      <trkpt lat="47.2139" lon="-1.54004">
        <ele>59</ele>
        <time>2021-07-19T17:28:01.000Z</time>
      </trkpt>
      <trkpt lat="47.21401" lon="-1.54017">
        <ele>59</ele>
        <time>2021-07-19T17:28:03.000Z</time>
      </trkpt>
      <trkpt lat="47.21409" lon="-1.5403">
        <ele>59</ele>
        <time>2021-07-19T17:28:05.000Z</time>
      </trkpt>
      <trkpt lat="47.21417" lon="-1.54046">
        <ele>59</ele>
        <time>2021-07-19T17:28:07.000Z</time>
      </trkpt>
      <trkpt lat="47.21425" lon="-1.5406">
        <ele>59</ele>
        <time>2021-07-19T17:28:09.000Z</time>
      </trkpt>
      <trkpt lat="47.21434" lon="-1.54074">
        <ele>59</ele>
        <time>2021-07-19T17:28:11.000Z</time>
      </trkpt>
      <trkpt lat="47.21444" lon="-1.54088">
        <ele>59</ele>
        <time>2021-07-19T17:28:13.000Z</time>
      </trkpt>
      <trkpt lat="47.21453" lon="-1.54102">
        <ele>59</ele>
        <time>2021-07-19T17:28:15.000Z</time>
      </trkpt>
      <trkpt lat="47.21463" lon="-1.54116">
        <ele>59</ele>
        <time>2021-07-19T17:28:17.000Z</time>
      </trkpt>
      <trkpt lat="47.21471" lon="-1.54128">
        <ele>59</ele>
        <time>2021-07-19T17:28:19.000Z</time>
      </trkpt>
      <trkpt lat="47.21481" lon="-1.54141">
        <ele>60</ele>
        <time>2021-07-19T17:28:21.000Z</time>
      </trkpt>
      <trkpt lat="47.21491" lon="-1.54154">
        <ele>59</ele>
        <time>2021-07-19T17:28:23.000Z</time>
      </trkpt>
      <trkpt lat="47.21503" lon="-1.54169">
        <ele>59</ele>
        <time>2021-07-19T17:28:25.000Z</time>
      </trkpt>
      <trkpt lat="47.21512" lon="-1.54188">
        <ele>58</ele>
        <time>2021-07-19T17:28:27.000Z</time>
      </trkpt>
      <trkpt lat="47.21522" lon="-1.54204">
        <ele>58</ele>
        <time>2021-07-19T17:28:29.000Z</time>
      </trkpt>
      <trkpt lat="47.21532" lon="-1.54221">
        <ele>58</ele>
        <time>2021-07-19T17:28:31.000Z</time>
      </trkpt>
      <trkpt lat="47.21541" lon="-1.54239">
        <ele>58</ele>
        <time>2021-07-19T17:28:33.000Z</time>
      </trkpt>
      <trkpt lat="47.21551" lon="-1.54255">
        <ele>59</ele>
        <time>2021-07-19T17:28:35.000Z</time>
      </trkpt>
      <trkpt lat="47.21561" lon="-1.5427">
        <ele>59</ele>
        <time>2021-07-19T17:28:37.000Z</time>
      </trkpt>
      <trkpt lat="47.21571" lon="-1.54286">
        <ele>60</ele>
        <time>2021-07-19T17:28:39.000Z</time>
      </trkpt>
      <trkpt lat="47.21581" lon="-1.543">
        <ele>60</ele>
        <time>2021-07-19T17:28:41.000Z</time>
      </trkpt>
      <trkpt lat="47.21591" lon="-1.54316">
        <ele>60</ele>
        <time>2021-07-19T17:28:43.000Z</time>
      </trkpt>
      <trkpt lat="47.216" lon="-1.54332">
        <ele>60</ele>
        <time>2021-07-19T17:28:45.000Z</time>
      </trkpt>
      <trkpt lat="47.21608" lon="-1.54349">
        <ele>60</ele>
        <time>2021-07-19T17:28:47.000Z</time>
      </trkpt>
      <trkpt lat="47.21614" lon="-1.54367">
        <ele>60</ele>
        <time>2021-07-19T17:28:49.000Z</time>
      </trkpt>
      <trkpt lat="47.21618" lon="-1.54386">
        <ele>60</ele>
        <time>2021-07-19T17:28:51.000Z</time>
      </trkpt>
      <trkpt lat="47.2162" lon="-1.54405">
        <ele>60</ele>
        <time>2021-07-19T17:28:53.000Z</time>
      </trkpt>
      <trkpt lat="47.21615" lon="-1.54425">
        <ele>60</ele>
        <time>2021-07-19T17:28:55.000Z</time>
      </trkpt>
      <trkpt lat="47.21613" lon="-1.54446">
        <ele>60</ele>
        <time>2021-07-19T17:28:57.000Z</time>
      </trkpt>
      <trkpt lat="47.21612" lon="-1.54466">
        <ele>60</ele>
        <time>2021-07-19T17:28:59.000Z</time>
      </trkpt>
      <trkpt lat="47.21609" lon="-1.54487">
        <ele>60</ele>
        <time>2021-07-19T17:29:01.000Z</time>
      </trkpt>
      <trkpt lat="47.21604" lon="-1.54507">
        <ele>61</ele>
        <time>2021-07-19T17:29:03.000Z</time>
      </trkpt>
      <trkpt lat="47.21598" lon="-1.54526">
        <ele>61</ele>
        <time>2021-07-19T17:29:05.000Z</time>
      </trkpt>
      <trkpt lat="47.21592" lon="-1.54544">
        <ele>61</ele>
        <time>2021-07-19T17:29:07.000Z</time>
      </trkpt>
      <trkpt lat="47.21585" lon="-1.54561">
        <ele>62</ele>
        <time>2021-07-19T17:29:09.000Z</time>
      </trkpt>
      <trkpt lat="47.21578" lon="-1.54578">
        <ele>61</ele>
        <time>2021-07-19T17:29:11.000Z</time>
      </trkpt>
      <trkpt lat="47.21571" lon="-1.54596">
        <ele>61</ele>
        <time>2021-07-19T17:29:13.000Z</time>
      </trkpt>
      <trkpt lat="47.21565" lon="-1.54616">
        <ele>60</ele>
        <time>2021-07-19T17:29:15.000Z</time>
      </trkpt>
      <trkpt lat="47.21557" lon="-1.54635">
        <ele>60</ele>
        <time>2021-07-19T17:29:17.000Z</time>
      </trkpt>
      <trkpt lat="47.21551" lon="-1.54652">
        <ele>61</ele>
        <time>2021-07-19T17:29:19.000Z</time>
      </trkpt>
      <trkpt lat="47.21545" lon="-1.54667">
        <ele>61</ele>
        <time>2021-07-19T17:29:21.000Z</time>
      </trkpt>
      <trkpt lat="47.21541" lon="-1.54685">
        <ele>61</ele>
        <time>2021-07-19T17:29:23.000Z</time>
      </trkpt>
      <trkpt lat="47.21535" lon="-1.54705">
        <ele>62</ele>
        <time>2021-07-19T17:29:25.000Z</time>
      </trkpt>
      <trkpt lat="47.21527" lon="-1.54722">
        <ele>62</ele>
        <time>2021-07-19T17:29:27.000Z</time>
      </trkpt>
      <trkpt lat="47.21519" lon="-1.54741">
        <ele>62</ele>
        <time>2021-07-19T17:29:29.000Z</time>
      </trkpt>
      <trkpt lat="47.21511" lon="-1.54759">
        <ele>62</ele>
        <time>2021-07-19T17:29:31.000Z</time>
      </trkpt>
      <trkpt lat="47.21503" lon="-1.54777">
        <ele>62</ele>
        <time>2021-07-19T17:29:33.000Z</time>
      </trkpt>
      <trkpt lat="47.21496" lon="-1.54795">
        <ele>60</ele>
        <time>2021-07-19T17:29:35.000Z</time>
      </trkpt>
      <trkpt lat="47.21488" lon="-1.54815">
        <ele>60</ele>
        <time>2021-07-19T17:29:37.000Z</time>
      </trkpt>
      <trkpt lat="47.21479" lon="-1.54833">
        <ele>59</ele>
        <time>2021-07-19T17:29:39.000Z</time>
      </trkpt>
      <trkpt lat="47.21469" lon="-1.54852">
        <ele>58</ele>
        <time>2021-07-19T17:29:41.000Z</time>
      </trkpt>
      <trkpt lat="47.2146" lon="-1.5487">
        <ele>57</ele>
        <time>2021-07-19T17:29:43.000Z</time>
      </trkpt>
      <trkpt lat="47.2145" lon="-1.54887">
        <ele>58</ele>
        <time>2021-07-19T17:29:45.000Z</time>
      </trkpt>
      <trkpt lat="47.21442" lon="-1.54905">
        <ele>58</ele>
        <time>2021-07-19T17:29:47.000Z</time>
      </trkpt>
      <trkpt lat="47.21433" lon="-1.54922">
        <ele>58</ele>
        <time>2021-07-19T17:29:49.000Z</time>
      </trkpt>
      <trkpt lat="47.21425" lon="-1.5494">
        <ele>59</ele>
        <time>2021-07-19T17:29:51.000Z</time>
      </trkpt>
      <trkpt lat="47.21417" lon="-1.54958">
        <ele>59</ele>
        <time>2021-07-19T17:29:53.000Z</time>
      </trkpt>
      <trkpt lat="47.21409" lon="-1.54975">
        <ele>58</ele>
        <time>2021-07-19T17:29:55.000Z</time>
      </trkpt>
      <trkpt lat="47.21402" lon="-1.54994">
        <ele>59</ele>
        <time>2021-07-19T17:29:57.000Z</time>
      </trkpt>
      <trkpt lat="47.21395" lon="-1.55012">
        <ele>60</ele>
        <time>2021-07-19T17:29:59.000Z</time>
      </trkpt>
      <trkpt lat="47.21387" lon="-1.5503">
        <ele>60</ele>
        <time>2021-07-19T17:30:01.000Z</time>
      </trkpt>
      <trkpt lat="47.21379" lon="-1.55048">
        <ele>59</ele>
        <time>2021-07-19T17:30:03.000Z</time>
      </trkpt>
      <trkpt lat="47.21372" lon="-1.55067">
        <ele>59</ele>
        <time>2021-07-19T17:30:05.000Z</time>
      </trkpt>
      <trkpt lat="47.21366" lon="-1.55085">
        <ele>59</ele>
        <time>2021-07-19T17:30:07.000Z</time>
      </trkpt>
      <trkpt lat="47.21359" lon="-1.55104">
        <ele>59</ele>
        <time>2021-07-19T17:30:09.000Z</time>
      </trkpt>
      <trkpt lat="47.21352" lon="-1.55121">
        <ele>58</ele>
        <time>2021-07-19T17:30:11.000Z</time>
      </trkpt>
      <trkpt lat="47.21345" lon="-1.55139">
        <ele>58</ele>
        <time>2021-07-19T17:30:13.000Z</time>
      </trkpt>
      <trkpt lat="47.21338" lon="-1.55155">
        <ele>58</ele>
        <time>2021-07-19T17:30:15.000Z</time>
      </trkpt>
      <trkpt lat="47.21331" lon="-1.55173">
        <ele>59</ele>
        <time>2021-07-19T17:30:17.000Z</time>
      </trkpt>
      <trkpt lat="47.21324" lon="-1.55191">
        <ele>59</ele>
        <time>2021-07-19T17:30:19.000Z</time>
      </trkpt>
      <trkpt lat="47.21317" lon="-1.55208">
        <ele>59</ele>
        <time>2021-07-19T17:30:21.000Z</time>
      </trkpt>
      <trkpt lat="47.2131" lon="-1.55224">
        <ele>58</ele>
        <time>2021-07-19T17:30:23.000Z</time>
      </trkpt>
      <trkpt lat="47.21303" lon="-1.55241">
        <ele>58</ele>
        <time>2021-07-19T17:30:25.000Z</time>
      </trkpt>
      <trkpt lat="47.21296" lon="-1.55258">
        <ele>58</ele>
        <time>2021-07-19T17:30:27.000Z</time>
      </trkpt>
      <trkpt lat="47.21289" lon="-1.55275">
        <ele>58</ele>
        <time>2021-07-19T17:30:29.000Z</time>
      </trkpt>
      <trkpt lat="47.21283" lon="-1.5529">
        <ele>59</ele>
        <time>2021-07-19T17:30:31.000Z</time>
      </trkpt>
      <trkpt lat="47.21273" lon="-1.55297">
        <ele>59</ele>
        <time>2021-07-19T17:30:33.000Z</time>
      </trkpt>
      <trkpt lat="47.21262" lon="-1.55298">
        <ele>59</ele>
        <time>2021-07-19T17:30:35.000Z</time>
      </trkpt>
      <trkpt lat="47.21258" lon="-1.55313">
        <ele>59</ele>
        <time>2021-07-19T17:30:37.000Z</time>
      </trkpt>
      <trkpt lat="47.21261" lon="-1.55329">
        <ele>59</ele>
        <time>2021-07-19T17:30:39.000Z</time>
      </trkpt>
      <trkpt lat="47.21267" lon="-1.5534">
        <ele>60</ele>
        <time>2021-07-19T17:30:41.000Z</time>
      </trkpt>
      <trkpt lat="47.21275" lon="-1.55349">
        <ele>59</ele>
        <time>2021-07-19T17:30:44.000Z</time>
      </trkpt>
      <trkpt lat="47.21285" lon="-1.55356">
        <ele>58</ele>
        <time>2021-07-19T17:30:47.000Z</time>
      </trkpt>
      <trkpt lat="47.21287" lon="-1.55373">
        <ele>59</ele>
        <time>2021-07-19T17:30:49.000Z</time>
      </trkpt>
      <trkpt lat="47.21279" lon="-1.5539">
        <ele>59</ele>
        <time>2021-07-19T17:30:51.000Z</time>
      </trkpt>
      <trkpt lat="47.21269" lon="-1.55407">
        <ele>59</ele>
        <time>2021-07-19T17:30:53.000Z</time>
      </trkpt>
      <trkpt lat="47.21257" lon="-1.55425">
        <ele>59</ele>
        <time>2021-07-19T17:30:55.000Z</time>
      </trkpt>
      <trkpt lat="47.21252" lon="-1.55436">
        <ele>59</ele>
        <time>2021-07-19T17:30:56.000Z</time>
      </trkpt>
      <trkpt lat="47.21239" lon="-1.55453">
        <ele>59</ele>
        <time>2021-07-19T17:30:58.000Z</time>
      </trkpt>
      <trkpt lat="47.2123" lon="-1.55467">
        <ele>59</ele>
        <time>2021-07-19T17:31:00.000Z</time>
      </trkpt>
      <trkpt lat="47.21224" lon="-1.55479">
        <ele>60</ele>
        <time>2021-07-19T17:31:03.000Z</time>
      </trkpt>
      <trkpt lat="47.2122" lon="-1.55492">
        <ele>60</ele>
        <time>2021-07-19T17:31:05.000Z</time>
      </trkpt>
      <trkpt lat="47.21216" lon="-1.55512">
        <ele>60</ele>
        <time>2021-07-19T17:31:07.000Z</time>
      </trkpt>
      <trkpt lat="47.2121" lon="-1.55532">
        <ele>60</ele>
        <time>2021-07-19T17:31:09.000Z</time>
      </trkpt>
      <trkpt lat="47.21203" lon="-1.55553">
        <ele>60</ele>
        <time>2021-07-19T17:31:11.000Z</time>
      </trkpt>
      <trkpt lat="47.21196" lon="-1.55574">
        <ele>60</ele>
        <time>2021-07-19T17:31:13.000Z</time>
      </trkpt>
      <trkpt lat="47.2119" lon="-1.55594">
        <ele>60</ele>
        <time>2021-07-19T17:31:15.000Z</time>
      </trkpt>
      <trkpt lat="47.21184" lon="-1.55613">
        <ele>60</ele>
        <time>2021-07-19T17:31:17.000Z</time>
      </trkpt>
      <trkpt lat="47.21178" lon="-1.55633">
        <ele>59</ele>
        <time>2021-07-19T17:31:19.000Z</time>
      </trkpt>
      <trkpt lat="47.21173" lon="-1.55653">
        <ele>59</ele>
        <time>2021-07-19T17:31:21.000Z</time>
      </trkpt>
      <trkpt lat="47.21173" lon="-1.55673">
        <ele>59</ele>
        <time>2021-07-19T17:31:23.000Z</time>
      </trkpt>
      <trkpt lat="47.21178" lon="-1.55693">
        <ele>59</ele>
        <time>2021-07-19T17:31:25.000Z</time>
      </trkpt>
      <trkpt lat="47.21176" lon="-1.55713">
        <ele>59</ele>
        <time>2021-07-19T17:31:27.000Z</time>
      </trkpt>
      <trkpt lat="47.21169" lon="-1.55731">
        <ele>59</ele>
        <time>2021-07-19T17:31:29.000Z</time>
      </trkpt>
      <trkpt lat="47.21162" lon="-1.5575">
        <ele>58</ele>
        <time>2021-07-19T17:31:31.000Z</time>
      </trkpt>
      <trkpt lat="47.21155" lon="-1.55769">
        <ele>58</ele>
        <time>2021-07-19T17:31:33.000Z</time>
      </trkpt>
      <trkpt lat="47.2115" lon="-1.55787">
        <ele>57</ele>
        <time>2021-07-19T17:31:35.000Z</time>
      </trkpt>
      <trkpt lat="47.21146" lon="-1.55806">
        <ele>57</ele>
        <time>2021-07-19T17:31:37.000Z</time>
      </trkpt>
      <trkpt lat="47.21144" lon="-1.55826">
        <ele>57</ele>
        <time>2021-07-19T17:31:39.000Z</time>
      </trkpt>
      <trkpt lat="47.21143" lon="-1.55846">
        <ele>57</ele>
        <time>2021-07-19T17:31:41.000Z</time>
      </trkpt>
      <trkpt lat="47.21144" lon="-1.55865">
        <ele>57</ele>
        <time>2021-07-19T17:31:43.000Z</time>
      </trkpt>
      <trkpt lat="47.2115" lon="-1.55883">
        <ele>57</ele>
        <time>2021-07-19T17:31:45.000Z</time>
      </trkpt>
      <trkpt lat="47.2115" lon="-1.55901">
        <ele>57</ele>
        <time>2021-07-19T17:31:47.000Z</time>
      </trkpt>
      <trkpt lat="47.2114" lon="-1.55915">
        <ele>57</ele>
        <time>2021-07-19T17:31:49.000Z</time>
      </trkpt>
      <trkpt lat="47.21127" lon="-1.55921">
        <ele>58</ele>
        <time>2021-07-19T17:31:51.000Z</time>
      </trkpt>
      <trkpt lat="47.21113" lon="-1.55929">
        <ele>57</ele>
        <time>2021-07-19T17:31:53.000Z</time>
      </trkpt>
      <trkpt lat="47.21101" lon="-1.55939">
        <ele>58</ele>
        <time>2021-07-19T17:31:55.000Z</time>
      </trkpt>
      <trkpt lat="47.21091" lon="-1.55952">
        <ele>58</ele>
        <time>2021-07-19T17:31:57.000Z</time>
      </trkpt>
      <trkpt lat="47.21081" lon="-1.55966">
        <ele>58</ele>
        <time>2021-07-19T17:31:59.000Z</time>
      </trkpt>
      <trkpt lat="47.21072" lon="-1.5598">
        <ele>59</ele>
        <time>2021-07-19T17:32:01.000Z</time>
      </trkpt>
      <trkpt lat="47.21067" lon="-1.55993">
        <ele>59</ele>
        <time>2021-07-19T17:32:03.000Z</time>
      </trkpt>
      <trkpt lat="47.2106" lon="-1.5601">
        <ele>60</ele>
        <time>2021-07-19T17:32:06.000Z</time>
      </trkpt>
      <trkpt lat="47.21054" lon="-1.56025">
        <ele>60</ele>
        <time>2021-07-19T17:32:08.000Z</time>
      </trkpt>
      <trkpt lat="47.21048" lon="-1.56041">
        <ele>59</ele>
        <time>2021-07-19T17:32:10.000Z</time>
      </trkpt>
      <trkpt lat="47.21041" lon="-1.56058">
        <ele>59</ele>
        <time>2021-07-19T17:32:12.000Z</time>
      </trkpt>
      <trkpt lat="47.21034" lon="-1.56074">
        <ele>58</ele>
        <time>2021-07-19T17:32:14.000Z</time>
      </trkpt>
      <trkpt lat="47.21028" lon="-1.56091">
        <ele>58</ele>
        <time>2021-07-19T17:32:16.000Z</time>
      </trkpt>
      <trkpt lat="47.21022" lon="-1.56106">
        <ele>58</ele>
        <time>2021-07-19T17:32:18.000Z</time>
      </trkpt>
      <trkpt lat="47.21015" lon="-1.5612">
        <ele>59</ele>
        <time>2021-07-19T17:32:20.000Z</time>
      </trkpt>
      <trkpt lat="47.21009" lon="-1.56135">
        <ele>58</ele>
        <time>2021-07-19T17:32:22.000Z</time>
      </trkpt>
      <trkpt lat="47.21004" lon="-1.56149">
        <ele>58</ele>
        <time>2021-07-19T17:32:24.000Z</time>
      </trkpt>
      <trkpt lat="47.21" lon="-1.56163">
        <ele>58</ele>
        <time>2021-07-19T17:32:26.000Z</time>
      </trkpt>
      <trkpt lat="47.20989" lon="-1.56174">
        <ele>58</ele>
        <time>2021-07-19T17:32:29.000Z</time>
      </trkpt>
      <trkpt lat="47.20976" lon="-1.5617">
        <ele>57</ele>
        <time>2021-07-19T17:32:32.000Z</time>
      </trkpt>
      <trkpt lat="47.20965" lon="-1.56167">
        <ele>57</ele>
        <time>2021-07-19T17:32:34.000Z</time>
      </trkpt>
      <trkpt lat="47.20955" lon="-1.56166">
        <ele>58</ele>
        <time>2021-07-19T17:32:36.000Z</time>
      </trkpt>
      <trkpt lat="47.20943" lon="-1.56164">
        <ele>59</ele>
        <time>2021-07-19T17:32:39.000Z</time>
      </trkpt>
      <trkpt lat="47.20931" lon="-1.56161">
        <ele>59</ele>
        <time>2021-07-19T17:32:41.000Z</time>
      </trkpt>
      <trkpt lat="47.20918" lon="-1.56158">
        <ele>59</ele>
        <time>2021-07-19T17:32:43.000Z</time>
      </trkpt>
      <trkpt lat="47.20906" lon="-1.56155">
        <ele>59</ele>
        <time>2021-07-19T17:32:45.000Z</time>
      </trkpt>
      <trkpt lat="47.20893" lon="-1.56153">
        <ele>59</ele>
        <time>2021-07-19T17:32:47.000Z</time>
      </trkpt>
      <trkpt lat="47.20881" lon="-1.56149">
        <ele>59</ele>
        <time>2021-07-19T17:32:49.000Z</time>
      </trkpt>
      <trkpt lat="47.20869" lon="-1.56147">
        <ele>58</ele>
        <time>2021-07-19T17:32:51.000Z</time>
      </trkpt>
      <trkpt lat="47.20857" lon="-1.56144">
        <ele>58</ele>
        <time>2021-07-19T17:32:53.000Z</time>
      </trkpt>
      <trkpt lat="47.20847" lon="-1.56142">
        <ele>57</ele>
        <time>2021-07-19T17:32:55.000Z</time>
      </trkpt>
      <trkpt lat="47.20838" lon="-1.56151">
        <ele>57</ele>
        <time>2021-07-19T17:32:58.000Z</time>
      </trkpt>
      <trkpt lat="47.20837" lon="-1.5617">
        <ele>57</ele>
        <time>2021-07-19T17:33:00.000Z</time>
      </trkpt>
      <trkpt lat="47.20837" lon="-1.56192">
        <ele>58</ele>
        <time>2021-07-19T17:33:02.000Z</time>
      </trkpt>
      <trkpt lat="47.20837" lon="-1.56215">
        <ele>58</ele>
        <time>2021-07-19T17:33:04.000Z</time>
      </trkpt>
      <trkpt lat="47.20836" lon="-1.56237">
        <ele>58</ele>
        <time>2021-07-19T17:33:06.000Z</time>
      </trkpt>
      <trkpt lat="47.20836" lon="-1.5626">
        <ele>57</ele>
        <time>2021-07-19T17:33:08.000Z</time>
      </trkpt>
      <trkpt lat="47.20835" lon="-1.56282">
        <ele>57</ele>
        <time>2021-07-19T17:33:10.000Z</time>
      </trkpt>
      <trkpt lat="47.20833" lon="-1.56304">
        <ele>57</ele>
        <time>2021-07-19T17:33:12.000Z</time>
      </trkpt>
      <trkpt lat="47.20829" lon="-1.56324">
        <ele>58</ele>
        <time>2021-07-19T17:33:14.000Z</time>
      </trkpt>
      <trkpt lat="47.20823" lon="-1.56345">
        <ele>57</ele>
        <time>2021-07-19T17:33:16.000Z</time>
      </trkpt>
      <trkpt lat="47.20818" lon="-1.56365">
        <ele>58</ele>
        <time>2021-07-19T17:33:18.000Z</time>
      </trkpt>
      <trkpt lat="47.20813" lon="-1.56385">
        <ele>58</ele>
        <time>2021-07-19T17:33:20.000Z</time>
      </trkpt>
      <trkpt lat="47.20809" lon="-1.56404">
        <ele>58</ele>
        <time>2021-07-19T17:33:22.000Z</time>
      </trkpt>
      <trkpt lat="47.20804" lon="-1.56423">
        <ele>58</ele>
        <time>2021-07-19T17:33:24.000Z</time>
      </trkpt>
      <trkpt lat="47.20797" lon="-1.56451">
        <ele>57</ele>
        <time>2021-07-19T17:33:27.000Z</time>
      </trkpt>
      <trkpt lat="47.20792" lon="-1.56468">
        <ele>57</ele>
        <time>2021-07-19T17:33:29.000Z</time>
      </trkpt>
      <trkpt lat="47.20786" lon="-1.56494">
        <ele>57</ele>
        <time>2021-07-19T17:33:32.000Z</time>
      </trkpt>
      <trkpt lat="47.20781" lon="-1.5651">
        <ele>57</ele>
        <time>2021-07-19T17:33:34.000Z</time>
      </trkpt>
      <trkpt lat="47.2077" lon="-1.56515">
        <ele>56</ele>
        <time>2021-07-19T17:33:36.000Z</time>
      </trkpt>
      <trkpt lat="47.20762" lon="-1.56506">
        <ele>56</ele>
        <time>2021-07-19T17:33:38.000Z</time>
      </trkpt>
      <trkpt lat="47.20754" lon="-1.56498">
        <ele>55</ele>
        <time>2021-07-19T17:33:40.000Z</time>
      </trkpt>
      <trkpt lat="47.20744" lon="-1.56489">
        <ele>56</ele>
        <time>2021-07-19T17:33:43.000Z</time>
      </trkpt>
      <trkpt lat="47.20738" lon="-1.56504">
        <ele>57</ele>
        <time>2021-07-19T17:33:47.000Z</time>
      </trkpt>
      <trkpt lat="47.20734" lon="-1.56522">
        <ele>58</ele>
        <time>2021-07-19T17:33:51.000Z</time>
      </trkpt>
      <trkpt lat="47.20726" lon="-1.56539">
        <ele>58</ele>
        <time>2021-07-19T17:33:53.000Z</time>
      </trkpt>
      <trkpt lat="47.20718" lon="-1.56555">
        <ele>58</ele>
        <time>2021-07-19T17:33:55.000Z</time>
      </trkpt>
      <trkpt lat="47.2071" lon="-1.56567">
        <ele>58</ele>
        <time>2021-07-19T17:33:57.000Z</time>
      </trkpt>
      <trkpt lat="47.20698" lon="-1.56573">
        <ele>58</ele>
        <time>2021-07-19T17:33:59.000Z</time>
      </trkpt>
      <trkpt lat="47.20687" lon="-1.56584">
        <ele>57</ele>
        <time>2021-07-19T17:34:01.000Z</time>
      </trkpt>
      <trkpt lat="47.20674" lon="-1.56593">
        <ele>58</ele>
        <time>2021-07-19T17:34:03.000Z</time>
      </trkpt>
      <trkpt lat="47.2066" lon="-1.56599">
        <ele>58</ele>
        <time>2021-07-19T17:34:05.000Z</time>
      </trkpt>
      <trkpt lat="47.20646" lon="-1.56604">
        <ele>58</ele>
        <time>2021-07-19T17:34:07.000Z</time>
      </trkpt>
      <trkpt lat="47.20632" lon="-1.56609">
        <ele>59</ele>
        <time>2021-07-19T17:34:09.000Z</time>
      </trkpt>
      <trkpt lat="47.20618" lon="-1.56613">
        <ele>59</ele>
        <time>2021-07-19T17:34:11.000Z</time>
      </trkpt>
      <trkpt lat="47.20606" lon="-1.56622">
        <ele>58</ele>
        <time>2021-07-19T17:34:13.000Z</time>
      </trkpt>
      <trkpt lat="47.20595" lon="-1.56633">
        <ele>58</ele>
        <time>2021-07-19T17:34:15.000Z</time>
      </trkpt>
      <trkpt lat="47.20584" lon="-1.56645">
        <ele>58</ele>
        <time>2021-07-19T17:34:17.000Z</time>
      </trkpt>
      <trkpt lat="47.20575" lon="-1.56658">
        <ele>58</ele>
        <time>2021-07-19T17:34:19.000Z</time>
      </trkpt>
      <trkpt lat="47.20567" lon="-1.56673">
        <ele>58</ele>
        <time>2021-07-19T17:34:21.000Z</time>
      </trkpt>
      <trkpt lat="47.20559" lon="-1.56688">
        <ele>58</ele>
        <time>2021-07-19T17:34:23.000Z</time>
      </trkpt>
      <trkpt lat="47.2055" lon="-1.56702">
        <ele>58</ele>
        <time>2021-07-19T17:34:25.000Z</time>
      </trkpt>
      <trkpt lat="47.20538" lon="-1.56712">
        <ele>58</ele>
        <time>2021-07-19T17:34:27.000Z</time>
      </trkpt>
      <trkpt lat="47.20525" lon="-1.56714">
        <ele>58</ele>
        <time>2021-07-19T17:34:29.000Z</time>
      </trkpt>
      <trkpt lat="47.20512" lon="-1.56715">
        <ele>58</ele>
        <time>2021-07-19T17:34:31.000Z</time>
      </trkpt>
      <trkpt lat="47.205" lon="-1.56713">
        <ele>59</ele>
        <time>2021-07-19T17:34:33.000Z</time>
      </trkpt>
      <trkpt lat="47.20488" lon="-1.56711">
        <ele>59</ele>
        <time>2021-07-19T17:34:35.000Z</time>
      </trkpt>
      <trkpt lat="47.20475" lon="-1.5671">
        <ele>61</ele>
        <time>2021-07-19T17:34:37.000Z</time>
      </trkpt>
      <trkpt lat="47.20458" lon="-1.56704">
        <ele>61</ele>
        <time>2021-07-19T17:34:39.000Z</time>
      </trkpt>
      <trkpt lat="47.20445" lon="-1.567">
        <ele>63</ele>
        <time>2021-07-19T17:34:41.000Z</time>
      </trkpt>
      <trkpt lat="47.20435" lon="-1.56703">
        <ele>64</ele>
        <time>2021-07-19T17:34:43.000Z</time>
      </trkpt>
      <trkpt lat="47.20422" lon="-1.56702">
        <ele>65</ele>
        <time>2021-07-19T17:34:46.000Z</time>
      </trkpt>
      <trkpt lat="47.20409" lon="-1.56705">
        <ele>66</ele>
        <time>2021-07-19T17:34:49.000Z</time>
      </trkpt>
      <trkpt lat="47.20406" lon="-1.5672">
        <ele>66</ele>
        <time>2021-07-19T17:34:51.000Z</time>
      </trkpt>
      <trkpt lat="47.20404" lon="-1.56737">
        <ele>66</ele>
        <time>2021-07-19T17:34:53.000Z</time>
      </trkpt>
      <trkpt lat="47.20402" lon="-1.56756">
        <ele>66</ele>
        <time>2021-07-19T17:34:55.000Z</time>
      </trkpt>
      <trkpt lat="47.20399" lon="-1.56776">
        <ele>67</ele>
        <time>2021-07-19T17:34:57.000Z</time>
      </trkpt>
      <trkpt lat="47.20397" lon="-1.56798">
        <ele>66</ele>
        <time>2021-07-19T17:34:59.000Z</time>
      </trkpt>
      <trkpt lat="47.20397" lon="-1.56821">
        <ele>67</ele>
        <time>2021-07-19T17:35:01.000Z</time>
      </trkpt>
      <trkpt lat="47.20394" lon="-1.56842">
        <ele>66</ele>
        <time>2021-07-19T17:35:03.000Z</time>
      </trkpt>
      <trkpt lat="47.20391" lon="-1.56863">
        <ele>67</ele>
        <time>2021-07-19T17:35:05.000Z</time>
      </trkpt>
      <trkpt lat="47.2039" lon="-1.56883">
        <ele>67</ele>
        <time>2021-07-19T17:35:07.000Z</time>
      </trkpt>
      <trkpt lat="47.20388" lon="-1.56904">
        <ele>66</ele>
        <time>2021-07-19T17:35:09.000Z</time>
      </trkpt>
      <trkpt lat="47.20385" lon="-1.56927">
        <ele>64</ele>
        <time>2021-07-19T17:35:11.000Z</time>
      </trkpt>
      <trkpt lat="47.20382" lon="-1.56949">
        <ele>63</ele>
        <time>2021-07-19T17:35:13.000Z</time>
      </trkpt>
      <trkpt lat="47.2038" lon="-1.56971">
        <ele>63</ele>
        <time>2021-07-19T17:35:15.000Z</time>
      </trkpt>
      <trkpt lat="47.20379" lon="-1.56992">
        <ele>63</ele>
        <time>2021-07-19T17:35:17.000Z</time>
      </trkpt>
      <trkpt lat="47.20376" lon="-1.57012">
        <ele>62</ele>
        <time>2021-07-19T17:35:19.000Z</time>
      </trkpt>
      <trkpt lat="47.20372" lon="-1.57032">
        <ele>61</ele>
        <time>2021-07-19T17:35:21.000Z</time>
      </trkpt>
      <trkpt lat="47.20366" lon="-1.5705">
        <ele>62</ele>
        <time>2021-07-19T17:35:23.000Z</time>
      </trkpt>
      <trkpt lat="47.20359" lon="-1.57067">
        <ele>62</ele>
        <time>2021-07-19T17:35:25.000Z</time>
      </trkpt>
      <trkpt lat="47.20352" lon="-1.57083">
        <ele>62</ele>
        <time>2021-07-19T17:35:27.000Z</time>
      </trkpt>
      <trkpt lat="47.20343" lon="-1.57098">
        <ele>61</ele>
        <time>2021-07-19T17:35:29.000Z</time>
      </trkpt>
      <trkpt lat="47.20331" lon="-1.57108">
        <ele>61</ele>
        <time>2021-07-19T17:35:31.000Z</time>
      </trkpt>
      <trkpt lat="47.20319" lon="-1.57118">
        <ele>62</ele>
        <time>2021-07-19T17:35:33.000Z</time>
      </trkpt>
      <trkpt lat="47.20306" lon="-1.57127">
        <ele>61</ele>
        <time>2021-07-19T17:35:35.000Z</time>
      </trkpt>
      <trkpt lat="47.20294" lon="-1.57135">
        <ele>61</ele>
        <time>2021-07-19T17:35:37.000Z</time>
      </trkpt>
      <trkpt lat="47.20281" lon="-1.57144">
        <ele>61</ele>
        <time>2021-07-19T17:35:39.000Z</time>
      </trkpt>
      <trkpt lat="47.2027" lon="-1.57152">
        <ele>61</ele>
        <time>2021-07-19T17:35:41.000Z</time>
      </trkpt>
      <trkpt lat="47.20257" lon="-1.57159">
        <ele>60</ele>
        <time>2021-07-19T17:35:43.000Z</time>
      </trkpt>
      <trkpt lat="47.20245" lon="-1.57167">
        <ele>60</ele>
        <time>2021-07-19T17:35:45.000Z</time>
      </trkpt>
      <trkpt lat="47.20232" lon="-1.57175">
        <ele>60</ele>
        <time>2021-07-19T17:35:47.000Z</time>
      </trkpt>
      <trkpt lat="47.2022" lon="-1.57183">
        <ele>60</ele>
        <time>2021-07-19T17:35:49.000Z</time>
      </trkpt>
      <trkpt lat="47.20208" lon="-1.57192">
        <ele>59</ele>
        <time>2021-07-19T17:35:51.000Z</time>
      </trkpt>
      <trkpt lat="47.20195" lon="-1.572">
        <ele>59</ele>
        <time>2021-07-19T17:35:53.000Z</time>
      </trkpt>
      <trkpt lat="47.20183" lon="-1.57209">
        <ele>59</ele>
        <time>2021-07-19T17:35:55.000Z</time>
      </trkpt>
      <trkpt lat="47.20171" lon="-1.57217">
        <ele>59</ele>
        <time>2021-07-19T17:35:57.000Z</time>
      </trkpt>
      <trkpt lat="47.20159" lon="-1.57225">
        <ele>59</ele>
        <time>2021-07-19T17:35:59.000Z</time>
      </trkpt>
      <trkpt lat="47.20146" lon="-1.57235">
        <ele>59</ele>
        <time>2021-07-19T17:36:01.000Z</time>
      </trkpt>
      <trkpt lat="47.20133" lon="-1.57243">
        <ele>59</ele>
        <time>2021-07-19T17:36:03.000Z</time>
      </trkpt>
      <trkpt lat="47.20121" lon="-1.57251">
        <ele>59</ele>
        <time>2021-07-19T17:36:05.000Z</time>
      </trkpt>
      <trkpt lat="47.20108" lon="-1.57259">
        <ele>59</ele>
        <time>2021-07-19T17:36:07.000Z</time>
      </trkpt>
      <trkpt lat="47.20095" lon="-1.57267">
        <ele>59</ele>
        <time>2021-07-19T17:36:09.000Z</time>
      </trkpt>
      <trkpt lat="47.20083" lon="-1.57275">
        <ele>59</ele>
        <time>2021-07-19T17:36:11.000Z</time>
      </trkpt>
      <trkpt lat="47.20071" lon="-1.57286">
        <ele>59</ele>
        <time>2021-07-19T17:36:13.000Z</time>
      </trkpt>
      <trkpt lat="47.20059" lon="-1.57297">
        <ele>59</ele>
        <time>2021-07-19T17:36:15.000Z</time>
      </trkpt>
      <trkpt lat="47.20047" lon="-1.57306">
        <ele>59</ele>
        <time>2021-07-19T17:36:17.000Z</time>
      </trkpt>
      <trkpt lat="47.20035" lon="-1.57315">
        <ele>59</ele>
        <time>2021-07-19T17:36:19.000Z</time>
      </trkpt>
      <trkpt lat="47.20024" lon="-1.57324">
        <ele>59</ele>
        <time>2021-07-19T17:36:21.000Z</time>
      </trkpt>
      <trkpt lat="47.20012" lon="-1.57332">
        <ele>59</ele>
        <time>2021-07-19T17:36:23.000Z</time>
      </trkpt>
      <trkpt lat="47.2" lon="-1.57339">
        <ele>59</ele>
        <time>2021-07-19T17:36:25.000Z</time>
      </trkpt>
      <trkpt lat="47.19987" lon="-1.57333">
        <ele>59</ele>
        <time>2021-07-19T17:36:27.000Z</time>
      </trkpt>
      <trkpt lat="47.19981" lon="-1.57314">
        <ele>58</ele>
        <time>2021-07-19T17:36:29.000Z</time>
      </trkpt>
      <trkpt lat="47.1998" lon="-1.57295">
        <ele>58</ele>
        <time>2021-07-19T17:36:31.000Z</time>
      </trkpt>
      <trkpt lat="47.1998" lon="-1.57276">
        <ele>58</ele>
        <time>2021-07-19T17:36:33.000Z</time>
      </trkpt>
      <trkpt lat="47.19981" lon="-1.57258">
        <ele>58</ele>
        <time>2021-07-19T17:36:35.000Z</time>
      </trkpt>
      <trkpt lat="47.19981" lon="-1.57238">
        <ele>59</ele>
        <time>2021-07-19T17:36:37.000Z</time>
      </trkpt>
      <trkpt lat="47.1998" lon="-1.57219">
        <ele>57</ele>
        <time>2021-07-19T17:36:39.000Z</time>
      </trkpt>
      <trkpt lat="47.1998" lon="-1.572">
        <ele>57</ele>
        <time>2021-07-19T17:36:41.000Z</time>
      </trkpt>
      <trkpt lat="47.19979" lon="-1.5718">
        <ele>56</ele>
        <time>2021-07-19T17:36:43.000Z</time>
      </trkpt>
      <trkpt lat="47.19979" lon="-1.57161">
        <ele>55</ele>
        <time>2021-07-19T17:36:45.000Z</time>
      </trkpt>
      <trkpt lat="47.19977" lon="-1.57141">
        <ele>55</ele>
        <time>2021-07-19T17:36:47.000Z</time>
      </trkpt>
      <trkpt lat="47.19973" lon="-1.57121">
        <ele>55</ele>
        <time>2021-07-19T17:36:49.000Z</time>
      </trkpt>
      <trkpt lat="47.19969" lon="-1.57103">
        <ele>55</ele>
        <time>2021-07-19T17:36:51.000Z</time>
      </trkpt>
      <trkpt lat="47.19965" lon="-1.57085">
        <ele>54</ele>
        <time>2021-07-19T17:36:53.000Z</time>
      </trkpt>
      <trkpt lat="47.1996" lon="-1.57066">
        <ele>54</ele>
        <time>2021-07-19T17:36:55.000Z</time>
      </trkpt>
      <trkpt lat="47.19955" lon="-1.57049">
        <ele>54</ele>
        <time>2021-07-19T17:36:57.000Z</time>
      </trkpt>
      <trkpt lat="47.19951" lon="-1.5703">
        <ele>54</ele>
        <time>2021-07-19T17:36:59.000Z</time>
      </trkpt>
      <trkpt lat="47.19951" lon="-1.5701">
        <ele>54</ele>
        <time>2021-07-19T17:37:01.000Z</time>
      </trkpt>
      <trkpt lat="47.19952" lon="-1.56991">
        <ele>55</ele>
        <time>2021-07-19T17:37:03.000Z</time>
      </trkpt>
      <trkpt lat="47.19952" lon="-1.56973">
        <ele>55</ele>
        <time>2021-07-19T17:37:05.000Z</time>
      </trkpt>
      <trkpt lat="47.19952" lon="-1.56954">
        <ele>54</ele>
        <time>2021-07-19T17:37:07.000Z</time>
      </trkpt>
      <trkpt lat="47.19951" lon="-1.56935">
        <ele>54</ele>
        <time>2021-07-19T17:37:09.000Z</time>
      </trkpt>
      <trkpt lat="47.19952" lon="-1.56917">
        <ele>54</ele>
        <time>2021-07-19T17:37:11.000Z</time>
      </trkpt>
      <trkpt lat="47.19952" lon="-1.56898">
        <ele>54</ele>
        <time>2021-07-19T17:37:13.000Z</time>
      </trkpt>
      <trkpt lat="47.19952" lon="-1.5688">
        <ele>54</ele>
        <time>2021-07-19T17:37:15.000Z</time>
      </trkpt>
      <trkpt lat="47.19952" lon="-1.56862">
        <ele>54</ele>
        <time>2021-07-19T17:37:17.000Z</time>
      </trkpt>
      <trkpt lat="47.19952" lon="-1.56845">
        <ele>54</ele>
        <time>2021-07-19T17:37:19.000Z</time>
      </trkpt>
      <trkpt lat="47.19951" lon="-1.56827">
        <ele>54</ele>
        <time>2021-07-19T17:37:21.000Z</time>
      </trkpt>
      <trkpt lat="47.19951" lon="-1.56808">
        <ele>54</ele>
        <time>2021-07-19T17:37:23.000Z</time>
      </trkpt>
      <trkpt lat="47.19951" lon="-1.56789">
        <ele>54</ele>
        <time>2021-07-19T17:37:25.000Z</time>
      </trkpt>
      <trkpt lat="47.19952" lon="-1.56771">
        <ele>54</ele>
        <time>2021-07-19T17:37:27.000Z</time>
      </trkpt>
      <trkpt lat="47.19951" lon="-1.56752">
        <ele>54</ele>
        <time>2021-07-19T17:37:29.000Z</time>
      </trkpt>
      <trkpt lat="47.19951" lon="-1.56734">
        <ele>55</ele>
        <time>2021-07-19T17:37:31.000Z</time>
      </trkpt>
      <trkpt lat="47.19951" lon="-1.56716">
        <ele>55</ele>
        <time>2021-07-19T17:37:33.000Z</time>
      </trkpt>
      <trkpt lat="47.19951" lon="-1.56698">
        <ele>56</ele>
        <time>2021-07-19T17:37:35.000Z</time>
      </trkpt>
      <trkpt lat="47.19951" lon="-1.56681">
        <ele>56</ele>
        <time>2021-07-19T17:37:37.000Z</time>
      </trkpt>
      <trkpt lat="47.19951" lon="-1.56663">
        <ele>57</ele>
        <time>2021-07-19T17:37:39.000Z</time>
      </trkpt>
      <trkpt lat="47.19951" lon="-1.56645">
        <ele>56</ele>
        <time>2021-07-19T17:37:41.000Z</time>
      </trkpt>
      <trkpt lat="47.19952" lon="-1.56627">
        <ele>56</ele>
        <time>2021-07-19T17:37:43.000Z</time>
      </trkpt>
      <trkpt lat="47.19952" lon="-1.56609">
        <ele>56</ele>
        <time>2021-07-19T17:37:45.000Z</time>
      </trkpt>
      <trkpt lat="47.19953" lon="-1.56589">
        <ele>56</ele>
        <time>2021-07-19T17:37:47.000Z</time>
      </trkpt>
      <trkpt lat="47.19953" lon="-1.5657">
        <ele>56</ele>
        <time>2021-07-19T17:37:49.000Z</time>
      </trkpt>
      <trkpt lat="47.19952" lon="-1.5655">
        <ele>56</ele>
        <time>2021-07-19T17:37:51.000Z</time>
      </trkpt>
      <trkpt lat="47.19952" lon="-1.5653">
        <ele>56</ele>
        <time>2021-07-19T17:37:53.000Z</time>
      </trkpt>
      <trkpt lat="47.19953" lon="-1.5651">
        <ele>56</ele>
        <time>2021-07-19T17:37:55.000Z</time>
      </trkpt>
      <trkpt lat="47.19953" lon="-1.5649">
        <ele>56</ele>
        <time>2021-07-19T17:37:57.000Z</time>
      </trkpt>
      <trkpt lat="47.19955" lon="-1.5647">
        <ele>56</ele>
        <time>2021-07-19T17:37:59.000Z</time>
      </trkpt>
      <trkpt lat="47.19958" lon="-1.5645">
        <ele>56</ele>
        <time>2021-07-19T17:38:01.000Z</time>
      </trkpt>
      <trkpt lat="47.19962" lon="-1.56433">
        <ele>56</ele>
        <time>2021-07-19T17:38:03.000Z</time>
      </trkpt>
      <trkpt lat="47.19967" lon="-1.56414">
        <ele>56</ele>
        <time>2021-07-19T17:38:05.000Z</time>
      </trkpt>
      <trkpt lat="47.1997" lon="-1.56394">
        <ele>56</ele>
        <time>2021-07-19T17:38:07.000Z</time>
      </trkpt>
      <trkpt lat="47.19971" lon="-1.56374">
        <ele>56</ele>
        <time>2021-07-19T17:38:09.000Z</time>
      </trkpt>
      <trkpt lat="47.19972" lon="-1.56355">
        <ele>56</ele>
        <time>2021-07-19T17:38:11.000Z</time>
      </trkpt>
      <trkpt lat="47.19973" lon="-1.56335">
        <ele>56</ele>
        <time>2021-07-19T17:38:13.000Z</time>
      </trkpt>
      <trkpt lat="47.19975" lon="-1.56316">
        <ele>56</ele>
        <time>2021-07-19T17:38:15.000Z</time>
      </trkpt>
      <trkpt lat="47.19976" lon="-1.56297">
        <ele>57</ele>
        <time>2021-07-19T17:38:17.000Z</time>
      </trkpt>
      <trkpt lat="47.19977" lon="-1.56278">
        <ele>56</ele>
        <time>2021-07-19T17:38:19.000Z</time>
      </trkpt>
      <trkpt lat="47.19977" lon="-1.56259">
        <ele>56</ele>
        <time>2021-07-19T17:38:21.000Z</time>
      </trkpt>
      <trkpt lat="47.19977" lon="-1.56239">
        <ele>56</ele>
        <time>2021-07-19T17:38:23.000Z</time>
      </trkpt>
      <trkpt lat="47.19977" lon="-1.56221">
        <ele>56</ele>
        <time>2021-07-19T17:38:25.000Z</time>
      </trkpt>
      <trkpt lat="47.19977" lon="-1.56202">
        <ele>55</ele>
        <time>2021-07-19T17:38:27.000Z</time>
      </trkpt>
      <trkpt lat="47.19977" lon="-1.56184">
        <ele>56</ele>
        <time>2021-07-19T17:38:29.000Z</time>
      </trkpt>
      <trkpt lat="47.19974" lon="-1.56169">
        <ele>55</ele>
        <time>2021-07-19T17:38:31.000Z</time>
      </trkpt>
      <trkpt lat="47.19964" lon="-1.56164">
        <ele>56</ele>
        <time>2021-07-19T17:38:33.000Z</time>
      </trkpt>
      <trkpt lat="47.19952" lon="-1.56168">
        <ele>57</ele>
        <time>2021-07-19T17:38:35.000Z</time>
      </trkpt>
      <trkpt lat="47.19939" lon="-1.56172">
        <ele>58</ele>
        <time>2021-07-19T17:38:37.000Z</time>
      </trkpt>
      <trkpt lat="47.19927" lon="-1.56174">
        <ele>59</ele>
        <time>2021-07-19T17:38:39.000Z</time>
      </trkpt>
      <trkpt lat="47.19915" lon="-1.56176">
        <ele>60</ele>
        <time>2021-07-19T17:38:41.000Z</time>
      </trkpt>
      <trkpt lat="47.19902" lon="-1.56178">
        <ele>61</ele>
        <time>2021-07-19T17:38:43.000Z</time>
      </trkpt>
      <trkpt lat="47.19888" lon="-1.5618">
        <ele>62</ele>
        <time>2021-07-19T17:38:45.000Z</time>
      </trkpt>
      <trkpt lat="47.19876" lon="-1.56183">
        <ele>62</ele>
        <time>2021-07-19T17:38:47.000Z</time>
      </trkpt>
      <trkpt lat="47.19863" lon="-1.56185">
        <ele>63</ele>
        <time>2021-07-19T17:38:49.000Z</time>
      </trkpt>
      <trkpt lat="47.19851" lon="-1.56187">
        <ele>63</ele>
        <time>2021-07-19T17:38:51.000Z</time>
      </trkpt>
      <trkpt lat="47.19838" lon="-1.5619">
        <ele>63</ele>
        <time>2021-07-19T17:38:53.000Z</time>
      </trkpt>
      <trkpt lat="47.19826" lon="-1.56192">
        <ele>63</ele>
        <time>2021-07-19T17:38:55.000Z</time>
      </trkpt>
      <trkpt lat="47.19814" lon="-1.56195">
        <ele>64</ele>
        <time>2021-07-19T17:38:57.000Z</time>
      </trkpt>
      <trkpt lat="47.19801" lon="-1.56196">
        <ele>63</ele>
        <time>2021-07-19T17:38:59.000Z</time>
      </trkpt>
      <trkpt lat="47.19789" lon="-1.56198">
        <ele>63</ele>
        <time>2021-07-19T17:39:01.000Z</time>
      </trkpt>
      <trkpt lat="47.19776" lon="-1.562">
        <ele>63</ele>
        <time>2021-07-19T17:39:03.000Z</time>
      </trkpt>
      <trkpt lat="47.19762" lon="-1.56203">
        <ele>63</ele>
        <time>2021-07-19T17:39:05.000Z</time>
      </trkpt>
      <trkpt lat="47.19748" lon="-1.56206">
        <ele>62</ele>
        <time>2021-07-19T17:39:07.000Z</time>
      </trkpt>
      <trkpt lat="47.19734" lon="-1.56209">
        <ele>62</ele>
        <time>2021-07-19T17:39:09.000Z</time>
      </trkpt>
      <trkpt lat="47.19718" lon="-1.56212">
        <ele>61</ele>
        <time>2021-07-19T17:39:11.000Z</time>
      </trkpt>
      <trkpt lat="47.197" lon="-1.56215">
        <ele>60</ele>
        <time>2021-07-19T17:39:13.000Z</time>
      </trkpt>
      <trkpt lat="47.19682" lon="-1.56218">
        <ele>59</ele>
        <time>2021-07-19T17:39:15.000Z</time>
      </trkpt>
      <trkpt lat="47.19664" lon="-1.56223">
        <ele>59</ele>
        <time>2021-07-19T17:39:17.000Z</time>
      </trkpt>
      <trkpt lat="47.19655" lon="-1.56226">
        <ele>58</ele>
        <time>2021-07-19T17:39:18.000Z</time>
      </trkpt>
      <trkpt lat="47.19646" lon="-1.5623">
        <ele>58</ele>
        <time>2021-07-19T17:39:19.000Z</time>
      </trkpt>
      <trkpt lat="47.19638" lon="-1.56238">
        <ele>58</ele>
        <time>2021-07-19T17:39:20.000Z</time>
      </trkpt>
      <trkpt lat="47.19635" lon="-1.5625">
        <ele>58</ele>
        <time>2021-07-19T17:39:21.000Z</time>
      </trkpt>
      <trkpt lat="47.19634" lon="-1.56264">
        <ele>58</ele>
        <time>2021-07-19T17:39:22.000Z</time>
      </trkpt>
      <trkpt lat="47.19634" lon="-1.56277">
        <ele>58</ele>
        <time>2021-07-19T17:39:23.000Z</time>
      </trkpt>
      <trkpt lat="47.19633" lon="-1.56301">
        <ele>58</ele>
        <time>2021-07-19T17:39:25.000Z</time>
      </trkpt>
      <trkpt lat="47.19633" lon="-1.56325">
        <ele>58</ele>
        <time>2021-07-19T17:39:27.000Z</time>
      </trkpt>
      <trkpt lat="47.19632" lon="-1.56349">
        <ele>58</ele>
        <time>2021-07-19T17:39:29.000Z</time>
      </trkpt>
      <trkpt lat="47.19632" lon="-1.56372">
        <ele>58</ele>
        <time>2021-07-19T17:39:31.000Z</time>
      </trkpt>
      <trkpt lat="47.19632" lon="-1.56395">
        <ele>57</ele>
        <time>2021-07-19T17:39:33.000Z</time>
      </trkpt>
      <trkpt lat="47.19633" lon="-1.56418">
        <ele>57</ele>
        <time>2021-07-19T17:39:35.000Z</time>
      </trkpt>
      <trkpt lat="47.19634" lon="-1.56441">
        <ele>57</ele>
        <time>2021-07-19T17:39:37.000Z</time>
      </trkpt>
      <trkpt lat="47.19634" lon="-1.56464">
        <ele>57</ele>
        <time>2021-07-19T17:39:39.000Z</time>
      </trkpt>
      <trkpt lat="47.19635" lon="-1.56487">
        <ele>57</ele>
        <time>2021-07-19T17:39:41.000Z</time>
      </trkpt>
      <trkpt lat="47.19635" lon="-1.5651">
        <ele>57</ele>
        <time>2021-07-19T17:39:43.000Z</time>
      </trkpt>
      <trkpt lat="47.19634" lon="-1.56534">
        <ele>57</ele>
        <time>2021-07-19T17:39:45.000Z</time>
      </trkpt>
      <trkpt lat="47.19635" lon="-1.56556">
        <ele>58</ele>
        <time>2021-07-19T17:39:47.000Z</time>
      </trkpt>
      <trkpt lat="47.19634" lon="-1.5658">
        <ele>59</ele>
        <time>2021-07-19T17:39:49.000Z</time>
      </trkpt>
      <trkpt lat="47.19634" lon="-1.56604">
        <ele>60</ele>
        <time>2021-07-19T17:39:51.000Z</time>
      </trkpt>
      <trkpt lat="47.19634" lon="-1.56628">
        <ele>61</ele>
        <time>2021-07-19T17:39:53.000Z</time>
      </trkpt>
      <trkpt lat="47.19633" lon="-1.56652">
        <ele>62</ele>
        <time>2021-07-19T17:39:55.000Z</time>
      </trkpt>
      <trkpt lat="47.19631" lon="-1.56675">
        <ele>62</ele>
        <time>2021-07-19T17:39:57.000Z</time>
      </trkpt>
      <trkpt lat="47.19629" lon="-1.56697">
        <ele>61</ele>
        <time>2021-07-19T17:39:59.000Z</time>
      </trkpt>
      <trkpt lat="47.19627" lon="-1.5672">
        <ele>60</ele>
        <time>2021-07-19T17:40:01.000Z</time>
      </trkpt>
      <trkpt lat="47.19625" lon="-1.56742">
        <ele>60</ele>
        <time>2021-07-19T17:40:03.000Z</time>
      </trkpt>
      <trkpt lat="47.19623" lon="-1.56764">
        <ele>59</ele>
        <time>2021-07-19T17:40:05.000Z</time>
      </trkpt>
      <trkpt lat="47.19621" lon="-1.56787">
        <ele>58</ele>
        <time>2021-07-19T17:40:07.000Z</time>
      </trkpt>
      <trkpt lat="47.19619" lon="-1.56809">
        <ele>58</ele>
        <time>2021-07-19T17:40:09.000Z</time>
      </trkpt>
      <trkpt lat="47.19619" lon="-1.56833">
        <ele>58</ele>
        <time>2021-07-19T17:40:11.000Z</time>
      </trkpt>
      <trkpt lat="47.19619" lon="-1.56856">
        <ele>59</ele>
        <time>2021-07-19T17:40:13.000Z</time>
      </trkpt>
      <trkpt lat="47.19617" lon="-1.56879">
        <ele>60</ele>
        <time>2021-07-19T17:40:15.000Z</time>
      </trkpt>
      <trkpt lat="47.19615" lon="-1.56901">
        <ele>60</ele>
        <time>2021-07-19T17:40:17.000Z</time>
      </trkpt>
      <trkpt lat="47.19614" lon="-1.56924">
        <ele>60</ele>
        <time>2021-07-19T17:40:19.000Z</time>
      </trkpt>
      <trkpt lat="47.19613" lon="-1.56946">
        <ele>60</ele>
        <time>2021-07-19T17:40:21.000Z</time>
      </trkpt>
      <trkpt lat="47.19611" lon="-1.56967">
        <ele>60</ele>
        <time>2021-07-19T17:40:23.000Z</time>
      </trkpt>
      <trkpt lat="47.1961" lon="-1.5699">
        <ele>59</ele>
        <time>2021-07-19T17:40:25.000Z</time>
      </trkpt>
      <trkpt lat="47.19608" lon="-1.57011">
        <ele>60</ele>
        <time>2021-07-19T17:40:27.000Z</time>
      </trkpt>
      <trkpt lat="47.19607" lon="-1.57032">
        <ele>59</ele>
        <time>2021-07-19T17:40:29.000Z</time>
      </trkpt>
      <trkpt lat="47.19607" lon="-1.57053">
        <ele>59</ele>
        <time>2021-07-19T17:40:31.000Z</time>
      </trkpt>
      <trkpt lat="47.19605" lon="-1.57076">
        <ele>59</ele>
        <time>2021-07-19T17:40:33.000Z</time>
      </trkpt>
      <trkpt lat="47.19604" lon="-1.57098">
        <ele>59</ele>
        <time>2021-07-19T17:40:35.000Z</time>
      </trkpt>
      <trkpt lat="47.19603" lon="-1.57119">
        <ele>59</ele>
        <time>2021-07-19T17:40:37.000Z</time>
      </trkpt>
      <trkpt lat="47.19601" lon="-1.57141">
        <ele>59</ele>
        <time>2021-07-19T17:40:39.000Z</time>
      </trkpt>
      <trkpt lat="47.19599" lon="-1.57161">
        <ele>58</ele>
        <time>2021-07-19T17:40:41.000Z</time>
      </trkpt>
      <trkpt lat="47.19599" lon="-1.5718">
        <ele>57</ele>
        <time>2021-07-19T17:40:43.000Z</time>
      </trkpt>
      <trkpt lat="47.19597" lon="-1.57202">
        <ele>57</ele>
        <time>2021-07-19T17:40:45.000Z</time>
      </trkpt>
      <trkpt lat="47.19595" lon="-1.57224">
        <ele>57</ele>
        <time>2021-07-19T17:40:47.000Z</time>
      </trkpt>
      <trkpt lat="47.19593" lon="-1.57246">
        <ele>57</ele>
        <time>2021-07-19T17:40:49.000Z</time>
      </trkpt>
      <trkpt lat="47.19591" lon="-1.57268">
        <ele>57</ele>
        <time>2021-07-19T17:40:51.000Z</time>
      </trkpt>
      <trkpt lat="47.1959" lon="-1.57289">
        <ele>57</ele>
        <time>2021-07-19T17:40:53.000Z</time>
      </trkpt>
      <trkpt lat="47.19589" lon="-1.5731">
        <ele>57</ele>
        <time>2021-07-19T17:40:55.000Z</time>
      </trkpt>
      <trkpt lat="47.19586" lon="-1.5733">
        <ele>57</ele>
        <time>2021-07-19T17:40:57.000Z</time>
      </trkpt>
      <trkpt lat="47.19582" lon="-1.5735">
        <ele>57</ele>
        <time>2021-07-19T17:40:59.000Z</time>
      </trkpt>
      <trkpt lat="47.19577" lon="-1.57369">
        <ele>56</ele>
        <time>2021-07-19T17:41:01.000Z</time>
      </trkpt>
      <trkpt lat="47.19575" lon="-1.57388">
        <ele>56</ele>
        <time>2021-07-19T17:41:03.000Z</time>
      </trkpt>
      <trkpt lat="47.19571" lon="-1.57407">
        <ele>56</ele>
        <time>2021-07-19T17:41:05.000Z</time>
      </trkpt>
      <trkpt lat="47.19567" lon="-1.57429">
        <ele>56</ele>
        <time>2021-07-19T17:41:07.000Z</time>
      </trkpt>
      <trkpt lat="47.19563" lon="-1.57449">
        <ele>56</ele>
        <time>2021-07-19T17:41:09.000Z</time>
      </trkpt>
      <trkpt lat="47.19559" lon="-1.57469">
        <ele>57</ele>
        <time>2021-07-19T17:41:11.000Z</time>
      </trkpt>
      <trkpt lat="47.19556" lon="-1.5749">
        <ele>57</ele>
        <time>2021-07-19T17:41:13.000Z</time>
      </trkpt>
      <trkpt lat="47.19551" lon="-1.57511">
        <ele>57</ele>
        <time>2021-07-19T17:41:15.000Z</time>
      </trkpt>
      <trkpt lat="47.19547" lon="-1.57533">
        <ele>57</ele>
        <time>2021-07-19T17:41:17.000Z</time>
      </trkpt>
      <trkpt lat="47.19543" lon="-1.57554">
        <ele>57</ele>
        <time>2021-07-19T17:41:19.000Z</time>
      </trkpt>
      <trkpt lat="47.19538" lon="-1.57574">
        <ele>57</ele>
        <time>2021-07-19T17:41:21.000Z</time>
      </trkpt>
      <trkpt lat="47.19534" lon="-1.57594">
        <ele>57</ele>
        <time>2021-07-19T17:41:23.000Z</time>
      </trkpt>
      <trkpt lat="47.1953" lon="-1.57616">
        <ele>57</ele>
        <time>2021-07-19T17:41:25.000Z</time>
      </trkpt>
      <trkpt lat="47.19525" lon="-1.57635">
        <ele>57</ele>
        <time>2021-07-19T17:41:27.000Z</time>
      </trkpt>
      <trkpt lat="47.1952" lon="-1.57655">
        <ele>56</ele>
        <time>2021-07-19T17:41:29.000Z</time>
      </trkpt>
      <trkpt lat="47.19516" lon="-1.57675">
        <ele>56</ele>
        <time>2021-07-19T17:41:31.000Z</time>
      </trkpt>
      <trkpt lat="47.19512" lon="-1.57696">
        <ele>56</ele>
        <time>2021-07-19T17:41:33.000Z</time>
      </trkpt>
      <trkpt lat="47.19508" lon="-1.57716">
        <ele>56</ele>
        <time>2021-07-19T17:41:35.000Z</time>
      </trkpt>
      <trkpt lat="47.19504" lon="-1.57736">
        <ele>56</ele>
        <time>2021-07-19T17:41:37.000Z</time>
      </trkpt>
      <trkpt lat="47.195" lon="-1.57756">
        <ele>56</ele>
        <time>2021-07-19T17:41:39.000Z</time>
      </trkpt>
      <trkpt lat="47.19497" lon="-1.57777">
        <ele>56</ele>
        <time>2021-07-19T17:41:41.000Z</time>
      </trkpt>
      <trkpt lat="47.19491" lon="-1.57797">
        <ele>56</ele>
        <time>2021-07-19T17:41:43.000Z</time>
      </trkpt>
      <trkpt lat="47.19487" lon="-1.57817">
        <ele>56</ele>
        <time>2021-07-19T17:41:45.000Z</time>
      </trkpt>
      <trkpt lat="47.19484" lon="-1.57838">
        <ele>56</ele>
        <time>2021-07-19T17:41:47.000Z</time>
      </trkpt>
      <trkpt lat="47.19482" lon="-1.5786">
        <ele>56</ele>
        <time>2021-07-19T17:41:49.000Z</time>
      </trkpt>
      <trkpt lat="47.19479" lon="-1.57881">
        <ele>56</ele>
        <time>2021-07-19T17:41:51.000Z</time>
      </trkpt>
      <trkpt lat="47.19474" lon="-1.57902">
        <ele>56</ele>
        <time>2021-07-19T17:41:53.000Z</time>
      </trkpt>
      <trkpt lat="47.19472" lon="-1.57923">
        <ele>56</ele>
        <time>2021-07-19T17:41:55.000Z</time>
      </trkpt>
      <trkpt lat="47.19471" lon="-1.57945">
        <ele>56</ele>
        <time>2021-07-19T17:41:57.000Z</time>
      </trkpt>
      <trkpt lat="47.19469" lon="-1.57967">
        <ele>56</ele>
        <time>2021-07-19T17:41:59.000Z</time>
      </trkpt>
      <trkpt lat="47.19467" lon="-1.57986">
        <ele>56</ele>
        <time>2021-07-19T17:42:01.000Z</time>
      </trkpt>
      <trkpt lat="47.19465" lon="-1.58007">
        <ele>56</ele>
        <time>2021-07-19T17:42:03.000Z</time>
      </trkpt>
      <trkpt lat="47.19463" lon="-1.58027">
        <ele>56</ele>
        <time>2021-07-19T17:42:05.000Z</time>
      </trkpt>
      <trkpt lat="47.19461" lon="-1.58047">
        <ele>56</ele>
        <time>2021-07-19T17:42:07.000Z</time>
      </trkpt>
      <trkpt lat="47.19459" lon="-1.58065">
        <ele>56</ele>
        <time>2021-07-19T17:42:09.000Z</time>
      </trkpt>
      <trkpt lat="47.19456" lon="-1.58082">
        <ele>56</ele>
        <time>2021-07-19T17:42:11.000Z</time>
      </trkpt>
      <trkpt lat="47.1945" lon="-1.58098">
        <ele>55</ele>
        <time>2021-07-19T17:42:13.000Z</time>
      </trkpt>
      <trkpt lat="47.1944" lon="-1.5811">
        <ele>56</ele>
        <time>2021-07-19T17:42:15.000Z</time>
      </trkpt>
      <trkpt lat="47.19429" lon="-1.58122">
        <ele>56</ele>
        <time>2021-07-19T17:42:17.000Z</time>
      </trkpt>
      <trkpt lat="47.19419" lon="-1.58135">
        <ele>56</ele>
        <time>2021-07-19T17:42:19.000Z</time>
      </trkpt>
      <trkpt lat="47.1941" lon="-1.58149">
        <ele>57</ele>
        <time>2021-07-19T17:42:21.000Z</time>
      </trkpt>
      <trkpt lat="47.19402" lon="-1.58164">
        <ele>57</ele>
        <time>2021-07-19T17:42:23.000Z</time>
      </trkpt>
      <trkpt lat="47.19394" lon="-1.58181">
        <ele>57</ele>
        <time>2021-07-19T17:42:25.000Z</time>
      </trkpt>
      <trkpt lat="47.19387" lon="-1.58199">
        <ele>56</ele>
        <time>2021-07-19T17:42:27.000Z</time>
      </trkpt>
      <trkpt lat="47.1938" lon="-1.58215">
        <ele>57</ele>
        <time>2021-07-19T17:42:29.000Z</time>
      </trkpt>
      <trkpt lat="47.19373" lon="-1.58233">
        <ele>56</ele>
        <time>2021-07-19T17:42:31.000Z</time>
      </trkpt>
      <trkpt lat="47.19367" lon="-1.5825">
        <ele>56</ele>
        <time>2021-07-19T17:42:33.000Z</time>
      </trkpt>
      <trkpt lat="47.1936" lon="-1.58268">
        <ele>56</ele>
        <time>2021-07-19T17:42:35.000Z</time>
      </trkpt>
      <trkpt lat="47.19351" lon="-1.58282">
        <ele>57</ele>
        <time>2021-07-19T17:42:37.000Z</time>
      </trkpt>
      <trkpt lat="47.19339" lon="-1.58293">
        <ele>57</ele>
        <time>2021-07-19T17:42:39.000Z</time>
      </trkpt>
      <trkpt lat="47.19327" lon="-1.58303">
        <ele>57</ele>
        <time>2021-07-19T17:42:41.000Z</time>
      </trkpt>
      <trkpt lat="47.19316" lon="-1.58314">
        <ele>58</ele>
        <time>2021-07-19T17:42:43.000Z</time>
      </trkpt>
      <trkpt lat="47.19304" lon="-1.58325">
        <ele>58</ele>
        <time>2021-07-19T17:42:45.000Z</time>
      </trkpt>
      <trkpt lat="47.19292" lon="-1.58336">
        <ele>58</ele>
        <time>2021-07-19T17:42:47.000Z</time>
      </trkpt>
      <trkpt lat="47.19281" lon="-1.58346">
        <ele>58</ele>
        <time>2021-07-19T17:42:49.000Z</time>
      </trkpt>
      <trkpt lat="47.19269" lon="-1.58356">
        <ele>58</ele>
        <time>2021-07-19T17:42:51.000Z</time>
      </trkpt>
      <trkpt lat="47.19258" lon="-1.58368">
        <ele>57</ele>
        <time>2021-07-19T17:42:53.000Z</time>
      </trkpt>
      <trkpt lat="47.19247" lon="-1.58379">
        <ele>57</ele>
        <time>2021-07-19T17:42:55.000Z</time>
      </trkpt>
      <trkpt lat="47.19235" lon="-1.58389">
        <ele>57</ele>
        <time>2021-07-19T17:42:57.000Z</time>
      </trkpt>
      <trkpt lat="47.19223" lon="-1.58398">
        <ele>57</ele>
        <time>2021-07-19T17:42:59.000Z</time>
      </trkpt>
      <trkpt lat="47.19212" lon="-1.5841">
        <ele>58</ele>
        <time>2021-07-19T17:43:01.000Z</time>
      </trkpt>
      <trkpt lat="47.19201" lon="-1.58421">
        <ele>58</ele>
        <time>2021-07-19T17:43:03.000Z</time>
      </trkpt>
      <trkpt lat="47.1919" lon="-1.58431">
        <ele>58</ele>
        <time>2021-07-19T17:43:05.000Z</time>
      </trkpt>
      <trkpt lat="47.19179" lon="-1.58442">
        <ele>59</ele>
        <time>2021-07-19T17:43:07.000Z</time>
      </trkpt>
      <trkpt lat="47.19168" lon="-1.58453">
        <ele>59</ele>
        <time>2021-07-19T17:43:09.000Z</time>
      </trkpt>
      <trkpt lat="47.19159" lon="-1.58464">
        <ele>59</ele>
        <time>2021-07-19T17:43:11.000Z</time>
      </trkpt>
      <trkpt lat="47.19149" lon="-1.58474">
        <ele>58</ele>
        <time>2021-07-19T17:43:13.000Z</time>
      </trkpt>
      <trkpt lat="47.19139" lon="-1.58483">
        <ele>59</ele>
        <time>2021-07-19T17:43:15.000Z</time>
      </trkpt>
      <trkpt lat="47.19127" lon="-1.58494">
        <ele>59</ele>
        <time>2021-07-19T17:43:17.000Z</time>
      </trkpt>
      <trkpt lat="47.19115" lon="-1.58505">
        <ele>58</ele>
        <time>2021-07-19T17:43:19.000Z</time>
      </trkpt>
      <trkpt lat="47.19103" lon="-1.58516">
        <ele>57</ele>
        <time>2021-07-19T17:43:21.000Z</time>
      </trkpt>
      <trkpt lat="47.19091" lon="-1.58527">
        <ele>57</ele>
        <time>2021-07-19T17:43:23.000Z</time>
      </trkpt>
      <trkpt lat="47.19079" lon="-1.58539">
        <ele>58</ele>
        <time>2021-07-19T17:43:25.000Z</time>
      </trkpt>
      <trkpt lat="47.19068" lon="-1.5855">
        <ele>58</ele>
        <time>2021-07-19T17:43:27.000Z</time>
      </trkpt>
      <trkpt lat="47.19057" lon="-1.58561">
        <ele>57</ele>
        <time>2021-07-19T17:43:29.000Z</time>
      </trkpt>
      <trkpt lat="47.19047" lon="-1.58573">
        <ele>57</ele>
        <time>2021-07-19T17:43:31.000Z</time>
      </trkpt>
      <trkpt lat="47.19036" lon="-1.58584">
        <ele>58</ele>
        <time>2021-07-19T17:43:33.000Z</time>
      </trkpt>
      <trkpt lat="47.19026" lon="-1.58597">
        <ele>57</ele>
        <time>2021-07-19T17:43:35.000Z</time>
      </trkpt>
      <trkpt lat="47.19014" lon="-1.58608">
        <ele>58</ele>
        <time>2021-07-19T17:43:37.000Z</time>
      </trkpt>
      <trkpt lat="47.19003" lon="-1.58618">
        <ele>58</ele>
        <time>2021-07-19T17:43:39.000Z</time>
      </trkpt>
      <trkpt lat="47.18992" lon="-1.58629">
        <ele>58</ele>
        <time>2021-07-19T17:43:41.000Z</time>
      </trkpt>
      <trkpt lat="47.18981" lon="-1.5864">
        <ele>58</ele>
        <time>2021-07-19T17:43:43.000Z</time>
      </trkpt>
      <trkpt lat="47.18969" lon="-1.58652">
        <ele>58</ele>
        <time>2021-07-19T17:43:45.000Z</time>
      </trkpt>
      <trkpt lat="47.18958" lon="-1.58663">
        <ele>58</ele>
        <time>2021-07-19T17:43:47.000Z</time>
      </trkpt>
      <trkpt lat="47.18946" lon="-1.58673">
        <ele>58</ele>
        <time>2021-07-19T17:43:49.000Z</time>
      </trkpt>
      <trkpt lat="47.18935" lon="-1.58685">
        <ele>58</ele>
        <time>2021-07-19T17:43:51.000Z</time>
      </trkpt>
      <trkpt lat="47.18924" lon="-1.58695">
        <ele>57</ele>
        <time>2021-07-19T17:43:53.000Z</time>
      </trkpt>
      <trkpt lat="47.18913" lon="-1.58704">
        <ele>58</ele>
        <time>2021-07-19T17:43:55.000Z</time>
      </trkpt>
      <trkpt lat="47.18901" lon="-1.58713">
        <ele>58</ele>
        <time>2021-07-19T17:43:57.000Z</time>
      </trkpt>
      <trkpt lat="47.18889" lon="-1.5872">
        <ele>58</ele>
        <time>2021-07-19T17:43:59.000Z</time>
      </trkpt>
      <trkpt lat="47.18876" lon="-1.58727">
        <ele>57</ele>
        <time>2021-07-19T17:44:01.000Z</time>
      </trkpt>
      <trkpt lat="47.18864" lon="-1.58734">
        <ele>57</ele>
        <time>2021-07-19T17:44:03.000Z</time>
      </trkpt>
      <trkpt lat="47.18852" lon="-1.58739">
        <ele>58</ele>
        <time>2021-07-19T17:44:05.000Z</time>
      </trkpt>
      <trkpt lat="47.18841" lon="-1.58746">
        <ele>58</ele>
        <time>2021-07-19T17:44:07.000Z</time>
      </trkpt>
      <trkpt lat="47.18834" lon="-1.5876">
        <ele>58</ele>
        <time>2021-07-19T17:44:09.000Z</time>
      </trkpt>
      <trkpt lat="47.18832" lon="-1.58777">
        <ele>58</ele>
        <time>2021-07-19T17:44:11.000Z</time>
      </trkpt>
      <trkpt lat="47.18824" lon="-1.58791">
        <ele>59</ele>
        <time>2021-07-19T17:44:13.000Z</time>
      </trkpt>
      <trkpt lat="47.18814" lon="-1.58803">
        <ele>59</ele>
        <time>2021-07-19T17:44:15.000Z</time>
      </trkpt>
      <trkpt lat="47.18802" lon="-1.58811">
        <ele>59</ele>
        <time>2021-07-19T17:44:17.000Z</time>
      </trkpt>
      <trkpt lat="47.18792" lon="-1.58822">
        <ele>59</ele>
        <time>2021-07-19T17:44:19.000Z</time>
      </trkpt>
      <trkpt lat="47.18788" lon="-1.5884">
        <ele>59</ele>
        <time>2021-07-19T17:44:21.000Z</time>
      </trkpt>
      <trkpt lat="47.18783" lon="-1.58859">
        <ele>58</ele>
        <time>2021-07-19T17:44:23.000Z</time>
      </trkpt>
      <trkpt lat="47.1878" lon="-1.58879">
        <ele>58</ele>
        <time>2021-07-19T17:44:25.000Z</time>
      </trkpt>
      <trkpt lat="47.18776" lon="-1.58898">
        <ele>58</ele>
        <time>2021-07-19T17:44:27.000Z</time>
      </trkpt>
      <trkpt lat="47.18774" lon="-1.58919">
        <ele>58</ele>
        <time>2021-07-19T17:44:29.000Z</time>
      </trkpt>
      <trkpt lat="47.18772" lon="-1.58939">
        <ele>58</ele>
        <time>2021-07-19T17:44:31.000Z</time>
      </trkpt>
      <trkpt lat="47.1877" lon="-1.58959">
        <ele>58</ele>
        <time>2021-07-19T17:44:33.000Z</time>
      </trkpt>
      <trkpt lat="47.18767" lon="-1.58979">
        <ele>58</ele>
        <time>2021-07-19T17:44:35.000Z</time>
      </trkpt>
      <trkpt lat="47.18765" lon="-1.59">
        <ele>58</ele>
        <time>2021-07-19T17:44:37.000Z</time>
      </trkpt>
      <trkpt lat="47.18762" lon="-1.59021">
        <ele>57</ele>
        <time>2021-07-19T17:44:39.000Z</time>
      </trkpt>
      <trkpt lat="47.1876" lon="-1.59042">
        <ele>57</ele>
        <time>2021-07-19T17:44:41.000Z</time>
      </trkpt>
      <trkpt lat="47.18757" lon="-1.59063">
        <ele>57</ele>
        <time>2021-07-19T17:44:43.000Z</time>
      </trkpt>
      <trkpt lat="47.18755" lon="-1.59084">
        <ele>57</ele>
        <time>2021-07-19T17:44:45.000Z</time>
      </trkpt>
      <trkpt lat="47.18753" lon="-1.59105">
        <ele>57</ele>
        <time>2021-07-19T17:44:47.000Z</time>
      </trkpt>
      <trkpt lat="47.18751" lon="-1.59125">
        <ele>57</ele>
        <time>2021-07-19T17:44:49.000Z</time>
      </trkpt>
      <trkpt lat="47.18749" lon="-1.59145">
        <ele>57</ele>
        <time>2021-07-19T17:44:51.000Z</time>
      </trkpt>
      <trkpt lat="47.18746" lon="-1.59166">
        <ele>57</ele>
        <time>2021-07-19T17:44:53.000Z</time>
      </trkpt>
      <trkpt lat="47.18744" lon="-1.59186">
        <ele>57</ele>
        <time>2021-07-19T17:44:55.000Z</time>
      </trkpt>
      <trkpt lat="47.18742" lon="-1.59206">
        <ele>57</ele>
        <time>2021-07-19T17:44:57.000Z</time>
      </trkpt>
      <trkpt lat="47.1874" lon="-1.59228">
        <ele>57</ele>
        <time>2021-07-19T17:44:59.000Z</time>
      </trkpt>
      <trkpt lat="47.18738" lon="-1.59249">
        <ele>57</ele>
        <time>2021-07-19T17:45:01.000Z</time>
      </trkpt>
      <trkpt lat="47.18735" lon="-1.59271">
        <ele>57</ele>
        <time>2021-07-19T17:45:03.000Z</time>
      </trkpt>
      <trkpt lat="47.18733" lon="-1.59292">
        <ele>57</ele>
        <time>2021-07-19T17:45:05.000Z</time>
      </trkpt>
      <trkpt lat="47.1873" lon="-1.59313">
        <ele>57</ele>
        <time>2021-07-19T17:45:07.000Z</time>
      </trkpt>
      <trkpt lat="47.18728" lon="-1.59334">
        <ele>57</ele>
        <time>2021-07-19T17:45:09.000Z</time>
      </trkpt>
      <trkpt lat="47.18726" lon="-1.59356">
        <ele>57</ele>
        <time>2021-07-19T17:45:11.000Z</time>
      </trkpt>
      <trkpt lat="47.18723" lon="-1.59378">
        <ele>57</ele>
        <time>2021-07-19T17:45:13.000Z</time>
      </trkpt>
      <trkpt lat="47.18721" lon="-1.594">
        <ele>57</ele>
        <time>2021-07-19T17:45:15.000Z</time>
      </trkpt>
      <trkpt lat="47.18719" lon="-1.59421">
        <ele>58</ele>
        <time>2021-07-19T17:45:17.000Z</time>
      </trkpt>
      <trkpt lat="47.18716" lon="-1.59442">
        <ele>57</ele>
        <time>2021-07-19T17:45:19.000Z</time>
      </trkpt>
      <trkpt lat="47.18714" lon="-1.59463">
        <ele>57</ele>
        <time>2021-07-19T17:45:21.000Z</time>
      </trkpt>
      <trkpt lat="47.18712" lon="-1.59485">
        <ele>57</ele>
        <time>2021-07-19T17:45:23.000Z</time>
      </trkpt>
      <trkpt lat="47.1871" lon="-1.59505">
        <ele>57</ele>
        <time>2021-07-19T17:45:25.000Z</time>
      </trkpt>
      <trkpt lat="47.18707" lon="-1.59526">
        <ele>58</ele>
        <time>2021-07-19T17:45:27.000Z</time>
      </trkpt>
      <trkpt lat="47.18705" lon="-1.59546">
        <ele>58</ele>
        <time>2021-07-19T17:45:29.000Z</time>
      </trkpt>
      <trkpt lat="47.18703" lon="-1.59567">
        <ele>58</ele>
        <time>2021-07-19T17:45:31.000Z</time>
      </trkpt>
      <trkpt lat="47.187" lon="-1.59588">
        <ele>58</ele>
        <time>2021-07-19T17:45:33.000Z</time>
      </trkpt>
      <trkpt lat="47.18698" lon="-1.59609">
        <ele>58</ele>
        <time>2021-07-19T17:45:35.000Z</time>
      </trkpt>
      <trkpt lat="47.18695" lon="-1.5963">
        <ele>58</ele>
        <time>2021-07-19T17:45:37.000Z</time>
      </trkpt>
      <trkpt lat="47.18692" lon="-1.59651">
        <ele>58</ele>
        <time>2021-07-19T17:45:39.000Z</time>
      </trkpt>
      <trkpt lat="47.1869" lon="-1.59672">
        <ele>57</ele>
        <time>2021-07-19T17:45:41.000Z</time>
      </trkpt>
      <trkpt lat="47.18687" lon="-1.59693">
        <ele>58</ele>
        <time>2021-07-19T17:45:43.000Z</time>
      </trkpt>
      <trkpt lat="47.18685" lon="-1.59715">
        <ele>58</ele>
        <time>2021-07-19T17:45:45.000Z</time>
      </trkpt>
      <trkpt lat="47.18684" lon="-1.59737">
        <ele>57</ele>
        <time>2021-07-19T17:45:47.000Z</time>
      </trkpt>
      <trkpt lat="47.18684" lon="-1.59763">
        <ele>57</ele>
        <time>2021-07-19T17:45:49.000Z</time>
      </trkpt>
      <trkpt lat="47.18685" lon="-1.59778">
        <ele>57</ele>
        <time>2021-07-19T17:45:50.000Z</time>
      </trkpt>
      <trkpt lat="47.18686" lon="-1.59792">
        <ele>57</ele>
        <time>2021-07-19T17:45:51.000Z</time>
      </trkpt>
      <trkpt lat="47.18686" lon="-1.59807">
        <ele>57</ele>
        <time>2021-07-19T17:45:52.000Z</time>
      </trkpt>
      <trkpt lat="47.18683" lon="-1.59821">
        <ele>57</ele>
        <time>2021-07-19T17:45:53.000Z</time>
      </trkpt>
      <trkpt lat="47.18677" lon="-1.59832">
        <ele>58</ele>
        <time>2021-07-19T17:45:54.000Z</time>
      </trkpt>
      <trkpt lat="47.18669" lon="-1.59841">
        <ele>58</ele>
        <time>2021-07-19T17:45:55.000Z</time>
      </trkpt>
      <trkpt lat="47.18652" lon="-1.59844">
        <ele>58</ele>
        <time>2021-07-19T17:45:57.000Z</time>
      </trkpt>
      <trkpt lat="47.18637" lon="-1.59832">
        <ele>57</ele>
        <time>2021-07-19T17:45:59.000Z</time>
      </trkpt>
      <trkpt lat="47.18625" lon="-1.5983">
        <ele>57</ele>
        <time>2021-07-19T17:46:01.000Z</time>
      </trkpt>
      <trkpt lat="47.18617" lon="-1.5984">
        <ele>56</ele>
        <time>2021-07-19T17:46:03.000Z</time>
      </trkpt>
      <trkpt lat="47.18622" lon="-1.59857">
        <ele>56</ele>
        <time>2021-07-19T17:46:05.000Z</time>
      </trkpt>
      <trkpt lat="47.18623" lon="-1.59876">
        <ele>56</ele>
        <time>2021-07-19T17:46:07.000Z</time>
      </trkpt>
      <trkpt lat="47.18618" lon="-1.59896">
        <ele>56</ele>
        <time>2021-07-19T17:46:09.000Z</time>
      </trkpt>
      <trkpt lat="47.18613" lon="-1.59916">
        <ele>55</ele>
        <time>2021-07-19T17:46:11.000Z</time>
      </trkpt>
      <trkpt lat="47.18607" lon="-1.59935">
        <ele>55</ele>
        <time>2021-07-19T17:46:13.000Z</time>
      </trkpt>
      <trkpt lat="47.18601" lon="-1.59955">
        <ele>56</ele>
        <time>2021-07-19T17:46:15.000Z</time>
      </trkpt>
      <trkpt lat="47.18595" lon="-1.59975">
        <ele>56</ele>
        <time>2021-07-19T17:46:17.000Z</time>
      </trkpt>
      <trkpt lat="47.18589" lon="-1.59994">
        <ele>56</ele>
        <time>2021-07-19T17:46:19.000Z</time>
      </trkpt>
      <trkpt lat="47.18583" lon="-1.60012">
        <ele>57</ele>
        <time>2021-07-19T17:46:21.000Z</time>
      </trkpt>
      <trkpt lat="47.18577" lon="-1.6003">
        <ele>57</ele>
        <time>2021-07-19T17:46:23.000Z</time>
      </trkpt>
      <trkpt lat="47.1857" lon="-1.60049">
        <ele>57</ele>
        <time>2021-07-19T17:46:25.000Z</time>
      </trkpt>
      <trkpt lat="47.18563" lon="-1.60068">
        <ele>57</ele>
        <time>2021-07-19T17:46:27.000Z</time>
      </trkpt>
      <trkpt lat="47.18556" lon="-1.60087">
        <ele>57</ele>
        <time>2021-07-19T17:46:29.000Z</time>
      </trkpt>
      <trkpt lat="47.18549" lon="-1.60106">
        <ele>57</ele>
        <time>2021-07-19T17:46:31.000Z</time>
      </trkpt>
      <trkpt lat="47.18541" lon="-1.60124">
        <ele>57</ele>
        <time>2021-07-19T17:46:33.000Z</time>
      </trkpt>
      <trkpt lat="47.18533" lon="-1.60143">
        <ele>57</ele>
        <time>2021-07-19T17:46:35.000Z</time>
      </trkpt>
      <trkpt lat="47.18525" lon="-1.60161">
        <ele>57</ele>
        <time>2021-07-19T17:46:37.000Z</time>
      </trkpt>
      <trkpt lat="47.18516" lon="-1.60179">
        <ele>57</ele>
        <time>2021-07-19T17:46:39.000Z</time>
      </trkpt>
      <trkpt lat="47.18507" lon="-1.60198">
        <ele>57</ele>
        <time>2021-07-19T17:46:41.000Z</time>
      </trkpt>
      <trkpt lat="47.18498" lon="-1.60215">
        <ele>57</ele>
        <time>2021-07-19T17:46:43.000Z</time>
      </trkpt>
      <trkpt lat="47.18489" lon="-1.60232">
        <ele>57</ele>
        <time>2021-07-19T17:46:45.000Z</time>
      </trkpt>
      <trkpt lat="47.1848" lon="-1.60249">
        <ele>57</ele>
        <time>2021-07-19T17:46:47.000Z</time>
      </trkpt>
      <trkpt lat="47.18471" lon="-1.60266">
        <ele>57</ele>
        <time>2021-07-19T17:46:49.000Z</time>
      </trkpt>
      <trkpt lat="47.18461" lon="-1.60283">
        <ele>57</ele>
        <time>2021-07-19T17:46:51.000Z</time>
      </trkpt>
      <trkpt lat="47.18451" lon="-1.60299">
        <ele>57</ele>
        <time>2021-07-19T17:46:53.000Z</time>
      </trkpt>
      <trkpt lat="47.18441" lon="-1.60315">
        <ele>56</ele>
        <time>2021-07-19T17:46:55.000Z</time>
      </trkpt>
      <trkpt lat="47.18431" lon="-1.60332">
        <ele>56</ele>
        <time>2021-07-19T17:46:57.000Z</time>
      </trkpt>
      <trkpt lat="47.1842" lon="-1.60348">
        <ele>56</ele>
        <time>2021-07-19T17:46:59.000Z</time>
      </trkpt>
      <trkpt lat="47.1841" lon="-1.60363">
        <ele>56</ele>
        <time>2021-07-19T17:47:01.000Z</time>
      </trkpt>
      <trkpt lat="47.18399" lon="-1.60378">
        <ele>56</ele>
        <time>2021-07-19T17:47:03.000Z</time>
      </trkpt>
      <trkpt lat="47.18388" lon="-1.60393">
        <ele>56</ele>
        <time>2021-07-19T17:47:05.000Z</time>
      </trkpt>
      <trkpt lat="47.18376" lon="-1.60408">
        <ele>56</ele>
        <time>2021-07-19T17:47:07.000Z</time>
      </trkpt>
      <trkpt lat="47.18365" lon="-1.60422">
        <ele>56</ele>
        <time>2021-07-19T17:47:09.000Z</time>
      </trkpt>
      <trkpt lat="47.18354" lon="-1.60436">
        <ele>56</ele>
        <time>2021-07-19T17:47:11.000Z</time>
      </trkpt>
      <trkpt lat="47.18342" lon="-1.6045">
        <ele>56</ele>
        <time>2021-07-19T17:47:13.000Z</time>
      </trkpt>
      <trkpt lat="47.18331" lon="-1.60464">
        <ele>56</ele>
        <time>2021-07-19T17:47:15.000Z</time>
      </trkpt>
      <trkpt lat="47.18319" lon="-1.60478">
        <ele>57</ele>
        <time>2021-07-19T17:47:17.000Z</time>
      </trkpt>
      <trkpt lat="47.18308" lon="-1.6049">
        <ele>57</ele>
        <time>2021-07-19T17:47:19.000Z</time>
      </trkpt>
      <trkpt lat="47.18296" lon="-1.60503">
        <ele>57</ele>
        <time>2021-07-19T17:47:21.000Z</time>
      </trkpt>
      <trkpt lat="47.18284" lon="-1.60515">
        <ele>57</ele>
        <time>2021-07-19T17:47:23.000Z</time>
      </trkpt>
      <trkpt lat="47.18271" lon="-1.60527">
        <ele>57</ele>
        <time>2021-07-19T17:47:25.000Z</time>
      </trkpt>
      <trkpt lat="47.18259" lon="-1.60539">
        <ele>57</ele>
        <time>2021-07-19T17:47:27.000Z</time>
      </trkpt>
      <trkpt lat="47.18246" lon="-1.60549">
        <ele>57</ele>
        <time>2021-07-19T17:47:29.000Z</time>
      </trkpt>
      <trkpt lat="47.18234" lon="-1.60557">
        <ele>57</ele>
        <time>2021-07-19T17:47:31.000Z</time>
      </trkpt>
      <trkpt lat="47.18223" lon="-1.60564">
        <ele>57</ele>
        <time>2021-07-19T17:47:33.000Z</time>
      </trkpt>
      <trkpt lat="47.18211" lon="-1.6057">
        <ele>56</ele>
        <time>2021-07-19T17:47:35.000Z</time>
      </trkpt>
      <trkpt lat="47.182" lon="-1.60574">
        <ele>56</ele>
        <time>2021-07-19T17:47:37.000Z</time>
      </trkpt>
      <trkpt lat="47.18192" lon="-1.60583">
        <ele>56</ele>
        <time>2021-07-19T17:47:40.000Z</time>
      </trkpt>
      <trkpt lat="47.18184" lon="-1.60599">
        <ele>56</ele>
        <time>2021-07-19T17:47:43.000Z</time>
      </trkpt>
      <trkpt lat="47.18171" lon="-1.60602">
        <ele>56</ele>
        <time>2021-07-19T17:47:45.000Z</time>
      </trkpt>
      <trkpt lat="47.18158" lon="-1.60604">
        <ele>57</ele>
        <time>2021-07-19T17:47:47.000Z</time>
      </trkpt>
      <trkpt lat="47.18146" lon="-1.60603">
        <ele>57</ele>
        <time>2021-07-19T17:47:49.000Z</time>
      </trkpt>
      <trkpt lat="47.18133" lon="-1.60601">
        <ele>57</ele>
        <time>2021-07-19T17:47:51.000Z</time>
      </trkpt>
      <trkpt lat="47.1812" lon="-1.60598">
        <ele>57</ele>
        <time>2021-07-19T17:47:53.000Z</time>
      </trkpt>
      <trkpt lat="47.18106" lon="-1.60593">
        <ele>56</ele>
        <time>2021-07-19T17:47:55.000Z</time>
      </trkpt>
      <trkpt lat="47.18093" lon="-1.60587">
        <ele>56</ele>
        <time>2021-07-19T17:47:57.000Z</time>
      </trkpt>
      <trkpt lat="47.1808" lon="-1.6058">
        <ele>56</ele>
        <time>2021-07-19T17:47:59.000Z</time>
      </trkpt>
      <trkpt lat="47.18067" lon="-1.60574">
        <ele>56</ele>
        <time>2021-07-19T17:48:01.000Z</time>
      </trkpt>
      <trkpt lat="47.18048" lon="-1.60562">
        <ele>56</ele>
        <time>2021-07-19T17:48:04.000Z</time>
      </trkpt>
      <trkpt lat="47.18036" lon="-1.60557">
        <ele>56</ele>
        <time>2021-07-19T17:48:06.000Z</time>
      </trkpt>
      <trkpt lat="47.18017" lon="-1.60554">
        <ele>56</ele>
        <time>2021-07-19T17:48:09.000Z</time>
      </trkpt>
      <trkpt lat="47.18004" lon="-1.60556">
        <ele>56</ele>
        <time>2021-07-19T17:48:11.000Z</time>
      </trkpt>
      <trkpt lat="47.17991" lon="-1.6056">
        <ele>57</ele>
        <time>2021-07-19T17:48:13.000Z</time>
      </trkpt>
      <trkpt lat="47.17973" lon="-1.60567">
        <ele>57</ele>
        <time>2021-07-19T17:48:16.000Z</time>
      </trkpt>
      <trkpt lat="47.17958" lon="-1.60581">
        <ele>56</ele>
        <time>2021-07-19T17:48:19.000Z</time>
      </trkpt>
      <trkpt lat="47.17945" lon="-1.60583">
        <ele>57</ele>
        <time>2021-07-19T17:48:21.000Z</time>
      </trkpt>
      <trkpt lat="47.17934" lon="-1.60588">
        <ele>58</ele>
        <time>2021-07-19T17:48:23.000Z</time>
      </trkpt>
      <trkpt lat="47.17924" lon="-1.60588">
        <ele>58</ele>
        <time>2021-07-19T17:48:25.000Z</time>
      </trkpt>
      <trkpt lat="47.17914" lon="-1.60589">
        <ele>58</ele>
        <time>2021-07-19T17:48:27.000Z</time>
      </trkpt>
      <trkpt lat="47.17906" lon="-1.60599">
        <ele>58</ele>
        <time>2021-07-19T17:48:29.000Z</time>
      </trkpt>
      <trkpt lat="47.17903" lon="-1.6062">
        <ele>58</ele>
        <time>2021-07-19T17:48:31.000Z</time>
      </trkpt>
      <trkpt lat="47.17896" lon="-1.6064">
        <ele>58</ele>
        <time>2021-07-19T17:48:33.000Z</time>
      </trkpt>
      <trkpt lat="47.1789" lon="-1.60659">
        <ele>57</ele>
        <time>2021-07-19T17:48:35.000Z</time>
      </trkpt>
      <trkpt lat="47.17883" lon="-1.60679">
        <ele>57</ele>
        <time>2021-07-19T17:48:37.000Z</time>
      </trkpt>
      <trkpt lat="47.17877" lon="-1.60698">
        <ele>56</ele>
        <time>2021-07-19T17:48:39.000Z</time>
      </trkpt>
      <trkpt lat="47.17873" lon="-1.60718">
        <ele>56</ele>
        <time>2021-07-19T17:48:41.000Z</time>
      </trkpt>
      <trkpt lat="47.17867" lon="-1.60737">
        <ele>56</ele>
        <time>2021-07-19T17:48:43.000Z</time>
      </trkpt>
      <trkpt lat="47.17863" lon="-1.60757">
        <ele>56</ele>
        <time>2021-07-19T17:48:45.000Z</time>
      </trkpt>
      <trkpt lat="47.17858" lon="-1.60777">
        <ele>56</ele>
        <time>2021-07-19T17:48:47.000Z</time>
      </trkpt>
      <trkpt lat="47.17854" lon="-1.60796">
        <ele>56</ele>
        <time>2021-07-19T17:48:49.000Z</time>
      </trkpt>
      <trkpt lat="47.1785" lon="-1.60815">
        <ele>56</ele>
        <time>2021-07-19T17:48:51.000Z</time>
      </trkpt>
      <trkpt lat="47.17844" lon="-1.60834">
        <ele>56</ele>
        <time>2021-07-19T17:48:53.000Z</time>
      </trkpt>
      <trkpt lat="47.17837" lon="-1.60851">
        <ele>57</ele>
        <time>2021-07-19T17:48:55.000Z</time>
      </trkpt>
      <trkpt lat="47.17828" lon="-1.60867">
        <ele>57</ele>
        <time>2021-07-19T17:48:57.000Z</time>
      </trkpt>
      <trkpt lat="47.17819" lon="-1.60881">
        <ele>57</ele>
        <time>2021-07-19T17:48:59.000Z</time>
      </trkpt>
      <trkpt lat="47.17809" lon="-1.60894">
        <ele>57</ele>
        <time>2021-07-19T17:49:01.000Z</time>
      </trkpt>
      <trkpt lat="47.17797" lon="-1.60903">
        <ele>57</ele>
        <time>2021-07-19T17:49:03.000Z</time>
      </trkpt>
      <trkpt lat="47.17784" lon="-1.60912">
        <ele>57</ele>
        <time>2021-07-19T17:49:05.000Z</time>
      </trkpt>
      <trkpt lat="47.17772" lon="-1.60922">
        <ele>57</ele>
        <time>2021-07-19T17:49:07.000Z</time>
      </trkpt>
      <trkpt lat="47.1776" lon="-1.60931">
        <ele>57</ele>
        <time>2021-07-19T17:49:09.000Z</time>
      </trkpt>
      <trkpt lat="47.17749" lon="-1.6094">
        <ele>57</ele>
        <time>2021-07-19T17:49:11.000Z</time>
      </trkpt>
      <trkpt lat="47.17737" lon="-1.60949">
        <ele>57</ele>
        <time>2021-07-19T17:49:13.000Z</time>
      </trkpt>
      <trkpt lat="47.17724" lon="-1.60958">
        <ele>56</ele>
        <time>2021-07-19T17:49:15.000Z</time>
      </trkpt>
      <trkpt lat="47.17713" lon="-1.60966">
        <ele>56</ele>
        <time>2021-07-19T17:49:17.000Z</time>
      </trkpt>
      <trkpt lat="47.177" lon="-1.60972">
        <ele>56</ele>
        <time>2021-07-19T17:49:19.000Z</time>
      </trkpt>
      <trkpt lat="47.17687" lon="-1.60975">
        <ele>56</ele>
        <time>2021-07-19T17:49:21.000Z</time>
      </trkpt>
      <trkpt lat="47.17671" lon="-1.60971">
        <ele>54</ele>
        <time>2021-07-19T17:49:23.000Z</time>
      </trkpt>
      <trkpt lat="47.17656" lon="-1.60976">
        <ele>54</ele>
        <time>2021-07-19T17:49:25.000Z</time>
      </trkpt>
      <trkpt lat="47.17644" lon="-1.60987">
        <ele>54</ele>
        <time>2021-07-19T17:49:27.000Z</time>
      </trkpt>
      <trkpt lat="47.17631" lon="-1.60997">
        <ele>54</ele>
        <time>2021-07-19T17:49:29.000Z</time>
      </trkpt>
      <trkpt lat="47.17619" lon="-1.61008">
        <ele>54</ele>
        <time>2021-07-19T17:49:31.000Z</time>
      </trkpt>
      <trkpt lat="47.17608" lon="-1.61018">
        <ele>55</ele>
        <time>2021-07-19T17:49:33.000Z</time>
      </trkpt>
      <trkpt lat="47.17597" lon="-1.61029">
        <ele>55</ele>
        <time>2021-07-19T17:49:35.000Z</time>
      </trkpt>
      <trkpt lat="47.17585" lon="-1.61039">
        <ele>55</ele>
        <time>2021-07-19T17:49:37.000Z</time>
      </trkpt>
      <trkpt lat="47.17574" lon="-1.61048">
        <ele>55</ele>
        <time>2021-07-19T17:49:39.000Z</time>
      </trkpt>
      <trkpt lat="47.17562" lon="-1.61058">
        <ele>54</ele>
        <time>2021-07-19T17:49:41.000Z</time>
      </trkpt>
      <trkpt lat="47.1755" lon="-1.61067">
        <ele>54</ele>
        <time>2021-07-19T17:49:43.000Z</time>
      </trkpt>
      <trkpt lat="47.17538" lon="-1.61078">
        <ele>54</ele>
        <time>2021-07-19T17:49:45.000Z</time>
      </trkpt>
      <trkpt lat="47.17527" lon="-1.61088">
        <ele>55</ele>
        <time>2021-07-19T17:49:47.000Z</time>
      </trkpt>
      <trkpt lat="47.17516" lon="-1.61098">
        <ele>55</ele>
        <time>2021-07-19T17:49:49.000Z</time>
      </trkpt>
      <trkpt lat="47.17504" lon="-1.61104">
        <ele>55</ele>
        <time>2021-07-19T17:49:51.000Z</time>
      </trkpt>
      <trkpt lat="47.17491" lon="-1.61105">
        <ele>55</ele>
        <time>2021-07-19T17:49:53.000Z</time>
      </trkpt>
      <trkpt lat="47.17478" lon="-1.61103">
        <ele>56</ele>
        <time>2021-07-19T17:49:55.000Z</time>
      </trkpt>
      <trkpt lat="47.17467" lon="-1.61093">
        <ele>56</ele>
        <time>2021-07-19T17:49:57.000Z</time>
      </trkpt>
      <trkpt lat="47.17457" lon="-1.61084">
        <ele>57</ele>
        <time>2021-07-19T17:49:59.000Z</time>
      </trkpt>
      <trkpt lat="47.17449" lon="-1.61072">
        <ele>57</ele>
        <time>2021-07-19T17:50:01.000Z</time>
      </trkpt>
      <trkpt lat="47.17442" lon="-1.61059">
        <ele>57</ele>
        <time>2021-07-19T17:50:03.000Z</time>
      </trkpt>
      <trkpt lat="47.17437" lon="-1.61045">
        <ele>57</ele>
        <time>2021-07-19T17:50:05.000Z</time>
      </trkpt>
      <trkpt lat="47.17433" lon="-1.61032">
        <ele>57</ele>
        <time>2021-07-19T17:50:07.000Z</time>
      </trkpt>
      <trkpt lat="47.17428" lon="-1.61017">
        <ele>57</ele>
        <time>2021-07-19T17:50:10.000Z</time>
      </trkpt>
      <trkpt lat="47.17422" lon="-1.61031">
        <ele>58</ele>
        <time>2021-07-19T17:50:13.000Z</time>
      </trkpt>
      <trkpt lat="47.17424" lon="-1.61045">
        <ele>59</ele>
        <time>2021-07-19T17:50:15.000Z</time>
      </trkpt>
      <trkpt lat="47.17429" lon="-1.61059">
        <ele>59</ele>
        <time>2021-07-19T17:50:17.000Z</time>
      </trkpt>
      <trkpt lat="47.17435" lon="-1.61072">
        <ele>59</ele>
        <time>2021-07-19T17:50:19.000Z</time>
      </trkpt>
      <trkpt lat="47.17441" lon="-1.61086">
        <ele>60</ele>
        <time>2021-07-19T17:50:21.000Z</time>
      </trkpt>
      <trkpt lat="47.17447" lon="-1.61099">
        <ele>60</ele>
        <time>2021-07-19T17:50:23.000Z</time>
      </trkpt>
      <trkpt lat="47.17452" lon="-1.61113">
        <ele>61</ele>
        <time>2021-07-19T17:50:25.000Z</time>
      </trkpt>
      <trkpt lat="47.17458" lon="-1.61127">
        <ele>62</ele>
        <time>2021-07-19T17:50:27.000Z</time>
      </trkpt>
      <trkpt lat="47.17462" lon="-1.6114">
        <ele>62</ele>
        <time>2021-07-19T17:50:29.000Z</time>
      </trkpt>
      <trkpt lat="47.17468" lon="-1.61155">
        <ele>62</ele>
        <time>2021-07-19T17:50:31.000Z</time>
      </trkpt>
      <trkpt lat="47.17473" lon="-1.61168">
        <ele>62</ele>
        <time>2021-07-19T17:50:33.000Z</time>
      </trkpt>
      <trkpt lat="47.17479" lon="-1.61182">
        <ele>63</ele>
        <time>2021-07-19T17:50:35.000Z</time>
      </trkpt>
      <trkpt lat="47.17484" lon="-1.61195">
        <ele>63</ele>
        <time>2021-07-19T17:50:37.000Z</time>
      </trkpt>
      <trkpt lat="47.1749" lon="-1.61209">
        <ele>63</ele>
        <time>2021-07-19T17:50:39.000Z</time>
      </trkpt>
      <trkpt lat="47.17495" lon="-1.61222">
        <ele>63</ele>
        <time>2021-07-19T17:50:41.000Z</time>
      </trkpt>
      <trkpt lat="47.17501" lon="-1.61235">
        <ele>64</ele>
        <time>2021-07-19T17:50:43.000Z</time>
      </trkpt>
      <trkpt lat="47.17507" lon="-1.61248">
        <ele>64</ele>
        <time>2021-07-19T17:50:45.000Z</time>
      </trkpt>
      <trkpt lat="47.17514" lon="-1.6126">
        <ele>63</ele>
        <time>2021-07-19T17:50:47.000Z</time>
      </trkpt>
      <trkpt lat="47.17522" lon="-1.61272">
        <ele>63</ele>
        <time>2021-07-19T17:50:49.000Z</time>
      </trkpt>
      <trkpt lat="47.1753" lon="-1.61282">
        <ele>63</ele>
        <time>2021-07-19T17:50:51.000Z</time>
      </trkpt>
      <trkpt lat="47.17539" lon="-1.61291">
        <ele>63</ele>
        <time>2021-07-19T17:50:53.000Z</time>
      </trkpt>
      <trkpt lat="47.1755" lon="-1.61296">
        <ele>63</ele>
        <time>2021-07-19T17:50:55.000Z</time>
      </trkpt>
      <trkpt lat="47.17559" lon="-1.61305">
        <ele>63</ele>
        <time>2021-07-19T17:50:57.000Z</time>
      </trkpt>
      <trkpt lat="47.17562" lon="-1.61322">
        <ele>63</ele>
        <time>2021-07-19T17:50:59.000Z</time>
      </trkpt>
      <trkpt lat="47.17558" lon="-1.6134">
        <ele>63</ele>
        <time>2021-07-19T17:51:01.000Z</time>
      </trkpt>
      <trkpt lat="47.1755" lon="-1.61353">
        <ele>63</ele>
        <time>2021-07-19T17:51:03.000Z</time>
      </trkpt>
      <trkpt lat="47.1754" lon="-1.61362">
        <ele>62</ele>
        <time>2021-07-19T17:51:05.000Z</time>
      </trkpt>
      <trkpt lat="47.17532" lon="-1.61375">
        <ele>62</ele>
        <time>2021-07-19T17:51:07.000Z</time>
      </trkpt>
      <trkpt lat="47.17527" lon="-1.61392">
        <ele>62</ele>
        <time>2021-07-19T17:51:09.000Z</time>
      </trkpt>
      <trkpt lat="47.17523" lon="-1.61407">
        <ele>63</ele>
        <time>2021-07-19T17:51:11.000Z</time>
      </trkpt>
      <trkpt lat="47.1752" lon="-1.61423">
        <ele>64</ele>
        <time>2021-07-19T17:51:13.000Z</time>
      </trkpt>
      <trkpt lat="47.17517" lon="-1.61437">
        <ele>65</ele>
        <time>2021-07-19T17:51:15.000Z</time>
      </trkpt>
      <trkpt lat="47.17514" lon="-1.61452">
        <ele>66</ele>
        <time>2021-07-19T17:51:17.000Z</time>
      </trkpt>
      <trkpt lat="47.17506" lon="-1.61462">
        <ele>66</ele>
        <time>2021-07-19T17:51:19.000Z</time>
      </trkpt>
      <trkpt lat="47.17495" lon="-1.61468">
        <ele>67</ele>
        <time>2021-07-19T17:51:21.000Z</time>
      </trkpt>
      <trkpt lat="47.17483" lon="-1.61471">
        <ele>67</ele>
        <time>2021-07-19T17:51:23.000Z</time>
      </trkpt>
      <trkpt lat="47.17473" lon="-1.61476">
        <ele>68</ele>
        <time>2021-07-19T17:51:25.000Z</time>
      </trkpt>
      <trkpt lat="47.17462" lon="-1.6148">
        <ele>69</ele>
        <time>2021-07-19T17:51:27.000Z</time>
      </trkpt>
      <trkpt lat="47.17451" lon="-1.61485">
        <ele>69</ele>
        <time>2021-07-19T17:51:29.000Z</time>
      </trkpt>
      <trkpt lat="47.17441" lon="-1.61491">
        <ele>69</ele>
        <time>2021-07-19T17:51:31.000Z</time>
      </trkpt>
      <trkpt lat="47.17431" lon="-1.61498">
        <ele>70</ele>
        <time>2021-07-19T17:51:33.000Z</time>
      </trkpt>
      <trkpt lat="47.17421" lon="-1.61505">
        <ele>70</ele>
        <time>2021-07-19T17:51:35.000Z</time>
      </trkpt>
      <trkpt lat="47.17411" lon="-1.61512">
        <ele>70</ele>
        <time>2021-07-19T17:51:37.000Z</time>
      </trkpt>
      <trkpt lat="47.17402" lon="-1.61518">
        <ele>71</ele>
        <time>2021-07-19T17:51:39.000Z</time>
      </trkpt>
      <trkpt lat="47.17393" lon="-1.61525">
        <ele>72</ele>
        <time>2021-07-19T17:51:41.000Z</time>
      </trkpt>
      <trkpt lat="47.17384" lon="-1.61533">
        <ele>72</ele>
        <time>2021-07-19T17:51:43.000Z</time>
      </trkpt>
      <trkpt lat="47.17375" lon="-1.61543">
        <ele>73</ele>
        <time>2021-07-19T17:51:45.000Z</time>
      </trkpt>
      <trkpt lat="47.17366" lon="-1.61553">
        <ele>74</ele>
        <time>2021-07-19T17:51:47.000Z</time>
      </trkpt>
      <trkpt lat="47.17358" lon="-1.61562">
        <ele>74</ele>
        <time>2021-07-19T17:51:49.000Z</time>
      </trkpt>
      <trkpt lat="47.1735" lon="-1.61571">
        <ele>74</ele>
        <time>2021-07-19T17:51:51.000Z</time>
      </trkpt>
      <trkpt lat="47.17343" lon="-1.61581">
        <ele>74</ele>
        <time>2021-07-19T17:51:53.000Z</time>
      </trkpt>
      <trkpt lat="47.17335" lon="-1.61591">
        <ele>74</ele>
        <time>2021-07-19T17:51:55.000Z</time>
      </trkpt>
      <trkpt lat="47.17326" lon="-1.616">
        <ele>75</ele>
        <time>2021-07-19T17:51:57.000Z</time>
      </trkpt>
      <trkpt lat="47.17318" lon="-1.61611">
        <ele>75</ele>
        <time>2021-07-19T17:51:59.000Z</time>
      </trkpt>
      <trkpt lat="47.1731" lon="-1.61623">
        <ele>74</ele>
        <time>2021-07-19T17:52:01.000Z</time>
      </trkpt>
      <trkpt lat="47.17302" lon="-1.61635">
        <ele>73</ele>
        <time>2021-07-19T17:52:03.000Z</time>
      </trkpt>
      <trkpt lat="47.17295" lon="-1.61649">
        <ele>74</ele>
        <time>2021-07-19T17:52:05.000Z</time>
      </trkpt>
      <trkpt lat="47.17289" lon="-1.61663">
        <ele>74</ele>
        <time>2021-07-19T17:52:07.000Z</time>
      </trkpt>
      <trkpt lat="47.17282" lon="-1.61676">
        <ele>74</ele>
        <time>2021-07-19T17:52:09.000Z</time>
      </trkpt>
      <trkpt lat="47.17275" lon="-1.6169">
        <ele>74</ele>
        <time>2021-07-19T17:52:11.000Z</time>
      </trkpt>
      <trkpt lat="47.17268" lon="-1.61704">
        <ele>74</ele>
        <time>2021-07-19T17:52:13.000Z</time>
      </trkpt>
      <trkpt lat="47.17261" lon="-1.61717">
        <ele>73</ele>
        <time>2021-07-19T17:52:15.000Z</time>
      </trkpt>
      <trkpt lat="47.17253" lon="-1.61731">
        <ele>73</ele>
        <time>2021-07-19T17:52:17.000Z</time>
      </trkpt>
      <trkpt lat="47.17248" lon="-1.61747">
        <ele>72</ele>
        <time>2021-07-19T17:52:19.000Z</time>
      </trkpt>
      <trkpt lat="47.17245" lon="-1.61765">
        <ele>72</ele>
        <time>2021-07-19T17:52:21.000Z</time>
      </trkpt>
      <trkpt lat="47.17238" lon="-1.61781">
        <ele>72</ele>
        <time>2021-07-19T17:52:23.000Z</time>
      </trkpt>
      <trkpt lat="47.17227" lon="-1.61791">
        <ele>72</ele>
        <time>2021-07-19T17:52:25.000Z</time>
      </trkpt>
      <trkpt lat="47.17217" lon="-1.61801">
        <ele>71</ele>
        <time>2021-07-19T17:52:27.000Z</time>
      </trkpt>
      <trkpt lat="47.17206" lon="-1.61811">
        <ele>71</ele>
        <time>2021-07-19T17:52:29.000Z</time>
      </trkpt>
      <trkpt lat="47.17196" lon="-1.6182">
        <ele>71</ele>
        <time>2021-07-19T17:52:31.000Z</time>
      </trkpt>
      <trkpt lat="47.17186" lon="-1.61828">
        <ele>71</ele>
        <time>2021-07-19T17:52:33.000Z</time>
      </trkpt>
      <trkpt lat="47.17176" lon="-1.61838">
        <ele>72</ele>
        <time>2021-07-19T17:52:35.000Z</time>
      </trkpt>
      <trkpt lat="47.17165" lon="-1.61849">
        <ele>71</ele>
        <time>2021-07-19T17:52:37.000Z</time>
      </trkpt>
      <trkpt lat="47.17154" lon="-1.61859">
        <ele>71</ele>
        <time>2021-07-19T17:52:39.000Z</time>
      </trkpt>
      <trkpt lat="47.17144" lon="-1.61868">
        <ele>71</ele>
        <time>2021-07-19T17:52:41.000Z</time>
      </trkpt>
      <trkpt lat="47.17134" lon="-1.61878">
        <ele>71</ele>
        <time>2021-07-19T17:52:43.000Z</time>
      </trkpt>
      <trkpt lat="47.17123" lon="-1.61888">
        <ele>72</ele>
        <time>2021-07-19T17:52:45.000Z</time>
      </trkpt>
      <trkpt lat="47.17113" lon="-1.61898">
        <ele>72</ele>
        <time>2021-07-19T17:52:47.000Z</time>
      </trkpt>
      <trkpt lat="47.17102" lon="-1.61909">
        <ele>72</ele>
        <time>2021-07-19T17:52:49.000Z</time>
      </trkpt>
      <trkpt lat="47.17092" lon="-1.61919">
        <ele>71</ele>
        <time>2021-07-19T17:52:51.000Z</time>
      </trkpt>
      <trkpt lat="47.17082" lon="-1.61929">
        <ele>71</ele>
        <time>2021-07-19T17:52:53.000Z</time>
      </trkpt>
      <trkpt lat="47.17072" lon="-1.61939">
        <ele>71</ele>
        <time>2021-07-19T17:52:55.000Z</time>
      </trkpt>
      <trkpt lat="47.17062" lon="-1.6195">
        <ele>72</ele>
        <time>2021-07-19T17:52:57.000Z</time>
      </trkpt>
      <trkpt lat="47.17051" lon="-1.61962">
        <ele>72</ele>
        <time>2021-07-19T17:52:59.000Z</time>
      </trkpt>
      <trkpt lat="47.17042" lon="-1.61975">
        <ele>72</ele>
        <time>2021-07-19T17:53:01.000Z</time>
      </trkpt>
      <trkpt lat="47.17033" lon="-1.61989">
        <ele>71</ele>
        <time>2021-07-19T17:53:03.000Z</time>
      </trkpt>
      <trkpt lat="47.17025" lon="-1.62003">
        <ele>71</ele>
        <time>2021-07-19T17:53:05.000Z</time>
      </trkpt>
      <trkpt lat="47.17016" lon="-1.62017">
        <ele>72</ele>
        <time>2021-07-19T17:53:07.000Z</time>
      </trkpt>
      <trkpt lat="47.17007" lon="-1.6203">
        <ele>72</ele>
        <time>2021-07-19T17:53:09.000Z</time>
      </trkpt>
      <trkpt lat="47.16999" lon="-1.62045">
        <ele>72</ele>
        <time>2021-07-19T17:53:11.000Z</time>
      </trkpt>
      <trkpt lat="47.1699" lon="-1.6206">
        <ele>71</ele>
        <time>2021-07-19T17:53:13.000Z</time>
      </trkpt>
      <trkpt lat="47.16981" lon="-1.62076">
        <ele>72</ele>
        <time>2021-07-19T17:53:15.000Z</time>
      </trkpt>
      <trkpt lat="47.16972" lon="-1.62091">
        <ele>73</ele>
        <time>2021-07-19T17:53:17.000Z</time>
      </trkpt>
      <trkpt lat="47.16964" lon="-1.62107">
        <ele>72</ele>
        <time>2021-07-19T17:53:19.000Z</time>
      </trkpt>
      <trkpt lat="47.16955" lon="-1.62123">
        <ele>72</ele>
        <time>2021-07-19T17:53:21.000Z</time>
      </trkpt>
      <trkpt lat="47.16947" lon="-1.62139">
        <ele>72</ele>
        <time>2021-07-19T17:53:23.000Z</time>
      </trkpt>
      <trkpt lat="47.16939" lon="-1.62156">
        <ele>72</ele>
        <time>2021-07-19T17:53:25.000Z</time>
      </trkpt>
      <trkpt lat="47.16932" lon="-1.62172">
        <ele>73</ele>
        <time>2021-07-19T17:53:27.000Z</time>
      </trkpt>
      <trkpt lat="47.16923" lon="-1.62188">
        <ele>74</ele>
        <time>2021-07-19T17:53:29.000Z</time>
      </trkpt>
      <trkpt lat="47.16914" lon="-1.62204">
        <ele>74</ele>
        <time>2021-07-19T17:53:31.000Z</time>
      </trkpt>
      <trkpt lat="47.16905" lon="-1.62218">
        <ele>74</ele>
        <time>2021-07-19T17:53:33.000Z</time>
      </trkpt>
      <trkpt lat="47.16894" lon="-1.62231">
        <ele>73</ele>
        <time>2021-07-19T17:53:35.000Z</time>
      </trkpt>
      <trkpt lat="47.16884" lon="-1.62245">
        <ele>73</ele>
        <time>2021-07-19T17:53:37.000Z</time>
      </trkpt>
      <trkpt lat="47.16873" lon="-1.62257">
        <ele>73</ele>
        <time>2021-07-19T17:53:39.000Z</time>
      </trkpt>
      <trkpt lat="47.16863" lon="-1.6227">
        <ele>73</ele>
        <time>2021-07-19T17:53:41.000Z</time>
      </trkpt>
      <trkpt lat="47.16853" lon="-1.62283">
        <ele>73</ele>
        <time>2021-07-19T17:53:43.000Z</time>
      </trkpt>
      <trkpt lat="47.16842" lon="-1.62296">
        <ele>73</ele>
        <time>2021-07-19T17:53:45.000Z</time>
      </trkpt>
      <trkpt lat="47.16832" lon="-1.62307">
        <ele>73</ele>
        <time>2021-07-19T17:53:47.000Z</time>
      </trkpt>
      <trkpt lat="47.1682" lon="-1.62317">
        <ele>73</ele>
        <time>2021-07-19T17:53:49.000Z</time>
      </trkpt>
      <trkpt lat="47.16808" lon="-1.62324">
        <ele>73</ele>
        <time>2021-07-19T17:53:51.000Z</time>
      </trkpt>
      <trkpt lat="47.16796" lon="-1.62332">
        <ele>73</ele>
        <time>2021-07-19T17:53:53.000Z</time>
      </trkpt>
      <trkpt lat="47.16782" lon="-1.62339">
        <ele>72</ele>
        <time>2021-07-19T17:53:55.000Z</time>
      </trkpt>
      <trkpt lat="47.16769" lon="-1.62347">
        <ele>72</ele>
        <time>2021-07-19T17:53:57.000Z</time>
      </trkpt>
      <trkpt lat="47.16757" lon="-1.62356">
        <ele>72</ele>
        <time>2021-07-19T17:53:59.000Z</time>
      </trkpt>
      <trkpt lat="47.16746" lon="-1.62367">
        <ele>72</ele>
        <time>2021-07-19T17:54:01.000Z</time>
      </trkpt>
      <trkpt lat="47.16737" lon="-1.62384">
        <ele>72</ele>
        <time>2021-07-19T17:54:03.000Z</time>
      </trkpt>
      <trkpt lat="47.16732" lon="-1.62403">
        <ele>72</ele>
        <time>2021-07-19T17:54:05.000Z</time>
      </trkpt>
      <trkpt lat="47.16729" lon="-1.62422">
        <ele>71</ele>
        <time>2021-07-19T17:54:07.000Z</time>
      </trkpt>
      <trkpt lat="47.16726" lon="-1.62442">
        <ele>72</ele>
        <time>2021-07-19T17:54:09.000Z</time>
      </trkpt>
      <trkpt lat="47.16721" lon="-1.62461">
        <ele>71</ele>
        <time>2021-07-19T17:54:11.000Z</time>
      </trkpt>
      <trkpt lat="47.16717" lon="-1.6248">
        <ele>70</ele>
        <time>2021-07-19T17:54:13.000Z</time>
      </trkpt>
      <trkpt lat="47.1672" lon="-1.62495">
        <ele>69</ele>
        <time>2021-07-19T17:54:15.000Z</time>
      </trkpt>
      <trkpt lat="47.16734" lon="-1.625">
        <ele>69</ele>
        <time>2021-07-19T17:54:17.000Z</time>
      </trkpt>
      <trkpt lat="47.16746" lon="-1.62504">
        <ele>70</ele>
        <time>2021-07-19T17:54:19.000Z</time>
      </trkpt>
      <trkpt lat="47.16759" lon="-1.62511">
        <ele>71</ele>
        <time>2021-07-19T17:54:21.000Z</time>
      </trkpt>
      <trkpt lat="47.1677" lon="-1.62518">
        <ele>71</ele>
        <time>2021-07-19T17:54:23.000Z</time>
      </trkpt>
      <trkpt lat="47.16782" lon="-1.62525">
        <ele>73</ele>
        <time>2021-07-19T17:54:25.000Z</time>
      </trkpt>
      <trkpt lat="47.16794" lon="-1.62533">
        <ele>73</ele>
        <time>2021-07-19T17:54:27.000Z</time>
      </trkpt>
      <trkpt lat="47.16804" lon="-1.6254">
        <ele>72</ele>
        <time>2021-07-19T17:54:29.000Z</time>
      </trkpt>
      <trkpt lat="47.16815" lon="-1.62548">
        <ele>72</ele>
        <time>2021-07-19T17:54:31.000Z</time>
      </trkpt>
      <trkpt lat="47.16825" lon="-1.62559">
        <ele>73</ele>
        <time>2021-07-19T17:54:33.000Z</time>
      </trkpt>
      <trkpt lat="47.16832" lon="-1.62573">
        <ele>72</ele>
        <time>2021-07-19T17:54:35.000Z</time>
      </trkpt>
      <trkpt lat="47.16831" lon="-1.6259">
        <ele>73</ele>
        <time>2021-07-19T17:54:37.000Z</time>
      </trkpt>
      <trkpt lat="47.16821" lon="-1.62604">
        <ele>74</ele>
        <time>2021-07-19T17:54:39.000Z</time>
      </trkpt>
      <trkpt lat="47.16812" lon="-1.62617">
        <ele>75</ele>
        <time>2021-07-19T17:54:41.000Z</time>
      </trkpt>
      <trkpt lat="47.16804" lon="-1.6263">
        <ele>74</ele>
        <time>2021-07-19T17:54:43.000Z</time>
      </trkpt>
      <trkpt lat="47.16797" lon="-1.62643">
        <ele>74</ele>
        <time>2021-07-19T17:54:45.000Z</time>
      </trkpt>
      <trkpt lat="47.16791" lon="-1.62653">
        <ele>74</ele>
        <time>2021-07-19T17:54:47.000Z</time>
      </trkpt>
      <trkpt lat="47.16782" lon="-1.62661">
        <ele>73</ele>
        <time>2021-07-19T17:54:50.000Z</time>
      </trkpt>
    </trkseg>
  </trk>
</gpx>